<?xml version="1.0" encoding="UTF-8" standalone="no" ?>
<gpx xmlns="http://www.topografix.com/GPX/1/1" xmlns:xsi="http://www.w3.org/2001/XMLSchema-instance" xsi:schemaLocation="http://www.topografix.com/GPX/1/1 http://www.topografix.com/GPX/1/1/gpx.xsd" version="1.1" creator="VisuGPX - https://www.visugpx.com">
  <metadata>
    <name>Balade hivernale</name>
    <desc><![CDATA[Balade effectuée du 9 décembre 2022 au 7 janvier 2023.]]></desc>
  </metadata>
  <trk>
    <name><![CDATA[Mauvezin - Colomiers]]></name>
    <extensions>
      <line xmlns="http://www.topografix.com/GPX/gpx_style/0/2">
        <color>ff0000</color>
        <width>4</width>
      </line>
    </extensions>
    <trkseg>
      <trkpt lat="43.72828" lon="0.86152">
        <ele>203.032796</ele>
        <time>2023-01-03T09:11:16.581Z</time>
      </trkpt>
      <trkpt lat="43.72818" lon="0.86148">
        <ele>203.032796</ele>
        <time>2023-01-03T09:11:45.777Z</time>
      </trkpt>
      <trkpt lat="43.72807" lon="0.86152">
        <ele>203.032796</ele>
        <time>2023-01-03T09:12:10.774Z</time>
      </trkpt>
      <trkpt lat="43.72815" lon="0.86156">
        <ele>203.032796</ele>
        <time>2023-01-03T09:12:19.774Z</time>
      </trkpt>
      <trkpt lat="43.72827" lon="0.8616">
        <ele>203.032796</ele>
        <time>2023-01-03T09:12:23.787Z</time>
      </trkpt>
      <trkpt lat="43.72837" lon="0.8616">
        <ele>203.032796</ele>
        <time>2023-01-03T09:12:26.793Z</time>
      </trkpt>
      <trkpt lat="43.72847" lon="0.86156">
        <ele>203.032796</ele>
        <time>2023-01-03T09:12:39.770Z</time>
      </trkpt>
      <trkpt lat="43.72857" lon="0.86156">
        <ele>203.032796</ele>
        <time>2023-01-03T09:12:42.775Z</time>
      </trkpt>
      <trkpt lat="43.72871" lon="0.86153">
        <ele>203.032796</ele>
        <time>2023-01-03T09:12:45.794Z</time>
      </trkpt>
      <trkpt lat="43.72881" lon="0.86153">
        <ele>202.764478</ele>
        <time>2023-01-03T09:12:47.795Z</time>
      </trkpt>
      <trkpt lat="43.72891" lon="0.86153">
        <ele>202.387223</ele>
        <time>2023-01-03T09:12:49.788Z</time>
      </trkpt>
      <trkpt lat="43.72902" lon="0.86154">
        <ele>201.988018</ele>
        <time>2023-01-03T09:12:51.789Z</time>
      </trkpt>
      <trkpt lat="43.72913" lon="0.86154">
        <ele>201.600014</ele>
        <time>2023-01-03T09:12:53.792Z</time>
      </trkpt>
      <trkpt lat="43.72924" lon="0.86154">
        <ele>201.18219</ele>
        <time>2023-01-03T09:12:55.789Z</time>
      </trkpt>
      <trkpt lat="43.72934" lon="0.86155">
        <ele>200.80147</ele>
        <time>2023-01-03T09:12:57.766Z</time>
      </trkpt>
      <trkpt lat="43.72945" lon="0.86155">
        <ele>200.423854</ele>
        <time>2023-01-03T09:12:59.776Z</time>
      </trkpt>
      <trkpt lat="43.72955" lon="0.86156">
        <ele>200.039282</ele>
        <time>2023-01-03T09:13:01.792Z</time>
      </trkpt>
      <trkpt lat="43.72965" lon="0.86156">
        <ele>199.672897</ele>
        <time>2023-01-03T09:13:03.789Z</time>
      </trkpt>
      <trkpt lat="43.72975" lon="0.86157">
        <ele>199.328777</ele>
        <time>2023-01-03T09:13:05.787Z</time>
      </trkpt>
      <trkpt lat="43.72984" lon="0.86157">
        <ele>198.970056</ele>
        <time>2023-01-03T09:13:07.777Z</time>
      </trkpt>
      <trkpt lat="43.72994" lon="0.86157">
        <ele>198.625966</ele>
        <time>2023-01-03T09:13:09.792Z</time>
      </trkpt>
      <trkpt lat="43.73006" lon="0.86155">
        <ele>198.174215</ele>
        <time>2023-01-03T09:13:12.793Z</time>
      </trkpt>
      <trkpt lat="43.73015" lon="0.86156">
        <ele>197.843717</ele>
        <time>2023-01-03T09:13:15.774Z</time>
      </trkpt>
      <trkpt lat="43.73023" lon="0.86167">
        <ele>197.443691</ele>
        <time>2023-01-03T09:13:19.781Z</time>
      </trkpt>
      <trkpt lat="43.7303" lon="0.86179">
        <ele>197.029567</ele>
        <time>2023-01-03T09:13:35.767Z</time>
      </trkpt>
      <trkpt lat="43.73041" lon="0.86207">
        <ele>196.210086</ele>
        <time>2023-01-03T09:14:06.798Z</time>
      </trkpt>
      <trkpt lat="43.73048" lon="0.86222">
        <ele>195.75448</ele>
        <time>2023-01-03T09:14:09.792Z</time>
      </trkpt>
      <trkpt lat="43.73053" lon="0.86234">
        <ele>195.417626</ele>
        <time>2023-01-03T09:14:11.790Z</time>
      </trkpt>
      <trkpt lat="43.73059" lon="0.86246">
        <ele>195.071845</ele>
        <time>2023-01-03T09:14:13.791Z</time>
      </trkpt>
      <trkpt lat="43.73064" lon="0.86258">
        <ele>194.733803</ele>
        <time>2023-01-03T09:14:15.790Z</time>
      </trkpt>
      <trkpt lat="43.73069" lon="0.86271">
        <ele>194.365502</ele>
        <time>2023-01-03T09:14:17.777Z</time>
      </trkpt>
      <trkpt lat="43.73073" lon="0.86284">
        <ele>194.003349</ele>
        <time>2023-01-03T09:14:19.788Z</time>
      </trkpt>
      <trkpt lat="43.73079" lon="0.86297">
        <ele>193.630174</ele>
        <time>2023-01-03T09:14:21.795Z</time>
      </trkpt>
      <trkpt lat="43.73084" lon="0.86311">
        <ele>193.227529</ele>
        <time>2023-01-03T09:14:23.792Z</time>
      </trkpt>
      <trkpt lat="43.73091" lon="0.86326">
        <ele>192.806908</ele>
        <time>2023-01-03T09:14:25.786Z</time>
      </trkpt>
      <trkpt lat="43.73096" lon="0.86341">
        <ele>192.392464</ele>
        <time>2023-01-03T09:14:27.778Z</time>
      </trkpt>
      <trkpt lat="43.73102" lon="0.86355">
        <ele>191.980739</ele>
        <time>2023-01-03T09:14:29.796Z</time>
      </trkpt>
      <trkpt lat="43.73108" lon="0.86371">
        <ele>191.54585</ele>
        <time>2023-01-03T09:14:31.793Z</time>
      </trkpt>
      <trkpt lat="43.73114" lon="0.86387">
        <ele>191.115104</ele>
        <time>2023-01-03T09:14:33.795Z</time>
      </trkpt>
      <trkpt lat="43.7312" lon="0.86402">
        <ele>190.670798</ele>
        <time>2023-01-03T09:14:35.777Z</time>
      </trkpt>
      <trkpt lat="43.73126" lon="0.86418">
        <ele>190.190323</ele>
        <time>2023-01-03T09:14:37.795Z</time>
      </trkpt>
      <trkpt lat="43.73132" lon="0.86433">
        <ele>189.393248</ele>
        <time>2023-01-03T09:14:39.788Z</time>
      </trkpt>
      <trkpt lat="43.73138" lon="0.86449">
        <ele>188.616709</ele>
        <time>2023-01-03T09:14:41.793Z</time>
      </trkpt>
      <trkpt lat="43.73144" lon="0.86464">
        <ele>187.858797</ele>
        <time>2023-01-03T09:14:43.795Z</time>
      </trkpt>
      <trkpt lat="43.7315" lon="0.86478">
        <ele>187.129061</ele>
        <time>2023-01-03T09:14:45.776Z</time>
      </trkpt>
      <trkpt lat="43.73156" lon="0.86492">
        <ele>186.411301</ele>
        <time>2023-01-03T09:14:47.798Z</time>
      </trkpt>
      <trkpt lat="43.73161" lon="0.86506">
        <ele>185.711582</ele>
        <time>2023-01-03T09:14:49.771Z</time>
      </trkpt>
      <trkpt lat="43.73165" lon="0.86521">
        <ele>184.991377</ele>
        <time>2023-01-03T09:14:51.771Z</time>
      </trkpt>
      <trkpt lat="43.7317" lon="0.86536">
        <ele>184.255463</ele>
        <time>2023-01-03T09:14:53.793Z</time>
      </trkpt>
      <trkpt lat="43.73174" lon="0.86552">
        <ele>183.484456</ele>
        <time>2023-01-03T09:14:55.784Z</time>
      </trkpt>
      <trkpt lat="43.73178" lon="0.86569">
        <ele>182.710545</ele>
        <time>2023-01-03T09:14:57.778Z</time>
      </trkpt>
      <trkpt lat="43.73181" lon="0.86587">
        <ele>181.894851</ele>
        <time>2023-01-03T09:14:59.780Z</time>
      </trkpt>
      <trkpt lat="43.73182" lon="0.86607">
        <ele>180.998043</ele>
        <time>2023-01-03T09:15:01.771Z</time>
      </trkpt>
      <trkpt lat="43.73181" lon="0.8663">
        <ele>179.988503</ele>
        <time>2023-01-03T09:15:03.774Z</time>
      </trkpt>
      <trkpt lat="43.73179" lon="0.86652">
        <ele>179.152784</ele>
        <time>2023-01-03T09:15:05.792Z</time>
      </trkpt>
      <trkpt lat="43.73178" lon="0.86665">
        <ele>179.003683</ele>
        <time>2023-01-03T09:15:06.781Z</time>
      </trkpt>
      <trkpt lat="43.73178" lon="0.86678">
        <ele>178.848983</ele>
        <time>2023-01-03T09:15:07.787Z</time>
      </trkpt>
      <trkpt lat="43.73177" lon="0.86693">
        <ele>178.68391</ele>
        <time>2023-01-03T09:15:08.777Z</time>
      </trkpt>
      <trkpt lat="43.73177" lon="0.86708">
        <ele>178.512338</ele>
        <time>2023-01-03T09:15:09.772Z</time>
      </trkpt>
      <trkpt lat="43.73177" lon="0.86723">
        <ele>178.337336</ele>
        <time>2023-01-03T09:15:10.792Z</time>
      </trkpt>
      <trkpt lat="43.73176" lon="0.86739">
        <ele>178.149519</ele>
        <time>2023-01-03T09:15:11.784Z</time>
      </trkpt>
      <trkpt lat="43.73176" lon="0.86756">
        <ele>177.95599</ele>
        <time>2023-01-03T09:15:12.783Z</time>
      </trkpt>
      <trkpt lat="43.73175" lon="0.8678">
        <ele>177.690166</ele>
        <time>2023-01-03T09:15:14.789Z</time>
      </trkpt>
      <trkpt lat="43.73176" lon="0.86799">
        <ele>177.462768</ele>
        <time>2023-01-03T09:15:18.792Z</time>
      </trkpt>
      <trkpt lat="43.73175" lon="0.86819">
        <ele>177.242477</ele>
        <time>2023-01-03T09:15:20.778Z</time>
      </trkpt>
      <trkpt lat="43.73174" lon="0.86838">
        <ele>177.02267</ele>
        <time>2023-01-03T09:15:22.788Z</time>
      </trkpt>
      <trkpt lat="43.73174" lon="0.86856">
        <ele>176.816738</ele>
        <time>2023-01-03T09:15:24.774Z</time>
      </trkpt>
      <trkpt lat="43.73174" lon="0.86873">
        <ele>176.61528</ele>
        <time>2023-01-03T09:15:26.791Z</time>
      </trkpt>
      <trkpt lat="43.73173" lon="0.86891">
        <ele>176.41281</ele>
        <time>2023-01-03T09:15:28.797Z</time>
      </trkpt>
      <trkpt lat="43.73172" lon="0.86908">
        <ele>176.20245</ele>
        <time>2023-01-03T09:15:30.771Z</time>
      </trkpt>
      <trkpt lat="43.73172" lon="0.86924">
        <ele>176.005786</ele>
        <time>2023-01-03T09:15:32.790Z</time>
      </trkpt>
      <trkpt lat="43.73172" lon="0.8694">
        <ele>175.813878</ele>
        <time>2023-01-03T09:15:34.780Z</time>
      </trkpt>
      <trkpt lat="43.73171" lon="0.86955">
        <ele>175.623206</ele>
        <time>2023-01-03T09:15:36.785Z</time>
      </trkpt>
      <trkpt lat="43.73171" lon="0.86969">
        <ele>175.446199</ele>
        <time>2023-01-03T09:15:38.771Z</time>
      </trkpt>
      <trkpt lat="43.7317" lon="0.86985">
        <ele>175.259046</ele>
        <time>2023-01-03T09:15:40.786Z</time>
      </trkpt>
      <trkpt lat="43.7317" lon="0.86999">
        <ele>175.077023</ele>
        <time>2023-01-03T09:15:42.785Z</time>
      </trkpt>
      <trkpt lat="43.73169" lon="0.87013">
        <ele>174.904679</ele>
        <time>2023-01-03T09:15:44.793Z</time>
      </trkpt>
      <trkpt lat="43.73169" lon="0.87027">
        <ele>174.736384</ele>
        <time>2023-01-03T09:15:46.798Z</time>
      </trkpt>
      <trkpt lat="43.73168" lon="0.87045">
        <ele>174.507458</ele>
        <time>2023-01-03T09:15:49.770Z</time>
      </trkpt>
      <trkpt lat="43.73168" lon="0.87058">
        <ele>174.350365</ele>
        <time>2023-01-03T09:15:51.776Z</time>
      </trkpt>
      <trkpt lat="43.73167" lon="0.87076">
        <ele>174.129661</ele>
        <time>2023-01-03T09:15:54.792Z</time>
      </trkpt>
      <trkpt lat="43.73166" lon="0.8709">
        <ele>173.950165</ele>
        <time>2023-01-03T09:15:56.781Z</time>
      </trkpt>
      <trkpt lat="43.73165" lon="0.87103">
        <ele>173.78494</ele>
        <time>2023-01-03T09:15:58.789Z</time>
      </trkpt>
      <trkpt lat="43.73164" lon="0.87117">
        <ele>173.622331</ele>
        <time>2023-01-03T09:16:00.778Z</time>
      </trkpt>
      <trkpt lat="43.73164" lon="0.87129">
        <ele>173.462323</ele>
        <time>2023-01-03T09:16:02.793Z</time>
      </trkpt>
      <trkpt lat="43.73163" lon="0.87142">
        <ele>173.307561</ele>
        <time>2023-01-03T09:16:04.792Z</time>
      </trkpt>
      <trkpt lat="43.73162" lon="0.87159">
        <ele>173.098239</ele>
        <time>2023-01-03T09:16:07.774Z</time>
      </trkpt>
      <trkpt lat="43.73161" lon="0.87172">
        <ele>172.947905</ele>
        <time>2023-01-03T09:16:10.792Z</time>
      </trkpt>
      <trkpt lat="43.73156" lon="0.87188">
        <ele>172.738402</ele>
        <time>2023-01-03T09:16:13.772Z</time>
      </trkpt>
      <trkpt lat="43.73153" lon="0.87204">
        <ele>172.534061</ele>
        <time>2023-01-03T09:16:16.786Z</time>
      </trkpt>
      <trkpt lat="43.7315" lon="0.87217">
        <ele>172.376139</ele>
        <time>2023-01-03T09:16:20.776Z</time>
      </trkpt>
      <trkpt lat="43.73149" lon="0.87229">
        <ele>172.219225</ele>
        <time>2023-01-03T09:16:23.780Z</time>
      </trkpt>
      <trkpt lat="43.73147" lon="0.87242">
        <ele>172.066522</ele>
        <time>2023-01-03T09:16:26.790Z</time>
      </trkpt>
      <trkpt lat="43.73145" lon="0.87255">
        <ele>171.901683</ele>
        <time>2023-01-03T09:16:29.797Z</time>
      </trkpt>
      <trkpt lat="43.73143" lon="0.87269">
        <ele>171.737537</ele>
        <time>2023-01-03T09:16:31.793Z</time>
      </trkpt>
      <trkpt lat="43.73141" lon="0.87282">
        <ele>171.572698</ele>
        <time>2023-01-03T09:16:34.773Z</time>
      </trkpt>
      <trkpt lat="43.73138" lon="0.87298">
        <ele>171.375056</ele>
        <time>2023-01-03T09:16:38.798Z</time>
      </trkpt>
      <trkpt lat="43.73135" lon="0.87311">
        <ele>171.213188</ele>
        <time>2023-01-03T09:16:41.790Z</time>
      </trkpt>
      <trkpt lat="43.73132" lon="0.87326">
        <ele>171.02059</ele>
        <time>2023-01-03T09:16:44.787Z</time>
      </trkpt>
      <trkpt lat="43.7313" lon="0.87343">
        <ele>170.813565</ele>
        <time>2023-01-03T09:16:47.781Z</time>
      </trkpt>
      <trkpt lat="43.73127" lon="0.8736">
        <ele>170.606894</ele>
        <time>2023-01-03T09:16:50.797Z</time>
      </trkpt>
      <trkpt lat="43.73125" lon="0.87377">
        <ele>170.399047</ele>
        <time>2023-01-03T09:16:53.794Z</time>
      </trkpt>
      <trkpt lat="43.73122" lon="0.87395">
        <ele>170.372443</ele>
        <time>2023-01-03T09:16:56.781Z</time>
      </trkpt>
      <trkpt lat="43.73112" lon="0.87408">
        <ele>170.541511</ele>
        <time>2023-01-03T09:16:59.772Z</time>
      </trkpt>
      <trkpt lat="43.73104" lon="0.87413">
        <ele>170.657925</ele>
        <time>2023-01-03T09:17:01.772Z</time>
      </trkpt>
      <trkpt lat="43.73091" lon="0.87417">
        <ele>170.820547</ele>
        <time>2023-01-03T09:17:04.781Z</time>
      </trkpt>
      <trkpt lat="43.73079" lon="0.87421">
        <ele>170.986479</ele>
        <time>2023-01-03T09:17:07.779Z</time>
      </trkpt>
      <trkpt lat="43.73066" lon="0.87425">
        <ele>171.153491</ele>
        <time>2023-01-03T09:17:10.792Z</time>
      </trkpt>
      <trkpt lat="43.73053" lon="0.87426">
        <ele>171.3173</ele>
        <time>2023-01-03T09:17:13.770Z</time>
      </trkpt>
      <trkpt lat="43.73041" lon="0.87423">
        <ele>171.474945</ele>
        <time>2023-01-03T09:17:16.773Z</time>
      </trkpt>
      <trkpt lat="43.73028" lon="0.8742">
        <ele>171.643461</ele>
        <time>2023-01-03T09:17:19.778Z</time>
      </trkpt>
      <trkpt lat="43.73018" lon="0.87418">
        <ele>171.761652</ele>
        <time>2023-01-03T09:17:21.777Z</time>
      </trkpt>
      <trkpt lat="43.73009" lon="0.87416">
        <ele>171.879843</ele>
        <time>2023-01-03T09:17:23.790Z</time>
      </trkpt>
      <trkpt lat="43.73" lon="0.87415">
        <ele>171.998779</ele>
        <time>2023-01-03T09:17:25.786Z</time>
      </trkpt>
      <trkpt lat="43.72991" lon="0.87414">
        <ele>172.114327</ele>
        <time>2023-01-03T09:17:27.790Z</time>
      </trkpt>
      <trkpt lat="43.72982" lon="0.87415">
        <ele>172.228993</ele>
        <time>2023-01-03T09:17:29.778Z</time>
      </trkpt>
      <trkpt lat="43.72968" lon="0.87416">
        <ele>172.404421</ele>
        <time>2023-01-03T09:17:32.792Z</time>
      </trkpt>
      <trkpt lat="43.72959" lon="0.87417">
        <ele>172.524071</ele>
        <time>2023-01-03T09:17:34.799Z</time>
      </trkpt>
      <trkpt lat="43.72949" lon="0.87419">
        <ele>172.613874</ele>
        <time>2023-01-03T09:17:36.794Z</time>
      </trkpt>
      <trkpt lat="43.72936" lon="0.87421">
        <ele>172.711878</ele>
        <time>2023-01-03T09:17:39.795Z</time>
      </trkpt>
      <trkpt lat="43.72923" lon="0.87422">
        <ele>172.805167</ele>
        <time>2023-01-03T09:17:42.793Z</time>
      </trkpt>
      <trkpt lat="43.7291" lon="0.87423">
        <ele>172.897544</ele>
        <time>2023-01-03T09:17:45.792Z</time>
      </trkpt>
      <trkpt lat="43.72898" lon="0.87424">
        <ele>172.991693</ele>
        <time>2023-01-03T09:17:48.794Z</time>
      </trkpt>
      <trkpt lat="43.72884" lon="0.87426">
        <ele>173.089491</ele>
        <time>2023-01-03T09:17:51.787Z</time>
      </trkpt>
      <trkpt lat="43.72871" lon="0.87427">
        <ele>173.189233</ele>
        <time>2023-01-03T09:17:54.794Z</time>
      </trkpt>
      <trkpt lat="43.7286" lon="0.87428">
        <ele>173.267967</ele>
        <time>2023-01-03T09:17:56.796Z</time>
      </trkpt>
      <trkpt lat="43.72851" lon="0.87428">
        <ele>173.334638</ele>
        <time>2023-01-03T09:17:58.793Z</time>
      </trkpt>
      <trkpt lat="43.72837" lon="0.87429">
        <ele>173.437978</ele>
        <time>2023-01-03T09:18:01.768Z</time>
      </trkpt>
      <trkpt lat="43.72824" lon="0.87431">
        <ele>173.530158</ele>
        <time>2023-01-03T09:18:04.787Z</time>
      </trkpt>
      <trkpt lat="43.72812" lon="0.87431">
        <ele>173.623231</ele>
        <time>2023-01-03T09:18:07.794Z</time>
      </trkpt>
      <trkpt lat="43.72801" lon="0.87432">
        <ele>173.704717</ele>
        <time>2023-01-03T09:18:10.770Z</time>
      </trkpt>
      <trkpt lat="43.72789" lon="0.87434">
        <ele>173.792411</ele>
        <time>2023-01-03T09:18:13.780Z</time>
      </trkpt>
      <trkpt lat="43.72777" lon="0.87436">
        <ele>173.877318</ele>
        <time>2023-01-03T09:18:16.791Z</time>
      </trkpt>
      <trkpt lat="43.72765" lon="0.87436">
        <ele>174.14511</ele>
        <time>2023-01-03T09:18:19.790Z</time>
      </trkpt>
      <trkpt lat="43.72753" lon="0.87438">
        <ele>174.423025</ele>
        <time>2023-01-03T09:18:22.771Z</time>
      </trkpt>
      <trkpt lat="43.72741" lon="0.87439">
        <ele>174.705338</ele>
        <time>2023-01-03T09:18:25.779Z</time>
      </trkpt>
      <trkpt lat="43.72732" lon="0.8744">
        <ele>174.92722</ele>
        <time>2023-01-03T09:18:28.791Z</time>
      </trkpt>
      <trkpt lat="43.72721" lon="0.87441">
        <ele>175.187519</ele>
        <time>2023-01-03T09:18:31.770Z</time>
      </trkpt>
      <trkpt lat="43.72711" lon="0.87441">
        <ele>175.42901</ele>
        <time>2023-01-03T09:18:34.791Z</time>
      </trkpt>
      <trkpt lat="43.727" lon="0.87442">
        <ele>175.696556</ele>
        <time>2023-01-03T09:18:37.789Z</time>
      </trkpt>
      <trkpt lat="43.72689" lon="0.8744">
        <ele>175.970555</ele>
        <time>2023-01-03T09:18:40.791Z</time>
      </trkpt>
      <trkpt lat="43.72677" lon="0.87438">
        <ele>176.244554</ele>
        <time>2023-01-03T09:18:43.784Z</time>
      </trkpt>
      <trkpt lat="43.72666" lon="0.87436">
        <ele>176.512839</ele>
        <time>2023-01-03T09:18:46.795Z</time>
      </trkpt>
      <trkpt lat="43.72655" lon="0.87433">
        <ele>176.791385</ele>
        <time>2023-01-03T09:18:49.775Z</time>
      </trkpt>
      <trkpt lat="43.72643" lon="0.87429">
        <ele>177.066357</ele>
        <time>2023-01-03T09:18:52.793Z</time>
      </trkpt>
      <trkpt lat="43.72632" lon="0.87426">
        <ele>177.337117</ele>
        <time>2023-01-03T09:18:55.793Z</time>
      </trkpt>
      <trkpt lat="43.72621" lon="0.87422">
        <ele>177.617914</ele>
        <time>2023-01-03T09:18:58.771Z</time>
      </trkpt>
      <trkpt lat="43.7261" lon="0.87418">
        <ele>177.884456</ele>
        <time>2023-01-03T09:19:01.794Z</time>
      </trkpt>
      <trkpt lat="43.726" lon="0.87414">
        <ele>178.147287</ele>
        <time>2023-01-03T09:19:04.792Z</time>
      </trkpt>
      <trkpt lat="43.72588" lon="0.87409">
        <ele>178.375555</ele>
        <time>2023-01-03T09:19:07.771Z</time>
      </trkpt>
      <trkpt lat="43.72577" lon="0.87404">
        <ele>178.574421</ele>
        <time>2023-01-03T09:19:10.770Z</time>
      </trkpt>
      <trkpt lat="43.72565" lon="0.874">
        <ele>178.785174</ele>
        <time>2023-01-03T09:19:13.791Z</time>
      </trkpt>
      <trkpt lat="43.72554" lon="0.87395">
        <ele>178.998951</ele>
        <time>2023-01-03T09:19:16.792Z</time>
      </trkpt>
      <trkpt lat="43.72542" lon="0.87391">
        <ele>179.218208</ele>
        <time>2023-01-03T09:19:19.795Z</time>
      </trkpt>
      <trkpt lat="43.72529" lon="0.87386">
        <ele>179.439096</ele>
        <time>2023-01-03T09:19:22.791Z</time>
      </trkpt>
      <trkpt lat="43.72518" lon="0.87381">
        <ele>179.653407</ele>
        <time>2023-01-03T09:19:25.793Z</time>
      </trkpt>
      <trkpt lat="43.72506" lon="0.87374">
        <ele>179.884904</ele>
        <time>2023-01-03T09:19:28.793Z</time>
      </trkpt>
      <trkpt lat="43.72498" lon="0.87368">
        <ele>180.0452</ele>
        <time>2023-01-03T09:19:30.794Z</time>
      </trkpt>
      <trkpt lat="43.7249" lon="0.87362">
        <ele>180.205496</ele>
        <time>2023-01-03T09:19:32.792Z</time>
      </trkpt>
      <trkpt lat="43.72478" lon="0.87354">
        <ele>180.432497</ele>
        <time>2023-01-03T09:19:35.783Z</time>
      </trkpt>
      <trkpt lat="43.72468" lon="0.87346">
        <ele>180.634563</ele>
        <time>2023-01-03T09:19:38.769Z</time>
      </trkpt>
      <trkpt lat="43.72458" lon="0.87344">
        <ele>180.820849</ele>
        <time>2023-01-03T09:19:41.787Z</time>
      </trkpt>
      <trkpt lat="43.72448" lon="0.87348">
        <ele>180.99112</ele>
        <time>2023-01-03T09:19:44.773Z</time>
      </trkpt>
      <trkpt lat="43.7244" lon="0.87357">
        <ele>181.176135</ele>
        <time>2023-01-03T09:19:48.793Z</time>
      </trkpt>
      <trkpt lat="43.72429" lon="0.87358">
        <ele>181.359811</ele>
        <time>2023-01-03T09:19:52.774Z</time>
      </trkpt>
      <trkpt lat="43.7242" lon="0.87351">
        <ele>181.507769</ele>
        <time>2023-01-03T09:19:55.774Z</time>
      </trkpt>
      <trkpt lat="43.7241" lon="0.87344">
        <ele>181.669858</ele>
        <time>2023-01-03T09:19:58.774Z</time>
      </trkpt>
      <trkpt lat="43.724" lon="0.87335">
        <ele>181.849163</ele>
        <time>2023-01-03T09:20:01.796Z</time>
      </trkpt>
      <trkpt lat="43.72389" lon="0.87326">
        <ele>182.028468</ele>
        <time>2023-01-03T09:20:04.791Z</time>
      </trkpt>
      <trkpt lat="43.72379" lon="0.87317">
        <ele>182.200163</ele>
        <time>2023-01-03T09:20:07.771Z</time>
      </trkpt>
      <trkpt lat="43.72371" lon="0.87309">
        <ele>182.349937</ele>
        <time>2023-01-03T09:20:10.787Z</time>
      </trkpt>
      <trkpt lat="43.72364" lon="0.87297">
        <ele>182.505662</ele>
        <time>2023-01-03T09:20:14.790Z</time>
      </trkpt>
      <trkpt lat="43.72357" lon="0.87288">
        <ele>182.639134</ele>
        <time>2023-01-03T09:20:18.789Z</time>
      </trkpt>
      <trkpt lat="43.72346" lon="0.87293">
        <ele>182.810223</ele>
        <time>2023-01-03T09:20:22.780Z</time>
      </trkpt>
      <trkpt lat="43.72343" lon="0.87306">
        <ele>182.955275</ele>
        <time>2023-01-03T09:20:25.778Z</time>
      </trkpt>
      <trkpt lat="43.72341" lon="0.8732">
        <ele>183.105305</ele>
        <time>2023-01-03T09:20:28.773Z</time>
      </trkpt>
      <trkpt lat="43.72337" lon="0.87332">
        <ele>183.241169</ele>
        <time>2023-01-03T09:20:31.774Z</time>
      </trkpt>
      <trkpt lat="43.72332" lon="0.87343">
        <ele>183.372801</ele>
        <time>2023-01-03T09:20:34.794Z</time>
      </trkpt>
      <trkpt lat="43.72327" lon="0.87354">
        <ele>183.511607</ele>
        <time>2023-01-03T09:20:37.787Z</time>
      </trkpt>
      <trkpt lat="43.72322" lon="0.87365">
        <ele>183.642678</ele>
        <time>2023-01-03T09:20:40.791Z</time>
      </trkpt>
      <trkpt lat="43.72317" lon="0.87375">
        <ele>183.773012</ele>
        <time>2023-01-03T09:20:49.781Z</time>
      </trkpt>
      <trkpt lat="43.72319" lon="0.87375">
        <ele>183.796152</ele>
        <time>2023-01-03T09:21:13.879Z</time>
      </trkpt>
      <trkpt lat="43.72321" lon="0.87381">
        <ele>183.874142</ele>
        <time>2023-01-03T09:50:41.258Z</time>
      </trkpt>
      <trkpt lat="43.72335" lon="0.8738">
        <ele>183.744695</ele>
        <time>2023-01-03T09:50:51.787Z</time>
      </trkpt>
      <trkpt lat="43.72339" lon="0.87366">
        <ele>183.497569</ele>
        <time>2023-01-03T09:50:55.788Z</time>
      </trkpt>
      <trkpt lat="43.72339" lon="0.87354">
        <ele>183.289532</ele>
        <time>2023-01-03T09:50:58.777Z</time>
      </trkpt>
      <trkpt lat="43.72339" lon="0.87341">
        <ele>183.071766</ele>
        <time>2023-01-03T09:51:02.775Z</time>
      </trkpt>
      <trkpt lat="43.72343" lon="0.87329">
        <ele>182.851201</ele>
        <time>2023-01-03T09:51:06.781Z</time>
      </trkpt>
      <trkpt lat="43.7235" lon="0.8732">
        <ele>182.631637</ele>
        <time>2023-01-03T09:51:09.788Z</time>
      </trkpt>
      <trkpt lat="43.72362" lon="0.87318">
        <ele>182.361204</ele>
        <time>2023-01-03T09:51:12.783Z</time>
      </trkpt>
      <trkpt lat="43.72373" lon="0.87327">
        <ele>182.077348</ele>
        <time>2023-01-03T09:51:15.782Z</time>
      </trkpt>
      <trkpt lat="43.72385" lon="0.87336">
        <ele>181.765833</ele>
        <time>2023-01-03T09:51:18.786Z</time>
      </trkpt>
      <trkpt lat="43.72393" lon="0.87343">
        <ele>181.554994</ele>
        <time>2023-01-03T09:51:20.781Z</time>
      </trkpt>
      <trkpt lat="43.72404" lon="0.87351">
        <ele>181.253385</ele>
        <time>2023-01-03T09:51:23.784Z</time>
      </trkpt>
      <trkpt lat="43.72415" lon="0.87358">
        <ele>180.986738</ele>
        <time>2023-01-03T09:51:26.784Z</time>
      </trkpt>
      <trkpt lat="43.72424" lon="0.87366">
        <ele>180.742052</ele>
        <time>2023-01-03T09:51:29.788Z</time>
      </trkpt>
      <trkpt lat="43.72432" lon="0.87373">
        <ele>180.521033</ele>
        <time>2023-01-03T09:51:32.794Z</time>
      </trkpt>
      <trkpt lat="43.7244" lon="0.87379">
        <ele>180.313078</ele>
        <time>2023-01-03T09:51:35.775Z</time>
      </trkpt>
      <trkpt lat="43.72449" lon="0.87385">
        <ele>180.085862</ele>
        <time>2023-01-03T09:51:38.792Z</time>
      </trkpt>
      <trkpt lat="43.72457" lon="0.87393">
        <ele>179.847153</ele>
        <time>2023-01-03T09:51:41.782Z</time>
      </trkpt>
      <trkpt lat="43.72465" lon="0.87402">
        <ele>179.824894</ele>
        <time>2023-01-03T09:51:44.788Z</time>
      </trkpt>
      <trkpt lat="43.72474" lon="0.87411">
        <ele>179.833154</ele>
        <time>2023-01-03T09:51:48.780Z</time>
      </trkpt>
      <trkpt lat="43.72482" lon="0.87419">
        <ele>179.840842</ele>
        <time>2023-01-03T09:51:52.800Z</time>
      </trkpt>
      <trkpt lat="43.72491" lon="0.8743">
        <ele>179.850361</ele>
        <time>2023-01-03T09:51:56.793Z</time>
      </trkpt>
      <trkpt lat="43.72499" lon="0.87439">
        <ele>179.858313</ele>
        <time>2023-01-03T09:51:59.780Z</time>
      </trkpt>
      <trkpt lat="43.72506" lon="0.87448">
        <ele>179.866096</ele>
        <time>2023-01-03T09:52:02.788Z</time>
      </trkpt>
      <trkpt lat="43.72514" lon="0.87456">
        <ele>179.87354</ele>
        <time>2023-01-03T09:52:05.780Z</time>
      </trkpt>
      <trkpt lat="43.72521" lon="0.87465">
        <ele>179.880993</ele>
        <time>2023-01-03T09:52:08.794Z</time>
      </trkpt>
      <trkpt lat="43.72527" lon="0.87474">
        <ele>179.888419</ele>
        <time>2023-01-03T09:52:11.788Z</time>
      </trkpt>
      <trkpt lat="43.72535" lon="0.87484">
        <ele>179.896468</ele>
        <time>2023-01-03T09:52:14.788Z</time>
      </trkpt>
      <trkpt lat="43.72542" lon="0.87493">
        <ele>179.904252</ele>
        <time>2023-01-03T09:52:17.778Z</time>
      </trkpt>
      <trkpt lat="43.72549" lon="0.87501">
        <ele>179.911371</ele>
        <time>2023-01-03T09:52:20.784Z</time>
      </trkpt>
      <trkpt lat="43.72556" lon="0.87509">
        <ele>179.918689</ele>
        <time>2023-01-03T09:52:23.789Z</time>
      </trkpt>
      <trkpt lat="43.72563" lon="0.87517">
        <ele>179.925808</ele>
        <time>2023-01-03T09:52:26.798Z</time>
      </trkpt>
      <trkpt lat="43.72571" lon="0.87526">
        <ele>179.933364</ele>
        <time>2023-01-03T09:52:29.788Z</time>
      </trkpt>
      <trkpt lat="43.7258" lon="0.87537">
        <ele>179.942778</ele>
        <time>2023-01-03T09:52:33.796Z</time>
      </trkpt>
      <trkpt lat="43.72588" lon="0.87547">
        <ele>179.951674</ele>
        <time>2023-01-03T09:52:37.795Z</time>
      </trkpt>
      <trkpt lat="43.72596" lon="0.87555">
        <ele>179.992852</ele>
        <time>2023-01-03T09:52:41.781Z</time>
      </trkpt>
      <trkpt lat="43.72604" lon="0.87565">
        <ele>180.476947</ele>
        <time>2023-01-03T09:52:45.784Z</time>
      </trkpt>
      <trkpt lat="43.72612" lon="0.87574">
        <ele>180.965076</ele>
        <time>2023-01-03T09:52:49.789Z</time>
      </trkpt>
      <trkpt lat="43.7262" lon="0.87583">
        <ele>181.428344</ele>
        <time>2023-01-03T09:52:53.796Z</time>
      </trkpt>
      <trkpt lat="43.72628" lon="0.87592">
        <ele>181.891806</ele>
        <time>2023-01-03T09:52:57.782Z</time>
      </trkpt>
      <trkpt lat="43.72636" lon="0.87601">
        <ele>182.362347</ele>
        <time>2023-01-03T09:53:01.786Z</time>
      </trkpt>
      <trkpt lat="43.72643" lon="0.87609">
        <ele>182.822921</ele>
        <time>2023-01-03T09:53:05.794Z</time>
      </trkpt>
      <trkpt lat="43.7265" lon="0.87618">
        <ele>183.249895</ele>
        <time>2023-01-03T09:53:09.775Z</time>
      </trkpt>
      <trkpt lat="43.72657" lon="0.87627">
        <ele>183.69276</ele>
        <time>2023-01-03T09:53:13.781Z</time>
      </trkpt>
      <trkpt lat="43.72664" lon="0.87635">
        <ele>184.121237</ele>
        <time>2023-01-03T09:53:17.774Z</time>
      </trkpt>
      <trkpt lat="43.72672" lon="0.87644">
        <ele>184.566318</ele>
        <time>2023-01-03T09:53:21.789Z</time>
      </trkpt>
      <trkpt lat="43.72678" lon="0.87652">
        <ele>184.997682</ele>
        <time>2023-01-03T09:53:25.795Z</time>
      </trkpt>
      <trkpt lat="43.72686" lon="0.8766">
        <ele>185.417703</ele>
        <time>2023-01-03T09:53:29.789Z</time>
      </trkpt>
      <trkpt lat="43.72692" lon="0.87668">
        <ele>185.841296</ele>
        <time>2023-01-03T09:53:33.795Z</time>
      </trkpt>
      <trkpt lat="43.72701" lon="0.87678">
        <ele>186.334648</ele>
        <time>2023-01-03T09:53:38.795Z</time>
      </trkpt>
      <trkpt lat="43.72708" lon="0.87687">
        <ele>186.797799</ele>
        <time>2023-01-03T09:53:43.795Z</time>
      </trkpt>
      <trkpt lat="43.72716" lon="0.87697">
        <ele>187.284777</ele>
        <time>2023-01-03T09:53:48.778Z</time>
      </trkpt>
      <trkpt lat="43.72724" lon="0.87706">
        <ele>187.785299</ele>
        <time>2023-01-03T09:53:53.778Z</time>
      </trkpt>
      <trkpt lat="43.72731" lon="0.87715">
        <ele>188.214584</ele>
        <time>2023-01-03T09:53:57.779Z</time>
      </trkpt>
      <trkpt lat="43.72739" lon="0.87725">
        <ele>188.575289</ele>
        <time>2023-01-03T09:54:02.780Z</time>
      </trkpt>
      <trkpt lat="43.72746" lon="0.87734">
        <ele>188.862333</ele>
        <time>2023-01-03T09:54:06.790Z</time>
      </trkpt>
      <trkpt lat="43.72753" lon="0.87743">
        <ele>189.158337</ele>
        <time>2023-01-03T09:54:10.802Z</time>
      </trkpt>
      <trkpt lat="43.72761" lon="0.87751">
        <ele>189.448582</ele>
        <time>2023-01-03T09:54:14.783Z</time>
      </trkpt>
      <trkpt lat="43.72768" lon="0.8776">
        <ele>189.752085</ele>
        <time>2023-01-03T09:54:18.777Z</time>
      </trkpt>
      <trkpt lat="43.72775" lon="0.8777">
        <ele>190.052749</ele>
        <time>2023-01-03T09:54:22.780Z</time>
      </trkpt>
      <trkpt lat="43.72782" lon="0.87778">
        <ele>190.33171</ele>
        <time>2023-01-03T09:54:26.799Z</time>
      </trkpt>
      <trkpt lat="43.7279" lon="0.87785">
        <ele>190.621516</ele>
        <time>2023-01-03T09:54:30.797Z</time>
      </trkpt>
      <trkpt lat="43.72798" lon="0.87792">
        <ele>190.896278</ele>
        <time>2023-01-03T09:54:34.798Z</time>
      </trkpt>
      <trkpt lat="43.72808" lon="0.87799">
        <ele>191.231528</ele>
        <time>2023-01-03T09:54:39.778Z</time>
      </trkpt>
      <trkpt lat="43.72816" lon="0.87803">
        <ele>191.514882</ele>
        <time>2023-01-03T09:54:43.786Z</time>
      </trkpt>
      <trkpt lat="43.72827" lon="0.87803">
        <ele>191.844435</ele>
        <time>2023-01-03T09:54:48.786Z</time>
      </trkpt>
      <trkpt lat="43.72837" lon="0.87799">
        <ele>192.156778</ele>
        <time>2023-01-03T09:54:55.786Z</time>
      </trkpt>
      <trkpt lat="43.72845" lon="0.87794">
        <ele>192.440305</ele>
        <time>2023-01-03T09:54:59.778Z</time>
      </trkpt>
      <trkpt lat="43.72855" lon="0.87789">
        <ele>192.742358</ele>
        <time>2023-01-03T09:55:03.795Z</time>
      </trkpt>
      <trkpt lat="43.72865" lon="0.87784">
        <ele>193.062561</ele>
        <time>2023-01-03T09:55:07.788Z</time>
      </trkpt>
      <trkpt lat="43.72874" lon="0.87779">
        <ele>193.374781</ele>
        <time>2023-01-03T09:55:11.790Z</time>
      </trkpt>
      <trkpt lat="43.72883" lon="0.87773">
        <ele>193.676851</ele>
        <time>2023-01-03T09:55:15.800Z</time>
      </trkpt>
      <trkpt lat="43.72892" lon="0.87767">
        <ele>194.133834</ele>
        <time>2023-01-03T09:55:19.791Z</time>
      </trkpt>
      <trkpt lat="43.72901" lon="0.8776">
        <ele>194.654185</ele>
        <time>2023-01-03T09:55:23.791Z</time>
      </trkpt>
      <trkpt lat="43.72909" lon="0.87755">
        <ele>195.162932</ele>
        <time>2023-01-03T09:55:27.795Z</time>
      </trkpt>
      <trkpt lat="43.72918" lon="0.87752">
        <ele>195.654264</ele>
        <time>2023-01-03T09:55:31.805Z</time>
      </trkpt>
      <trkpt lat="43.72929" lon="0.8775">
        <ele>196.237859</ele>
        <time>2023-01-03T09:55:35.783Z</time>
      </trkpt>
      <trkpt lat="43.72938" lon="0.8775">
        <ele>196.744728</ele>
        <time>2023-01-03T09:55:39.782Z</time>
      </trkpt>
      <trkpt lat="43.72948" lon="0.87751">
        <ele>197.259003</ele>
        <time>2023-01-03T09:55:43.791Z</time>
      </trkpt>
      <trkpt lat="43.72958" lon="0.87752">
        <ele>197.78995</ele>
        <time>2023-01-03T09:55:47.799Z</time>
      </trkpt>
      <trkpt lat="43.72968" lon="0.87754">
        <ele>198.307911</ele>
        <time>2023-01-03T09:55:51.785Z</time>
      </trkpt>
      <trkpt lat="43.72977" lon="0.87756">
        <ele>198.813209</ele>
        <time>2023-01-03T09:55:55.786Z</time>
      </trkpt>
      <trkpt lat="43.72986" lon="0.87759">
        <ele>199.311987</ele>
        <time>2023-01-03T09:55:59.787Z</time>
      </trkpt>
      <trkpt lat="43.72994" lon="0.87767">
        <ele>199.849501</ele>
        <time>2023-01-03T09:56:03.786Z</time>
      </trkpt>
      <trkpt lat="43.73003" lon="0.87777">
        <ele>200.443198</ele>
        <time>2023-01-03T09:56:07.797Z</time>
      </trkpt>
      <trkpt lat="43.7301" lon="0.87786">
        <ele>200.960846</ele>
        <time>2023-01-03T09:56:10.785Z</time>
      </trkpt>
      <trkpt lat="43.73017" lon="0.87796">
        <ele>201.495564</ele>
        <time>2023-01-03T09:56:13.794Z</time>
      </trkpt>
      <trkpt lat="43.73024" lon="0.87805">
        <ele>201.979638</ele>
        <time>2023-01-03T09:56:16.797Z</time>
      </trkpt>
      <trkpt lat="43.73029" lon="0.87818">
        <ele>202.566442</ele>
        <time>2023-01-03T09:56:20.778Z</time>
      </trkpt>
      <trkpt lat="43.73024" lon="0.8783">
        <ele>203.117169</ele>
        <time>2023-01-03T09:56:24.776Z</time>
      </trkpt>
      <trkpt lat="43.73016" lon="0.87839">
        <ele>203.714001</ele>
        <time>2023-01-03T09:56:28.795Z</time>
      </trkpt>
      <trkpt lat="43.73009" lon="0.8785">
        <ele>204.345623</ele>
        <time>2023-01-03T09:56:32.780Z</time>
      </trkpt>
      <trkpt lat="43.73002" lon="0.87862">
        <ele>205.000099</ele>
        <time>2023-01-03T09:56:36.781Z</time>
      </trkpt>
      <trkpt lat="43.72996" lon="0.87872">
        <ele>205.594588</ele>
        <time>2023-01-03T09:56:40.798Z</time>
      </trkpt>
      <trkpt lat="43.7299" lon="0.87883">
        <ele>206.203659</ele>
        <time>2023-01-03T09:56:44.796Z</time>
      </trkpt>
      <trkpt lat="43.72984" lon="0.87893">
        <ele>206.804613</ele>
        <time>2023-01-03T09:56:48.790Z</time>
      </trkpt>
      <trkpt lat="43.72978" lon="0.87904">
        <ele>207.387202</ele>
        <time>2023-01-03T09:56:52.798Z</time>
      </trkpt>
      <trkpt lat="43.72974" lon="0.87915">
        <ele>207.956114</ele>
        <time>2023-01-03T09:56:56.787Z</time>
      </trkpt>
      <trkpt lat="43.72968" lon="0.87929">
        <ele>208.625823</ele>
        <time>2023-01-03T09:57:02.779Z</time>
      </trkpt>
      <trkpt lat="43.72964" lon="0.8794">
        <ele>209.195701</ele>
        <time>2023-01-03T09:57:06.781Z</time>
      </trkpt>
      <trkpt lat="43.72959" lon="0.87953">
        <ele>209.838308</ele>
        <time>2023-01-03T09:57:10.795Z</time>
      </trkpt>
      <trkpt lat="43.72954" lon="0.87967">
        <ele>210.530291</ele>
        <time>2023-01-03T09:57:15.794Z</time>
      </trkpt>
      <trkpt lat="43.72949" lon="0.87979">
        <ele>211.132781</ele>
        <time>2023-01-03T09:57:19.789Z</time>
      </trkpt>
      <trkpt lat="43.72945" lon="0.87991">
        <ele>211.732639</ele>
        <time>2023-01-03T09:57:23.796Z</time>
      </trkpt>
      <trkpt lat="43.72941" lon="0.88004">
        <ele>212.319355</ele>
        <time>2023-01-03T09:57:27.797Z</time>
      </trkpt>
      <trkpt lat="43.72936" lon="0.88015">
        <ele>212.916438</ele>
        <time>2023-01-03T09:57:31.797Z</time>
      </trkpt>
      <trkpt lat="43.72931" lon="0.88027">
        <ele>213.53105</ele>
        <time>2023-01-03T09:57:35.798Z</time>
      </trkpt>
      <trkpt lat="43.72927" lon="0.8804">
        <ele>214.154073</ele>
        <time>2023-01-03T09:57:39.796Z</time>
      </trkpt>
      <trkpt lat="43.72923" lon="0.88052">
        <ele>214.630664</ele>
        <time>2023-01-03T09:57:43.798Z</time>
      </trkpt>
      <trkpt lat="43.72919" lon="0.88064">
        <ele>215.037419</ele>
        <time>2023-01-03T09:57:47.789Z</time>
      </trkpt>
      <trkpt lat="43.72914" lon="0.88076">
        <ele>215.470099</ele>
        <time>2023-01-03T09:57:51.803Z</time>
      </trkpt>
      <trkpt lat="43.7291" lon="0.88087">
        <ele>215.864373</ele>
        <time>2023-01-03T09:57:55.788Z</time>
      </trkpt>
      <trkpt lat="43.72905" lon="0.88099">
        <ele>216.294679</ele>
        <time>2023-01-03T09:57:59.794Z</time>
      </trkpt>
      <trkpt lat="43.729" lon="0.88111">
        <ele>216.741747</ele>
        <time>2023-01-03T09:58:03.801Z</time>
      </trkpt>
      <trkpt lat="43.72895" lon="0.88123">
        <ele>217.177922</ele>
        <time>2023-01-03T09:58:07.795Z</time>
      </trkpt>
      <trkpt lat="43.7289" lon="0.88136">
        <ele>217.618623</ele>
        <time>2023-01-03T09:58:11.797Z</time>
      </trkpt>
      <trkpt lat="43.72885" lon="0.88147">
        <ele>218.061619</ele>
        <time>2023-01-03T09:58:15.795Z</time>
      </trkpt>
      <trkpt lat="43.7288" lon="0.8816">
        <ele>218.496783</ele>
        <time>2023-01-03T09:58:19.779Z</time>
      </trkpt>
      <trkpt lat="43.72876" lon="0.88172">
        <ele>218.935302</ele>
        <time>2023-01-03T09:58:23.787Z</time>
      </trkpt>
      <trkpt lat="43.72872" lon="0.88185">
        <ele>219.370812</ele>
        <time>2023-01-03T09:58:27.785Z</time>
      </trkpt>
      <trkpt lat="43.72867" lon="0.88197">
        <ele>219.808743</ele>
        <time>2023-01-03T09:58:31.787Z</time>
      </trkpt>
      <trkpt lat="43.72862" lon="0.88209">
        <ele>220.248777</ele>
        <time>2023-01-03T09:58:35.796Z</time>
      </trkpt>
      <trkpt lat="43.72858" lon="0.88221">
        <ele>220.678637</ele>
        <time>2023-01-03T09:58:39.796Z</time>
      </trkpt>
      <trkpt lat="43.72853" lon="0.88233">
        <ele>221.103414</ele>
        <time>2023-01-03T09:58:43.789Z</time>
      </trkpt>
      <trkpt lat="43.72847" lon="0.88244">
        <ele>221.540379</ele>
        <time>2023-01-03T09:58:47.799Z</time>
      </trkpt>
      <trkpt lat="43.72842" lon="0.88257">
        <ele>221.995834</ele>
        <time>2023-01-03T09:58:51.777Z</time>
      </trkpt>
      <trkpt lat="43.72837" lon="0.8827">
        <ele>222.168259</ele>
        <time>2023-01-03T09:58:55.790Z</time>
      </trkpt>
      <trkpt lat="43.72832" lon="0.88283">
        <ele>222.116519</ele>
        <time>2023-01-03T09:58:59.800Z</time>
      </trkpt>
      <trkpt lat="43.72827" lon="0.88297">
        <ele>222.060183</ele>
        <time>2023-01-03T09:59:03.799Z</time>
      </trkpt>
      <trkpt lat="43.72822" lon="0.88308">
        <ele>222.014145</ele>
        <time>2023-01-03T09:59:06.785Z</time>
      </trkpt>
      <trkpt lat="43.72818" lon="0.88322">
        <ele>221.963477</ele>
        <time>2023-01-03T09:59:09.799Z</time>
      </trkpt>
      <trkpt lat="43.72814" lon="0.88335">
        <ele>221.913127</ele>
        <time>2023-01-03T09:59:12.795Z</time>
      </trkpt>
      <trkpt lat="43.72809" lon="0.88348">
        <ele>221.860701</ele>
        <time>2023-01-03T09:59:15.798Z</time>
      </trkpt>
      <trkpt lat="43.72804" lon="0.88362">
        <ele>221.806101</ele>
        <time>2023-01-03T09:59:18.783Z</time>
      </trkpt>
      <trkpt lat="43.728" lon="0.88376">
        <ele>221.752187</ele>
        <time>2023-01-03T09:59:21.796Z</time>
      </trkpt>
      <trkpt lat="43.72796" lon="0.88388">
        <ele>221.702801</ele>
        <time>2023-01-03T09:59:24.799Z</time>
      </trkpt>
      <trkpt lat="43.72791" lon="0.884">
        <ele>221.657449</ele>
        <time>2023-01-03T09:59:27.789Z</time>
      </trkpt>
      <trkpt lat="43.72787" lon="0.88411">
        <ele>221.611558</ele>
        <time>2023-01-03T09:59:30.788Z</time>
      </trkpt>
      <trkpt lat="43.72783" lon="0.88424">
        <ele>221.562811</ele>
        <time>2023-01-03T09:59:33.798Z</time>
      </trkpt>
      <trkpt lat="43.72778" lon="0.88436">
        <ele>221.513579</ele>
        <time>2023-01-03T09:59:36.781Z</time>
      </trkpt>
      <trkpt lat="43.72773" lon="0.88447">
        <ele>221.465499</ele>
        <time>2023-01-03T09:59:39.789Z</time>
      </trkpt>
      <trkpt lat="43.72766" lon="0.88458">
        <ele>221.413602</ele>
        <time>2023-01-03T09:59:43.788Z</time>
      </trkpt>
      <trkpt lat="43.72757" lon="0.88463">
        <ele>221.36622</ele>
        <time>2023-01-03T09:59:48.792Z</time>
      </trkpt>
      <trkpt lat="43.72757" lon="0.88464">
        <ele>221.361578</ele>
        <time>2023-01-03T09:59:54.368Z</time>
      </trkpt>
      <trkpt lat="43.72763" lon="0.88453">
        <ele>221.288054</ele>
        <time>2023-01-03T10:01:57.788Z</time>
      </trkpt>
      <trkpt lat="43.72758" lon="0.88466">
        <ele>220.774224</ele>
        <time>2023-01-03T10:02:02.787Z</time>
      </trkpt>
      <trkpt lat="43.72754" lon="0.88482">
        <ele>220.189917</ele>
        <time>2023-01-03T10:02:06.783Z</time>
      </trkpt>
      <trkpt lat="43.72751" lon="0.88498">
        <ele>219.624447</ele>
        <time>2023-01-03T10:02:09.790Z</time>
      </trkpt>
      <trkpt lat="43.72748" lon="0.88513">
        <ele>219.096277</ele>
        <time>2023-01-03T10:02:12.782Z</time>
      </trkpt>
      <trkpt lat="43.72746" lon="0.88529">
        <ele>218.555713</ele>
        <time>2023-01-03T10:02:15.801Z</time>
      </trkpt>
      <trkpt lat="43.72747" lon="0.88545">
        <ele>218.009907</ele>
        <time>2023-01-03T10:02:18.790Z</time>
      </trkpt>
      <trkpt lat="43.72748" lon="0.8856">
        <ele>217.484788</ele>
        <time>2023-01-03T10:02:21.784Z</time>
      </trkpt>
      <trkpt lat="43.72752" lon="0.88575">
        <ele>216.936219</ele>
        <time>2023-01-03T10:02:24.783Z</time>
      </trkpt>
      <trkpt lat="43.72758" lon="0.8859">
        <ele>216.364157</ele>
        <time>2023-01-03T10:02:27.785Z</time>
      </trkpt>
      <trkpt lat="43.72766" lon="0.88603">
        <ele>215.786817</ele>
        <time>2023-01-03T10:02:30.787Z</time>
      </trkpt>
      <trkpt lat="43.72775" lon="0.88612">
        <ele>215.263988</ele>
        <time>2023-01-03T10:02:33.800Z</time>
      </trkpt>
      <trkpt lat="43.72785" lon="0.88621">
        <ele>214.703616</ele>
        <time>2023-01-03T10:02:36.796Z</time>
      </trkpt>
      <trkpt lat="43.72797" lon="0.88628">
        <ele>214.101028</ele>
        <time>2023-01-03T10:02:39.788Z</time>
      </trkpt>
      <trkpt lat="43.72808" lon="0.88636">
        <ele>213.496993</ele>
        <time>2023-01-03T10:02:42.800Z</time>
      </trkpt>
      <trkpt lat="43.72817" lon="0.88642">
        <ele>213.056277</ele>
        <time>2023-01-03T10:02:44.789Z</time>
      </trkpt>
      <trkpt lat="43.72825" lon="0.88649">
        <ele>212.515019</ele>
        <time>2023-01-03T10:02:46.800Z</time>
      </trkpt>
      <trkpt lat="43.72833" lon="0.88657">
        <ele>211.879847</ele>
        <time>2023-01-03T10:02:48.791Z</time>
      </trkpt>
      <trkpt lat="43.72842" lon="0.88664">
        <ele>211.233238</ele>
        <time>2023-01-03T10:02:50.804Z</time>
      </trkpt>
      <trkpt lat="43.7285" lon="0.88674">
        <ele>210.57239</ele>
        <time>2023-01-03T10:02:52.781Z</time>
      </trkpt>
      <trkpt lat="43.72858" lon="0.88684">
        <ele>209.875006</ele>
        <time>2023-01-03T10:02:54.804Z</time>
      </trkpt>
      <trkpt lat="43.72865" lon="0.88697">
        <ele>209.11378</ele>
        <time>2023-01-03T10:02:56.781Z</time>
      </trkpt>
      <trkpt lat="43.72874" lon="0.8871">
        <ele>208.30422</ele>
        <time>2023-01-03T10:02:58.784Z</time>
      </trkpt>
      <trkpt lat="43.7288" lon="0.88725">
        <ele>207.5282</ele>
        <time>2023-01-03T10:03:00.797Z</time>
      </trkpt>
      <trkpt lat="43.72887" lon="0.88739">
        <ele>206.716727</ele>
        <time>2023-01-03T10:03:02.794Z</time>
      </trkpt>
      <trkpt lat="43.72895" lon="0.88755">
        <ele>205.871443</ele>
        <time>2023-01-03T10:03:04.781Z</time>
      </trkpt>
      <trkpt lat="43.72902" lon="0.8877">
        <ele>205.00742</ele>
        <time>2023-01-03T10:03:06.802Z</time>
      </trkpt>
      <trkpt lat="43.72909" lon="0.88786">
        <ele>204.164241</ele>
        <time>2023-01-03T10:03:08.802Z</time>
      </trkpt>
      <trkpt lat="43.72917" lon="0.88803">
        <ele>203.24812</ele>
        <time>2023-01-03T10:03:10.795Z</time>
      </trkpt>
      <trkpt lat="43.72925" lon="0.88819">
        <ele>202.358838</ele>
        <time>2023-01-03T10:03:12.800Z</time>
      </trkpt>
      <trkpt lat="43.72933" lon="0.88836">
        <ele>201.45329</ele>
        <time>2023-01-03T10:03:14.781Z</time>
      </trkpt>
      <trkpt lat="43.7294" lon="0.88852">
        <ele>200.92311</ele>
        <time>2023-01-03T10:03:16.790Z</time>
      </trkpt>
      <trkpt lat="43.72947" lon="0.88869">
        <ele>200.36626</ele>
        <time>2023-01-03T10:03:18.797Z</time>
      </trkpt>
      <trkpt lat="43.72954" lon="0.88885">
        <ele>199.794197</ele>
        <time>2023-01-03T10:03:20.791Z</time>
      </trkpt>
      <trkpt lat="43.72963" lon="0.88901">
        <ele>199.249109</ele>
        <time>2023-01-03T10:03:22.782Z</time>
      </trkpt>
      <trkpt lat="43.72971" lon="0.88917">
        <ele>198.675961</ele>
        <time>2023-01-03T10:03:24.802Z</time>
      </trkpt>
      <trkpt lat="43.72977" lon="0.88935">
        <ele>198.111197</ele>
        <time>2023-01-03T10:03:26.798Z</time>
      </trkpt>
      <trkpt lat="43.72985" lon="0.88951">
        <ele>197.555537</ele>
        <time>2023-01-03T10:03:28.802Z</time>
      </trkpt>
      <trkpt lat="43.72993" lon="0.88969">
        <ele>196.95555</ele>
        <time>2023-01-03T10:03:30.804Z</time>
      </trkpt>
      <trkpt lat="43.73" lon="0.88985">
        <ele>196.386232</ele>
        <time>2023-01-03T10:03:32.797Z</time>
      </trkpt>
      <trkpt lat="43.73009" lon="0.89002">
        <ele>195.778261</ele>
        <time>2023-01-03T10:03:34.783Z</time>
      </trkpt>
      <trkpt lat="43.73017" lon="0.89019">
        <ele>195.209947</ele>
        <time>2023-01-03T10:03:36.797Z</time>
      </trkpt>
      <trkpt lat="43.73023" lon="0.89037">
        <ele>194.644656</ele>
        <time>2023-01-03T10:03:38.779Z</time>
      </trkpt>
      <trkpt lat="43.73028" lon="0.89056">
        <ele>194.101486</ele>
        <time>2023-01-03T10:03:40.789Z</time>
      </trkpt>
      <trkpt lat="43.73031" lon="0.89075">
        <ele>193.601896</ele>
        <time>2023-01-03T10:03:42.785Z</time>
      </trkpt>
      <trkpt lat="43.73033" lon="0.89094">
        <ele>193.110721</ele>
        <time>2023-01-03T10:03:44.790Z</time>
      </trkpt>
      <trkpt lat="43.73033" lon="0.89111">
        <ele>192.670378</ele>
        <time>2023-01-03T10:03:46.789Z</time>
      </trkpt>
      <trkpt lat="43.73033" lon="0.8913">
        <ele>192.204977</ele>
        <time>2023-01-03T10:03:48.781Z</time>
      </trkpt>
      <trkpt lat="43.73031" lon="0.89148">
        <ele>191.744668</ele>
        <time>2023-01-03T10:03:50.789Z</time>
      </trkpt>
      <trkpt lat="43.73029" lon="0.89165">
        <ele>191.306906</ele>
        <time>2023-01-03T10:03:52.790Z</time>
      </trkpt>
      <trkpt lat="43.73028" lon="0.89182">
        <ele>190.878209</ele>
        <time>2023-01-03T10:03:54.779Z</time>
      </trkpt>
      <trkpt lat="43.73026" lon="0.89199">
        <ele>190.439049</ele>
        <time>2023-01-03T10:03:56.800Z</time>
      </trkpt>
      <trkpt lat="43.73025" lon="0.89216">
        <ele>190.007133</ele>
        <time>2023-01-03T10:03:58.801Z</time>
      </trkpt>
      <trkpt lat="43.73024" lon="0.89231">
        <ele>189.604667</ele>
        <time>2023-01-03T10:04:00.786Z</time>
      </trkpt>
      <trkpt lat="43.73023" lon="0.89247">
        <ele>189.212019</ele>
        <time>2023-01-03T10:04:02.797Z</time>
      </trkpt>
      <trkpt lat="43.73022" lon="0.89262">
        <ele>188.820397</ele>
        <time>2023-01-03T10:04:04.781Z</time>
      </trkpt>
      <trkpt lat="43.73023" lon="0.89278">
        <ele>188.415083</ele>
        <time>2023-01-03T10:04:06.798Z</time>
      </trkpt>
      <trkpt lat="43.73025" lon="0.89293">
        <ele>188.025671</ele>
        <time>2023-01-03T10:04:08.781Z</time>
      </trkpt>
      <trkpt lat="43.73026" lon="0.8931">
        <ele>187.377318</ele>
        <time>2023-01-03T10:04:10.799Z</time>
      </trkpt>
      <trkpt lat="43.73027" lon="0.89327">
        <ele>186.700097</ele>
        <time>2023-01-03T10:04:12.804Z</time>
      </trkpt>
      <trkpt lat="43.7303" lon="0.89343">
        <ele>186.059763</ele>
        <time>2023-01-03T10:04:14.803Z</time>
      </trkpt>
      <trkpt lat="43.73032" lon="0.8936">
        <ele>185.391425</ele>
        <time>2023-01-03T10:04:16.784Z</time>
      </trkpt>
      <trkpt lat="43.73033" lon="0.89377">
        <ele>184.695225</ele>
        <time>2023-01-03T10:04:18.800Z</time>
      </trkpt>
      <trkpt lat="43.73034" lon="0.89395">
        <ele>184.005193</ele>
        <time>2023-01-03T10:04:20.800Z</time>
      </trkpt>
      <trkpt lat="43.73035" lon="0.89412">
        <ele>183.307801</ele>
        <time>2023-01-03T10:04:22.794Z</time>
      </trkpt>
      <trkpt lat="43.73036" lon="0.89429">
        <ele>182.651302</ele>
        <time>2023-01-03T10:04:24.786Z</time>
      </trkpt>
      <trkpt lat="43.73038" lon="0.89447">
        <ele>181.953215</ele>
        <time>2023-01-03T10:04:26.798Z</time>
      </trkpt>
      <trkpt lat="43.7304" lon="0.89464">
        <ele>181.248618</ele>
        <time>2023-01-03T10:04:28.790Z</time>
      </trkpt>
      <trkpt lat="43.73042" lon="0.89483">
        <ele>180.524981</ele>
        <time>2023-01-03T10:04:30.785Z</time>
      </trkpt>
      <trkpt lat="43.73043" lon="0.89501">
        <ele>179.802358</ele>
        <time>2023-01-03T10:04:32.791Z</time>
      </trkpt>
      <trkpt lat="43.73045" lon="0.89519">
        <ele>179.071681</ele>
        <time>2023-01-03T10:04:34.789Z</time>
      </trkpt>
      <trkpt lat="43.73045" lon="0.89537">
        <ele>178.354157</ele>
        <time>2023-01-03T10:04:36.801Z</time>
      </trkpt>
      <trkpt lat="43.73046" lon="0.89557">
        <ele>177.918553</ele>
        <time>2023-01-03T10:04:38.789Z</time>
      </trkpt>
      <trkpt lat="43.73048" lon="0.89576">
        <ele>177.560733</ele>
        <time>2023-01-03T10:04:40.798Z</time>
      </trkpt>
      <trkpt lat="43.73049" lon="0.89597">
        <ele>177.17254</ele>
        <time>2023-01-03T10:04:42.789Z</time>
      </trkpt>
      <trkpt lat="43.73049" lon="0.89619">
        <ele>176.785162</ele>
        <time>2023-01-03T10:04:44.798Z</time>
      </trkpt>
      <trkpt lat="43.73049" lon="0.8964">
        <ele>176.390484</ele>
        <time>2023-01-03T10:04:46.796Z</time>
      </trkpt>
      <trkpt lat="43.73049" lon="0.8966">
        <ele>176.022901</ele>
        <time>2023-01-03T10:04:48.797Z</time>
      </trkpt>
      <trkpt lat="43.7305" lon="0.89681">
        <ele>175.638654</ele>
        <time>2023-01-03T10:04:50.791Z</time>
      </trkpt>
      <trkpt lat="43.73051" lon="0.89703">
        <ele>175.248932</ele>
        <time>2023-01-03T10:04:52.800Z</time>
      </trkpt>
      <trkpt lat="43.73052" lon="0.89724">
        <ele>174.853736</ele>
        <time>2023-01-03T10:04:54.801Z</time>
      </trkpt>
      <trkpt lat="43.73052" lon="0.89746">
        <ele>174.458986</ele>
        <time>2023-01-03T10:04:56.799Z</time>
      </trkpt>
      <trkpt lat="43.73052" lon="0.89767">
        <ele>174.071485</ele>
        <time>2023-01-03T10:04:58.800Z</time>
      </trkpt>
      <trkpt lat="43.73053" lon="0.89788">
        <ele>173.681624</ele>
        <time>2023-01-03T10:05:00.797Z</time>
      </trkpt>
      <trkpt lat="43.73054" lon="0.89809">
        <ele>173.423462</ele>
        <time>2023-01-03T10:05:02.788Z</time>
      </trkpt>
      <trkpt lat="43.73053" lon="0.8983">
        <ele>173.17464</ele>
        <time>2023-01-03T10:05:04.800Z</time>
      </trkpt>
      <trkpt lat="43.73055" lon="0.89851">
        <ele>172.927448</ele>
        <time>2023-01-03T10:05:06.801Z</time>
      </trkpt>
      <trkpt lat="43.73055" lon="0.89871">
        <ele>172.701052</ele>
        <time>2023-01-03T10:05:08.800Z</time>
      </trkpt>
      <trkpt lat="43.73055" lon="0.8989">
        <ele>172.476943</ele>
        <time>2023-01-03T10:05:10.796Z</time>
      </trkpt>
      <trkpt lat="43.73055" lon="0.89907">
        <ele>172.27527</ele>
        <time>2023-01-03T10:05:12.797Z</time>
      </trkpt>
      <trkpt lat="43.73054" lon="0.89924">
        <ele>172.071065</ele>
        <time>2023-01-03T10:05:14.800Z</time>
      </trkpt>
      <trkpt lat="43.73055" lon="0.8994">
        <ele>171.877457</ele>
        <time>2023-01-03T10:05:16.799Z</time>
      </trkpt>
      <trkpt lat="43.73055" lon="0.89955">
        <ele>171.699358</ele>
        <time>2023-01-03T10:05:18.801Z</time>
      </trkpt>
      <trkpt lat="43.73056" lon="0.89969">
        <ele>171.540056</ele>
        <time>2023-01-03T10:05:20.800Z</time>
      </trkpt>
      <trkpt lat="43.73055" lon="0.89983">
        <ele>171.37722</ele>
        <time>2023-01-03T10:05:22.801Z</time>
      </trkpt>
      <trkpt lat="43.73056" lon="0.89996">
        <ele>171.217043</ele>
        <time>2023-01-03T10:05:24.787Z</time>
      </trkpt>
      <trkpt lat="43.73055" lon="0.90014">
        <ele>171.004062</ele>
        <time>2023-01-03T10:05:27.802Z</time>
      </trkpt>
      <trkpt lat="43.73056" lon="0.90032">
        <ele>170.800032</ele>
        <time>2023-01-03T10:05:30.800Z</time>
      </trkpt>
      <trkpt lat="43.73056" lon="0.90049">
        <ele>170.881994</ele>
        <time>2023-01-03T10:05:33.801Z</time>
      </trkpt>
      <trkpt lat="43.73056" lon="0.90066">
        <ele>171.160287</ele>
        <time>2023-01-03T10:05:36.802Z</time>
      </trkpt>
      <trkpt lat="43.73058" lon="0.90083">
        <ele>171.435477</ele>
        <time>2023-01-03T10:05:39.799Z</time>
      </trkpt>
      <trkpt lat="43.73058" lon="0.901">
        <ele>171.699075</ele>
        <time>2023-01-03T10:05:42.800Z</time>
      </trkpt>
      <trkpt lat="43.73058" lon="0.90116">
        <ele>171.956322</ele>
        <time>2023-01-03T10:05:45.786Z</time>
      </trkpt>
      <trkpt lat="43.73058" lon="0.90133">
        <ele>172.234439</ele>
        <time>2023-01-03T10:05:48.803Z</time>
      </trkpt>
      <trkpt lat="43.73058" lon="0.9015">
        <ele>172.499865</ele>
        <time>2023-01-03T10:05:51.801Z</time>
      </trkpt>
      <trkpt lat="43.73058" lon="0.90166">
        <ele>172.763612</ele>
        <time>2023-01-03T10:05:54.799Z</time>
      </trkpt>
      <trkpt lat="43.73059" lon="0.90183">
        <ele>173.029554</ele>
        <time>2023-01-03T10:05:57.798Z</time>
      </trkpt>
      <trkpt lat="43.7306" lon="0.90199">
        <ele>173.282936</ele>
        <time>2023-01-03T10:06:00.802Z</time>
      </trkpt>
      <trkpt lat="43.73062" lon="0.90213">
        <ele>173.513782</ele>
        <time>2023-01-03T10:06:03.801Z</time>
      </trkpt>
      <trkpt lat="43.73063" lon="0.90228">
        <ele>173.755134</ele>
        <time>2023-01-03T10:06:06.798Z</time>
      </trkpt>
      <trkpt lat="43.73064" lon="0.90244">
        <ele>174.01258</ele>
        <time>2023-01-03T10:06:09.788Z</time>
      </trkpt>
      <trkpt lat="43.73064" lon="0.90261">
        <ele>174.281198</ele>
        <time>2023-01-03T10:06:12.800Z</time>
      </trkpt>
      <trkpt lat="43.73065" lon="0.90276">
        <ele>174.52439</ele>
        <time>2023-01-03T10:06:15.797Z</time>
      </trkpt>
      <trkpt lat="43.73064" lon="0.90292">
        <ele>174.787076</ele>
        <time>2023-01-03T10:06:18.782Z</time>
      </trkpt>
      <trkpt lat="43.73062" lon="0.90308">
        <ele>175.056482</ele>
        <time>2023-01-03T10:06:21.798Z</time>
      </trkpt>
      <trkpt lat="43.7306" lon="0.90322">
        <ele>175.313063</ele>
        <time>2023-01-03T10:06:24.792Z</time>
      </trkpt>
      <trkpt lat="43.73057" lon="0.90336">
        <ele>175.551125</ele>
        <time>2023-01-03T10:06:27.789Z</time>
      </trkpt>
      <trkpt lat="43.73052" lon="0.90348">
        <ele>175.785272</ele>
        <time>2023-01-03T10:06:30.782Z</time>
      </trkpt>
      <trkpt lat="43.73046" lon="0.90362">
        <ele>176.061259</ele>
        <time>2023-01-03T10:06:34.782Z</time>
      </trkpt>
      <trkpt lat="43.73037" lon="0.90372">
        <ele>176.344315</ele>
        <time>2023-01-03T10:06:38.783Z</time>
      </trkpt>
      <trkpt lat="43.73028" lon="0.90376">
        <ele>176.574065</ele>
        <time>2023-01-03T10:06:41.792Z</time>
      </trkpt>
      <trkpt lat="43.73018" lon="0.90382">
        <ele>176.826031</ele>
        <time>2023-01-03T10:06:44.781Z</time>
      </trkpt>
      <trkpt lat="43.73007" lon="0.9039">
        <ele>177.117826</ele>
        <time>2023-01-03T10:06:47.800Z</time>
      </trkpt>
      <trkpt lat="43.72999" lon="0.90396">
        <ele>177.338329</ele>
        <time>2023-01-03T10:06:49.798Z</time>
      </trkpt>
      <trkpt lat="43.7299" lon="0.90402">
        <ele>177.564095</ele>
        <time>2023-01-03T10:06:51.795Z</time>
      </trkpt>
      <trkpt lat="43.72982" lon="0.90409">
        <ele>177.796477</ele>
        <time>2023-01-03T10:06:53.792Z</time>
      </trkpt>
      <trkpt lat="43.72974" lon="0.90415">
        <ele>178.012704</ele>
        <time>2023-01-03T10:06:55.796Z</time>
      </trkpt>
      <trkpt lat="43.72965" lon="0.9042">
        <ele>178.235268</ele>
        <time>2023-01-03T10:06:57.778Z</time>
      </trkpt>
      <trkpt lat="43.72957" lon="0.90426">
        <ele>178.450245</ele>
        <time>2023-01-03T10:06:59.803Z</time>
      </trkpt>
      <trkpt lat="43.72946" lon="0.90433">
        <ele>178.754604</ele>
        <time>2023-01-03T10:07:02.799Z</time>
      </trkpt>
      <trkpt lat="43.72934" lon="0.90441">
        <ele>178.940407</ele>
        <time>2023-01-03T10:07:05.798Z</time>
      </trkpt>
      <trkpt lat="43.72922" lon="0.90449">
        <ele>178.878753</ele>
        <time>2023-01-03T10:07:08.798Z</time>
      </trkpt>
      <trkpt lat="43.72911" lon="0.90458">
        <ele>178.815833</ele>
        <time>2023-01-03T10:07:11.800Z</time>
      </trkpt>
      <trkpt lat="43.72903" lon="0.90464">
        <ele>178.771797</ele>
        <time>2023-01-03T10:07:13.799Z</time>
      </trkpt>
      <trkpt lat="43.72895" lon="0.90471">
        <ele>178.72761</ele>
        <time>2023-01-03T10:07:15.801Z</time>
      </trkpt>
      <trkpt lat="43.72884" lon="0.90482">
        <ele>178.662871</ele>
        <time>2023-01-03T10:07:18.789Z</time>
      </trkpt>
      <trkpt lat="43.72873" lon="0.90493">
        <ele>178.600472</ele>
        <time>2023-01-03T10:07:21.788Z</time>
      </trkpt>
      <trkpt lat="43.72866" lon="0.90501">
        <ele>178.556588</ele>
        <time>2023-01-03T10:07:23.803Z</time>
      </trkpt>
      <trkpt lat="43.72858" lon="0.9051">
        <ele>178.510536</ele>
        <time>2023-01-03T10:07:25.802Z</time>
      </trkpt>
      <trkpt lat="43.72847" lon="0.9052">
        <ele>178.446397</ele>
        <time>2023-01-03T10:07:28.806Z</time>
      </trkpt>
      <trkpt lat="43.72838" lon="0.90527">
        <ele>178.400875</ele>
        <time>2023-01-03T10:07:30.804Z</time>
      </trkpt>
      <trkpt lat="43.7283" lon="0.90531">
        <ele>178.35767</ele>
        <time>2023-01-03T10:07:32.781Z</time>
      </trkpt>
      <trkpt lat="43.7282" lon="0.90534">
        <ele>178.310428</ele>
        <time>2023-01-03T10:07:34.789Z</time>
      </trkpt>
      <trkpt lat="43.72811" lon="0.90537">
        <ele>178.265805</ele>
        <time>2023-01-03T10:07:36.782Z</time>
      </trkpt>
      <trkpt lat="43.72802" lon="0.9054">
        <ele>178.221805</ele>
        <time>2023-01-03T10:07:38.799Z</time>
      </trkpt>
      <trkpt lat="43.72792" lon="0.90541">
        <ele>178.175768</ele>
        <time>2023-01-03T10:07:40.790Z</time>
      </trkpt>
      <trkpt lat="43.72782" lon="0.90543">
        <ele>178.130998</ele>
        <time>2023-01-03T10:07:42.800Z</time>
      </trkpt>
      <trkpt lat="43.7277" lon="0.90546">
        <ele>178.126311</ele>
        <time>2023-01-03T10:07:45.800Z</time>
      </trkpt>
      <trkpt lat="43.72757" lon="0.90548">
        <ele>178.147632</ele>
        <time>2023-01-03T10:07:48.790Z</time>
      </trkpt>
      <trkpt lat="43.72748" lon="0.9055">
        <ele>178.162754</ele>
        <time>2023-01-03T10:07:50.800Z</time>
      </trkpt>
      <trkpt lat="43.72735" lon="0.90552">
        <ele>178.184842</ele>
        <time>2023-01-03T10:07:53.804Z</time>
      </trkpt>
      <trkpt lat="43.72722" lon="0.90553">
        <ele>178.207508</ele>
        <time>2023-01-03T10:07:56.802Z</time>
      </trkpt>
      <trkpt lat="43.72712" lon="0.90554">
        <ele>178.223319</ele>
        <time>2023-01-03T10:07:58.803Z</time>
      </trkpt>
      <trkpt lat="43.72703" lon="0.90555">
        <ele>178.239762</ele>
        <time>2023-01-03T10:08:00.781Z</time>
      </trkpt>
      <trkpt lat="43.72693" lon="0.90556">
        <ele>178.256045</ele>
        <time>2023-01-03T10:08:02.805Z</time>
      </trkpt>
      <trkpt lat="43.72684" lon="0.90557">
        <ele>178.271502</ele>
        <time>2023-01-03T10:08:04.787Z</time>
      </trkpt>
      <trkpt lat="43.72671" lon="0.90559">
        <ele>178.292684</ele>
        <time>2023-01-03T10:08:07.810Z</time>
      </trkpt>
      <trkpt lat="43.72659" lon="0.9056">
        <ele>178.313043</ele>
        <time>2023-01-03T10:08:10.802Z</time>
      </trkpt>
      <trkpt lat="43.72647" lon="0.90562">
        <ele>178.332402</ele>
        <time>2023-01-03T10:08:13.803Z</time>
      </trkpt>
      <trkpt lat="43.72636" lon="0.90563">
        <ele>178.351384</ele>
        <time>2023-01-03T10:08:16.801Z</time>
      </trkpt>
      <trkpt lat="43.72624" lon="0.90564">
        <ele>178.371339</ele>
        <time>2023-01-03T10:08:19.794Z</time>
      </trkpt>
      <trkpt lat="43.72612" lon="0.90564">
        <ele>178.392293</ele>
        <time>2023-01-03T10:08:22.796Z</time>
      </trkpt>
      <trkpt lat="43.72599" lon="0.90565">
        <ele>178.413432</ele>
        <time>2023-01-03T10:08:25.803Z</time>
      </trkpt>
      <trkpt lat="43.72588" lon="0.90566">
        <ele>178.45832</ele>
        <time>2023-01-03T10:08:28.790Z</time>
      </trkpt>
      <trkpt lat="43.72576" lon="0.90566">
        <ele>178.503399</ele>
        <time>2023-01-03T10:08:31.795Z</time>
      </trkpt>
      <trkpt lat="43.72564" lon="0.90568">
        <ele>178.547882</ele>
        <time>2023-01-03T10:08:34.799Z</time>
      </trkpt>
      <trkpt lat="43.72553" lon="0.90566">
        <ele>178.591939</ele>
        <time>2023-01-03T10:08:37.786Z</time>
      </trkpt>
      <trkpt lat="43.72541" lon="0.90564">
        <ele>178.636369</ele>
        <time>2023-01-03T10:08:40.780Z</time>
      </trkpt>
      <trkpt lat="43.7253" lon="0.90561">
        <ele>178.680378</ele>
        <time>2023-01-03T10:08:43.805Z</time>
      </trkpt>
      <trkpt lat="43.72518" lon="0.90557">
        <ele>178.727659</ele>
        <time>2023-01-03T10:08:46.798Z</time>
      </trkpt>
      <trkpt lat="43.72505" lon="0.90554">
        <ele>178.775656</ele>
        <time>2023-01-03T10:08:49.795Z</time>
      </trkpt>
      <trkpt lat="43.72493" lon="0.90551">
        <ele>178.824548</ele>
        <time>2023-01-03T10:08:52.798Z</time>
      </trkpt>
      <trkpt lat="43.72481" lon="0.90546">
        <ele>178.871247</ele>
        <time>2023-01-03T10:08:55.795Z</time>
      </trkpt>
      <trkpt lat="43.7247" lon="0.90541">
        <ele>178.915801</ele>
        <time>2023-01-03T10:08:58.804Z</time>
      </trkpt>
      <trkpt lat="43.72459" lon="0.90538">
        <ele>178.959864</ele>
        <time>2023-01-03T10:09:01.784Z</time>
      </trkpt>
      <trkpt lat="43.72448" lon="0.90536">
        <ele>179.002498</ele>
        <time>2023-01-03T10:09:04.788Z</time>
      </trkpt>
      <trkpt lat="43.72436" lon="0.90535">
        <ele>179.045032</ele>
        <time>2023-01-03T10:09:07.791Z</time>
      </trkpt>
      <trkpt lat="43.72425" lon="0.90535">
        <ele>179.088969</ele>
        <time>2023-01-03T10:09:10.801Z</time>
      </trkpt>
      <trkpt lat="43.72413" lon="0.90536">
        <ele>179.279394</ele>
        <time>2023-01-03T10:09:13.800Z</time>
      </trkpt>
      <trkpt lat="43.72402" lon="0.90539">
        <ele>179.519029</ele>
        <time>2023-01-03T10:09:16.802Z</time>
      </trkpt>
      <trkpt lat="43.7239" lon="0.90542">
        <ele>179.77236</ele>
        <time>2023-01-03T10:09:19.797Z</time>
      </trkpt>
      <trkpt lat="43.72379" lon="0.90546">
        <ele>180.021299</ele>
        <time>2023-01-03T10:09:22.791Z</time>
      </trkpt>
      <trkpt lat="43.72367" lon="0.90552">
        <ele>180.275647</ele>
        <time>2023-01-03T10:09:25.782Z</time>
      </trkpt>
      <trkpt lat="43.72358" lon="0.90558">
        <ele>180.492638</ele>
        <time>2023-01-03T10:09:28.792Z</time>
      </trkpt>
      <trkpt lat="43.72348" lon="0.90565">
        <ele>180.731463</ele>
        <time>2023-01-03T10:09:32.795Z</time>
      </trkpt>
      <trkpt lat="43.72338" lon="0.90573">
        <ele>180.958214</ele>
        <time>2023-01-03T10:09:36.783Z</time>
      </trkpt>
      <trkpt lat="43.72329" lon="0.90579">
        <ele>181.186642</ele>
        <time>2023-01-03T10:09:40.788Z</time>
      </trkpt>
      <trkpt lat="43.72319" lon="0.90586">
        <ele>181.411826</ele>
        <time>2023-01-03T10:09:44.781Z</time>
      </trkpt>
      <trkpt lat="43.72309" lon="0.90593">
        <ele>181.634902</ele>
        <time>2023-01-03T10:09:48.785Z</time>
      </trkpt>
      <trkpt lat="43.72299" lon="0.90598">
        <ele>181.864782</ele>
        <time>2023-01-03T10:09:52.786Z</time>
      </trkpt>
      <trkpt lat="43.72291" lon="0.90602">
        <ele>182.05344</ele>
        <time>2023-01-03T10:09:55.805Z</time>
      </trkpt>
      <trkpt lat="43.72281" lon="0.90606">
        <ele>182.260331</ele>
        <time>2023-01-03T10:09:58.800Z</time>
      </trkpt>
      <trkpt lat="43.72272" lon="0.9061">
        <ele>182.455695</ele>
        <time>2023-01-03T10:10:01.807Z</time>
      </trkpt>
      <trkpt lat="43.72263" lon="0.90614">
        <ele>182.652778</ele>
        <time>2023-01-03T10:10:04.800Z</time>
      </trkpt>
      <trkpt lat="43.72254" lon="0.90617">
        <ele>182.856077</ele>
        <time>2023-01-03T10:10:07.783Z</time>
      </trkpt>
      <trkpt lat="43.72244" lon="0.90619">
        <ele>182.640913</ele>
        <time>2023-01-03T10:10:10.794Z</time>
      </trkpt>
      <trkpt lat="43.72235" lon="0.90621">
        <ele>182.41753</ele>
        <time>2023-01-03T10:10:13.800Z</time>
      </trkpt>
      <trkpt lat="43.72225" lon="0.90623">
        <ele>182.201026</ele>
        <time>2023-01-03T10:10:16.799Z</time>
      </trkpt>
      <trkpt lat="43.72215" lon="0.90623">
        <ele>181.96935</ele>
        <time>2023-01-03T10:10:19.782Z</time>
      </trkpt>
      <trkpt lat="43.72205" lon="0.90623">
        <ele>181.737674</ele>
        <time>2023-01-03T10:10:22.804Z</time>
      </trkpt>
      <trkpt lat="43.72195" lon="0.90622">
        <ele>181.489275</ele>
        <time>2023-01-03T10:10:25.794Z</time>
      </trkpt>
      <trkpt lat="43.72183" lon="0.90622">
        <ele>181.211204</ele>
        <time>2023-01-03T10:10:28.790Z</time>
      </trkpt>
      <trkpt lat="43.72174" lon="0.90621">
        <ele>181.000103</ele>
        <time>2023-01-03T10:10:30.797Z</time>
      </trkpt>
      <trkpt lat="43.72164" lon="0.9062">
        <ele>180.777438</ele>
        <time>2023-01-03T10:10:32.787Z</time>
      </trkpt>
      <trkpt lat="43.72154" lon="0.90621">
        <ele>180.534184</ele>
        <time>2023-01-03T10:10:34.800Z</time>
      </trkpt>
      <trkpt lat="43.72142" lon="0.90621">
        <ele>180.27219</ele>
        <time>2023-01-03T10:10:36.807Z</time>
      </trkpt>
      <trkpt lat="43.72131" lon="0.90621">
        <ele>180.001193</ele>
        <time>2023-01-03T10:10:38.803Z</time>
      </trkpt>
      <trkpt lat="43.72118" lon="0.90622">
        <ele>179.720526</ele>
        <time>2023-01-03T10:10:40.800Z</time>
      </trkpt>
      <trkpt lat="43.72105" lon="0.90623">
        <ele>179.416876</ele>
        <time>2023-01-03T10:10:42.798Z</time>
      </trkpt>
      <trkpt lat="43.72092" lon="0.90625">
        <ele>179.11179</ele>
        <time>2023-01-03T10:10:44.784Z</time>
      </trkpt>
      <trkpt lat="43.7208" lon="0.90625">
        <ele>178.819828</ele>
        <time>2023-01-03T10:10:46.784Z</time>
      </trkpt>
      <trkpt lat="43.72067" lon="0.90623">
        <ele>178.748941</ele>
        <time>2023-01-03T10:10:48.795Z</time>
      </trkpt>
      <trkpt lat="43.72055" lon="0.90616">
        <ele>178.848013</ele>
        <time>2023-01-03T10:10:50.786Z</time>
      </trkpt>
      <trkpt lat="43.72047" lon="0.90607">
        <ele>178.929706</ele>
        <time>2023-01-03T10:10:52.783Z</time>
      </trkpt>
      <trkpt lat="43.72039" lon="0.90597">
        <ele>179.013288</ele>
        <time>2023-01-03T10:10:54.787Z</time>
      </trkpt>
      <trkpt lat="43.72033" lon="0.90587">
        <ele>179.084002</ele>
        <time>2023-01-03T10:10:56.783Z</time>
      </trkpt>
      <trkpt lat="43.72024" lon="0.90575">
        <ele>179.181533</ele>
        <time>2023-01-03T10:10:59.792Z</time>
      </trkpt>
      <trkpt lat="43.72016" lon="0.90565">
        <ele>179.265325</ele>
        <time>2023-01-03T10:11:02.782Z</time>
      </trkpt>
      <trkpt lat="43.72008" lon="0.90558">
        <ele>179.33562</ele>
        <time>2023-01-03T10:11:05.783Z</time>
      </trkpt>
      <trkpt lat="43.72" lon="0.9055">
        <ele>179.410997</ele>
        <time>2023-01-03T10:11:08.794Z</time>
      </trkpt>
      <trkpt lat="43.71989" lon="0.90544">
        <ele>179.5038</ele>
        <time>2023-01-03T10:11:12.788Z</time>
      </trkpt>
      <trkpt lat="43.71981" lon="0.90538">
        <ele>179.574418</ele>
        <time>2023-01-03T10:11:15.788Z</time>
      </trkpt>
      <trkpt lat="43.71971" lon="0.90535">
        <ele>179.647324</ele>
        <time>2023-01-03T10:11:18.789Z</time>
      </trkpt>
      <trkpt lat="43.71962" lon="0.90531">
        <ele>179.722883</ele>
        <time>2023-01-03T10:11:21.801Z</time>
      </trkpt>
      <trkpt lat="43.71952" lon="0.90528">
        <ele>179.798913</ele>
        <time>2023-01-03T10:11:24.803Z</time>
      </trkpt>
      <trkpt lat="43.71943" lon="0.90525">
        <ele>179.872976</ele>
        <time>2023-01-03T10:11:27.798Z</time>
      </trkpt>
      <trkpt lat="43.71933" lon="0.90522">
        <ele>179.956394</ele>
        <time>2023-01-03T10:11:30.798Z</time>
      </trkpt>
      <trkpt lat="43.71923" lon="0.90519">
        <ele>180.030201</ele>
        <time>2023-01-03T10:11:33.802Z</time>
      </trkpt>
      <trkpt lat="43.71913" lon="0.90516">
        <ele>180.156259</ele>
        <time>2023-01-03T10:11:36.782Z</time>
      </trkpt>
      <trkpt lat="43.71902" lon="0.90512">
        <ele>180.349417</ele>
        <time>2023-01-03T10:11:39.799Z</time>
      </trkpt>
      <trkpt lat="43.71892" lon="0.90509">
        <ele>180.544617</ele>
        <time>2023-01-03T10:11:42.790Z</time>
      </trkpt>
      <trkpt lat="43.71881" lon="0.90505">
        <ele>180.745216</ele>
        <time>2023-01-03T10:11:45.794Z</time>
      </trkpt>
      <trkpt lat="43.71869" lon="0.90501">
        <ele>180.957933</ele>
        <time>2023-01-03T10:11:48.805Z</time>
      </trkpt>
      <trkpt lat="43.71858" lon="0.90497">
        <ele>181.172385</ele>
        <time>2023-01-03T10:11:51.802Z</time>
      </trkpt>
      <trkpt lat="43.71846" lon="0.90493">
        <ele>181.38358</ele>
        <time>2023-01-03T10:11:54.805Z</time>
      </trkpt>
      <trkpt lat="43.71835" lon="0.90489">
        <ele>181.592124</ele>
        <time>2023-01-03T10:11:57.798Z</time>
      </trkpt>
      <trkpt lat="43.71824" lon="0.90485">
        <ele>181.80626</ele>
        <time>2023-01-03T10:12:00.789Z</time>
      </trkpt>
      <trkpt lat="43.71813" lon="0.90481">
        <ele>181.999418</ele>
        <time>2023-01-03T10:12:03.797Z</time>
      </trkpt>
      <trkpt lat="43.71803" lon="0.90478">
        <ele>182.186563</ele>
        <time>2023-01-03T10:12:06.783Z</time>
      </trkpt>
      <trkpt lat="43.71793" lon="0.90473">
        <ele>182.380036</ele>
        <time>2023-01-03T10:12:09.798Z</time>
      </trkpt>
      <trkpt lat="43.71782" lon="0.90469">
        <ele>182.57759</ele>
        <time>2023-01-03T10:12:12.797Z</time>
      </trkpt>
      <trkpt lat="43.71771" lon="0.90466">
        <ele>182.773727</ele>
        <time>2023-01-03T10:12:15.802Z</time>
      </trkpt>
      <trkpt lat="43.71762" lon="0.90464">
        <ele>182.940344</ele>
        <time>2023-01-03T10:12:18.797Z</time>
      </trkpt>
      <trkpt lat="43.7175" lon="0.90461">
        <ele>183.152399</ele>
        <time>2023-01-03T10:12:22.797Z</time>
      </trkpt>
      <trkpt lat="43.71741" lon="0.9046">
        <ele>183.300449</ele>
        <time>2023-01-03T10:12:25.800Z</time>
      </trkpt>
      <trkpt lat="43.71732" lon="0.90458">
        <ele>183.31163</ele>
        <time>2023-01-03T10:12:28.785Z</time>
      </trkpt>
      <trkpt lat="43.71721" lon="0.90457">
        <ele>183.324904</ele>
        <time>2023-01-03T10:12:31.795Z</time>
      </trkpt>
      <trkpt lat="43.71709" lon="0.90457">
        <ele>183.338375</ele>
        <time>2023-01-03T10:12:34.796Z</time>
      </trkpt>
      <trkpt lat="43.71697" lon="0.90457">
        <ele>183.352905</ele>
        <time>2023-01-03T10:12:37.799Z</time>
      </trkpt>
      <trkpt lat="43.71684" lon="0.90455">
        <ele>183.367491</ele>
        <time>2023-01-03T10:12:40.801Z</time>
      </trkpt>
      <trkpt lat="43.71672" lon="0.90454">
        <ele>183.382503</ele>
        <time>2023-01-03T10:12:43.799Z</time>
      </trkpt>
      <trkpt lat="43.71659" lon="0.90453">
        <ele>183.397631</ele>
        <time>2023-01-03T10:12:46.800Z</time>
      </trkpt>
      <trkpt lat="43.71647" lon="0.90453">
        <ele>183.41099</ele>
        <time>2023-01-03T10:12:49.805Z</time>
      </trkpt>
      <trkpt lat="43.71636" lon="0.90452">
        <ele>183.424608</ele>
        <time>2023-01-03T10:12:52.808Z</time>
      </trkpt>
      <trkpt lat="43.71624" lon="0.90451">
        <ele>183.438672</ele>
        <time>2023-01-03T10:12:55.799Z</time>
      </trkpt>
      <trkpt lat="43.71612" lon="0.9045">
        <ele>183.452734</ele>
        <time>2023-01-03T10:12:58.805Z</time>
      </trkpt>
      <trkpt lat="43.716" lon="0.9045">
        <ele>183.466918</ele>
        <time>2023-01-03T10:13:01.803Z</time>
      </trkpt>
      <trkpt lat="43.71588" lon="0.90449">
        <ele>183.480394</ele>
        <time>2023-01-03T10:13:04.785Z</time>
      </trkpt>
      <trkpt lat="43.71577" lon="0.90449">
        <ele>183.493636</ele>
        <time>2023-01-03T10:13:07.803Z</time>
      </trkpt>
      <trkpt lat="43.71566" lon="0.90448">
        <ele>183.506777</ele>
        <time>2023-01-03T10:13:10.799Z</time>
      </trkpt>
      <trkpt lat="43.71554" lon="0.90447">
        <ele>183.340187</ele>
        <time>2023-01-03T10:13:13.795Z</time>
      </trkpt>
      <trkpt lat="43.71543" lon="0.90447">
        <ele>183.116537</ele>
        <time>2023-01-03T10:13:16.805Z</time>
      </trkpt>
      <trkpt lat="43.71532" lon="0.90446">
        <ele>182.894725</ele>
        <time>2023-01-03T10:13:19.802Z</time>
      </trkpt>
      <trkpt lat="43.7152" lon="0.90446">
        <ele>182.647229</ele>
        <time>2023-01-03T10:13:22.787Z</time>
      </trkpt>
      <trkpt lat="43.71511" lon="0.90444">
        <ele>182.460469</ele>
        <time>2023-01-03T10:13:24.794Z</time>
      </trkpt>
      <trkpt lat="43.71501" lon="0.90443">
        <ele>182.265026</ele>
        <time>2023-01-03T10:13:26.785Z</time>
      </trkpt>
      <trkpt lat="43.71492" lon="0.90443">
        <ele>182.077621</ele>
        <time>2023-01-03T10:13:28.784Z</time>
      </trkpt>
      <trkpt lat="43.71479" lon="0.90441">
        <ele>181.821382</ele>
        <time>2023-01-03T10:13:31.802Z</time>
      </trkpt>
      <trkpt lat="43.71467" lon="0.90442">
        <ele>181.581497</ele>
        <time>2023-01-03T10:13:34.786Z</time>
      </trkpt>
      <trkpt lat="43.71457" lon="0.90444">
        <ele>181.381533</ele>
        <time>2023-01-03T10:13:37.779Z</time>
      </trkpt>
      <trkpt lat="43.71448" lon="0.90446">
        <ele>181.184417</ele>
        <time>2023-01-03T10:13:40.830Z</time>
      </trkpt>
      <trkpt lat="43.71439" lon="0.90452">
        <ele>180.988873</ele>
        <time>2023-01-03T10:13:43.800Z</time>
      </trkpt>
      <trkpt lat="43.71429" lon="0.90458">
        <ele>180.778996</ele>
        <time>2023-01-03T10:13:46.793Z</time>
      </trkpt>
      <trkpt lat="43.71417" lon="0.90463">
        <ele>180.520508</ele>
        <time>2023-01-03T10:13:49.789Z</time>
      </trkpt>
      <trkpt lat="43.71404" lon="0.90462">
        <ele>180.256882</ele>
        <time>2023-01-03T10:13:52.789Z</time>
      </trkpt>
      <trkpt lat="43.71392" lon="0.90456">
        <ele>180.002033</ele>
        <time>2023-01-03T10:13:55.788Z</time>
      </trkpt>
      <trkpt lat="43.71383" lon="0.90451">
        <ele>179.864757</ele>
        <time>2023-01-03T10:13:58.782Z</time>
      </trkpt>
      <trkpt lat="43.71375" lon="0.90445">
        <ele>179.799492</ele>
        <time>2023-01-03T10:14:01.804Z</time>
      </trkpt>
      <trkpt lat="43.71364" lon="0.9044">
        <ele>179.723352</ele>
        <time>2023-01-03T10:14:04.788Z</time>
      </trkpt>
      <trkpt lat="43.71355" lon="0.90439">
        <ele>179.662149</ele>
        <time>2023-01-03T10:14:06.789Z</time>
      </trkpt>
      <trkpt lat="43.71341" lon="0.90437">
        <ele>179.567317</ele>
        <time>2023-01-03T10:14:09.789Z</time>
      </trkpt>
      <trkpt lat="43.71329" lon="0.90438">
        <ele>179.488333</ele>
        <time>2023-01-03T10:14:11.807Z</time>
      </trkpt>
      <trkpt lat="43.71317" lon="0.90437">
        <ele>179.403413</ele>
        <time>2023-01-03T10:14:13.807Z</time>
      </trkpt>
      <trkpt lat="43.71304" lon="0.90439">
        <ele>179.316971</ele>
        <time>2023-01-03T10:14:15.803Z</time>
      </trkpt>
      <trkpt lat="43.71293" lon="0.90442">
        <ele>179.240011</ele>
        <time>2023-01-03T10:14:17.791Z</time>
      </trkpt>
      <trkpt lat="43.7128" lon="0.90444">
        <ele>179.15602</ele>
        <time>2023-01-03T10:14:19.792Z</time>
      </trkpt>
      <trkpt lat="43.71269" lon="0.90446">
        <ele>179.080203</ele>
        <time>2023-01-03T10:14:21.801Z</time>
      </trkpt>
      <trkpt lat="43.71258" lon="0.90449">
        <ele>179.005592</ele>
        <time>2023-01-03T10:14:23.796Z</time>
      </trkpt>
      <trkpt lat="43.71248" lon="0.9045">
        <ele>178.933891</ele>
        <time>2023-01-03T10:14:25.797Z</time>
      </trkpt>
      <trkpt lat="43.71238" lon="0.90452">
        <ele>178.871141</ele>
        <time>2023-01-03T10:14:27.799Z</time>
      </trkpt>
      <trkpt lat="43.71228" lon="0.90451">
        <ele>178.803045</ele>
        <time>2023-01-03T10:14:29.781Z</time>
      </trkpt>
      <trkpt lat="43.71219" lon="0.90452">
        <ele>178.741049</ele>
        <time>2023-01-03T10:14:31.784Z</time>
      </trkpt>
      <trkpt lat="43.7121" lon="0.90452">
        <ele>178.685632</ele>
        <time>2023-01-03T10:14:33.795Z</time>
      </trkpt>
      <trkpt lat="43.71197" lon="0.90451">
        <ele>178.955263</ele>
        <time>2023-01-03T10:14:36.795Z</time>
      </trkpt>
      <trkpt lat="43.71184" lon="0.9045">
        <ele>179.220533</ele>
        <time>2023-01-03T10:14:39.795Z</time>
      </trkpt>
      <trkpt lat="43.71173" lon="0.90449">
        <ele>179.467627</ele>
        <time>2023-01-03T10:14:42.802Z</time>
      </trkpt>
      <trkpt lat="43.71162" lon="0.90449">
        <ele>179.696688</ele>
        <time>2023-01-03T10:14:45.792Z</time>
      </trkpt>
      <trkpt lat="43.71152" lon="0.90449">
        <ele>179.906677</ele>
        <time>2023-01-03T10:14:48.797Z</time>
      </trkpt>
      <trkpt lat="43.71141" lon="0.90451">
        <ele>180.132996</ele>
        <time>2023-01-03T10:14:51.803Z</time>
      </trkpt>
      <trkpt lat="43.71131" lon="0.90455">
        <ele>180.356237</ele>
        <time>2023-01-03T10:14:54.802Z</time>
      </trkpt>
      <trkpt lat="43.71121" lon="0.9046">
        <ele>180.580288</ele>
        <time>2023-01-03T10:14:57.787Z</time>
      </trkpt>
      <trkpt lat="43.71112" lon="0.90465">
        <ele>180.80381</ele>
        <time>2023-01-03T10:15:00.800Z</time>
      </trkpt>
      <trkpt lat="43.71103" lon="0.90471">
        <ele>181.002921</ele>
        <time>2023-01-03T10:15:03.805Z</time>
      </trkpt>
      <trkpt lat="43.71093" lon="0.90478">
        <ele>181.252152</ele>
        <time>2023-01-03T10:15:07.803Z</time>
      </trkpt>
      <trkpt lat="43.71085" lon="0.90486">
        <ele>181.458847</ele>
        <time>2023-01-03T10:15:10.786Z</time>
      </trkpt>
      <trkpt lat="43.71075" lon="0.90493">
        <ele>181.693431</ele>
        <time>2023-01-03T10:15:14.798Z</time>
      </trkpt>
      <trkpt lat="43.71067" lon="0.905">
        <ele>181.894636</ele>
        <time>2023-01-03T10:15:18.797Z</time>
      </trkpt>
      <trkpt lat="43.71058" lon="0.90509">
        <ele>182.125035</ele>
        <time>2023-01-03T10:15:22.786Z</time>
      </trkpt>
      <trkpt lat="43.7105" lon="0.90517">
        <ele>182.341323</ele>
        <time>2023-01-03T10:15:26.803Z</time>
      </trkpt>
      <trkpt lat="43.71041" lon="0.90526">
        <ele>182.597691</ele>
        <time>2023-01-03T10:15:31.795Z</time>
      </trkpt>
      <trkpt lat="43.71034" lon="0.90533">
        <ele>182.873924</ele>
        <time>2023-01-03T10:15:35.800Z</time>
      </trkpt>
      <trkpt lat="43.71025" lon="0.9054">
        <ele>183.154938</ele>
        <time>2023-01-03T10:15:39.785Z</time>
      </trkpt>
      <trkpt lat="43.71017" lon="0.90546">
        <ele>183.429798</ele>
        <time>2023-01-03T10:15:44.790Z</time>
      </trkpt>
      <trkpt lat="43.71008" lon="0.9055">
        <ele>183.713693</ele>
        <time>2023-01-03T10:15:50.787Z</time>
      </trkpt>
      <trkpt lat="43.70998" lon="0.90555">
        <ele>184.003834</ele>
        <time>2023-01-03T10:15:55.782Z</time>
      </trkpt>
      <trkpt lat="43.70989" lon="0.90559">
        <ele>184.298132</ele>
        <time>2023-01-03T10:16:00.785Z</time>
      </trkpt>
      <trkpt lat="43.70979" lon="0.90562">
        <ele>184.586077</ele>
        <time>2023-01-03T10:16:06.792Z</time>
      </trkpt>
      <trkpt lat="43.70969" lon="0.90564">
        <ele>184.874119</ele>
        <time>2023-01-03T10:16:12.788Z</time>
      </trkpt>
      <trkpt lat="43.7096" lon="0.90564">
        <ele>185.146776</ele>
        <time>2023-01-03T10:16:17.789Z</time>
      </trkpt>
      <trkpt lat="43.7095" lon="0.90566">
        <ele>185.453912</ele>
        <time>2023-01-03T10:16:21.784Z</time>
      </trkpt>
      <trkpt lat="43.7094" lon="0.90566">
        <ele>185.73237</ele>
        <time>2023-01-03T10:16:25.804Z</time>
      </trkpt>
      <trkpt lat="43.70931" lon="0.90567">
        <ele>186.002373</ele>
        <time>2023-01-03T10:16:29.787Z</time>
      </trkpt>
      <trkpt lat="43.70922" lon="0.90566">
        <ele>186.282118</ele>
        <time>2023-01-03T10:16:33.803Z</time>
      </trkpt>
      <trkpt lat="43.70911" lon="0.90565">
        <ele>186.592998</ele>
        <time>2023-01-03T10:16:37.798Z</time>
      </trkpt>
      <trkpt lat="43.70901" lon="0.90565">
        <ele>186.888997</ele>
        <time>2023-01-03T10:16:41.796Z</time>
      </trkpt>
      <trkpt lat="43.70889" lon="0.90562">
        <ele>187.237312</ele>
        <time>2023-01-03T10:16:45.799Z</time>
      </trkpt>
      <trkpt lat="43.70879" lon="0.90559">
        <ele>187.539583</ele>
        <time>2023-01-03T10:16:48.803Z</time>
      </trkpt>
      <trkpt lat="43.70869" lon="0.90556">
        <ele>187.712965</ele>
        <time>2023-01-03T10:16:51.799Z</time>
      </trkpt>
      <trkpt lat="43.70857" lon="0.90555">
        <ele>187.502722</ele>
        <time>2023-01-03T10:16:54.785Z</time>
      </trkpt>
      <trkpt lat="43.70844" lon="0.90554">
        <ele>187.278372</ele>
        <time>2023-01-03T10:16:57.789Z</time>
      </trkpt>
      <trkpt lat="43.70831" lon="0.90556">
        <ele>187.053322</ele>
        <time>2023-01-03T10:17:00.798Z</time>
      </trkpt>
      <trkpt lat="43.70819" lon="0.9056">
        <ele>186.853434</ele>
        <time>2023-01-03T10:17:03.785Z</time>
      </trkpt>
      <trkpt lat="43.70806" lon="0.90562">
        <ele>186.62597</ele>
        <time>2023-01-03T10:17:06.800Z</time>
      </trkpt>
      <trkpt lat="43.70797" lon="0.90565">
        <ele>186.461188</ele>
        <time>2023-01-03T10:17:08.792Z</time>
      </trkpt>
      <trkpt lat="43.70788" lon="0.90567">
        <ele>186.300571</ele>
        <time>2023-01-03T10:17:10.795Z</time>
      </trkpt>
      <trkpt lat="43.70778" lon="0.90569">
        <ele>186.138982</ele>
        <time>2023-01-03T10:17:12.800Z</time>
      </trkpt>
      <trkpt lat="43.70769" lon="0.90572">
        <ele>185.980858</ele>
        <time>2023-01-03T10:17:14.800Z</time>
      </trkpt>
      <trkpt lat="43.70757" lon="0.90575">
        <ele>185.759961</ele>
        <time>2023-01-03T10:17:17.782Z</time>
      </trkpt>
      <trkpt lat="43.70745" lon="0.90578">
        <ele>185.550652</ele>
        <time>2023-01-03T10:17:20.794Z</time>
      </trkpt>
      <trkpt lat="43.70733" lon="0.90582">
        <ele>185.340555</ele>
        <time>2023-01-03T10:17:23.799Z</time>
      </trkpt>
      <trkpt lat="43.70721" lon="0.90586">
        <ele>185.130727</ele>
        <time>2023-01-03T10:17:26.803Z</time>
      </trkpt>
      <trkpt lat="43.70709" lon="0.90588">
        <ele>184.920507</ele>
        <time>2023-01-03T10:17:29.785Z</time>
      </trkpt>
      <trkpt lat="43.707" lon="0.90591">
        <ele>184.760744</ele>
        <time>2023-01-03T10:17:31.798Z</time>
      </trkpt>
      <trkpt lat="43.70691" lon="0.90594">
        <ele>184.637417</ele>
        <time>2023-01-03T10:17:33.798Z</time>
      </trkpt>
      <trkpt lat="43.70679" lon="0.90597">
        <ele>184.536998</ele>
        <time>2023-01-03T10:17:36.788Z</time>
      </trkpt>
      <trkpt lat="43.70667" lon="0.90599">
        <ele>184.440852</ele>
        <time>2023-01-03T10:17:39.803Z</time>
      </trkpt>
      <trkpt lat="43.70654" lon="0.90601">
        <ele>184.340303</ele>
        <time>2023-01-03T10:17:42.799Z</time>
      </trkpt>
      <trkpt lat="43.70641" lon="0.90603">
        <ele>184.239408</ele>
        <time>2023-01-03T10:17:45.800Z</time>
      </trkpt>
      <trkpt lat="43.70628" lon="0.90604">
        <ele>184.135215</ele>
        <time>2023-01-03T10:17:48.794Z</time>
      </trkpt>
      <trkpt lat="43.70615" lon="0.90606">
        <ele>184.029878</ele>
        <time>2023-01-03T10:17:51.802Z</time>
      </trkpt>
      <trkpt lat="43.70601" lon="0.90606">
        <ele>183.919727</ele>
        <time>2023-01-03T10:17:54.802Z</time>
      </trkpt>
      <trkpt lat="43.70591" lon="0.90605">
        <ele>183.84198</ele>
        <time>2023-01-03T10:17:56.791Z</time>
      </trkpt>
      <trkpt lat="43.70582" lon="0.90604">
        <ele>183.766872</ele>
        <time>2023-01-03T10:17:58.801Z</time>
      </trkpt>
      <trkpt lat="43.70573" lon="0.90602">
        <ele>183.691687</ele>
        <time>2023-01-03T10:18:00.804Z</time>
      </trkpt>
      <trkpt lat="43.70563" lon="0.90599">
        <ele>183.612628</ele>
        <time>2023-01-03T10:18:02.798Z</time>
      </trkpt>
      <trkpt lat="43.7055" lon="0.90597">
        <ele>183.509784</ele>
        <time>2023-01-03T10:18:05.801Z</time>
      </trkpt>
      <trkpt lat="43.70541" lon="0.90595">
        <ele>183.438521</ele>
        <time>2023-01-03T10:18:07.784Z</time>
      </trkpt>
      <trkpt lat="43.70532" lon="0.90594">
        <ele>183.365058</ele>
        <time>2023-01-03T10:18:09.783Z</time>
      </trkpt>
      <trkpt lat="43.70522" lon="0.90592">
        <ele>183.288577</ele>
        <time>2023-01-03T10:18:11.794Z</time>
      </trkpt>
      <trkpt lat="43.70512" lon="0.90591">
        <ele>183.221051</ele>
        <time>2023-01-03T10:18:13.802Z</time>
      </trkpt>
      <trkpt lat="43.70502" lon="0.9059">
        <ele>183.17057</ele>
        <time>2023-01-03T10:18:15.784Z</time>
      </trkpt>
      <trkpt lat="43.70492" lon="0.90588">
        <ele>183.121499</ele>
        <time>2023-01-03T10:18:17.792Z</time>
      </trkpt>
      <trkpt lat="43.70481" lon="0.90587">
        <ele>183.069637</ele>
        <time>2023-01-03T10:18:19.795Z</time>
      </trkpt>
      <trkpt lat="43.70471" lon="0.90585">
        <ele>183.017532</ele>
        <time>2023-01-03T10:18:21.790Z</time>
      </trkpt>
      <trkpt lat="43.70461" lon="0.90583">
        <ele>182.96837</ele>
        <time>2023-01-03T10:18:23.817Z</time>
      </trkpt>
      <trkpt lat="43.70449" lon="0.90581">
        <ele>182.913852</ele>
        <time>2023-01-03T10:18:25.797Z</time>
      </trkpt>
      <trkpt lat="43.70438" lon="0.90579">
        <ele>182.857791</ele>
        <time>2023-01-03T10:18:27.800Z</time>
      </trkpt>
      <trkpt lat="43.70428" lon="0.90578">
        <ele>182.808011</ele>
        <time>2023-01-03T10:18:29.802Z</time>
      </trkpt>
      <trkpt lat="43.70417" lon="0.90575">
        <ele>182.755159</ele>
        <time>2023-01-03T10:18:31.801Z</time>
      </trkpt>
      <trkpt lat="43.70408" lon="0.90574">
        <ele>182.708698</ele>
        <time>2023-01-03T10:18:33.793Z</time>
      </trkpt>
      <trkpt lat="43.70399" lon="0.90572">
        <ele>182.664986</ele>
        <time>2023-01-03T10:18:35.802Z</time>
      </trkpt>
      <trkpt lat="43.70385" lon="0.90571">
        <ele>182.598509</ele>
        <time>2023-01-03T10:18:38.796Z</time>
      </trkpt>
      <trkpt lat="43.70375" lon="0.90569">
        <ele>182.549555</ele>
        <time>2023-01-03T10:18:40.793Z</time>
      </trkpt>
      <trkpt lat="43.70365" lon="0.90567">
        <ele>182.50179</ele>
        <time>2023-01-03T10:18:42.800Z</time>
      </trkpt>
      <trkpt lat="43.70356" lon="0.90565">
        <ele>182.453435</ele>
        <time>2023-01-03T10:18:44.800Z</time>
      </trkpt>
      <trkpt lat="43.70345" lon="0.90563">
        <ele>182.402139</ele>
        <time>2023-01-03T10:18:46.800Z</time>
      </trkpt>
      <trkpt lat="43.70335" lon="0.90561">
        <ele>182.388077</ele>
        <time>2023-01-03T10:18:48.802Z</time>
      </trkpt>
      <trkpt lat="43.70325" lon="0.90559">
        <ele>182.480458</ele>
        <time>2023-01-03T10:18:50.792Z</time>
      </trkpt>
      <trkpt lat="43.70316" lon="0.90557">
        <ele>182.563125</ele>
        <time>2023-01-03T10:18:52.789Z</time>
      </trkpt>
      <trkpt lat="43.70304" lon="0.90553">
        <ele>182.675501</ele>
        <time>2023-01-03T10:18:55.802Z</time>
      </trkpt>
      <trkpt lat="43.70294" lon="0.9055">
        <ele>182.766579</ele>
        <time>2023-01-03T10:18:58.798Z</time>
      </trkpt>
      <trkpt lat="43.70284" lon="0.90546">
        <ele>182.861328</ele>
        <time>2023-01-03T10:19:01.807Z</time>
      </trkpt>
      <trkpt lat="43.70273" lon="0.90542">
        <ele>182.961249</ele>
        <time>2023-01-03T10:19:04.801Z</time>
      </trkpt>
      <trkpt lat="43.70262" lon="0.90538">
        <ele>183.066915</ele>
        <time>2023-01-03T10:19:07.791Z</time>
      </trkpt>
      <trkpt lat="43.7025" lon="0.90535">
        <ele>183.175188</ele>
        <time>2023-01-03T10:19:10.801Z</time>
      </trkpt>
      <trkpt lat="43.70238" lon="0.90531">
        <ele>183.291431</ele>
        <time>2023-01-03T10:19:13.799Z</time>
      </trkpt>
      <trkpt lat="43.70229" lon="0.90528">
        <ele>183.373568</ele>
        <time>2023-01-03T10:19:15.795Z</time>
      </trkpt>
      <trkpt lat="43.70216" lon="0.90524">
        <ele>183.495655</ele>
        <time>2023-01-03T10:19:18.802Z</time>
      </trkpt>
      <trkpt lat="43.70207" lon="0.90521">
        <ele>183.581303</ele>
        <time>2023-01-03T10:19:20.810Z</time>
      </trkpt>
      <trkpt lat="43.70194" lon="0.90517">
        <ele>183.702934</ele>
        <time>2023-01-03T10:19:23.810Z</time>
      </trkpt>
      <trkpt lat="43.70184" lon="0.90514">
        <ele>183.786381</ele>
        <time>2023-01-03T10:19:25.793Z</time>
      </trkpt>
      <trkpt lat="43.70171" lon="0.90511">
        <ele>183.907949</ele>
        <time>2023-01-03T10:19:28.808Z</time>
      </trkpt>
      <trkpt lat="43.70158" lon="0.90508">
        <ele>184.02475</ele>
        <time>2023-01-03T10:19:31.798Z</time>
      </trkpt>
      <trkpt lat="43.70145" lon="0.90504">
        <ele>184.127203</ele>
        <time>2023-01-03T10:19:34.801Z</time>
      </trkpt>
      <trkpt lat="43.70133" lon="0.90501">
        <ele>184.22228</ele>
        <time>2023-01-03T10:19:37.799Z</time>
      </trkpt>
      <trkpt lat="43.70121" lon="0.90498">
        <ele>184.311596</ele>
        <time>2023-01-03T10:19:40.797Z</time>
      </trkpt>
      <trkpt lat="43.70109" lon="0.90495">
        <ele>184.403458</ele>
        <time>2023-01-03T10:19:43.799Z</time>
      </trkpt>
      <trkpt lat="43.70097" lon="0.90492">
        <ele>184.497131</ele>
        <time>2023-01-03T10:19:46.788Z</time>
      </trkpt>
      <trkpt lat="43.70084" lon="0.90489">
        <ele>184.597685</ele>
        <time>2023-01-03T10:19:49.800Z</time>
      </trkpt>
      <trkpt lat="43.70072" lon="0.90485">
        <ele>184.697521</ele>
        <time>2023-01-03T10:19:52.799Z</time>
      </trkpt>
      <trkpt lat="43.70059" lon="0.90482">
        <ele>184.795926</ele>
        <time>2023-01-03T10:19:55.800Z</time>
      </trkpt>
      <trkpt lat="43.70045" lon="0.90481">
        <ele>184.900381</ele>
        <time>2023-01-03T10:19:58.799Z</time>
      </trkpt>
      <trkpt lat="43.70032" lon="0.9048">
        <ele>185.0001</ele>
        <time>2023-01-03T10:20:01.797Z</time>
      </trkpt>
      <trkpt lat="43.70023" lon="0.9048">
        <ele>185.072227</ele>
        <time>2023-01-03T10:20:03.801Z</time>
      </trkpt>
      <trkpt lat="43.7001" lon="0.90478">
        <ele>185.169073</ele>
        <time>2023-01-03T10:20:06.806Z</time>
      </trkpt>
      <trkpt lat="43.70001" lon="0.90477">
        <ele>185.241601</ele>
        <time>2023-01-03T10:20:08.795Z</time>
      </trkpt>
      <trkpt lat="43.69992" lon="0.90476">
        <ele>185.312381</ele>
        <time>2023-01-03T10:20:10.805Z</time>
      </trkpt>
      <trkpt lat="43.69982" lon="0.90476">
        <ele>185.351499</ele>
        <time>2023-01-03T10:20:12.797Z</time>
      </trkpt>
      <trkpt lat="43.69973" lon="0.90476">
        <ele>185.258542</ele>
        <time>2023-01-03T10:20:14.793Z</time>
      </trkpt>
      <trkpt lat="43.69964" lon="0.90477">
        <ele>185.162719</ele>
        <time>2023-01-03T10:20:16.806Z</time>
      </trkpt>
      <trkpt lat="43.6995" lon="0.9048">
        <ele>185.022932</ele>
        <time>2023-01-03T10:20:19.793Z</time>
      </trkpt>
      <trkpt lat="43.69939" lon="0.90485">
        <ele>184.901051</ele>
        <time>2023-01-03T10:20:22.800Z</time>
      </trkpt>
      <trkpt lat="43.69928" lon="0.9049">
        <ele>184.783747</ele>
        <time>2023-01-03T10:20:25.800Z</time>
      </trkpt>
      <trkpt lat="43.69918" lon="0.90495">
        <ele>184.672958</ele>
        <time>2023-01-03T10:20:28.796Z</time>
      </trkpt>
      <trkpt lat="43.69906" lon="0.90501">
        <ele>184.541585</ele>
        <time>2023-01-03T10:20:31.790Z</time>
      </trkpt>
      <trkpt lat="43.69894" lon="0.90509">
        <ele>184.406694</ele>
        <time>2023-01-03T10:20:34.806Z</time>
      </trkpt>
      <trkpt lat="43.69883" lon="0.90519">
        <ele>184.275484</ele>
        <time>2023-01-03T10:20:37.804Z</time>
      </trkpt>
      <trkpt lat="43.69873" lon="0.90528">
        <ele>184.148983</ele>
        <time>2023-01-03T10:20:40.804Z</time>
      </trkpt>
      <trkpt lat="43.69862" lon="0.90538">
        <ele>184.015783</ele>
        <time>2023-01-03T10:20:43.806Z</time>
      </trkpt>
      <trkpt lat="43.6985" lon="0.90548">
        <ele>183.877495</ele>
        <time>2023-01-03T10:20:46.801Z</time>
      </trkpt>
      <trkpt lat="43.69843" lon="0.90556">
        <ele>183.779618</ele>
        <time>2023-01-03T10:20:48.788Z</time>
      </trkpt>
      <trkpt lat="43.69835" lon="0.90563">
        <ele>183.680898</ele>
        <time>2023-01-03T10:20:50.804Z</time>
      </trkpt>
      <trkpt lat="43.69827" lon="0.90571">
        <ele>183.582527</ele>
        <time>2023-01-03T10:20:52.790Z</time>
      </trkpt>
      <trkpt lat="43.69819" lon="0.90579">
        <ele>183.476457</ele>
        <time>2023-01-03T10:20:54.806Z</time>
      </trkpt>
      <trkpt lat="43.69811" lon="0.90588">
        <ele>183.359168</ele>
        <time>2023-01-03T10:20:56.797Z</time>
      </trkpt>
      <trkpt lat="43.69804" lon="0.90596">
        <ele>183.247522</ele>
        <time>2023-01-03T10:20:58.804Z</time>
      </trkpt>
      <trkpt lat="43.69797" lon="0.90605">
        <ele>183.140116</ele>
        <time>2023-01-03T10:21:00.810Z</time>
      </trkpt>
      <trkpt lat="43.6979" lon="0.90613">
        <ele>183.029127</ele>
        <time>2023-01-03T10:21:02.791Z</time>
      </trkpt>
      <trkpt lat="43.69782" lon="0.90622">
        <ele>182.915402</ele>
        <time>2023-01-03T10:21:04.799Z</time>
      </trkpt>
      <trkpt lat="43.69775" lon="0.9063">
        <ele>182.806558</ele>
        <time>2023-01-03T10:21:06.801Z</time>
      </trkpt>
      <trkpt lat="43.69768" lon="0.9064">
        <ele>182.685325</ele>
        <time>2023-01-03T10:21:08.796Z</time>
      </trkpt>
      <trkpt lat="43.6976" lon="0.9065">
        <ele>182.560694</ele>
        <time>2023-01-03T10:21:10.805Z</time>
      </trkpt>
      <trkpt lat="43.69752" lon="0.90661">
        <ele>182.425987</ele>
        <time>2023-01-03T10:21:12.795Z</time>
      </trkpt>
      <trkpt lat="43.69743" lon="0.90671">
        <ele>182.295037</ele>
        <time>2023-01-03T10:21:14.791Z</time>
      </trkpt>
      <trkpt lat="43.69735" lon="0.9068">
        <ele>182.169477</ele>
        <time>2023-01-03T10:21:16.808Z</time>
      </trkpt>
      <trkpt lat="43.69727" lon="0.90689">
        <ele>182.049298</ele>
        <time>2023-01-03T10:21:18.802Z</time>
      </trkpt>
      <trkpt lat="43.69719" lon="0.907">
        <ele>181.923032</ele>
        <time>2023-01-03T10:21:20.789Z</time>
      </trkpt>
      <trkpt lat="43.69711" lon="0.9071">
        <ele>181.789211</ele>
        <time>2023-01-03T10:21:22.789Z</time>
      </trkpt>
      <trkpt lat="43.69702" lon="0.9072">
        <ele>181.656427</ele>
        <time>2023-01-03T10:21:24.787Z</time>
      </trkpt>
      <trkpt lat="43.69695" lon="0.9073">
        <ele>181.536835</ele>
        <time>2023-01-03T10:21:26.801Z</time>
      </trkpt>
      <trkpt lat="43.69689" lon="0.90739">
        <ele>181.428817</ele>
        <time>2023-01-03T10:21:28.803Z</time>
      </trkpt>
      <trkpt lat="43.69682" lon="0.90749">
        <ele>181.494804</ele>
        <time>2023-01-03T10:21:30.808Z</time>
      </trkpt>
      <trkpt lat="43.69676" lon="0.90759">
        <ele>181.562072</ele>
        <time>2023-01-03T10:21:32.790Z</time>
      </trkpt>
      <trkpt lat="43.6967" lon="0.90769">
        <ele>181.631103</ele>
        <time>2023-01-03T10:21:34.805Z</time>
      </trkpt>
      <trkpt lat="43.69663" lon="0.90779">
        <ele>181.707702</ele>
        <time>2023-01-03T10:21:36.806Z</time>
      </trkpt>
      <trkpt lat="43.69657" lon="0.9079">
        <ele>181.777328</ele>
        <time>2023-01-03T10:21:38.810Z</time>
      </trkpt>
      <trkpt lat="43.6965" lon="0.90799">
        <ele>181.845807</ele>
        <time>2023-01-03T10:21:40.803Z</time>
      </trkpt>
      <trkpt lat="43.69644" lon="0.90809">
        <ele>181.915884</ele>
        <time>2023-01-03T10:21:42.803Z</time>
      </trkpt>
      <trkpt lat="43.69638" lon="0.90819">
        <ele>181.988938</ele>
        <time>2023-01-03T10:21:44.808Z</time>
      </trkpt>
      <trkpt lat="43.69632" lon="0.9083">
        <ele>182.060302</ele>
        <time>2023-01-03T10:21:46.806Z</time>
      </trkpt>
      <trkpt lat="43.69625" lon="0.9084">
        <ele>182.132167</ele>
        <time>2023-01-03T10:21:48.808Z</time>
      </trkpt>
      <trkpt lat="43.69619" lon="0.90849">
        <ele>182.201389</ele>
        <time>2023-01-03T10:21:50.804Z</time>
      </trkpt>
      <trkpt lat="43.6961" lon="0.9086">
        <ele>182.286815</ele>
        <time>2023-01-03T10:21:53.810Z</time>
      </trkpt>
      <trkpt lat="43.69603" lon="0.90869">
        <ele>182.355665</ele>
        <time>2023-01-03T10:21:55.800Z</time>
      </trkpt>
      <trkpt lat="43.69596" lon="0.90878">
        <ele>182.422149</ele>
        <time>2023-01-03T10:21:57.818Z</time>
      </trkpt>
      <trkpt lat="43.6959" lon="0.90887">
        <ele>182.490477</ele>
        <time>2023-01-03T10:21:59.795Z</time>
      </trkpt>
      <trkpt lat="43.69583" lon="0.90896">
        <ele>182.560748</ele>
        <time>2023-01-03T10:22:01.790Z</time>
      </trkpt>
      <trkpt lat="43.69576" lon="0.90905">
        <ele>182.628937</ele>
        <time>2023-01-03T10:22:03.802Z</time>
      </trkpt>
      <trkpt lat="43.69566" lon="0.90918">
        <ele>182.72812</ele>
        <time>2023-01-03T10:22:06.802Z</time>
      </trkpt>
      <trkpt lat="43.6956" lon="0.90926">
        <ele>182.750693</ele>
        <time>2023-01-03T10:22:08.810Z</time>
      </trkpt>
      <trkpt lat="43.69553" lon="0.90935">
        <ele>182.758984</ele>
        <time>2023-01-03T10:22:10.819Z</time>
      </trkpt>
      <trkpt lat="43.69543" lon="0.90945">
        <ele>182.770615</ele>
        <time>2023-01-03T10:22:13.808Z</time>
      </trkpt>
      <trkpt lat="43.69535" lon="0.90953">
        <ele>182.779344</ele>
        <time>2023-01-03T10:22:15.807Z</time>
      </trkpt>
      <trkpt lat="43.69527" lon="0.90959">
        <ele>182.787582</ele>
        <time>2023-01-03T10:22:17.804Z</time>
      </trkpt>
      <trkpt lat="43.69516" lon="0.9097">
        <ele>182.799806</ele>
        <time>2023-01-03T10:22:20.800Z</time>
      </trkpt>
      <trkpt lat="43.69507" lon="0.90974">
        <ele>182.808215</ele>
        <time>2023-01-03T10:22:22.794Z</time>
      </trkpt>
      <trkpt lat="43.69498" lon="0.90979">
        <ele>182.816641</ele>
        <time>2023-01-03T10:22:24.809Z</time>
      </trkpt>
      <trkpt lat="43.69486" lon="0.90988">
        <ele>182.828896</ele>
        <time>2023-01-03T10:22:27.802Z</time>
      </trkpt>
      <trkpt lat="43.69478" lon="0.90995">
        <ele>182.837212</ele>
        <time>2023-01-03T10:22:29.803Z</time>
      </trkpt>
      <trkpt lat="43.6947" lon="0.91">
        <ele>182.845306</ele>
        <time>2023-01-03T10:22:31.804Z</time>
      </trkpt>
      <trkpt lat="43.69462" lon="0.91006">
        <ele>182.853606</ele>
        <time>2023-01-03T10:22:33.801Z</time>
      </trkpt>
      <trkpt lat="43.6945" lon="0.91015">
        <ele>182.866556</ele>
        <time>2023-01-03T10:22:36.809Z</time>
      </trkpt>
      <trkpt lat="43.6944" lon="0.91021">
        <ele>182.875829</ele>
        <time>2023-01-03T10:22:38.793Z</time>
      </trkpt>
      <trkpt lat="43.69433" lon="0.91029">
        <ele>182.88441</ele>
        <time>2023-01-03T10:22:40.792Z</time>
      </trkpt>
      <trkpt lat="43.69419" lon="0.91033">
        <ele>182.896542</ele>
        <time>2023-01-03T10:22:42.795Z</time>
      </trkpt>
      <trkpt lat="43.69411" lon="0.91039">
        <ele>182.905015</ele>
        <time>2023-01-03T10:22:44.803Z</time>
      </trkpt>
      <trkpt lat="43.69402" lon="0.91046">
        <ele>182.914516</ele>
        <time>2023-01-03T10:22:46.786Z</time>
      </trkpt>
      <trkpt lat="43.69392" lon="0.91055">
        <ele>182.925346</ele>
        <time>2023-01-03T10:22:49.804Z</time>
      </trkpt>
      <trkpt lat="43.69384" lon="0.91061">
        <ele>182.933702</ele>
        <time>2023-01-03T10:22:51.809Z</time>
      </trkpt>
      <trkpt lat="43.69376" lon="0.91067">
        <ele>182.942176</ele>
        <time>2023-01-03T10:22:53.787Z</time>
      </trkpt>
      <trkpt lat="43.69365" lon="0.91076">
        <ele>182.95352</ele>
        <time>2023-01-03T10:22:56.808Z</time>
      </trkpt>
      <trkpt lat="43.69355" lon="0.91084">
        <ele>182.964793</ele>
        <time>2023-01-03T10:22:59.804Z</time>
      </trkpt>
      <trkpt lat="43.69344" lon="0.91092">
        <ele>182.975923</ele>
        <time>2023-01-03T10:23:02.794Z</time>
      </trkpt>
      <trkpt lat="43.69333" lon="0.911">
        <ele>182.987478</ele>
        <time>2023-01-03T10:23:05.785Z</time>
      </trkpt>
      <trkpt lat="43.69324" lon="0.91104">
        <ele>182.996133</ele>
        <time>2023-01-03T10:23:07.790Z</time>
      </trkpt>
      <trkpt lat="43.69312" lon="0.9111">
        <ele>183.007364</ele>
        <time>2023-01-03T10:23:10.803Z</time>
      </trkpt>
      <trkpt lat="43.69301" lon="0.91115">
        <ele>183.018682</ele>
        <time>2023-01-03T10:23:13.788Z</time>
      </trkpt>
      <trkpt lat="43.69289" lon="0.91121">
        <ele>183.030328</ele>
        <time>2023-01-03T10:23:15.786Z</time>
      </trkpt>
      <trkpt lat="43.69277" lon="0.91128">
        <ele>183.041999</ele>
        <time>2023-01-03T10:23:18.791Z</time>
      </trkpt>
      <trkpt lat="43.69266" lon="0.91133">
        <ele>183.053144</ele>
        <time>2023-01-03T10:23:21.796Z</time>
      </trkpt>
      <trkpt lat="43.69253" lon="0.9114">
        <ele>183.065593</ele>
        <time>2023-01-03T10:23:24.805Z</time>
      </trkpt>
      <trkpt lat="43.69242" lon="0.91146">
        <ele>183.132085</ele>
        <time>2023-01-03T10:23:27.801Z</time>
      </trkpt>
      <trkpt lat="43.69234" lon="0.9115">
        <ele>183.255592</ele>
        <time>2023-01-03T10:23:29.797Z</time>
      </trkpt>
      <trkpt lat="43.69222" lon="0.91157">
        <ele>183.427795</ele>
        <time>2023-01-03T10:23:32.800Z</time>
      </trkpt>
      <trkpt lat="43.69212" lon="0.91163">
        <ele>183.578282</ele>
        <time>2023-01-03T10:23:35.807Z</time>
      </trkpt>
      <trkpt lat="43.69203" lon="0.91169">
        <ele>183.711514</ele>
        <time>2023-01-03T10:23:38.811Z</time>
      </trkpt>
      <trkpt lat="43.69192" lon="0.91173">
        <ele>183.85953</ele>
        <time>2023-01-03T10:23:41.819Z</time>
      </trkpt>
      <trkpt lat="43.69183" lon="0.9118">
        <ele>184.003859</ele>
        <time>2023-01-03T10:23:44.791Z</time>
      </trkpt>
      <trkpt lat="43.69176" lon="0.91192">
        <ele>184.150841</ele>
        <time>2023-01-03T10:23:47.786Z</time>
      </trkpt>
      <trkpt lat="43.69169" lon="0.91206">
        <ele>184.321556</ele>
        <time>2023-01-03T10:23:50.793Z</time>
      </trkpt>
      <trkpt lat="43.69162" lon="0.91221">
        <ele>184.497102</ele>
        <time>2023-01-03T10:23:53.809Z</time>
      </trkpt>
      <trkpt lat="43.69156" lon="0.91235">
        <ele>184.657018</ele>
        <time>2023-01-03T10:23:56.802Z</time>
      </trkpt>
      <trkpt lat="43.69147" lon="0.91247">
        <ele>184.825497</ele>
        <time>2023-01-03T10:23:59.803Z</time>
      </trkpt>
      <trkpt lat="43.69139" lon="0.91258">
        <ele>184.976355</ele>
        <time>2023-01-03T10:24:02.786Z</time>
      </trkpt>
      <trkpt lat="43.69133" lon="0.91268">
        <ele>185.107705</ele>
        <time>2023-01-03T10:24:05.797Z</time>
      </trkpt>
      <trkpt lat="43.69125" lon="0.91277">
        <ele>185.240138</ele>
        <time>2023-01-03T10:24:08.786Z</time>
      </trkpt>
      <trkpt lat="43.69118" lon="0.91286">
        <ele>185.373964</ele>
        <time>2023-01-03T10:24:11.792Z</time>
      </trkpt>
      <trkpt lat="43.6911" lon="0.91294">
        <ele>185.505396</ele>
        <time>2023-01-03T10:24:14.808Z</time>
      </trkpt>
      <trkpt lat="43.69102" lon="0.913">
        <ele>185.840336</ele>
        <time>2023-01-03T10:24:17.788Z</time>
      </trkpt>
      <trkpt lat="43.69094" lon="0.91307">
        <ele>186.214567</ele>
        <time>2023-01-03T10:24:21.804Z</time>
      </trkpt>
      <trkpt lat="43.69084" lon="0.91314">
        <ele>186.603202</ele>
        <time>2023-01-03T10:24:26.804Z</time>
      </trkpt>
      <trkpt lat="43.69075" lon="0.91319">
        <ele>186.966412</ele>
        <time>2023-01-03T10:24:31.808Z</time>
      </trkpt>
      <trkpt lat="43.69066" lon="0.91325">
        <ele>187.335986</ele>
        <time>2023-01-03T10:24:36.811Z</time>
      </trkpt>
      <trkpt lat="43.69057" lon="0.9133">
        <ele>187.710088</ele>
        <time>2023-01-03T10:24:41.821Z</time>
      </trkpt>
      <trkpt lat="43.69048" lon="0.91336">
        <ele>188.077473</ele>
        <time>2023-01-03T10:24:46.806Z</time>
      </trkpt>
      <trkpt lat="43.6904" lon="0.91341">
        <ele>188.435697</ele>
        <time>2023-01-03T10:24:51.806Z</time>
      </trkpt>
      <trkpt lat="43.69031" lon="0.91346">
        <ele>188.781</ele>
        <time>2023-01-03T10:24:56.805Z</time>
      </trkpt>
      <trkpt lat="43.69021" lon="0.91352">
        <ele>189.176744</ele>
        <time>2023-01-03T10:25:01.801Z</time>
      </trkpt>
      <trkpt lat="43.69011" lon="0.91357">
        <ele>189.597209</ele>
        <time>2023-01-03T10:25:05.792Z</time>
      </trkpt>
      <trkpt lat="43.69" lon="0.91363">
        <ele>190.019622</ele>
        <time>2023-01-03T10:25:09.804Z</time>
      </trkpt>
      <trkpt lat="43.68992" lon="0.91368">
        <ele>190.363445</ele>
        <time>2023-01-03T10:25:13.785Z</time>
      </trkpt>
      <trkpt lat="43.68983" lon="0.91372">
        <ele>190.70499</ele>
        <time>2023-01-03T10:25:17.806Z</time>
      </trkpt>
      <trkpt lat="43.68978" lon="0.91374">
        <ele>190.916036</ele>
        <time>2023-01-03T10:25:27.573Z</time>
      </trkpt>
      <trkpt lat="43.68958" lon="0.9139">
        <ele>191.766513</ele>
        <time>2023-01-03T10:29:26.793Z</time>
      </trkpt>
      <trkpt lat="43.6895" lon="0.91398">
        <ele>192.133423</ele>
        <time>2023-01-03T10:29:31.788Z</time>
      </trkpt>
      <trkpt lat="43.68943" lon="0.91408">
        <ele>192.634812</ele>
        <time>2023-01-03T10:29:36.811Z</time>
      </trkpt>
      <trkpt lat="43.68937" lon="0.91417">
        <ele>193.133319</ele>
        <time>2023-01-03T10:29:41.807Z</time>
      </trkpt>
      <trkpt lat="43.68931" lon="0.91426">
        <ele>193.628489</ele>
        <time>2023-01-03T10:29:46.789Z</time>
      </trkpt>
      <trkpt lat="43.68927" lon="0.91437">
        <ele>194.126746</ele>
        <time>2023-01-03T10:29:52.789Z</time>
      </trkpt>
      <trkpt lat="43.6892" lon="0.91447">
        <ele>194.683042</ele>
        <time>2023-01-03T10:29:58.794Z</time>
      </trkpt>
      <trkpt lat="43.68914" lon="0.91459">
        <ele>195.262466</ele>
        <time>2023-01-03T10:30:04.791Z</time>
      </trkpt>
      <trkpt lat="43.68907" lon="0.91471">
        <ele>195.843549</ele>
        <time>2023-01-03T10:30:10.790Z</time>
      </trkpt>
      <trkpt lat="43.689" lon="0.9148">
        <ele>196.342057</ele>
        <time>2023-01-03T10:30:15.791Z</time>
      </trkpt>
      <trkpt lat="43.68894" lon="0.9149">
        <ele>196.851763</ele>
        <time>2023-01-03T10:30:20.804Z</time>
      </trkpt>
      <trkpt lat="43.68891" lon="0.91502">
        <ele>197.370107</ele>
        <time>2023-01-03T10:30:25.789Z</time>
      </trkpt>
      <trkpt lat="43.68886" lon="0.91515">
        <ele>197.926261</ele>
        <time>2023-01-03T10:30:31.793Z</time>
      </trkpt>
      <trkpt lat="43.68885" lon="0.91527">
        <ele>198.435324</ele>
        <time>2023-01-03T10:30:36.795Z</time>
      </trkpt>
      <trkpt lat="43.68885" lon="0.91542">
        <ele>199.008904</ele>
        <time>2023-01-03T10:30:42.790Z</time>
      </trkpt>
      <trkpt lat="43.68883" lon="0.91556">
        <ele>199.573438</ele>
        <time>2023-01-03T10:30:48.792Z</time>
      </trkpt>
      <trkpt lat="43.68883" lon="0.9157">
        <ele>200.134473</ele>
        <time>2023-01-03T10:30:54.791Z</time>
      </trkpt>
      <trkpt lat="43.68882" lon="0.91585">
        <ele>200.718702</ele>
        <time>2023-01-03T10:31:00.792Z</time>
      </trkpt>
      <trkpt lat="43.6888" lon="0.916">
        <ele>201.314707</ele>
        <time>2023-01-03T10:31:06.795Z</time>
      </trkpt>
      <trkpt lat="43.68879" lon="0.91614">
        <ele>201.859711</ele>
        <time>2023-01-03T10:31:11.796Z</time>
      </trkpt>
      <trkpt lat="43.68878" lon="0.91626">
        <ele>202.28384</ele>
        <time>2023-01-03T10:31:16.785Z</time>
      </trkpt>
      <trkpt lat="43.68877" lon="0.9164">
        <ele>202.683171</ele>
        <time>2023-01-03T10:31:22.793Z</time>
      </trkpt>
      <trkpt lat="43.68875" lon="0.91654">
        <ele>203.100225</ele>
        <time>2023-01-03T10:31:28.789Z</time>
      </trkpt>
      <trkpt lat="43.68874" lon="0.91667">
        <ele>203.469534</ele>
        <time>2023-01-03T10:31:33.789Z</time>
      </trkpt>
      <trkpt lat="43.68872" lon="0.91681">
        <ele>203.892892</ele>
        <time>2023-01-03T10:31:39.790Z</time>
      </trkpt>
      <trkpt lat="43.68869" lon="0.91694">
        <ele>204.273608</ele>
        <time>2023-01-03T10:31:44.804Z</time>
      </trkpt>
      <trkpt lat="43.68864" lon="0.91706">
        <ele>204.683875</ele>
        <time>2023-01-03T10:31:50.787Z</time>
      </trkpt>
      <trkpt lat="43.6886" lon="0.91717">
        <ele>205.060141</ele>
        <time>2023-01-03T10:31:55.793Z</time>
      </trkpt>
      <trkpt lat="43.68856" lon="0.91729">
        <ele>205.447259</ele>
        <time>2023-01-03T10:32:00.810Z</time>
      </trkpt>
      <trkpt lat="43.68851" lon="0.91743">
        <ele>205.891796</ele>
        <time>2023-01-03T10:32:05.808Z</time>
      </trkpt>
      <trkpt lat="43.68847" lon="0.91755">
        <ele>206.25283</ele>
        <time>2023-01-03T10:32:09.792Z</time>
      </trkpt>
      <trkpt lat="43.68842" lon="0.91766">
        <ele>206.627978</ele>
        <time>2023-01-03T10:32:13.789Z</time>
      </trkpt>
      <trkpt lat="43.68837" lon="0.91778">
        <ele>207.038738</ele>
        <time>2023-01-03T10:32:17.792Z</time>
      </trkpt>
      <trkpt lat="43.68833" lon="0.9179">
        <ele>207.431558</ele>
        <time>2023-01-03T10:32:21.798Z</time>
      </trkpt>
      <trkpt lat="43.68827" lon="0.91802">
        <ele>207.85479</ele>
        <time>2023-01-03T10:32:25.788Z</time>
      </trkpt>
      <trkpt lat="43.68821" lon="0.91816">
        <ele>208.313224</ele>
        <time>2023-01-03T10:32:29.815Z</time>
      </trkpt>
      <trkpt lat="43.68816" lon="0.91827">
        <ele>208.677406</ele>
        <time>2023-01-03T10:32:32.802Z</time>
      </trkpt>
      <trkpt lat="43.6881" lon="0.91841">
        <ele>209.149352</ele>
        <time>2023-01-03T10:32:36.812Z</time>
      </trkpt>
      <trkpt lat="43.68805" lon="0.91853">
        <ele>209.512126</ele>
        <time>2023-01-03T10:32:40.801Z</time>
      </trkpt>
      <trkpt lat="43.68799" lon="0.91865">
        <ele>209.879194</ele>
        <time>2023-01-03T10:32:44.790Z</time>
      </trkpt>
      <trkpt lat="43.68794" lon="0.91877">
        <ele>210.193885</ele>
        <time>2023-01-03T10:32:48.807Z</time>
      </trkpt>
      <trkpt lat="43.68789" lon="0.9189">
        <ele>210.563533</ele>
        <time>2023-01-03T10:32:52.806Z</time>
      </trkpt>
      <trkpt lat="43.68783" lon="0.91904">
        <ele>210.948955</ele>
        <time>2023-01-03T10:32:56.791Z</time>
      </trkpt>
      <trkpt lat="43.68777" lon="0.91918">
        <ele>211.324033</ele>
        <time>2023-01-03T10:33:00.792Z</time>
      </trkpt>
      <trkpt lat="43.68772" lon="0.91932">
        <ele>211.705319</ele>
        <time>2023-01-03T10:33:04.788Z</time>
      </trkpt>
      <trkpt lat="43.68766" lon="0.91945">
        <ele>212.086347</ele>
        <time>2023-01-03T10:33:08.807Z</time>
      </trkpt>
      <trkpt lat="43.6876" lon="0.91959">
        <ele>212.473505</ele>
        <time>2023-01-03T10:33:12.806Z</time>
      </trkpt>
      <trkpt lat="43.68755" lon="0.91969">
        <ele>212.779882</ele>
        <time>2023-01-03T10:33:15.797Z</time>
      </trkpt>
      <trkpt lat="43.6875" lon="0.9198">
        <ele>213.080278</ele>
        <time>2023-01-03T10:33:18.816Z</time>
      </trkpt>
      <trkpt lat="43.68744" lon="0.91994">
        <ele>213.476277</ele>
        <time>2023-01-03T10:33:22.787Z</time>
      </trkpt>
      <trkpt lat="43.68738" lon="0.92008">
        <ele>213.864998</ele>
        <time>2023-01-03T10:33:26.802Z</time>
      </trkpt>
      <trkpt lat="43.68732" lon="0.92021">
        <ele>214.246643</ele>
        <time>2023-01-03T10:33:30.806Z</time>
      </trkpt>
      <trkpt lat="43.68727" lon="0.92034">
        <ele>214.598848</ele>
        <time>2023-01-03T10:33:34.809Z</time>
      </trkpt>
      <trkpt lat="43.68721" lon="0.92047">
        <ele>214.971443</ele>
        <time>2023-01-03T10:33:38.795Z</time>
      </trkpt>
      <trkpt lat="43.68716" lon="0.9206">
        <ele>215.328492</ele>
        <time>2023-01-03T10:33:42.795Z</time>
      </trkpt>
      <trkpt lat="43.68711" lon="0.92072">
        <ele>215.732419</ele>
        <time>2023-01-03T10:33:46.787Z</time>
      </trkpt>
      <trkpt lat="43.68705" lon="0.92084">
        <ele>216.147496</ele>
        <time>2023-01-03T10:33:50.809Z</time>
      </trkpt>
      <trkpt lat="43.687" lon="0.92096">
        <ele>216.565021</ele>
        <time>2023-01-03T10:33:54.793Z</time>
      </trkpt>
      <trkpt lat="43.68695" lon="0.92107">
        <ele>216.946434</ele>
        <time>2023-01-03T10:33:58.794Z</time>
      </trkpt>
      <trkpt lat="43.6869" lon="0.92118">
        <ele>217.345306</ele>
        <time>2023-01-03T10:34:02.807Z</time>
      </trkpt>
      <trkpt lat="43.68685" lon="0.92131">
        <ele>217.758581</ele>
        <time>2023-01-03T10:34:06.791Z</time>
      </trkpt>
      <trkpt lat="43.6868" lon="0.92142">
        <ele>218.145667</ele>
        <time>2023-01-03T10:34:10.810Z</time>
      </trkpt>
      <trkpt lat="43.68675" lon="0.92154">
        <ele>218.561002</ele>
        <time>2023-01-03T10:34:14.810Z</time>
      </trkpt>
      <trkpt lat="43.6867" lon="0.92166">
        <ele>218.969897</ele>
        <time>2023-01-03T10:34:18.809Z</time>
      </trkpt>
      <trkpt lat="43.68664" lon="0.92178">
        <ele>219.406422</ele>
        <time>2023-01-03T10:34:22.812Z</time>
      </trkpt>
      <trkpt lat="43.68659" lon="0.92192">
        <ele>219.843562</ele>
        <time>2023-01-03T10:34:26.807Z</time>
      </trkpt>
      <trkpt lat="43.68655" lon="0.92203">
        <ele>220.217797</ele>
        <time>2023-01-03T10:34:29.799Z</time>
      </trkpt>
      <trkpt lat="43.6865" lon="0.92213">
        <ele>220.583878</ele>
        <time>2023-01-03T10:34:32.797Z</time>
      </trkpt>
      <trkpt lat="43.68644" lon="0.92226">
        <ele>221.033496</ele>
        <time>2023-01-03T10:34:36.797Z</time>
      </trkpt>
      <trkpt lat="43.68638" lon="0.92241">
        <ele>221.52525</ele>
        <time>2023-01-03T10:34:40.798Z</time>
      </trkpt>
      <trkpt lat="43.68633" lon="0.92252">
        <ele>221.91117</ele>
        <time>2023-01-03T10:34:43.793Z</time>
      </trkpt>
      <trkpt lat="43.68628" lon="0.92263">
        <ele>222.281863</ele>
        <time>2023-01-03T10:34:46.808Z</time>
      </trkpt>
      <trkpt lat="43.68623" lon="0.92276">
        <ele>222.617564</ele>
        <time>2023-01-03T10:34:50.812Z</time>
      </trkpt>
      <trkpt lat="43.68617" lon="0.92293">
        <ele>222.788954</ele>
        <time>2023-01-03T10:34:54.805Z</time>
      </trkpt>
      <trkpt lat="43.68613" lon="0.92305">
        <ele>222.913994</ele>
        <time>2023-01-03T10:34:58.820Z</time>
      </trkpt>
      <trkpt lat="43.68607" lon="0.9232">
        <ele>223.063476</ele>
        <time>2023-01-03T10:35:02.811Z</time>
      </trkpt>
      <trkpt lat="43.68603" lon="0.92333">
        <ele>223.182091</ele>
        <time>2023-01-03T10:35:05.806Z</time>
      </trkpt>
      <trkpt lat="43.686" lon="0.92345">
        <ele>223.300545</ele>
        <time>2023-01-03T10:35:08.809Z</time>
      </trkpt>
      <trkpt lat="43.68595" lon="0.92358">
        <ele>223.430133</ele>
        <time>2023-01-03T10:35:11.792Z</time>
      </trkpt>
      <trkpt lat="43.68591" lon="0.92372">
        <ele>223.567635</ele>
        <time>2023-01-03T10:35:14.806Z</time>
      </trkpt>
      <trkpt lat="43.68586" lon="0.92387">
        <ele>223.714344</ele>
        <time>2023-01-03T10:35:17.809Z</time>
      </trkpt>
      <trkpt lat="43.68582" lon="0.92402">
        <ele>223.857988</ele>
        <time>2023-01-03T10:35:20.795Z</time>
      </trkpt>
      <trkpt lat="43.68578" lon="0.92417">
        <ele>224.005357</ele>
        <time>2023-01-03T10:35:23.808Z</time>
      </trkpt>
      <trkpt lat="43.68573" lon="0.92433">
        <ele>224.15574</ele>
        <time>2023-01-03T10:35:26.817Z</time>
      </trkpt>
      <trkpt lat="43.68569" lon="0.92449">
        <ele>224.307307</ele>
        <time>2023-01-03T10:35:29.803Z</time>
      </trkpt>
      <trkpt lat="43.68565" lon="0.92464">
        <ele>224.451726</ele>
        <time>2023-01-03T10:35:32.789Z</time>
      </trkpt>
      <trkpt lat="43.68561" lon="0.92479">
        <ele>224.600345</ele>
        <time>2023-01-03T10:35:35.812Z</time>
      </trkpt>
      <trkpt lat="43.68557" lon="0.92495">
        <ele>224.74686</ele>
        <time>2023-01-03T10:35:38.797Z</time>
      </trkpt>
      <trkpt lat="43.68553" lon="0.92509">
        <ele>224.859975</ele>
        <time>2023-01-03T10:35:41.811Z</time>
      </trkpt>
      <trkpt lat="43.68549" lon="0.92523">
        <ele>224.950885</ele>
        <time>2023-01-03T10:35:44.810Z</time>
      </trkpt>
      <trkpt lat="43.68545" lon="0.92537">
        <ele>225.044792</ele>
        <time>2023-01-03T10:35:47.808Z</time>
      </trkpt>
      <trkpt lat="43.6854" lon="0.92553">
        <ele>225.149114</ele>
        <time>2023-01-03T10:35:50.810Z</time>
      </trkpt>
      <trkpt lat="43.68535" lon="0.92569">
        <ele>225.258482</ele>
        <time>2023-01-03T10:35:53.801Z</time>
      </trkpt>
      <trkpt lat="43.68531" lon="0.92585">
        <ele>225.363692</ele>
        <time>2023-01-03T10:35:56.821Z</time>
      </trkpt>
      <trkpt lat="43.68526" lon="0.92601">
        <ele>225.467751</ele>
        <time>2023-01-03T10:35:59.808Z</time>
      </trkpt>
      <trkpt lat="43.68522" lon="0.92616">
        <ele>225.57165</ele>
        <time>2023-01-03T10:36:02.792Z</time>
      </trkpt>
      <trkpt lat="43.68517" lon="0.92632">
        <ele>225.676284</ele>
        <time>2023-01-03T10:36:05.810Z</time>
      </trkpt>
      <trkpt lat="43.68514" lon="0.92646">
        <ele>225.767476</ele>
        <time>2023-01-03T10:36:08.796Z</time>
      </trkpt>
      <trkpt lat="43.6851" lon="0.92657">
        <ele>225.84878</ele>
        <time>2023-01-03T10:36:11.814Z</time>
      </trkpt>
      <trkpt lat="43.68505" lon="0.92672">
        <ele>225.945404</ele>
        <time>2023-01-03T10:36:15.809Z</time>
      </trkpt>
      <trkpt lat="43.68501" lon="0.92684">
        <ele>226.026799</ele>
        <time>2023-01-03T10:36:18.797Z</time>
      </trkpt>
      <trkpt lat="43.68498" lon="0.92697">
        <ele>226.112164</ele>
        <time>2023-01-03T10:36:21.805Z</time>
      </trkpt>
      <trkpt lat="43.68493" lon="0.9271">
        <ele>226.200533</ele>
        <time>2023-01-03T10:36:24.808Z</time>
      </trkpt>
      <trkpt lat="43.6849" lon="0.92722">
        <ele>226.282133</ele>
        <time>2023-01-03T10:36:27.796Z</time>
      </trkpt>
      <trkpt lat="43.68488" lon="0.92735">
        <ele>226.393812</ele>
        <time>2023-01-03T10:36:30.800Z</time>
      </trkpt>
      <trkpt lat="43.68484" lon="0.92747">
        <ele>226.576933</ele>
        <time>2023-01-03T10:36:33.785Z</time>
      </trkpt>
      <trkpt lat="43.6848" lon="0.92759">
        <ele>226.761407</ele>
        <time>2023-01-03T10:36:36.811Z</time>
      </trkpt>
      <trkpt lat="43.68477" lon="0.92772">
        <ele>226.947173</ele>
        <time>2023-01-03T10:36:39.810Z</time>
      </trkpt>
      <trkpt lat="43.68473" lon="0.92784">
        <ele>227.12769</ele>
        <time>2023-01-03T10:36:42.807Z</time>
      </trkpt>
      <trkpt lat="43.6847" lon="0.92796">
        <ele>227.31287</ele>
        <time>2023-01-03T10:36:45.795Z</time>
      </trkpt>
      <trkpt lat="43.68466" lon="0.9281">
        <ele>227.509757</ele>
        <time>2023-01-03T10:36:48.812Z</time>
      </trkpt>
      <trkpt lat="43.68463" lon="0.92823">
        <ele>227.709181</ele>
        <time>2023-01-03T10:36:51.810Z</time>
      </trkpt>
      <trkpt lat="43.6846" lon="0.92837">
        <ele>227.90548</ele>
        <time>2023-01-03T10:36:54.798Z</time>
      </trkpt>
      <trkpt lat="43.68457" lon="0.92851">
        <ele>228.111831</ele>
        <time>2023-01-03T10:36:57.793Z</time>
      </trkpt>
      <trkpt lat="43.68453" lon="0.92865">
        <ele>228.316478</ele>
        <time>2023-01-03T10:37:00.789Z</time>
      </trkpt>
      <trkpt lat="43.6845" lon="0.92879">
        <ele>228.517511</ele>
        <time>2023-01-03T10:37:03.805Z</time>
      </trkpt>
      <trkpt lat="43.68447" lon="0.92893">
        <ele>228.726526</ele>
        <time>2023-01-03T10:37:06.811Z</time>
      </trkpt>
      <trkpt lat="43.68444" lon="0.92908">
        <ele>228.934437</ele>
        <time>2023-01-03T10:37:09.812Z</time>
      </trkpt>
      <trkpt lat="43.6844" lon="0.92922">
        <ele>229.148919</ele>
        <time>2023-01-03T10:37:12.811Z</time>
      </trkpt>
      <trkpt lat="43.68437" lon="0.92937">
        <ele>229.354745</ele>
        <time>2023-01-03T10:37:15.813Z</time>
      </trkpt>
      <trkpt lat="43.68435" lon="0.9295">
        <ele>229.543851</ele>
        <time>2023-01-03T10:37:18.811Z</time>
      </trkpt>
      <trkpt lat="43.68432" lon="0.92964">
        <ele>229.745995</ele>
        <time>2023-01-03T10:37:21.807Z</time>
      </trkpt>
      <trkpt lat="43.6843" lon="0.9298">
        <ele>229.71787</ele>
        <time>2023-01-03T10:37:24.812Z</time>
      </trkpt>
      <trkpt lat="43.68427" lon="0.92996">
        <ele>229.628774</ele>
        <time>2023-01-03T10:37:27.811Z</time>
      </trkpt>
      <trkpt lat="43.68426" lon="0.93014">
        <ele>229.536502</ele>
        <time>2023-01-03T10:37:30.816Z</time>
      </trkpt>
      <trkpt lat="43.68423" lon="0.93031">
        <ele>229.441585</ele>
        <time>2023-01-03T10:37:33.801Z</time>
      </trkpt>
      <trkpt lat="43.68422" lon="0.93044">
        <ele>229.37467</ele>
        <time>2023-01-03T10:37:35.796Z</time>
      </trkpt>
      <trkpt lat="43.68421" lon="0.93057">
        <ele>229.306455</ele>
        <time>2023-01-03T10:37:37.812Z</time>
      </trkpt>
      <trkpt lat="43.6842" lon="0.93071">
        <ele>229.232992</ele>
        <time>2023-01-03T10:37:39.798Z</time>
      </trkpt>
      <trkpt lat="43.68418" lon="0.93084">
        <ele>229.162061</ele>
        <time>2023-01-03T10:37:41.804Z</time>
      </trkpt>
      <trkpt lat="43.68417" lon="0.93098">
        <ele>229.085366</ele>
        <time>2023-01-03T10:37:43.812Z</time>
      </trkpt>
      <trkpt lat="43.68416" lon="0.93112">
        <ele>229.012956</ele>
        <time>2023-01-03T10:37:45.810Z</time>
      </trkpt>
      <trkpt lat="43.68415" lon="0.93125">
        <ele>228.943936</ele>
        <time>2023-01-03T10:37:47.812Z</time>
      </trkpt>
      <trkpt lat="43.68414" lon="0.93139">
        <ele>228.870561</ele>
        <time>2023-01-03T10:37:49.796Z</time>
      </trkpt>
      <trkpt lat="43.68412" lon="0.93152">
        <ele>228.79942</ele>
        <time>2023-01-03T10:37:51.810Z</time>
      </trkpt>
      <trkpt lat="43.68411" lon="0.93165">
        <ele>228.729276</ele>
        <time>2023-01-03T10:37:53.808Z</time>
      </trkpt>
      <trkpt lat="43.68411" lon="0.93178">
        <ele>228.659945</ele>
        <time>2023-01-03T10:37:55.811Z</time>
      </trkpt>
      <trkpt lat="43.68411" lon="0.93196">
        <ele>228.563757</ele>
        <time>2023-01-03T10:37:58.810Z</time>
      </trkpt>
      <trkpt lat="43.68411" lon="0.93215">
        <ele>228.501477</ele>
        <time>2023-01-03T10:38:01.806Z</time>
      </trkpt>
      <trkpt lat="43.68412" lon="0.93234">
        <ele>228.781544</ele>
        <time>2023-01-03T10:38:04.813Z</time>
      </trkpt>
      <trkpt lat="43.68413" lon="0.93251">
        <ele>229.052681</ele>
        <time>2023-01-03T10:38:07.785Z</time>
      </trkpt>
      <trkpt lat="43.68414" lon="0.93267">
        <ele>229.295211</ele>
        <time>2023-01-03T10:38:10.809Z</time>
      </trkpt>
      <trkpt lat="43.68415" lon="0.93282">
        <ele>229.519767</ele>
        <time>2023-01-03T10:38:13.811Z</time>
      </trkpt>
      <trkpt lat="43.68417" lon="0.93297">
        <ele>229.751016</ele>
        <time>2023-01-03T10:38:16.810Z</time>
      </trkpt>
      <trkpt lat="43.68418" lon="0.93311">
        <ele>229.975123</ele>
        <time>2023-01-03T10:38:19.797Z</time>
      </trkpt>
      <trkpt lat="43.68419" lon="0.93326">
        <ele>230.194309</ele>
        <time>2023-01-03T10:38:22.812Z</time>
      </trkpt>
      <trkpt lat="43.6842" lon="0.9334">
        <ele>230.408341</ele>
        <time>2023-01-03T10:38:25.805Z</time>
      </trkpt>
      <trkpt lat="43.68421" lon="0.93353">
        <ele>230.620874</ele>
        <time>2023-01-03T10:38:28.794Z</time>
      </trkpt>
      <trkpt lat="43.68423" lon="0.93368">
        <ele>230.840059</ele>
        <time>2023-01-03T10:38:31.788Z</time>
      </trkpt>
      <trkpt lat="43.68425" lon="0.93382">
        <ele>231.057421</ele>
        <time>2023-01-03T10:38:34.805Z</time>
      </trkpt>
      <trkpt lat="43.68427" lon="0.93396">
        <ele>231.278063</ele>
        <time>2023-01-03T10:38:37.797Z</time>
      </trkpt>
      <trkpt lat="43.68429" lon="0.9341">
        <ele>231.498513</ele>
        <time>2023-01-03T10:38:40.814Z</time>
      </trkpt>
      <trkpt lat="43.68432" lon="0.93424">
        <ele>231.715644</ele>
        <time>2023-01-03T10:38:43.788Z</time>
      </trkpt>
      <trkpt lat="43.68435" lon="0.93437">
        <ele>231.929422</ele>
        <time>2023-01-03T10:38:46.815Z</time>
      </trkpt>
      <trkpt lat="43.68438" lon="0.9345">
        <ele>232.143876</ele>
        <time>2023-01-03T10:38:49.812Z</time>
      </trkpt>
      <trkpt lat="43.68441" lon="0.93463">
        <ele>232.41333</ele>
        <time>2023-01-03T10:38:52.811Z</time>
      </trkpt>
      <trkpt lat="43.68446" lon="0.93475">
        <ele>232.770346</ele>
        <time>2023-01-03T10:38:55.818Z</time>
      </trkpt>
      <trkpt lat="43.6845" lon="0.93487">
        <ele>233.108998</ele>
        <time>2023-01-03T10:38:58.807Z</time>
      </trkpt>
      <trkpt lat="43.68455" lon="0.93501">
        <ele>233.518719</ele>
        <time>2023-01-03T10:39:02.813Z</time>
      </trkpt>
      <trkpt lat="43.68459" lon="0.93515">
        <ele>233.935907</ele>
        <time>2023-01-03T10:39:06.817Z</time>
      </trkpt>
      <trkpt lat="43.68464" lon="0.9353">
        <ele>234.335387</ele>
        <time>2023-01-03T10:39:10.796Z</time>
      </trkpt>
      <trkpt lat="43.68468" lon="0.93543">
        <ele>234.709178</ele>
        <time>2023-01-03T10:39:14.812Z</time>
      </trkpt>
      <trkpt lat="43.68472" lon="0.93557">
        <ele>235.114911</ele>
        <time>2023-01-03T10:39:18.794Z</time>
      </trkpt>
      <trkpt lat="43.68477" lon="0.9357">
        <ele>235.50176</ele>
        <time>2023-01-03T10:39:22.810Z</time>
      </trkpt>
      <trkpt lat="43.68481" lon="0.93582">
        <ele>235.847786</ele>
        <time>2023-01-03T10:39:26.807Z</time>
      </trkpt>
      <trkpt lat="43.68485" lon="0.93594">
        <ele>236.196586</ele>
        <time>2023-01-03T10:39:30.805Z</time>
      </trkpt>
      <trkpt lat="43.68489" lon="0.93606">
        <ele>236.554992</ele>
        <time>2023-01-03T10:39:34.809Z</time>
      </trkpt>
      <trkpt lat="43.68493" lon="0.93619">
        <ele>236.9076</ele>
        <time>2023-01-03T10:39:38.812Z</time>
      </trkpt>
      <trkpt lat="43.68496" lon="0.93631">
        <ele>237.258229</ele>
        <time>2023-01-03T10:39:42.811Z</time>
      </trkpt>
      <trkpt lat="43.68501" lon="0.93643">
        <ele>237.615243</ele>
        <time>2023-01-03T10:39:46.820Z</time>
      </trkpt>
      <trkpt lat="43.68505" lon="0.93655">
        <ele>237.96785</ele>
        <time>2023-01-03T10:39:50.807Z</time>
      </trkpt>
      <trkpt lat="43.68509" lon="0.93667">
        <ele>238.306507</ele>
        <time>2023-01-03T10:39:54.806Z</time>
      </trkpt>
      <trkpt lat="43.68512" lon="0.9368">
        <ele>238.66742</ele>
        <time>2023-01-03T10:39:59.797Z</time>
      </trkpt>
      <trkpt lat="43.68516" lon="0.93694">
        <ele>239.061797</ele>
        <time>2023-01-03T10:40:04.803Z</time>
      </trkpt>
      <trkpt lat="43.6852" lon="0.93707">
        <ele>239.454963</ele>
        <time>2023-01-03T10:40:09.806Z</time>
      </trkpt>
      <trkpt lat="43.68525" lon="0.93721">
        <ele>239.852782</ele>
        <time>2023-01-03T10:40:14.789Z</time>
      </trkpt>
      <trkpt lat="43.68529" lon="0.93734">
        <ele>240.235236</ele>
        <time>2023-01-03T10:40:19.795Z</time>
      </trkpt>
      <trkpt lat="43.68534" lon="0.93747">
        <ele>240.614027</ele>
        <time>2023-01-03T10:40:24.814Z</time>
      </trkpt>
      <trkpt lat="43.68538" lon="0.93761">
        <ele>241.016176</ele>
        <time>2023-01-03T10:40:29.799Z</time>
      </trkpt>
      <trkpt lat="43.68543" lon="0.93774">
        <ele>241.405414</ele>
        <time>2023-01-03T10:40:34.808Z</time>
      </trkpt>
      <trkpt lat="43.68547" lon="0.93786">
        <ele>241.751432</ele>
        <time>2023-01-03T10:40:39.789Z</time>
      </trkpt>
      <trkpt lat="43.68553" lon="0.93797">
        <ele>242.121921</ele>
        <time>2023-01-03T10:40:44.799Z</time>
      </trkpt>
      <trkpt lat="43.6856" lon="0.93808">
        <ele>242.499091</ele>
        <time>2023-01-03T10:40:49.812Z</time>
      </trkpt>
      <trkpt lat="43.68566" lon="0.93817">
        <ele>242.846817</ele>
        <time>2023-01-03T10:40:54.810Z</time>
      </trkpt>
      <trkpt lat="43.68574" lon="0.93827">
        <ele>243.230205</ele>
        <time>2023-01-03T10:40:59.807Z</time>
      </trkpt>
      <trkpt lat="43.68581" lon="0.93836">
        <ele>243.589632</ele>
        <time>2023-01-03T10:41:04.807Z</time>
      </trkpt>
      <trkpt lat="43.68589" lon="0.93843">
        <ele>243.94627</ele>
        <time>2023-01-03T10:41:09.807Z</time>
      </trkpt>
      <trkpt lat="43.68598" lon="0.9385">
        <ele>244.309127</ele>
        <time>2023-01-03T10:41:14.813Z</time>
      </trkpt>
      <trkpt lat="43.68607" lon="0.93857">
        <ele>244.69987</ele>
        <time>2023-01-03T10:41:19.795Z</time>
      </trkpt>
      <trkpt lat="43.68616" lon="0.93864">
        <ele>245.065853</ele>
        <time>2023-01-03T10:41:24.798Z</time>
      </trkpt>
      <trkpt lat="43.68626" lon="0.93872">
        <ele>245.372515</ele>
        <time>2023-01-03T10:41:29.809Z</time>
      </trkpt>
      <trkpt lat="43.68635" lon="0.93878">
        <ele>245.191828</ele>
        <time>2023-01-03T10:41:33.799Z</time>
      </trkpt>
      <trkpt lat="43.68644" lon="0.93884">
        <ele>245.013442</ele>
        <time>2023-01-03T10:41:37.788Z</time>
      </trkpt>
      <trkpt lat="43.68655" lon="0.93892">
        <ele>244.801751</ele>
        <time>2023-01-03T10:41:41.796Z</time>
      </trkpt>
      <trkpt lat="43.68665" lon="0.93904">
        <ele>244.562899</ele>
        <time>2023-01-03T10:41:44.808Z</time>
      </trkpt>
      <trkpt lat="43.68673" lon="0.93913">
        <ele>244.389231</ele>
        <time>2023-01-03T10:41:46.797Z</time>
      </trkpt>
      <trkpt lat="43.68681" lon="0.93925">
        <ele>244.185722</ele>
        <time>2023-01-03T10:41:48.806Z</time>
      </trkpt>
      <trkpt lat="43.6869" lon="0.93939">
        <ele>243.944371</ele>
        <time>2023-01-03T10:41:50.795Z</time>
      </trkpt>
      <trkpt lat="43.68699" lon="0.93955">
        <ele>243.696742</ele>
        <time>2023-01-03T10:41:52.798Z</time>
      </trkpt>
      <trkpt lat="43.68708" lon="0.93971">
        <ele>243.43678</ele>
        <time>2023-01-03T10:41:54.807Z</time>
      </trkpt>
      <trkpt lat="43.68718" lon="0.93987">
        <ele>243.171981</ele>
        <time>2023-01-03T10:41:56.811Z</time>
      </trkpt>
      <trkpt lat="43.68728" lon="0.94004">
        <ele>242.89431</ele>
        <time>2023-01-03T10:41:58.813Z</time>
      </trkpt>
      <trkpt lat="43.68738" lon="0.94022">
        <ele>242.608987</ele>
        <time>2023-01-03T10:42:00.807Z</time>
      </trkpt>
      <trkpt lat="43.68747" lon="0.9404">
        <ele>242.334913</ele>
        <time>2023-01-03T10:42:02.807Z</time>
      </trkpt>
      <trkpt lat="43.68755" lon="0.94058">
        <ele>242.102012</ele>
        <time>2023-01-03T10:42:04.793Z</time>
      </trkpt>
      <trkpt lat="43.68762" lon="0.94075">
        <ele>241.896855</ele>
        <time>2023-01-03T10:42:06.791Z</time>
      </trkpt>
      <trkpt lat="43.68769" lon="0.94092">
        <ele>241.698805</ele>
        <time>2023-01-03T10:42:08.807Z</time>
      </trkpt>
      <trkpt lat="43.68775" lon="0.94107">
        <ele>241.518814</ele>
        <time>2023-01-03T10:42:10.794Z</time>
      </trkpt>
      <trkpt lat="43.68781" lon="0.94123">
        <ele>241.347374</ele>
        <time>2023-01-03T10:42:12.795Z</time>
      </trkpt>
      <trkpt lat="43.68786" lon="0.94136">
        <ele>241.193058</ele>
        <time>2023-01-03T10:42:14.807Z</time>
      </trkpt>
      <trkpt lat="43.6879" lon="0.94149">
        <ele>241.049907</ele>
        <time>2023-01-03T10:42:16.823Z</time>
      </trkpt>
      <trkpt lat="43.68794" lon="0.9416">
        <ele>240.914171</ele>
        <time>2023-01-03T10:42:18.796Z</time>
      </trkpt>
      <trkpt lat="43.68797" lon="0.94174">
        <ele>240.772434</ele>
        <time>2023-01-03T10:42:20.814Z</time>
      </trkpt>
      <trkpt lat="43.68801" lon="0.94187">
        <ele>240.630728</ele>
        <time>2023-01-03T10:42:22.795Z</time>
      </trkpt>
      <trkpt lat="43.68804" lon="0.942">
        <ele>240.484559</ele>
        <time>2023-01-03T10:42:24.814Z</time>
      </trkpt>
      <trkpt lat="43.68807" lon="0.94215">
        <ele>240.323658</ele>
        <time>2023-01-03T10:42:26.814Z</time>
      </trkpt>
      <trkpt lat="43.68809" lon="0.94231">
        <ele>240.161743</ele>
        <time>2023-01-03T10:42:28.815Z</time>
      </trkpt>
      <trkpt lat="43.68811" lon="0.94247">
        <ele>239.994525</ele>
        <time>2023-01-03T10:42:30.811Z</time>
      </trkpt>
      <trkpt lat="43.68814" lon="0.94262">
        <ele>239.836345</ele>
        <time>2023-01-03T10:42:32.813Z</time>
      </trkpt>
      <trkpt lat="43.68816" lon="0.94279">
        <ele>239.706568</ele>
        <time>2023-01-03T10:42:34.798Z</time>
      </trkpt>
      <trkpt lat="43.68818" lon="0.94297">
        <ele>239.666878</ele>
        <time>2023-01-03T10:42:36.799Z</time>
      </trkpt>
      <trkpt lat="43.6882" lon="0.94314">
        <ele>239.628141</ele>
        <time>2023-01-03T10:42:38.807Z</time>
      </trkpt>
      <trkpt lat="43.68822" lon="0.94331">
        <ele>239.589267</ele>
        <time>2023-01-03T10:42:40.790Z</time>
      </trkpt>
      <trkpt lat="43.68824" lon="0.94348">
        <ele>239.550784</ele>
        <time>2023-01-03T10:42:42.800Z</time>
      </trkpt>
      <trkpt lat="43.68825" lon="0.94365">
        <ele>239.513372</ele>
        <time>2023-01-03T10:42:44.795Z</time>
      </trkpt>
      <trkpt lat="43.68827" lon="0.9438">
        <ele>239.477772</ele>
        <time>2023-01-03T10:42:46.813Z</time>
      </trkpt>
      <trkpt lat="43.68828" lon="0.94395">
        <ele>239.444908</ele>
        <time>2023-01-03T10:42:48.795Z</time>
      </trkpt>
      <trkpt lat="43.6883" lon="0.9441">
        <ele>239.411639</ele>
        <time>2023-01-03T10:42:50.815Z</time>
      </trkpt>
      <trkpt lat="43.68832" lon="0.94423">
        <ele>239.380292</ele>
        <time>2023-01-03T10:42:52.797Z</time>
      </trkpt>
      <trkpt lat="43.68833" lon="0.94436">
        <ele>239.351307</ele>
        <time>2023-01-03T10:42:54.810Z</time>
      </trkpt>
      <trkpt lat="43.68834" lon="0.9445">
        <ele>239.321749</ele>
        <time>2023-01-03T10:42:56.786Z</time>
      </trkpt>
      <trkpt lat="43.68837" lon="0.94467">
        <ele>239.281009</ele>
        <time>2023-01-03T10:42:59.788Z</time>
      </trkpt>
      <trkpt lat="43.68839" lon="0.94485">
        <ele>239.241799</ele>
        <time>2023-01-03T10:43:02.809Z</time>
      </trkpt>
      <trkpt lat="43.68841" lon="0.94502">
        <ele>239.202532</ele>
        <time>2023-01-03T10:43:05.809Z</time>
      </trkpt>
      <trkpt lat="43.68843" lon="0.94519">
        <ele>239.166044</ele>
        <time>2023-01-03T10:43:08.814Z</time>
      </trkpt>
      <trkpt lat="43.68845" lon="0.94535">
        <ele>239.354447</ele>
        <time>2023-01-03T10:43:11.815Z</time>
      </trkpt>
      <trkpt lat="43.68847" lon="0.94549">
        <ele>239.528808</ele>
        <time>2023-01-03T10:43:14.813Z</time>
      </trkpt>
      <trkpt lat="43.68848" lon="0.94564">
        <ele>239.698811</ele>
        <time>2023-01-03T10:43:17.799Z</time>
      </trkpt>
      <trkpt lat="43.6885" lon="0.94578">
        <ele>239.868325</ele>
        <time>2023-01-03T10:43:20.797Z</time>
      </trkpt>
      <trkpt lat="43.68851" lon="0.94593">
        <ele>240.037602</ele>
        <time>2023-01-03T10:43:23.810Z</time>
      </trkpt>
      <trkpt lat="43.68852" lon="0.94606">
        <ele>240.1916</ele>
        <time>2023-01-03T10:43:26.816Z</time>
      </trkpt>
      <trkpt lat="43.68854" lon="0.94621">
        <ele>240.364812</ele>
        <time>2023-01-03T10:43:30.815Z</time>
      </trkpt>
      <trkpt lat="43.68856" lon="0.94636">
        <ele>240.546637</ele>
        <time>2023-01-03T10:43:34.815Z</time>
      </trkpt>
      <trkpt lat="43.68858" lon="0.94652">
        <ele>240.741297</ele>
        <time>2023-01-03T10:43:38.805Z</time>
      </trkpt>
      <trkpt lat="43.6886" lon="0.94665">
        <ele>240.886172</ele>
        <time>2023-01-03T10:43:41.810Z</time>
      </trkpt>
      <trkpt lat="43.68861" lon="0.94677">
        <ele>241.034042</ele>
        <time>2023-01-03T10:43:44.812Z</time>
      </trkpt>
      <trkpt lat="43.68863" lon="0.94692">
        <ele>241.206104</ele>
        <time>2023-01-03T10:43:48.808Z</time>
      </trkpt>
      <trkpt lat="43.68864" lon="0.94707">
        <ele>241.379316</ele>
        <time>2023-01-03T10:43:52.807Z</time>
      </trkpt>
      <trkpt lat="43.68866" lon="0.9472">
        <ele>241.537339</ele>
        <time>2023-01-03T10:43:56.824Z</time>
      </trkpt>
      <trkpt lat="43.68867" lon="0.94733">
        <ele>241.691659</ele>
        <time>2023-01-03T10:44:00.796Z</time>
      </trkpt>
      <trkpt lat="43.68869" lon="0.94747">
        <ele>241.855742</ele>
        <time>2023-01-03T10:44:05.791Z</time>
      </trkpt>
      <trkpt lat="43.68871" lon="0.94762">
        <ele>242.03383</ele>
        <time>2023-01-03T10:44:10.812Z</time>
      </trkpt>
      <trkpt lat="43.68872" lon="0.94777">
        <ele>242.508814</ele>
        <time>2023-01-03T10:44:15.809Z</time>
      </trkpt>
      <trkpt lat="43.68875" lon="0.94792">
        <ele>243.037877</ele>
        <time>2023-01-03T10:44:20.813Z</time>
      </trkpt>
      <trkpt lat="43.68877" lon="0.94807">
        <ele>243.575325</ele>
        <time>2023-01-03T10:44:25.787Z</time>
      </trkpt>
      <trkpt lat="43.68878" lon="0.94822">
        <ele>244.114933</ele>
        <time>2023-01-03T10:44:30.794Z</time>
      </trkpt>
      <trkpt lat="43.68879" lon="0.94837">
        <ele>244.655975</ele>
        <time>2023-01-03T10:44:35.815Z</time>
      </trkpt>
      <trkpt lat="43.68882" lon="0.94851">
        <ele>245.169062</ele>
        <time>2023-01-03T10:44:40.819Z</time>
      </trkpt>
      <trkpt lat="43.68885" lon="0.94864">
        <ele>245.655788</ele>
        <time>2023-01-03T10:44:45.813Z</time>
      </trkpt>
      <trkpt lat="43.68889" lon="0.94876">
        <ele>246.121794</ele>
        <time>2023-01-03T10:44:50.815Z</time>
      </trkpt>
      <trkpt lat="43.68894" lon="0.94888">
        <ele>246.621234</ele>
        <time>2023-01-03T10:44:55.799Z</time>
      </trkpt>
      <trkpt lat="43.68902" lon="0.94898">
        <ele>247.112679</ele>
        <time>2023-01-03T10:45:00.789Z</time>
      </trkpt>
      <trkpt lat="43.68911" lon="0.94906">
        <ele>247.630981</ele>
        <time>2023-01-03T10:45:05.807Z</time>
      </trkpt>
      <trkpt lat="43.6892" lon="0.94914">
        <ele>248.161533</ele>
        <time>2023-01-03T10:45:10.798Z</time>
      </trkpt>
      <trkpt lat="43.68929" lon="0.9492">
        <ele>248.671063</ele>
        <time>2023-01-03T10:45:15.799Z</time>
      </trkpt>
      <trkpt lat="43.68939" lon="0.94925">
        <ele>249.160717</ele>
        <time>2023-01-03T10:45:20.790Z</time>
      </trkpt>
      <trkpt lat="43.68947" lon="0.94932">
        <ele>249.628969</ele>
        <time>2023-01-03T10:45:25.809Z</time>
      </trkpt>
      <trkpt lat="43.68957" lon="0.94937">
        <ele>250.153387</ele>
        <time>2023-01-03T10:45:30.790Z</time>
      </trkpt>
      <trkpt lat="43.68965" lon="0.94943">
        <ele>250.595216</ele>
        <time>2023-01-03T10:45:34.794Z</time>
      </trkpt>
      <trkpt lat="43.68975" lon="0.94949">
        <ele>250.971785</ele>
        <time>2023-01-03T10:45:39.811Z</time>
      </trkpt>
      <trkpt lat="43.68985" lon="0.94954">
        <ele>251.266303</ele>
        <time>2023-01-03T10:45:44.789Z</time>
      </trkpt>
      <trkpt lat="43.68995" lon="0.9496">
        <ele>251.552651</ele>
        <time>2023-01-03T10:45:49.803Z</time>
      </trkpt>
      <trkpt lat="43.69005" lon="0.94966">
        <ele>251.850884</ele>
        <time>2023-01-03T10:45:54.810Z</time>
      </trkpt>
      <trkpt lat="43.69015" lon="0.94972">
        <ele>252.143658</ele>
        <time>2023-01-03T10:45:59.788Z</time>
      </trkpt>
      <trkpt lat="43.69025" lon="0.94978">
        <ele>252.436256</ele>
        <time>2023-01-03T10:46:04.812Z</time>
      </trkpt>
      <trkpt lat="43.69035" lon="0.94985">
        <ele>252.724763</ele>
        <time>2023-01-03T10:46:09.807Z</time>
      </trkpt>
      <trkpt lat="43.69044" lon="0.9499">
        <ele>252.989861</ele>
        <time>2023-01-03T10:46:13.813Z</time>
      </trkpt>
      <trkpt lat="43.69053" lon="0.94996">
        <ele>253.267098</ele>
        <time>2023-01-03T10:46:17.788Z</time>
      </trkpt>
      <trkpt lat="43.69064" lon="0.95003">
        <ele>253.579967</ele>
        <time>2023-01-03T10:46:21.810Z</time>
      </trkpt>
      <trkpt lat="43.69072" lon="0.95008">
        <ele>253.824798</ele>
        <time>2023-01-03T10:46:24.793Z</time>
      </trkpt>
      <trkpt lat="43.69081" lon="0.95014">
        <ele>254.070359</ele>
        <time>2023-01-03T10:46:27.810Z</time>
      </trkpt>
      <trkpt lat="43.6909" lon="0.95019">
        <ele>254.333221</ele>
        <time>2023-01-03T10:46:30.799Z</time>
      </trkpt>
      <trkpt lat="43.69098" lon="0.95025">
        <ele>254.594194</ele>
        <time>2023-01-03T10:46:33.809Z</time>
      </trkpt>
      <trkpt lat="43.69107" lon="0.9503">
        <ele>254.854379</ele>
        <time>2023-01-03T10:46:36.796Z</time>
      </trkpt>
      <trkpt lat="43.69117" lon="0.95036">
        <ele>255.130092</ele>
        <time>2023-01-03T10:46:39.794Z</time>
      </trkpt>
      <trkpt lat="43.69126" lon="0.95042">
        <ele>255.40323</ele>
        <time>2023-01-03T10:46:42.795Z</time>
      </trkpt>
      <trkpt lat="43.69135" lon="0.95048">
        <ele>255.614658</ele>
        <time>2023-01-03T10:46:45.814Z</time>
      </trkpt>
      <trkpt lat="43.69145" lon="0.95053">
        <ele>255.567477</ele>
        <time>2023-01-03T10:46:48.805Z</time>
      </trkpt>
      <trkpt lat="43.69154" lon="0.95059">
        <ele>255.521019</ele>
        <time>2023-01-03T10:46:51.791Z</time>
      </trkpt>
      <trkpt lat="43.69164" lon="0.95064">
        <ele>255.474089</ele>
        <time>2023-01-03T10:46:54.800Z</time>
      </trkpt>
      <trkpt lat="43.69174" lon="0.9507">
        <ele>255.425088</ele>
        <time>2023-01-03T10:46:57.805Z</time>
      </trkpt>
      <trkpt lat="43.69183" lon="0.95076">
        <ele>255.376408</ele>
        <time>2023-01-03T10:47:00.814Z</time>
      </trkpt>
      <trkpt lat="43.69193" lon="0.95082">
        <ele>255.327592</ele>
        <time>2023-01-03T10:47:03.811Z</time>
      </trkpt>
      <trkpt lat="43.69203" lon="0.95088">
        <ele>255.278638</ele>
        <time>2023-01-03T10:47:06.789Z</time>
      </trkpt>
      <trkpt lat="43.69212" lon="0.95094">
        <ele>255.230186</ele>
        <time>2023-01-03T10:47:09.807Z</time>
      </trkpt>
      <trkpt lat="43.69222" lon="0.951">
        <ele>255.181772</ele>
        <time>2023-01-03T10:47:12.810Z</time>
      </trkpt>
      <trkpt lat="43.69232" lon="0.95104">
        <ele>255.133894</ele>
        <time>2023-01-03T10:47:15.809Z</time>
      </trkpt>
      <trkpt lat="43.69242" lon="0.95107">
        <ele>255.088499</ele>
        <time>2023-01-03T10:47:18.790Z</time>
      </trkpt>
      <trkpt lat="43.69252" lon="0.95107">
        <ele>255.040813</ele>
        <time>2023-01-03T10:47:22.808Z</time>
      </trkpt>
      <trkpt lat="43.69254" lon="0.95106">
        <ele>255.029576</ele>
        <time>2023-01-03T10:47:34.884Z</time>
      </trkpt>
      <trkpt lat="43.69254" lon="0.95126">
        <ele>254.960638</ele>
        <time>2023-01-03T10:50:39.838Z</time>
      </trkpt>
      <trkpt lat="43.69247" lon="0.95137">
        <ele>254.915601</ele>
        <time>2023-01-03T10:50:41.790Z</time>
      </trkpt>
      <trkpt lat="43.6924" lon="0.95147">
        <ele>254.866629</ele>
        <time>2023-01-03T10:50:43.788Z</time>
      </trkpt>
      <trkpt lat="43.69233" lon="0.9516">
        <ele>254.812105</ele>
        <time>2023-01-03T10:50:45.810Z</time>
      </trkpt>
      <trkpt lat="43.69225" lon="0.95174">
        <ele>254.474971</ele>
        <time>2023-01-03T10:50:47.791Z</time>
      </trkpt>
      <trkpt lat="43.69219" lon="0.95189">
        <ele>254.048096</ele>
        <time>2023-01-03T10:50:49.790Z</time>
      </trkpt>
      <trkpt lat="43.69213" lon="0.95204">
        <ele>253.649814</ele>
        <time>2023-01-03T10:50:51.794Z</time>
      </trkpt>
      <trkpt lat="43.69209" lon="0.95216">
        <ele>253.329449</ele>
        <time>2023-01-03T10:50:53.790Z</time>
      </trkpt>
      <trkpt lat="43.69205" lon="0.95228">
        <ele>252.994554</ele>
        <time>2023-01-03T10:50:56.814Z</time>
      </trkpt>
      <trkpt lat="43.69202" lon="0.95242">
        <ele>252.641636</ele>
        <time>2023-01-03T10:51:08.792Z</time>
      </trkpt>
      <trkpt lat="43.69197" lon="0.95257">
        <ele>252.245525</ele>
        <time>2023-01-03T10:51:12.795Z</time>
      </trkpt>
      <trkpt lat="43.69193" lon="0.95272">
        <ele>251.869868</ele>
        <time>2023-01-03T10:51:15.806Z</time>
      </trkpt>
      <trkpt lat="43.69189" lon="0.95288">
        <ele>251.459171</ele>
        <time>2023-01-03T10:51:18.810Z</time>
      </trkpt>
      <trkpt lat="43.69186" lon="0.953">
        <ele>251.146174</ele>
        <time>2023-01-03T10:51:20.800Z</time>
      </trkpt>
      <trkpt lat="43.69183" lon="0.95313">
        <ele>250.818006</ele>
        <time>2023-01-03T10:51:22.799Z</time>
      </trkpt>
      <trkpt lat="43.6918" lon="0.95327">
        <ele>250.457246</ele>
        <time>2023-01-03T10:51:24.815Z</time>
      </trkpt>
      <trkpt lat="43.69177" lon="0.95342">
        <ele>250.093059</ele>
        <time>2023-01-03T10:51:26.819Z</time>
      </trkpt>
      <trkpt lat="43.69173" lon="0.95356">
        <ele>249.724122</ele>
        <time>2023-01-03T10:51:28.795Z</time>
      </trkpt>
      <trkpt lat="43.69169" lon="0.9537">
        <ele>249.353173</ele>
        <time>2023-01-03T10:51:30.810Z</time>
      </trkpt>
      <trkpt lat="43.69165" lon="0.95385">
        <ele>248.970551</ele>
        <time>2023-01-03T10:51:32.810Z</time>
      </trkpt>
      <trkpt lat="43.69162" lon="0.954">
        <ele>248.650274</ele>
        <time>2023-01-03T10:51:34.820Z</time>
      </trkpt>
      <trkpt lat="43.69159" lon="0.95414">
        <ele>248.389108</ele>
        <time>2023-01-03T10:51:36.815Z</time>
      </trkpt>
      <trkpt lat="43.69155" lon="0.95428">
        <ele>248.112919</ele>
        <time>2023-01-03T10:51:38.815Z</time>
      </trkpt>
      <trkpt lat="43.69152" lon="0.95443">
        <ele>247.843604</ele>
        <time>2023-01-03T10:51:40.811Z</time>
      </trkpt>
      <trkpt lat="43.69148" lon="0.95457">
        <ele>247.562459</ele>
        <time>2023-01-03T10:51:42.819Z</time>
      </trkpt>
      <trkpt lat="43.69145" lon="0.95473">
        <ele>247.283456</ele>
        <time>2023-01-03T10:51:44.811Z</time>
      </trkpt>
      <trkpt lat="43.69142" lon="0.95488">
        <ele>246.999866</ele>
        <time>2023-01-03T10:51:46.814Z</time>
      </trkpt>
      <trkpt lat="43.6914" lon="0.95504">
        <ele>246.712692</ele>
        <time>2023-01-03T10:51:48.812Z</time>
      </trkpt>
      <trkpt lat="43.69136" lon="0.95519">
        <ele>246.432468</ele>
        <time>2023-01-03T10:51:50.809Z</time>
      </trkpt>
      <trkpt lat="43.69133" lon="0.95534">
        <ele>246.154974</ele>
        <time>2023-01-03T10:51:52.806Z</time>
      </trkpt>
      <trkpt lat="43.6913" lon="0.95549">
        <ele>245.881139</ele>
        <time>2023-01-03T10:51:54.810Z</time>
      </trkpt>
      <trkpt lat="43.69127" lon="0.95564">
        <ele>245.606025</ele>
        <time>2023-01-03T10:51:56.818Z</time>
      </trkpt>
      <trkpt lat="43.69125" lon="0.95578">
        <ele>245.336842</ele>
        <time>2023-01-03T10:51:58.808Z</time>
      </trkpt>
      <trkpt lat="43.69121" lon="0.95594">
        <ele>245.05234</ele>
        <time>2023-01-03T10:52:00.813Z</time>
      </trkpt>
      <trkpt lat="43.69117" lon="0.95608">
        <ele>244.771671</ele>
        <time>2023-01-03T10:52:02.813Z</time>
      </trkpt>
      <trkpt lat="43.69113" lon="0.95622">
        <ele>244.502336</ele>
        <time>2023-01-03T10:52:04.794Z</time>
      </trkpt>
      <trkpt lat="43.69109" lon="0.95637">
        <ele>244.245097</ele>
        <time>2023-01-03T10:52:06.812Z</time>
      </trkpt>
      <trkpt lat="43.69106" lon="0.95652">
        <ele>244.018573</ele>
        <time>2023-01-03T10:52:08.810Z</time>
      </trkpt>
      <trkpt lat="43.69102" lon="0.95667">
        <ele>243.785348</ele>
        <time>2023-01-03T10:52:10.811Z</time>
      </trkpt>
      <trkpt lat="43.69098" lon="0.95682">
        <ele>243.5576</ele>
        <time>2023-01-03T10:52:12.804Z</time>
      </trkpt>
      <trkpt lat="43.69095" lon="0.95697">
        <ele>243.333072</ele>
        <time>2023-01-03T10:52:14.813Z</time>
      </trkpt>
      <trkpt lat="43.69091" lon="0.95711">
        <ele>243.114268</ele>
        <time>2023-01-03T10:52:16.815Z</time>
      </trkpt>
      <trkpt lat="43.69087" lon="0.95724">
        <ele>242.904912</ele>
        <time>2023-01-03T10:52:18.799Z</time>
      </trkpt>
      <trkpt lat="43.69084" lon="0.95738">
        <ele>242.68883</ele>
        <time>2023-01-03T10:52:20.813Z</time>
      </trkpt>
      <trkpt lat="43.6908" lon="0.95752">
        <ele>242.475412</ele>
        <time>2023-01-03T10:52:22.814Z</time>
      </trkpt>
      <trkpt lat="43.69077" lon="0.95765">
        <ele>242.266604</ele>
        <time>2023-01-03T10:52:24.804Z</time>
      </trkpt>
      <trkpt lat="43.69073" lon="0.95779">
        <ele>242.054541</ele>
        <time>2023-01-03T10:52:26.814Z</time>
      </trkpt>
      <trkpt lat="43.69069" lon="0.95792">
        <ele>241.84899</ele>
        <time>2023-01-03T10:52:28.815Z</time>
      </trkpt>
      <trkpt lat="43.69065" lon="0.95805">
        <ele>241.646551</ele>
        <time>2023-01-03T10:52:30.819Z</time>
      </trkpt>
      <trkpt lat="43.69061" lon="0.95816">
        <ele>241.456789</ele>
        <time>2023-01-03T10:52:32.809Z</time>
      </trkpt>
      <trkpt lat="43.69057" lon="0.95829">
        <ele>241.258808</ele>
        <time>2023-01-03T10:52:35.822Z</time>
      </trkpt>
      <trkpt lat="43.69055" lon="0.95841">
        <ele>241.069621</ele>
        <time>2023-01-03T10:52:40.788Z</time>
      </trkpt>
      <trkpt lat="43.69052" lon="0.95853">
        <ele>240.886884</ele>
        <time>2023-01-03T10:52:43.800Z</time>
      </trkpt>
      <trkpt lat="43.69049" lon="0.95869">
        <ele>240.587218</ele>
        <time>2023-01-03T10:52:46.790Z</time>
      </trkpt>
      <trkpt lat="43.69048" lon="0.95887">
        <ele>240.131993</ele>
        <time>2023-01-03T10:52:49.788Z</time>
      </trkpt>
      <trkpt lat="43.69047" lon="0.959">
        <ele>239.803611</ele>
        <time>2023-01-03T10:52:51.791Z</time>
      </trkpt>
      <trkpt lat="43.69046" lon="0.95914">
        <ele>239.459872</ele>
        <time>2023-01-03T10:52:53.807Z</time>
      </trkpt>
      <trkpt lat="43.69045" lon="0.95927">
        <ele>239.1275</ele>
        <time>2023-01-03T10:52:55.792Z</time>
      </trkpt>
      <trkpt lat="43.69045" lon="0.95942">
        <ele>238.749921</ele>
        <time>2023-01-03T10:52:57.798Z</time>
      </trkpt>
      <trkpt lat="43.69045" lon="0.95958">
        <ele>238.347357</ele>
        <time>2023-01-03T10:52:59.793Z</time>
      </trkpt>
      <trkpt lat="43.69045" lon="0.95974">
        <ele>237.947411</ele>
        <time>2023-01-03T10:53:01.809Z</time>
      </trkpt>
      <trkpt lat="43.69046" lon="0.95988">
        <ele>237.586475</ele>
        <time>2023-01-03T10:53:03.799Z</time>
      </trkpt>
      <trkpt lat="43.69047" lon="0.96003">
        <ele>237.200983</ele>
        <time>2023-01-03T10:53:05.809Z</time>
      </trkpt>
      <trkpt lat="43.69047" lon="0.96018">
        <ele>236.838742</ele>
        <time>2023-01-03T10:53:07.797Z</time>
      </trkpt>
      <trkpt lat="43.69047" lon="0.96034">
        <ele>236.443824</ele>
        <time>2023-01-03T10:53:09.814Z</time>
      </trkpt>
      <trkpt lat="43.69047" lon="0.9605">
        <ele>236.026355</ele>
        <time>2023-01-03T10:53:11.805Z</time>
      </trkpt>
      <trkpt lat="43.69047" lon="0.96065">
        <ele>235.644148</ele>
        <time>2023-01-03T10:53:13.822Z</time>
      </trkpt>
      <trkpt lat="43.69048" lon="0.96084">
        <ele>235.1687</ele>
        <time>2023-01-03T10:53:16.799Z</time>
      </trkpt>
      <trkpt lat="43.69048" lon="0.96102">
        <ele>234.725652</ele>
        <time>2023-01-03T10:53:19.811Z</time>
      </trkpt>
      <trkpt lat="43.6905" lon="0.96121">
        <ele>234.312276</ele>
        <time>2023-01-03T10:53:22.811Z</time>
      </trkpt>
      <trkpt lat="43.6905" lon="0.96134">
        <ele>234.083475</ele>
        <time>2023-01-03T10:53:24.816Z</time>
      </trkpt>
      <trkpt lat="43.6905" lon="0.96147">
        <ele>233.854674</ele>
        <time>2023-01-03T10:53:26.809Z</time>
      </trkpt>
      <trkpt lat="43.69049" lon="0.96162">
        <ele>233.602996</ele>
        <time>2023-01-03T10:53:28.813Z</time>
      </trkpt>
      <trkpt lat="43.69049" lon="0.96177">
        <ele>233.337137</ele>
        <time>2023-01-03T10:53:30.812Z</time>
      </trkpt>
      <trkpt lat="43.69048" lon="0.96192">
        <ele>233.069752</ele>
        <time>2023-01-03T10:53:32.813Z</time>
      </trkpt>
      <trkpt lat="43.69047" lon="0.96207">
        <ele>232.80271</ele>
        <time>2023-01-03T10:53:34.790Z</time>
      </trkpt>
      <trkpt lat="43.69045" lon="0.96222">
        <ele>232.547865</ele>
        <time>2023-01-03T10:53:36.792Z</time>
      </trkpt>
      <trkpt lat="43.69042" lon="0.96235">
        <ele>232.294929</ele>
        <time>2023-01-03T10:53:38.800Z</time>
      </trkpt>
      <trkpt lat="43.69037" lon="0.96249">
        <ele>232.034234</ele>
        <time>2023-01-03T10:53:40.795Z</time>
      </trkpt>
      <trkpt lat="43.69032" lon="0.96261">
        <ele>231.783513</ele>
        <time>2023-01-03T10:53:42.798Z</time>
      </trkpt>
      <trkpt lat="43.69026" lon="0.96275">
        <ele>231.512257</ele>
        <time>2023-01-03T10:53:44.807Z</time>
      </trkpt>
      <trkpt lat="43.69021" lon="0.96288">
        <ele>231.242028</ele>
        <time>2023-01-03T10:53:46.798Z</time>
      </trkpt>
      <trkpt lat="43.69015" lon="0.96302">
        <ele>230.957514</ele>
        <time>2023-01-03T10:53:48.799Z</time>
      </trkpt>
      <trkpt lat="43.6901" lon="0.96317">
        <ele>230.671183</ele>
        <time>2023-01-03T10:53:50.805Z</time>
      </trkpt>
      <trkpt lat="43.69005" lon="0.96331">
        <ele>230.394063</ele>
        <time>2023-01-03T10:53:52.795Z</time>
      </trkpt>
      <trkpt lat="43.68999" lon="0.96345">
        <ele>230.118973</ele>
        <time>2023-01-03T10:53:54.813Z</time>
      </trkpt>
      <trkpt lat="43.68994" lon="0.96359">
        <ele>229.687318</ele>
        <time>2023-01-03T10:53:56.816Z</time>
      </trkpt>
      <trkpt lat="43.68988" lon="0.96374">
        <ele>229.243099</ele>
        <time>2023-01-03T10:53:58.813Z</time>
      </trkpt>
      <trkpt lat="43.68981" lon="0.96389">
        <ele>228.783313</ele>
        <time>2023-01-03T10:54:00.815Z</time>
      </trkpt>
      <trkpt lat="43.68974" lon="0.96404">
        <ele>228.318536</ele>
        <time>2023-01-03T10:54:02.812Z</time>
      </trkpt>
      <trkpt lat="43.68968" lon="0.96418">
        <ele>227.856229</ele>
        <time>2023-01-03T10:54:04.813Z</time>
      </trkpt>
      <trkpt lat="43.68961" lon="0.96434">
        <ele>227.375302</ele>
        <time>2023-01-03T10:54:06.813Z</time>
      </trkpt>
      <trkpt lat="43.68954" lon="0.96448">
        <ele>226.932322</ele>
        <time>2023-01-03T10:54:08.809Z</time>
      </trkpt>
      <trkpt lat="43.68948" lon="0.96463">
        <ele>226.462377</ele>
        <time>2023-01-03T10:54:10.809Z</time>
      </trkpt>
      <trkpt lat="43.68941" lon="0.96479">
        <ele>225.976884</ele>
        <time>2023-01-03T10:54:12.808Z</time>
      </trkpt>
      <trkpt lat="43.68935" lon="0.96496">
        <ele>225.471221</ele>
        <time>2023-01-03T10:54:14.797Z</time>
      </trkpt>
      <trkpt lat="43.68928" lon="0.96512">
        <ele>224.972936</ele>
        <time>2023-01-03T10:54:16.813Z</time>
      </trkpt>
      <trkpt lat="43.6892" lon="0.9653">
        <ele>224.428873</ele>
        <time>2023-01-03T10:54:18.793Z</time>
      </trkpt>
      <trkpt lat="43.68909" lon="0.96543">
        <ele>223.888013</ele>
        <time>2023-01-03T10:54:20.795Z</time>
      </trkpt>
      <trkpt lat="43.68896" lon="0.96552">
        <ele>223.460543</ele>
        <time>2023-01-03T10:54:22.797Z</time>
      </trkpt>
      <trkpt lat="43.68883" lon="0.96555">
        <ele>223.26041</ele>
        <time>2023-01-03T10:54:24.791Z</time>
      </trkpt>
      <trkpt lat="43.68873" lon="0.96555">
        <ele>223.103258</ele>
        <time>2023-01-03T10:54:26.807Z</time>
      </trkpt>
      <trkpt lat="43.68862" lon="0.96555">
        <ele>222.935151</ele>
        <time>2023-01-03T10:54:29.798Z</time>
      </trkpt>
      <trkpt lat="43.68853" lon="0.96554">
        <ele>222.786796</ele>
        <time>2023-01-03T10:54:33.809Z</time>
      </trkpt>
      <trkpt lat="43.68843" lon="0.96552">
        <ele>222.63824</ele>
        <time>2023-01-03T10:54:37.792Z</time>
      </trkpt>
      <trkpt lat="43.68834" lon="0.96552">
        <ele>222.497932</ele>
        <time>2023-01-03T10:54:41.794Z</time>
      </trkpt>
      <trkpt lat="43.68825" lon="0.9655">
        <ele>222.349766</ele>
        <time>2023-01-03T10:54:45.801Z</time>
      </trkpt>
      <trkpt lat="43.68814" lon="0.96548">
        <ele>222.180832</ele>
        <time>2023-01-03T10:54:50.793Z</time>
      </trkpt>
      <trkpt lat="43.68805" lon="0.96551">
        <ele>222.035364</ele>
        <time>2023-01-03T10:54:55.793Z</time>
      </trkpt>
      <trkpt lat="43.68798" lon="0.96562">
        <ele>221.878757</ele>
        <time>2023-01-03T10:55:00.805Z</time>
      </trkpt>
      <trkpt lat="43.68794" lon="0.96575">
        <ele>221.716396</ele>
        <time>2023-01-03T10:55:05.796Z</time>
      </trkpt>
      <trkpt lat="43.68793" lon="0.9659">
        <ele>221.550111</ele>
        <time>2023-01-03T10:55:09.795Z</time>
      </trkpt>
      <trkpt lat="43.68793" lon="0.96603">
        <ele>221.410767</ele>
        <time>2023-01-03T10:55:12.808Z</time>
      </trkpt>
      <trkpt lat="43.68792" lon="0.96616">
        <ele>221.261685</ele>
        <time>2023-01-03T10:55:15.810Z</time>
      </trkpt>
      <trkpt lat="43.68791" lon="0.96631">
        <ele>221.097716</ele>
        <time>2023-01-03T10:55:18.812Z</time>
      </trkpt>
      <trkpt lat="43.68791" lon="0.96647">
        <ele>220.916981</ele>
        <time>2023-01-03T10:55:21.814Z</time>
      </trkpt>
      <trkpt lat="43.6879" lon="0.96664">
        <ele>220.659786</ele>
        <time>2023-01-03T10:55:24.799Z</time>
      </trkpt>
      <trkpt lat="43.68789" lon="0.96681">
        <ele>220.149423</ele>
        <time>2023-01-03T10:55:27.821Z</time>
      </trkpt>
      <trkpt lat="43.68788" lon="0.967">
        <ele>219.610399</ele>
        <time>2023-01-03T10:55:30.803Z</time>
      </trkpt>
      <trkpt lat="43.68788" lon="0.96712">
        <ele>219.235909</ele>
        <time>2023-01-03T10:55:32.813Z</time>
      </trkpt>
      <trkpt lat="43.68787" lon="0.96731">
        <ele>218.681769</ele>
        <time>2023-01-03T10:55:35.812Z</time>
      </trkpt>
      <trkpt lat="43.68786" lon="0.96744">
        <ele>218.304343</ele>
        <time>2023-01-03T10:55:37.798Z</time>
      </trkpt>
      <trkpt lat="43.68786" lon="0.96757">
        <ele>217.92422</ele>
        <time>2023-01-03T10:55:39.805Z</time>
      </trkpt>
      <trkpt lat="43.68786" lon="0.9677">
        <ele>217.532533</ele>
        <time>2023-01-03T10:55:41.815Z</time>
      </trkpt>
      <trkpt lat="43.68785" lon="0.96783">
        <ele>217.143936</ele>
        <time>2023-01-03T10:55:43.813Z</time>
      </trkpt>
      <trkpt lat="43.68785" lon="0.96796">
        <ele>216.769689</ele>
        <time>2023-01-03T10:55:45.812Z</time>
      </trkpt>
      <trkpt lat="43.68784" lon="0.96809">
        <ele>216.398581</ele>
        <time>2023-01-03T10:55:47.819Z</time>
      </trkpt>
      <trkpt lat="43.68784" lon="0.96821">
        <ele>216.03021</ele>
        <time>2023-01-03T10:55:49.797Z</time>
      </trkpt>
      <trkpt lat="43.68782" lon="0.96839">
        <ele>215.497511</ele>
        <time>2023-01-03T10:55:52.809Z</time>
      </trkpt>
      <trkpt lat="43.68781" lon="0.96852">
        <ele>215.11135</ele>
        <time>2023-01-03T10:55:54.811Z</time>
      </trkpt>
      <trkpt lat="43.6878" lon="0.96865">
        <ele>214.719886</ele>
        <time>2023-01-03T10:55:56.813Z</time>
      </trkpt>
      <trkpt lat="43.68779" lon="0.96878">
        <ele>214.333886</ele>
        <time>2023-01-03T10:55:58.794Z</time>
      </trkpt>
      <trkpt lat="43.68778" lon="0.96892">
        <ele>213.94291</ele>
        <time>2023-01-03T10:56:00.812Z</time>
      </trkpt>
      <trkpt lat="43.68777" lon="0.96904">
        <ele>213.575875</ele>
        <time>2023-01-03T10:56:02.797Z</time>
      </trkpt>
      <trkpt lat="43.68775" lon="0.96917">
        <ele>213.030887</ele>
        <time>2023-01-03T10:56:04.795Z</time>
      </trkpt>
      <trkpt lat="43.68772" lon="0.96929">
        <ele>212.408719</ele>
        <time>2023-01-03T10:56:06.793Z</time>
      </trkpt>
      <trkpt lat="43.6877" lon="0.96942">
        <ele>211.785904</ele>
        <time>2023-01-03T10:56:08.803Z</time>
      </trkpt>
      <trkpt lat="43.68767" lon="0.96955">
        <ele>211.132528</ele>
        <time>2023-01-03T10:56:10.796Z</time>
      </trkpt>
      <trkpt lat="43.68764" lon="0.96968">
        <ele>210.490817</ele>
        <time>2023-01-03T10:56:12.808Z</time>
      </trkpt>
      <trkpt lat="43.68761" lon="0.96985">
        <ele>209.645029</ele>
        <time>2023-01-03T10:56:15.809Z</time>
      </trkpt>
      <trkpt lat="43.68758" lon="0.97002">
        <ele>208.829004</ele>
        <time>2023-01-03T10:56:18.812Z</time>
      </trkpt>
      <trkpt lat="43.68753" lon="0.97015">
        <ele>208.131576</ele>
        <time>2023-01-03T10:56:21.798Z</time>
      </trkpt>
      <trkpt lat="43.68743" lon="0.97023">
        <ele>207.389137</ele>
        <time>2023-01-03T10:56:24.807Z</time>
      </trkpt>
      <trkpt lat="43.68732" lon="0.97024">
        <ele>206.629187</ele>
        <time>2023-01-03T10:56:27.798Z</time>
      </trkpt>
      <trkpt lat="43.68721" lon="0.97023">
        <ele>205.921886</ele>
        <time>2023-01-03T10:56:31.790Z</time>
      </trkpt>
      <trkpt lat="43.68711" lon="0.97027">
        <ele>205.231215</ele>
        <time>2023-01-03T10:56:35.818Z</time>
      </trkpt>
      <trkpt lat="43.68703" lon="0.97032">
        <ele>204.628053</ele>
        <time>2023-01-03T10:56:38.795Z</time>
      </trkpt>
      <trkpt lat="43.68697" lon="0.97042">
        <ele>204.003452</ele>
        <time>2023-01-03T10:56:40.801Z</time>
      </trkpt>
      <trkpt lat="43.68692" lon="0.97056">
        <ele>203.255829</ele>
        <time>2023-01-03T10:56:42.794Z</time>
      </trkpt>
      <trkpt lat="43.68688" lon="0.97072">
        <ele>202.470759</ele>
        <time>2023-01-03T10:56:44.798Z</time>
      </trkpt>
      <trkpt lat="43.68684" lon="0.97088">
        <ele>201.680707</ele>
        <time>2023-01-03T10:56:46.796Z</time>
      </trkpt>
      <trkpt lat="43.68681" lon="0.97104">
        <ele>201.766481</ele>
        <time>2023-01-03T10:56:48.814Z</time>
      </trkpt>
      <trkpt lat="43.68677" lon="0.97121">
        <ele>201.994116</ele>
        <time>2023-01-03T10:56:50.813Z</time>
      </trkpt>
      <trkpt lat="43.68674" lon="0.97139">
        <ele>202.21893</ele>
        <time>2023-01-03T10:56:52.813Z</time>
      </trkpt>
      <trkpt lat="43.68669" lon="0.97156">
        <ele>202.449968</ele>
        <time>2023-01-03T10:56:54.811Z</time>
      </trkpt>
      <trkpt lat="43.68666" lon="0.97174">
        <ele>202.675221</ele>
        <time>2023-01-03T10:56:56.815Z</time>
      </trkpt>
      <trkpt lat="43.68665" lon="0.97191">
        <ele>202.893905</ele>
        <time>2023-01-03T10:56:58.812Z</time>
      </trkpt>
      <trkpt lat="43.68667" lon="0.97207">
        <ele>203.093602</ele>
        <time>2023-01-03T10:57:00.794Z</time>
      </trkpt>
      <trkpt lat="43.68671" lon="0.97221">
        <ele>203.282916</ele>
        <time>2023-01-03T10:57:02.800Z</time>
      </trkpt>
      <trkpt lat="43.68677" lon="0.97234">
        <ele>203.467822</ele>
        <time>2023-01-03T10:57:04.794Z</time>
      </trkpt>
      <trkpt lat="43.68681" lon="0.97245">
        <ele>203.624217</ele>
        <time>2023-01-03T10:57:06.812Z</time>
      </trkpt>
      <trkpt lat="43.68687" lon="0.97258">
        <ele>203.814777</ele>
        <time>2023-01-03T10:57:09.797Z</time>
      </trkpt>
      <trkpt lat="43.6869" lon="0.97271">
        <ele>203.983119</ele>
        <time>2023-01-03T10:57:12.813Z</time>
      </trkpt>
      <trkpt lat="43.68694" lon="0.97282">
        <ele>204.139182</ele>
        <time>2023-01-03T10:57:15.814Z</time>
      </trkpt>
      <trkpt lat="43.68694" lon="0.97299">
        <ele>204.342393</ele>
        <time>2023-01-03T10:57:19.798Z</time>
      </trkpt>
      <trkpt lat="43.68694" lon="0.97312">
        <ele>204.504029</ele>
        <time>2023-01-03T10:57:23.798Z</time>
      </trkpt>
      <trkpt lat="43.68691" lon="0.97326">
        <ele>204.750761</ele>
        <time>2023-01-03T10:57:28.810Z</time>
      </trkpt>
      <trkpt lat="43.68687" lon="0.9734">
        <ele>205.621107</ele>
        <time>2023-01-03T10:57:33.800Z</time>
      </trkpt>
      <trkpt lat="43.68683" lon="0.97352">
        <ele>206.354009</ele>
        <time>2023-01-03T10:57:38.801Z</time>
      </trkpt>
      <trkpt lat="43.68677" lon="0.97362">
        <ele>207.104202</ele>
        <time>2023-01-03T10:57:43.790Z</time>
      </trkpt>
      <trkpt lat="43.68672" lon="0.97372">
        <ele>207.859698</ele>
        <time>2023-01-03T10:57:48.793Z</time>
      </trkpt>
      <trkpt lat="43.68665" lon="0.97382">
        <ele>208.649463</ele>
        <time>2023-01-03T10:57:54.793Z</time>
      </trkpt>
      <trkpt lat="43.68658" lon="0.97392">
        <ele>209.482238</ele>
        <time>2023-01-03T10:58:00.803Z</time>
      </trkpt>
      <trkpt lat="43.68651" lon="0.97403">
        <ele>210.297517</ele>
        <time>2023-01-03T10:58:06.800Z</time>
      </trkpt>
      <trkpt lat="43.68644" lon="0.97412">
        <ele>211.060173</ele>
        <time>2023-01-03T10:58:12.798Z</time>
      </trkpt>
      <trkpt lat="43.68637" lon="0.97422">
        <ele>211.836919</ele>
        <time>2023-01-03T10:58:18.794Z</time>
      </trkpt>
      <trkpt lat="43.6863" lon="0.97431">
        <ele>212.597905</ele>
        <time>2023-01-03T10:58:24.795Z</time>
      </trkpt>
      <trkpt lat="43.68622" lon="0.97439">
        <ele>213.437343</ele>
        <time>2023-01-03T10:58:31.803Z</time>
      </trkpt>
      <trkpt lat="43.68616" lon="0.97451">
        <ele>214.252887</ele>
        <time>2023-01-03T10:58:37.796Z</time>
      </trkpt>
      <trkpt lat="43.6861" lon="0.97461">
        <ele>215.015664</ele>
        <time>2023-01-03T10:58:43.798Z</time>
      </trkpt>
      <trkpt lat="43.68602" lon="0.97469">
        <ele>215.785121</ele>
        <time>2023-01-03T10:58:49.796Z</time>
      </trkpt>
      <trkpt lat="43.68596" lon="0.9748">
        <ele>216.58982</ele>
        <time>2023-01-03T10:58:56.791Z</time>
      </trkpt>
      <trkpt lat="43.68587" lon="0.97489">
        <ele>217.426378</ele>
        <time>2023-01-03T10:59:03.794Z</time>
      </trkpt>
      <trkpt lat="43.68582" lon="0.975">
        <ele>218.213828</ele>
        <time>2023-01-03T10:59:10.795Z</time>
      </trkpt>
      <trkpt lat="43.68574" lon="0.97507">
        <ele>218.96431</ele>
        <time>2023-01-03T10:59:18.794Z</time>
      </trkpt>
      <trkpt lat="43.68566" lon="0.97515">
        <ele>219.587975</ele>
        <time>2023-01-03T10:59:32.794Z</time>
      </trkpt>
      <trkpt lat="43.68561" lon="0.97526">
        <ele>220.178373</ele>
        <time>2023-01-03T10:59:44.789Z</time>
      </trkpt>
      <trkpt lat="43.68555" lon="0.97536">
        <ele>220.780206</ele>
        <time>2023-01-03T10:59:58.798Z</time>
      </trkpt>
      <trkpt lat="43.6855" lon="0.97547">
        <ele>221.36871</ele>
        <time>2023-01-03T11:00:08.798Z</time>
      </trkpt>
      <trkpt lat="43.68545" lon="0.97558">
        <ele>221.967638</ele>
        <time>2023-01-03T11:00:18.795Z</time>
      </trkpt>
      <trkpt lat="43.68541" lon="0.97569">
        <ele>222.533421</ele>
        <time>2023-01-03T11:00:27.795Z</time>
      </trkpt>
      <trkpt lat="43.68534" lon="0.97588">
        <ele>223.49562</ele>
        <time>2023-01-03T11:00:56.791Z</time>
      </trkpt>
      <trkpt lat="43.68529" lon="0.97599">
        <ele>224.069182</ele>
        <time>2023-01-03T11:01:00.796Z</time>
      </trkpt>
      <trkpt lat="43.68523" lon="0.9761">
        <ele>224.692526</ele>
        <time>2023-01-03T11:01:04.799Z</time>
      </trkpt>
      <trkpt lat="43.68519" lon="0.97622">
        <ele>225.28703</ele>
        <time>2023-01-03T11:01:08.814Z</time>
      </trkpt>
      <trkpt lat="43.68515" lon="0.97635">
        <ele>225.948383</ele>
        <time>2023-01-03T11:01:12.810Z</time>
      </trkpt>
      <trkpt lat="43.68509" lon="0.97648">
        <ele>226.644389</ele>
        <time>2023-01-03T11:01:16.814Z</time>
      </trkpt>
      <trkpt lat="43.68504" lon="0.97662">
        <ele>227.359424</ele>
        <time>2023-01-03T11:01:20.814Z</time>
      </trkpt>
      <trkpt lat="43.68499" lon="0.97676">
        <ele>228.072739</ele>
        <time>2023-01-03T11:01:24.803Z</time>
      </trkpt>
      <trkpt lat="43.68493" lon="0.9769">
        <ele>228.788835</ele>
        <time>2023-01-03T11:01:28.805Z</time>
      </trkpt>
      <trkpt lat="43.68488" lon="0.97703">
        <ele>229.490847</ele>
        <time>2023-01-03T11:01:32.815Z</time>
      </trkpt>
      <trkpt lat="43.68483" lon="0.97716">
        <ele>230.11692</ele>
        <time>2023-01-03T11:01:36.793Z</time>
      </trkpt>
      <trkpt lat="43.68479" lon="0.97728">
        <ele>230.45996</ele>
        <time>2023-01-03T11:01:40.808Z</time>
      </trkpt>
      <trkpt lat="43.68474" lon="0.9774">
        <ele>230.601748</ele>
        <time>2023-01-03T11:01:44.802Z</time>
      </trkpt>
      <trkpt lat="43.68468" lon="0.97752">
        <ele>230.748803</ele>
        <time>2023-01-03T11:01:48.812Z</time>
      </trkpt>
      <trkpt lat="43.68462" lon="0.97763">
        <ele>230.891767</ele>
        <time>2023-01-03T11:01:52.815Z</time>
      </trkpt>
      <trkpt lat="43.68455" lon="0.97774">
        <ele>231.039656</ele>
        <time>2023-01-03T11:01:56.810Z</time>
      </trkpt>
      <trkpt lat="43.68449" lon="0.97785">
        <ele>231.176899</ele>
        <time>2023-01-03T11:02:00.799Z</time>
      </trkpt>
      <trkpt lat="43.68442" lon="0.97795">
        <ele>231.313348</ele>
        <time>2023-01-03T11:02:04.799Z</time>
      </trkpt>
      <trkpt lat="43.68434" lon="0.97805">
        <ele>231.471536</ele>
        <time>2023-01-03T11:02:08.816Z</time>
      </trkpt>
      <trkpt lat="43.68427" lon="0.97814">
        <ele>231.602389</ele>
        <time>2023-01-03T11:02:11.813Z</time>
      </trkpt>
      <trkpt lat="43.68419" lon="0.97824">
        <ele>231.750713</ele>
        <time>2023-01-03T11:02:14.794Z</time>
      </trkpt>
      <trkpt lat="43.68411" lon="0.97836">
        <ele>231.915804</ele>
        <time>2023-01-03T11:02:17.814Z</time>
      </trkpt>
      <trkpt lat="43.68402" lon="0.9785">
        <ele>232.103566</ele>
        <time>2023-01-03T11:02:20.815Z</time>
      </trkpt>
      <trkpt lat="43.68396" lon="0.97861">
        <ele>232.23517</ele>
        <time>2023-01-03T11:02:22.804Z</time>
      </trkpt>
      <trkpt lat="43.68391" lon="0.97872">
        <ele>232.373324</ele>
        <time>2023-01-03T11:02:24.809Z</time>
      </trkpt>
      <trkpt lat="43.68385" lon="0.97883">
        <ele>232.50324</ele>
        <time>2023-01-03T11:02:26.813Z</time>
      </trkpt>
      <trkpt lat="43.6838" lon="0.97893">
        <ele>232.632517</ele>
        <time>2023-01-03T11:02:28.801Z</time>
      </trkpt>
      <trkpt lat="43.68374" lon="0.97907">
        <ele>232.798546</ele>
        <time>2023-01-03T11:02:31.817Z</time>
      </trkpt>
      <trkpt lat="43.68369" lon="0.97919">
        <ele>232.910981</ele>
        <time>2023-01-03T11:02:34.815Z</time>
      </trkpt>
      <trkpt lat="43.68364" lon="0.97931">
        <ele>232.97274</ele>
        <time>2023-01-03T11:02:37.805Z</time>
      </trkpt>
      <trkpt lat="43.68358" lon="0.97944">
        <ele>233.041317</ele>
        <time>2023-01-03T11:02:40.805Z</time>
      </trkpt>
      <trkpt lat="43.68352" lon="0.97958">
        <ele>233.111399</ele>
        <time>2023-01-03T11:02:43.809Z</time>
      </trkpt>
      <trkpt lat="43.68345" lon="0.97971">
        <ele>233.184195</ele>
        <time>2023-01-03T11:02:46.808Z</time>
      </trkpt>
      <trkpt lat="43.68337" lon="0.97984">
        <ele>233.261032</ele>
        <time>2023-01-03T11:02:49.817Z</time>
      </trkpt>
      <trkpt lat="43.68329" lon="0.97998">
        <ele>233.338948</ele>
        <time>2023-01-03T11:02:52.803Z</time>
      </trkpt>
      <trkpt lat="43.68321" lon="0.98011">
        <ele>233.41559</ele>
        <time>2023-01-03T11:02:55.801Z</time>
      </trkpt>
      <trkpt lat="43.68313" lon="0.98023">
        <ele>233.489218</ele>
        <time>2023-01-03T11:02:58.816Z</time>
      </trkpt>
      <trkpt lat="43.68304" lon="0.98033">
        <ele>233.561337</ele>
        <time>2023-01-03T11:03:01.793Z</time>
      </trkpt>
      <trkpt lat="43.68295" lon="0.98043">
        <ele>233.632132</ele>
        <time>2023-01-03T11:03:04.812Z</time>
      </trkpt>
      <trkpt lat="43.68286" lon="0.98052">
        <ele>233.696633</ele>
        <time>2023-01-03T11:03:07.817Z</time>
      </trkpt>
      <trkpt lat="43.68278" lon="0.98062">
        <ele>233.763455</ele>
        <time>2023-01-03T11:03:10.799Z</time>
      </trkpt>
      <trkpt lat="43.6827" lon="0.98072">
        <ele>233.832488</ele>
        <time>2023-01-03T11:03:13.812Z</time>
      </trkpt>
      <trkpt lat="43.68263" lon="0.98081">
        <ele>233.891495</ele>
        <time>2023-01-03T11:03:16.816Z</time>
      </trkpt>
      <trkpt lat="43.68256" lon="0.98092">
        <ele>233.955417</ele>
        <time>2023-01-03T11:03:20.819Z</time>
      </trkpt>
      <trkpt lat="43.68248" lon="0.98103">
        <ele>234.061885</ele>
        <time>2023-01-03T11:03:24.803Z</time>
      </trkpt>
      <trkpt lat="43.68241" lon="0.98113">
        <ele>234.183626</ele>
        <time>2023-01-03T11:03:27.806Z</time>
      </trkpt>
      <trkpt lat="43.68235" lon="0.98124">
        <ele>234.316185</ele>
        <time>2023-01-03T11:03:30.807Z</time>
      </trkpt>
      <trkpt lat="43.68229" lon="0.98137">
        <ele>234.466528</ele>
        <time>2023-01-03T11:03:33.803Z</time>
      </trkpt>
      <trkpt lat="43.68224" lon="0.98152">
        <ele>234.61356</ele>
        <time>2023-01-03T11:03:36.800Z</time>
      </trkpt>
      <trkpt lat="43.6822" lon="0.98165">
        <ele>234.751282</ele>
        <time>2023-01-03T11:03:39.793Z</time>
      </trkpt>
      <trkpt lat="43.68216" lon="0.9818">
        <ele>234.899263</ele>
        <time>2023-01-03T11:03:42.799Z</time>
      </trkpt>
      <trkpt lat="43.68213" lon="0.98195">
        <ele>235.050156</ele>
        <time>2023-01-03T11:03:45.794Z</time>
      </trkpt>
      <trkpt lat="43.6821" lon="0.98209">
        <ele>235.184117</ele>
        <time>2023-01-03T11:03:48.810Z</time>
      </trkpt>
      <trkpt lat="43.68206" lon="0.98224">
        <ele>235.331795</ele>
        <time>2023-01-03T11:03:51.809Z</time>
      </trkpt>
      <trkpt lat="43.68203" lon="0.9824">
        <ele>235.486167</ele>
        <time>2023-01-03T11:03:54.819Z</time>
      </trkpt>
      <trkpt lat="43.682" lon="0.98255">
        <ele>235.638333</ele>
        <time>2023-01-03T11:03:57.818Z</time>
      </trkpt>
      <trkpt lat="43.68197" lon="0.9827">
        <ele>235.783551</ele>
        <time>2023-01-03T11:04:00.813Z</time>
      </trkpt>
      <trkpt lat="43.68194" lon="0.98284">
        <ele>235.917522</ele>
        <time>2023-01-03T11:04:03.813Z</time>
      </trkpt>
      <trkpt lat="43.68192" lon="0.98297">
        <ele>236.042988</ele>
        <time>2023-01-03T11:04:06.820Z</time>
      </trkpt>
      <trkpt lat="43.68189" lon="0.98309">
        <ele>236.161573</ele>
        <time>2023-01-03T11:04:09.813Z</time>
      </trkpt>
      <trkpt lat="43.68186" lon="0.98321">
        <ele>236.28483</ele>
        <time>2023-01-03T11:04:12.814Z</time>
      </trkpt>
      <trkpt lat="43.68184" lon="0.98334">
        <ele>236.437373</ele>
        <time>2023-01-03T11:04:15.820Z</time>
      </trkpt>
      <trkpt lat="43.68181" lon="0.98347">
        <ele>236.60773</ele>
        <time>2023-01-03T11:04:18.810Z</time>
      </trkpt>
      <trkpt lat="43.68178" lon="0.9836">
        <ele>236.779286</ele>
        <time>2023-01-03T11:04:21.822Z</time>
      </trkpt>
      <trkpt lat="43.68175" lon="0.98373">
        <ele>236.946745</ele>
        <time>2023-01-03T11:04:24.819Z</time>
      </trkpt>
      <trkpt lat="43.68172" lon="0.98386">
        <ele>237.115821</ele>
        <time>2023-01-03T11:04:27.796Z</time>
      </trkpt>
      <trkpt lat="43.68168" lon="0.98399">
        <ele>237.289616</ele>
        <time>2023-01-03T11:04:30.814Z</time>
      </trkpt>
      <trkpt lat="43.68166" lon="0.98412">
        <ele>237.459513</ele>
        <time>2023-01-03T11:04:33.806Z</time>
      </trkpt>
      <trkpt lat="43.68163" lon="0.98425">
        <ele>237.628147</ele>
        <time>2023-01-03T11:04:36.809Z</time>
      </trkpt>
      <trkpt lat="43.6816" lon="0.98437">
        <ele>237.78955</ele>
        <time>2023-01-03T11:04:39.797Z</time>
      </trkpt>
      <trkpt lat="43.68158" lon="0.98452">
        <ele>237.990127</ele>
        <time>2023-01-03T11:04:43.795Z</time>
      </trkpt>
      <trkpt lat="43.68156" lon="0.98464">
        <ele>238.146413</ele>
        <time>2023-01-03T11:04:46.802Z</time>
      </trkpt>
      <trkpt lat="43.68153" lon="0.9848">
        <ele>238.350928</ele>
        <time>2023-01-03T11:04:50.810Z</time>
      </trkpt>
      <trkpt lat="43.68151" lon="0.98493">
        <ele>238.510652</ele>
        <time>2023-01-03T11:04:53.819Z</time>
      </trkpt>
      <trkpt lat="43.68149" lon="0.98505">
        <ele>238.670245</ele>
        <time>2023-01-03T11:04:56.807Z</time>
      </trkpt>
      <trkpt lat="43.68149" lon="0.98518">
        <ele>238.827405</ele>
        <time>2023-01-03T11:04:59.813Z</time>
      </trkpt>
      <trkpt lat="43.6815" lon="0.98531">
        <ele>238.993584</ele>
        <time>2023-01-03T11:05:02.816Z</time>
      </trkpt>
      <trkpt lat="43.6815" lon="0.98544">
        <ele>239.164705</ele>
        <time>2023-01-03T11:05:05.817Z</time>
      </trkpt>
      <trkpt lat="43.68151" lon="0.98558">
        <ele>239.331238</ele>
        <time>2023-01-03T11:05:08.814Z</time>
      </trkpt>
      <trkpt lat="43.68152" lon="0.9857">
        <ele>239.513098</ele>
        <time>2023-01-03T11:05:11.813Z</time>
      </trkpt>
      <trkpt lat="43.68154" lon="0.98583">
        <ele>239.77231</ele>
        <time>2023-01-03T11:05:14.814Z</time>
      </trkpt>
      <trkpt lat="43.68154" lon="0.98597">
        <ele>240.057469</ele>
        <time>2023-01-03T11:05:17.816Z</time>
      </trkpt>
      <trkpt lat="43.68152" lon="0.98612">
        <ele>240.356465</ele>
        <time>2023-01-03T11:05:20.796Z</time>
      </trkpt>
      <trkpt lat="43.68149" lon="0.98624">
        <ele>240.608396</ele>
        <time>2023-01-03T11:05:23.795Z</time>
      </trkpt>
      <trkpt lat="43.68145" lon="0.98635">
        <ele>240.854395</ele>
        <time>2023-01-03T11:05:26.795Z</time>
      </trkpt>
      <trkpt lat="43.6814" lon="0.98646">
        <ele>241.111773</ele>
        <time>2023-01-03T11:05:29.821Z</time>
      </trkpt>
      <trkpt lat="43.68135" lon="0.98657">
        <ele>241.37658</ele>
        <time>2023-01-03T11:05:32.796Z</time>
      </trkpt>
      <trkpt lat="43.6813" lon="0.98669">
        <ele>241.641048</ele>
        <time>2023-01-03T11:05:35.812Z</time>
      </trkpt>
      <trkpt lat="43.68125" lon="0.98681">
        <ele>241.914854</ele>
        <time>2023-01-03T11:05:38.816Z</time>
      </trkpt>
      <trkpt lat="43.6812" lon="0.98691">
        <ele>242.163598</ele>
        <time>2023-01-03T11:05:41.815Z</time>
      </trkpt>
      <trkpt lat="43.68115" lon="0.98705">
        <ele>242.480111</ele>
        <time>2023-01-03T11:05:45.813Z</time>
      </trkpt>
      <trkpt lat="43.6811" lon="0.98716">
        <ele>242.728749</ele>
        <time>2023-01-03T11:05:48.817Z</time>
      </trkpt>
      <trkpt lat="43.68106" lon="0.98728">
        <ele>242.995496</ele>
        <time>2023-01-03T11:05:51.801Z</time>
      </trkpt>
      <trkpt lat="43.68102" lon="0.9874">
        <ele>243.245847</ele>
        <time>2023-01-03T11:05:54.814Z</time>
      </trkpt>
      <trkpt lat="43.68098" lon="0.98751">
        <ele>243.499306</ele>
        <time>2023-01-03T11:05:57.817Z</time>
      </trkpt>
      <trkpt lat="43.68093" lon="0.98762">
        <ele>243.759325</ele>
        <time>2023-01-03T11:06:00.815Z</time>
      </trkpt>
      <trkpt lat="43.68089" lon="0.98774">
        <ele>244.020226</ele>
        <time>2023-01-03T11:06:03.811Z</time>
      </trkpt>
      <trkpt lat="43.68084" lon="0.98786">
        <ele>244.296562</ele>
        <time>2023-01-03T11:06:06.822Z</time>
      </trkpt>
      <trkpt lat="43.6808" lon="0.98799">
        <ele>244.509066</ele>
        <time>2023-01-03T11:06:09.820Z</time>
      </trkpt>
      <trkpt lat="43.68075" lon="0.98812">
        <ele>244.665615</ele>
        <time>2023-01-03T11:06:12.812Z</time>
      </trkpt>
      <trkpt lat="43.68071" lon="0.98824">
        <ele>244.810617</ele>
        <time>2023-01-03T11:06:15.812Z</time>
      </trkpt>
      <trkpt lat="43.68068" lon="0.98836">
        <ele>244.95472</ele>
        <time>2023-01-03T11:06:18.815Z</time>
      </trkpt>
      <trkpt lat="43.68064" lon="0.98851">
        <ele>245.136122</ele>
        <time>2023-01-03T11:06:22.813Z</time>
      </trkpt>
      <trkpt lat="43.6806" lon="0.98867">
        <ele>245.312338</ele>
        <time>2023-01-03T11:06:26.796Z</time>
      </trkpt>
      <trkpt lat="43.68056" lon="0.98882">
        <ele>245.494027</ele>
        <time>2023-01-03T11:06:30.815Z</time>
      </trkpt>
      <trkpt lat="43.68052" lon="0.98896">
        <ele>245.66108</ele>
        <time>2023-01-03T11:06:34.814Z</time>
      </trkpt>
      <trkpt lat="43.68049" lon="0.9891">
        <ele>245.820701</ele>
        <time>2023-01-03T11:06:38.819Z</time>
      </trkpt>
      <trkpt lat="43.68045" lon="0.98924">
        <ele>245.984562</ele>
        <time>2023-01-03T11:06:42.814Z</time>
      </trkpt>
      <trkpt lat="43.68039" lon="0.98938">
        <ele>246.159009</ele>
        <time>2023-01-03T11:06:46.814Z</time>
      </trkpt>
      <trkpt lat="43.68035" lon="0.98952">
        <ele>246.333524</ele>
        <time>2023-01-03T11:06:50.812Z</time>
      </trkpt>
      <trkpt lat="43.68031" lon="0.98964">
        <ele>246.474094</ele>
        <time>2023-01-03T11:06:53.808Z</time>
      </trkpt>
      <trkpt lat="43.68027" lon="0.98976">
        <ele>246.623369</ele>
        <time>2023-01-03T11:06:56.818Z</time>
      </trkpt>
      <trkpt lat="43.68023" lon="0.9899">
        <ele>246.78043</ele>
        <time>2023-01-03T11:06:59.810Z</time>
      </trkpt>
      <trkpt lat="43.6802" lon="0.99002">
        <ele>246.928165</ele>
        <time>2023-01-03T11:07:02.809Z</time>
      </trkpt>
      <trkpt lat="43.68016" lon="0.99015">
        <ele>247.08305</ele>
        <time>2023-01-03T11:07:05.801Z</time>
      </trkpt>
      <trkpt lat="43.68011" lon="0.99028">
        <ele>247.270875</ele>
        <time>2023-01-03T11:07:08.826Z</time>
      </trkpt>
      <trkpt lat="43.68007" lon="0.99041">
        <ele>247.480515</ele>
        <time>2023-01-03T11:07:11.819Z</time>
      </trkpt>
      <trkpt lat="43.68004" lon="0.99055">
        <ele>247.688071</ele>
        <time>2023-01-03T11:07:14.814Z</time>
      </trkpt>
      <trkpt lat="43.68" lon="0.99067">
        <ele>247.88262</ele>
        <time>2023-01-03T11:07:17.812Z</time>
      </trkpt>
      <trkpt lat="43.67997" lon="0.9908">
        <ele>248.075115</ele>
        <time>2023-01-03T11:07:20.817Z</time>
      </trkpt>
      <trkpt lat="43.67993" lon="0.99093">
        <ele>248.293396</ele>
        <time>2023-01-03T11:07:24.817Z</time>
      </trkpt>
      <trkpt lat="43.67988" lon="0.99107">
        <ele>248.518527</ele>
        <time>2023-01-03T11:07:28.818Z</time>
      </trkpt>
      <trkpt lat="43.67983" lon="0.99122">
        <ele>248.758605</ele>
        <time>2023-01-03T11:07:32.809Z</time>
      </trkpt>
      <trkpt lat="43.6798" lon="0.99135">
        <ele>248.955165</ele>
        <time>2023-01-03T11:07:35.816Z</time>
      </trkpt>
      <trkpt lat="43.67976" lon="0.99147">
        <ele>249.157397</ele>
        <time>2023-01-03T11:07:38.813Z</time>
      </trkpt>
      <trkpt lat="43.67972" lon="0.9916">
        <ele>249.364538</ele>
        <time>2023-01-03T11:07:41.813Z</time>
      </trkpt>
      <trkpt lat="43.67967" lon="0.99173">
        <ele>249.56862</ele>
        <time>2023-01-03T11:07:44.819Z</time>
      </trkpt>
      <trkpt lat="43.67963" lon="0.99185">
        <ele>249.770496</ele>
        <time>2023-01-03T11:07:47.813Z</time>
      </trkpt>
      <trkpt lat="43.67958" lon="0.99198">
        <ele>249.979404</ele>
        <time>2023-01-03T11:07:50.811Z</time>
      </trkpt>
      <trkpt lat="43.67953" lon="0.99211">
        <ele>250.188501</ele>
        <time>2023-01-03T11:07:53.811Z</time>
      </trkpt>
      <trkpt lat="43.67949" lon="0.99224">
        <ele>250.404104</ele>
        <time>2023-01-03T11:07:56.809Z</time>
      </trkpt>
      <trkpt lat="43.67944" lon="0.99238">
        <ele>250.634722</ele>
        <time>2023-01-03T11:07:59.814Z</time>
      </trkpt>
      <trkpt lat="43.67939" lon="0.99252">
        <ele>250.753529</ele>
        <time>2023-01-03T11:08:02.815Z</time>
      </trkpt>
      <trkpt lat="43.67934" lon="0.99265">
        <ele>250.642157</ele>
        <time>2023-01-03T11:08:05.810Z</time>
      </trkpt>
      <trkpt lat="43.67929" lon="0.99278">
        <ele>250.535425</ele>
        <time>2023-01-03T11:08:08.813Z</time>
      </trkpt>
      <trkpt lat="43.67924" lon="0.99291">
        <ele>250.433523</ele>
        <time>2023-01-03T11:08:11.813Z</time>
      </trkpt>
      <trkpt lat="43.67919" lon="0.99302">
        <ele>250.332482</ele>
        <time>2023-01-03T11:08:14.816Z</time>
      </trkpt>
      <trkpt lat="43.67914" lon="0.99314">
        <ele>250.234122</ele>
        <time>2023-01-03T11:08:17.811Z</time>
      </trkpt>
      <trkpt lat="43.6791" lon="0.99326">
        <ele>250.138395</ele>
        <time>2023-01-03T11:08:20.795Z</time>
      </trkpt>
      <trkpt lat="43.67905" lon="0.9934">
        <ele>250.022048</ele>
        <time>2023-01-03T11:08:24.817Z</time>
      </trkpt>
      <trkpt lat="43.679" lon="0.99351">
        <ele>249.927865</ele>
        <time>2023-01-03T11:08:27.813Z</time>
      </trkpt>
      <trkpt lat="43.67896" lon="0.99362">
        <ele>249.832897</ele>
        <time>2023-01-03T11:08:30.814Z</time>
      </trkpt>
      <trkpt lat="43.6789" lon="0.99376">
        <ele>249.716699</ele>
        <time>2023-01-03T11:08:34.813Z</time>
      </trkpt>
      <trkpt lat="43.67885" lon="0.99391">
        <ele>249.599659</ele>
        <time>2023-01-03T11:08:38.806Z</time>
      </trkpt>
      <trkpt lat="43.6788" lon="0.99404">
        <ele>249.490535</ele>
        <time>2023-01-03T11:08:42.818Z</time>
      </trkpt>
      <trkpt lat="43.67874" lon="0.99414">
        <ele>249.398308</ele>
        <time>2023-01-03T11:08:45.799Z</time>
      </trkpt>
      <trkpt lat="43.67866" lon="0.99419">
        <ele>249.301179</ele>
        <time>2023-01-03T11:08:49.801Z</time>
      </trkpt>
      <trkpt lat="43.67856" lon="0.99423">
        <ele>249.200361</ele>
        <time>2023-01-03T11:08:53.802Z</time>
      </trkpt>
      <trkpt lat="43.67847" lon="0.99429">
        <ele>249.102093</ele>
        <time>2023-01-03T11:08:56.811Z</time>
      </trkpt>
      <trkpt lat="43.67838" lon="0.99436">
        <ele>248.99411</ele>
        <time>2023-01-03T11:08:59.799Z</time>
      </trkpt>
      <trkpt lat="43.67829" lon="0.99445">
        <ele>249.043647</ele>
        <time>2023-01-03T11:09:02.810Z</time>
      </trkpt>
      <trkpt lat="43.6782" lon="0.99454">
        <ele>249.140419</ele>
        <time>2023-01-03T11:09:05.815Z</time>
      </trkpt>
      <trkpt lat="43.67811" lon="0.99465">
        <ele>249.239204</ele>
        <time>2023-01-03T11:09:08.814Z</time>
      </trkpt>
      <trkpt lat="43.67803" lon="0.99475">
        <ele>249.336014</ele>
        <time>2023-01-03T11:09:11.811Z</time>
      </trkpt>
      <trkpt lat="43.67795" lon="0.99486">
        <ele>249.433393</ele>
        <time>2023-01-03T11:09:14.796Z</time>
      </trkpt>
      <trkpt lat="43.67788" lon="0.99499">
        <ele>249.533982</ele>
        <time>2023-01-03T11:09:17.800Z</time>
      </trkpt>
      <trkpt lat="43.6778" lon="0.99511">
        <ele>249.632785</ele>
        <time>2023-01-03T11:09:20.815Z</time>
      </trkpt>
      <trkpt lat="43.67773" lon="0.99524">
        <ele>249.735549</ele>
        <time>2023-01-03T11:09:23.818Z</time>
      </trkpt>
      <trkpt lat="43.67764" lon="0.99537">
        <ele>249.841763</ele>
        <time>2023-01-03T11:09:26.818Z</time>
      </trkpt>
      <trkpt lat="43.67756" lon="0.9955">
        <ele>249.952124</ele>
        <time>2023-01-03T11:09:29.812Z</time>
      </trkpt>
      <trkpt lat="43.67747" lon="0.99564">
        <ele>250.069106</ele>
        <time>2023-01-03T11:09:32.813Z</time>
      </trkpt>
      <trkpt lat="43.6774" lon="0.99574">
        <ele>250.153875</ele>
        <time>2023-01-03T11:09:34.794Z</time>
      </trkpt>
      <trkpt lat="43.67732" lon="0.99583">
        <ele>250.240513</ele>
        <time>2023-01-03T11:09:36.800Z</time>
      </trkpt>
      <trkpt lat="43.67725" lon="0.99593">
        <ele>250.329253</ele>
        <time>2023-01-03T11:09:38.808Z</time>
      </trkpt>
      <trkpt lat="43.67717" lon="0.99603">
        <ele>250.421174</ele>
        <time>2023-01-03T11:09:40.810Z</time>
      </trkpt>
      <trkpt lat="43.6771" lon="0.99612">
        <ele>250.503185</ele>
        <time>2023-01-03T11:09:42.810Z</time>
      </trkpt>
      <trkpt lat="43.677" lon="0.99623">
        <ele>250.595185</ele>
        <time>2023-01-03T11:09:45.813Z</time>
      </trkpt>
      <trkpt lat="43.67692" lon="0.99632">
        <ele>250.673533</ele>
        <time>2023-01-03T11:09:48.821Z</time>
      </trkpt>
      <trkpt lat="43.67684" lon="0.99641">
        <ele>250.748866</ele>
        <time>2023-01-03T11:09:51.809Z</time>
      </trkpt>
      <trkpt lat="43.67676" lon="0.99651">
        <ele>250.826335</ele>
        <time>2023-01-03T11:09:54.815Z</time>
      </trkpt>
      <trkpt lat="43.67668" lon="0.9966">
        <ele>250.903552</ele>
        <time>2023-01-03T11:09:57.812Z</time>
      </trkpt>
      <trkpt lat="43.67659" lon="0.9967">
        <ele>250.983794</ele>
        <time>2023-01-03T11:10:00.812Z</time>
      </trkpt>
      <trkpt lat="43.67651" lon="0.9968">
        <ele>251.061068</ele>
        <time>2023-01-03T11:10:03.810Z</time>
      </trkpt>
      <trkpt lat="43.67644" lon="0.99689">
        <ele>251.134818</ele>
        <time>2023-01-03T11:10:06.813Z</time>
      </trkpt>
      <trkpt lat="43.67636" lon="0.99696">
        <ele>251.202193</ele>
        <time>2023-01-03T11:10:09.804Z</time>
      </trkpt>
      <trkpt lat="43.67628" lon="0.99705">
        <ele>251.276286</ele>
        <time>2023-01-03T11:10:12.799Z</time>
      </trkpt>
      <trkpt lat="43.67621" lon="0.99715">
        <ele>251.352308</ele>
        <time>2023-01-03T11:10:15.812Z</time>
      </trkpt>
      <trkpt lat="43.67613" lon="0.99725">
        <ele>251.430878</ele>
        <time>2023-01-03T11:10:18.811Z</time>
      </trkpt>
      <trkpt lat="43.67604" lon="0.99736">
        <ele>251.512078</ele>
        <time>2023-01-03T11:10:21.812Z</time>
      </trkpt>
      <trkpt lat="43.67595" lon="0.99745">
        <ele>251.595736</ele>
        <time>2023-01-03T11:10:24.817Z</time>
      </trkpt>
      <trkpt lat="43.67587" lon="0.99755">
        <ele>251.676586</ele>
        <time>2023-01-03T11:10:27.807Z</time>
      </trkpt>
      <trkpt lat="43.67579" lon="0.99766">
        <ele>251.759223</ele>
        <time>2023-01-03T11:10:30.815Z</time>
      </trkpt>
      <trkpt lat="43.6757" lon="0.99776">
        <ele>251.812125</ele>
        <time>2023-01-03T11:10:33.810Z</time>
      </trkpt>
      <trkpt lat="43.67562" lon="0.99785">
        <ele>251.767255</ele>
        <time>2023-01-03T11:10:36.808Z</time>
      </trkpt>
      <trkpt lat="43.67555" lon="0.99795">
        <ele>251.723327</ele>
        <time>2023-01-03T11:10:39.823Z</time>
      </trkpt>
      <trkpt lat="43.67546" lon="0.99804">
        <ele>251.677263</ele>
        <time>2023-01-03T11:10:42.795Z</time>
      </trkpt>
      <trkpt lat="43.67539" lon="0.99814">
        <ele>251.631632</ele>
        <time>2023-01-03T11:10:45.795Z</time>
      </trkpt>
      <trkpt lat="43.6753" lon="0.99825">
        <ele>251.581692</ele>
        <time>2023-01-03T11:10:48.817Z</time>
      </trkpt>
      <trkpt lat="43.67521" lon="0.99835">
        <ele>251.529596</ele>
        <time>2023-01-03T11:10:51.811Z</time>
      </trkpt>
      <trkpt lat="43.67511" lon="0.99844">
        <ele>251.477126</ele>
        <time>2023-01-03T11:10:54.793Z</time>
      </trkpt>
      <trkpt lat="43.67501" lon="0.99852">
        <ele>251.427841</ele>
        <time>2023-01-03T11:10:57.809Z</time>
      </trkpt>
      <trkpt lat="43.67492" lon="0.9986">
        <ele>251.38285</ele>
        <time>2023-01-03T11:11:00.814Z</time>
      </trkpt>
      <trkpt lat="43.67483" lon="0.99867">
        <ele>251.337278</ele>
        <time>2023-01-03T11:11:03.822Z</time>
      </trkpt>
      <trkpt lat="43.67473" lon="0.99875">
        <ele>251.287717</ele>
        <time>2023-01-03T11:11:06.804Z</time>
      </trkpt>
      <trkpt lat="43.67463" lon="0.99883">
        <ele>251.237402</ele>
        <time>2023-01-03T11:11:09.816Z</time>
      </trkpt>
      <trkpt lat="43.67452" lon="0.9989">
        <ele>251.187297</ele>
        <time>2023-01-03T11:11:12.804Z</time>
      </trkpt>
      <trkpt lat="43.67442" lon="0.99896">
        <ele>251.139846</ele>
        <time>2023-01-03T11:11:15.806Z</time>
      </trkpt>
      <trkpt lat="43.67432" lon="0.99902">
        <ele>251.091153</ele>
        <time>2023-01-03T11:11:18.820Z</time>
      </trkpt>
      <trkpt lat="43.67422" lon="0.99906">
        <ele>251.04636</ele>
        <time>2023-01-03T11:11:21.811Z</time>
      </trkpt>
      <trkpt lat="43.67412" lon="0.99911">
        <ele>251.375696</ele>
        <time>2023-01-03T11:11:24.820Z</time>
      </trkpt>
      <trkpt lat="43.67401" lon="0.99914">
        <ele>251.715143</ele>
        <time>2023-01-03T11:11:27.816Z</time>
      </trkpt>
      <trkpt lat="43.6739" lon="0.99918">
        <ele>252.072208</ele>
        <time>2023-01-03T11:11:30.816Z</time>
      </trkpt>
      <trkpt lat="43.67379" lon="0.99922">
        <ele>252.439808</ele>
        <time>2023-01-03T11:11:33.817Z</time>
      </trkpt>
      <trkpt lat="43.67368" lon="0.99926">
        <ele>252.809088</ele>
        <time>2023-01-03T11:11:36.814Z</time>
      </trkpt>
      <trkpt lat="43.67356" lon="0.99929">
        <ele>253.17394</ele>
        <time>2023-01-03T11:11:39.802Z</time>
      </trkpt>
      <trkpt lat="43.67347" lon="0.99931">
        <ele>253.4792</ele>
        <time>2023-01-03T11:11:42.805Z</time>
      </trkpt>
      <trkpt lat="43.67327" lon="0.99936">
        <ele>254.109202</ele>
        <time>2023-01-03T11:12:08.804Z</time>
      </trkpt>
      <trkpt lat="43.67317" lon="0.99938">
        <ele>254.427963</ele>
        <time>2023-01-03T11:12:12.807Z</time>
      </trkpt>
      <trkpt lat="43.67307" lon="0.99938">
        <ele>254.766253</ele>
        <time>2023-01-03T11:12:16.796Z</time>
      </trkpt>
      <trkpt lat="43.67295" lon="0.99938">
        <ele>255.120285</ele>
        <time>2023-01-03T11:12:20.814Z</time>
      </trkpt>
      <trkpt lat="43.67285" lon="0.99936">
        <ele>255.456688</ele>
        <time>2023-01-03T11:12:24.812Z</time>
      </trkpt>
      <trkpt lat="43.67275" lon="0.99934">
        <ele>255.769182</ele>
        <time>2023-01-03T11:12:28.815Z</time>
      </trkpt>
      <trkpt lat="43.67265" lon="0.99932">
        <ele>256.078542</ele>
        <time>2023-01-03T11:12:32.814Z</time>
      </trkpt>
      <trkpt lat="43.67256" lon="0.99929">
        <ele>256.397369</ele>
        <time>2023-01-03T11:12:36.814Z</time>
      </trkpt>
      <trkpt lat="43.67247" lon="0.99926">
        <ele>256.691563</ele>
        <time>2023-01-03T11:12:40.811Z</time>
      </trkpt>
      <trkpt lat="43.67236" lon="0.99924">
        <ele>256.861319</ele>
        <time>2023-01-03T11:12:45.811Z</time>
      </trkpt>
      <trkpt lat="43.67225" lon="0.99922">
        <ele>257.014505</ele>
        <time>2023-01-03T11:12:50.814Z</time>
      </trkpt>
      <trkpt lat="43.67215" lon="0.9992">
        <ele>257.169625</ele>
        <time>2023-01-03T11:12:55.820Z</time>
      </trkpt>
      <trkpt lat="43.67204" lon="0.9992">
        <ele>257.321764</ele>
        <time>2023-01-03T11:13:00.807Z</time>
      </trkpt>
      <trkpt lat="43.67193" lon="0.99924">
        <ele>257.474352</ele>
        <time>2023-01-03T11:13:05.804Z</time>
      </trkpt>
      <trkpt lat="43.67185" lon="0.9993">
        <ele>257.606953</ele>
        <time>2023-01-03T11:13:09.797Z</time>
      </trkpt>
      <trkpt lat="43.67178" lon="0.9994">
        <ele>257.74635</ele>
        <time>2023-01-03T11:13:13.808Z</time>
      </trkpt>
      <trkpt lat="43.67171" lon="0.99952">
        <ele>257.904261</ele>
        <time>2023-01-03T11:13:17.807Z</time>
      </trkpt>
      <trkpt lat="43.67165" lon="0.99965">
        <ele>258.067679</ele>
        <time>2023-01-03T11:13:21.816Z</time>
      </trkpt>
      <trkpt lat="43.67159" lon="0.99979">
        <ele>258.221959</ele>
        <time>2023-01-03T11:13:25.802Z</time>
      </trkpt>
      <trkpt lat="43.67152" lon="0.99992">
        <ele>258.394452</ele>
        <time>2023-01-03T11:13:29.816Z</time>
      </trkpt>
      <trkpt lat="43.67147" lon="1.00003">
        <ele>258.523871</ele>
        <time>2023-01-03T11:13:32.808Z</time>
      </trkpt>
      <trkpt lat="43.67141" lon="1.00017">
        <ele>258.68828</ele>
        <time>2023-01-03T11:13:36.819Z</time>
      </trkpt>
      <trkpt lat="43.67136" lon="1.00028">
        <ele>258.828789</ele>
        <time>2023-01-03T11:13:39.807Z</time>
      </trkpt>
      <trkpt lat="43.67131" lon="1.00041">
        <ele>258.97271</ele>
        <time>2023-01-03T11:13:42.818Z</time>
      </trkpt>
      <trkpt lat="43.67125" lon="1.00053">
        <ele>259.121501</ele>
        <time>2023-01-03T11:13:45.822Z</time>
      </trkpt>
      <trkpt lat="43.67121" lon="1.00067">
        <ele>259.245598</ele>
        <time>2023-01-03T11:13:48.801Z</time>
      </trkpt>
      <trkpt lat="43.67116" lon="1.00082">
        <ele>258.96768</ele>
        <time>2023-01-03T11:13:51.807Z</time>
      </trkpt>
      <trkpt lat="43.67113" lon="1.00094">
        <ele>258.755294</ele>
        <time>2023-01-03T11:13:53.816Z</time>
      </trkpt>
      <trkpt lat="43.67109" lon="1.00106">
        <ele>258.521357</ele>
        <time>2023-01-03T11:13:55.798Z</time>
      </trkpt>
      <trkpt lat="43.67106" lon="1.0012">
        <ele>258.280724</ele>
        <time>2023-01-03T11:13:57.814Z</time>
      </trkpt>
      <trkpt lat="43.67103" lon="1.00135">
        <ele>258.010988</ele>
        <time>2023-01-03T11:13:59.810Z</time>
      </trkpt>
      <trkpt lat="43.67098" lon="1.00151">
        <ele>257.727098</ele>
        <time>2023-01-03T11:14:01.808Z</time>
      </trkpt>
      <trkpt lat="43.67093" lon="1.00166">
        <ele>257.433409</ele>
        <time>2023-01-03T11:14:03.810Z</time>
      </trkpt>
      <trkpt lat="43.67086" lon="1.0018">
        <ele>257.143238</ele>
        <time>2023-01-03T11:14:05.808Z</time>
      </trkpt>
      <trkpt lat="43.67078" lon="1.00193">
        <ele>256.8543</ele>
        <time>2023-01-03T11:14:07.815Z</time>
      </trkpt>
      <trkpt lat="43.6707" lon="1.00206">
        <ele>256.562389</ele>
        <time>2023-01-03T11:14:09.812Z</time>
      </trkpt>
      <trkpt lat="43.67061" lon="1.00218">
        <ele>256.26353</ele>
        <time>2023-01-03T11:14:11.816Z</time>
      </trkpt>
      <trkpt lat="43.67052" lon="1.00228">
        <ele>255.992849</ele>
        <time>2023-01-03T11:14:13.818Z</time>
      </trkpt>
      <trkpt lat="43.67043" lon="1.00237">
        <ele>255.732746</ele>
        <time>2023-01-03T11:14:15.810Z</time>
      </trkpt>
      <trkpt lat="43.67035" lon="1.00247">
        <ele>255.478687</ele>
        <time>2023-01-03T11:14:17.810Z</time>
      </trkpt>
      <trkpt lat="43.67027" lon="1.00255">
        <ele>255.250539</ele>
        <time>2023-01-03T11:14:19.809Z</time>
      </trkpt>
      <trkpt lat="43.67018" lon="1.00267">
        <ele>255.026743</ele>
        <time>2023-01-03T11:14:22.808Z</time>
      </trkpt>
      <trkpt lat="43.6701" lon="1.00277">
        <ele>255.024591</ele>
        <time>2023-01-03T11:14:25.806Z</time>
      </trkpt>
      <trkpt lat="43.67002" lon="1.00287">
        <ele>255.022613</ele>
        <time>2023-01-03T11:14:28.807Z</time>
      </trkpt>
      <trkpt lat="43.66995" lon="1.00297">
        <ele>255.020497</ele>
        <time>2023-01-03T11:14:31.803Z</time>
      </trkpt>
      <trkpt lat="43.66988" lon="1.00308">
        <ele>255.018384</ele>
        <time>2023-01-03T11:14:34.799Z</time>
      </trkpt>
      <trkpt lat="43.6698" lon="1.00318">
        <ele>255.016247</ele>
        <time>2023-01-03T11:14:37.815Z</time>
      </trkpt>
      <trkpt lat="43.66972" lon="1.00328">
        <ele>255.01412</ele>
        <time>2023-01-03T11:14:40.818Z</time>
      </trkpt>
      <trkpt lat="43.66964" lon="1.00338">
        <ele>255.012165</ele>
        <time>2023-01-03T11:14:43.817Z</time>
      </trkpt>
      <trkpt lat="43.66957" lon="1.00345">
        <ele>255.01038</ele>
        <time>2023-01-03T11:14:46.807Z</time>
      </trkpt>
      <trkpt lat="43.66949" lon="1.00353">
        <ele>255.008418</ele>
        <time>2023-01-03T11:14:50.005Z</time>
      </trkpt>
      <trkpt lat="43.6694" lon="1.00361">
        <ele>255.006414</ele>
        <time>2023-01-03T11:14:53.794Z</time>
      </trkpt>
      <trkpt lat="43.66932" lon="1.00368">
        <ele>255.004577</ele>
        <time>2023-01-03T11:14:56.795Z</time>
      </trkpt>
      <trkpt lat="43.66925" lon="1.00375">
        <ele>255.002767</ele>
        <time>2023-01-03T11:14:59.803Z</time>
      </trkpt>
      <trkpt lat="43.66916" lon="1.00381">
        <ele>255.000879</ele>
        <time>2023-01-03T11:15:02.809Z</time>
      </trkpt>
      <trkpt lat="43.66909" lon="1.00389">
        <ele>254.999127</ele>
        <time>2023-01-03T11:15:05.794Z</time>
      </trkpt>
      <trkpt lat="43.66901" lon="1.00398">
        <ele>254.997014</ele>
        <time>2023-01-03T11:15:09.817Z</time>
      </trkpt>
      <trkpt lat="43.66892" lon="1.00406">
        <ele>254.994978</ele>
        <time>2023-01-03T11:15:13.812Z</time>
      </trkpt>
      <trkpt lat="43.66883" lon="1.00415">
        <ele>254.992756</ele>
        <time>2023-01-03T11:15:17.797Z</time>
      </trkpt>
      <trkpt lat="43.66873" lon="1.00424">
        <ele>255.436053</ele>
        <time>2023-01-03T11:15:21.822Z</time>
      </trkpt>
      <trkpt lat="43.66863" lon="1.00433">
        <ele>256.110623</ele>
        <time>2023-01-03T11:15:25.815Z</time>
      </trkpt>
      <trkpt lat="43.66855" lon="1.0044">
        <ele>256.642599</ele>
        <time>2023-01-03T11:15:28.815Z</time>
      </trkpt>
      <trkpt lat="43.66848" lon="1.00448">
        <ele>257.164583</ele>
        <time>2023-01-03T11:15:31.808Z</time>
      </trkpt>
      <trkpt lat="43.66838" lon="1.00456">
        <ele>257.811344</ele>
        <time>2023-01-03T11:15:35.796Z</time>
      </trkpt>
      <trkpt lat="43.66829" lon="1.00464">
        <ele>258.412175</ele>
        <time>2023-01-03T11:15:39.810Z</time>
      </trkpt>
      <trkpt lat="43.66821" lon="1.00473">
        <ele>259.017616</ele>
        <time>2023-01-03T11:15:43.811Z</time>
      </trkpt>
      <trkpt lat="43.66812" lon="1.00482">
        <ele>259.616102</ele>
        <time>2023-01-03T11:15:47.796Z</time>
      </trkpt>
      <trkpt lat="43.66804" lon="1.00491">
        <ele>260.192351</ele>
        <time>2023-01-03T11:15:51.803Z</time>
      </trkpt>
      <trkpt lat="43.66797" lon="1.00501">
        <ele>260.736689</ele>
        <time>2023-01-03T11:15:55.816Z</time>
      </trkpt>
      <trkpt lat="43.66791" lon="1.0051">
        <ele>261.274939</ele>
        <time>2023-01-03T11:15:59.816Z</time>
      </trkpt>
      <trkpt lat="43.66785" lon="1.00521">
        <ele>261.817623</ele>
        <time>2023-01-03T11:16:03.806Z</time>
      </trkpt>
      <trkpt lat="43.66779" lon="1.00531">
        <ele>262.365013</ele>
        <time>2023-01-03T11:16:07.819Z</time>
      </trkpt>
      <trkpt lat="43.66772" lon="1.00542">
        <ele>262.964762</ele>
        <time>2023-01-03T11:16:11.807Z</time>
      </trkpt>
      <trkpt lat="43.66766" lon="1.00554">
        <ele>263.559652</ele>
        <time>2023-01-03T11:16:15.815Z</time>
      </trkpt>
      <trkpt lat="43.66759" lon="1.00565">
        <ele>264.12882</ele>
        <time>2023-01-03T11:16:19.814Z</time>
      </trkpt>
      <trkpt lat="43.66753" lon="1.00576">
        <ele>264.698448</ele>
        <time>2023-01-03T11:16:23.806Z</time>
      </trkpt>
      <trkpt lat="43.66747" lon="1.00587">
        <ele>265.150119</ele>
        <time>2023-01-03T11:16:27.820Z</time>
      </trkpt>
      <trkpt lat="43.66741" lon="1.00599">
        <ele>265.229289</ele>
        <time>2023-01-03T11:16:31.815Z</time>
      </trkpt>
      <trkpt lat="43.66736" lon="1.00611">
        <ele>265.314012</ele>
        <time>2023-01-03T11:16:35.814Z</time>
      </trkpt>
      <trkpt lat="43.6673" lon="1.00625">
        <ele>265.405199</ele>
        <time>2023-01-03T11:16:39.804Z</time>
      </trkpt>
      <trkpt lat="43.66725" lon="1.0064">
        <ele>265.497531</ele>
        <time>2023-01-03T11:16:43.806Z</time>
      </trkpt>
      <trkpt lat="43.6672" lon="1.00653">
        <ele>265.582945</ele>
        <time>2023-01-03T11:16:47.820Z</time>
      </trkpt>
      <trkpt lat="43.66716" lon="1.00665">
        <ele>265.657534</ele>
        <time>2023-01-03T11:16:50.797Z</time>
      </trkpt>
      <trkpt lat="43.66712" lon="1.00679">
        <ele>265.742627</ele>
        <time>2023-01-03T11:16:53.802Z</time>
      </trkpt>
      <trkpt lat="43.66708" lon="1.00693">
        <ele>265.832271</ele>
        <time>2023-01-03T11:16:56.803Z</time>
      </trkpt>
      <trkpt lat="43.66705" lon="1.00708">
        <ele>265.919476</ele>
        <time>2023-01-03T11:16:59.808Z</time>
      </trkpt>
      <trkpt lat="43.66701" lon="1.00723">
        <ele>266.009216</ele>
        <time>2023-01-03T11:17:02.814Z</time>
      </trkpt>
      <trkpt lat="43.66698" lon="1.00738">
        <ele>266.097958</ele>
        <time>2023-01-03T11:17:05.814Z</time>
      </trkpt>
      <trkpt lat="43.66695" lon="1.00753">
        <ele>266.18715</ele>
        <time>2023-01-03T11:17:08.814Z</time>
      </trkpt>
      <trkpt lat="43.66692" lon="1.00769">
        <ele>266.281959</ele>
        <time>2023-01-03T11:17:11.815Z</time>
      </trkpt>
      <trkpt lat="43.66689" lon="1.00785">
        <ele>266.379175</ele>
        <time>2023-01-03T11:17:14.804Z</time>
      </trkpt>
      <trkpt lat="43.66686" lon="1.00802">
        <ele>266.475253</ele>
        <time>2023-01-03T11:17:17.804Z</time>
      </trkpt>
      <trkpt lat="43.66684" lon="1.00817">
        <ele>266.563254</ele>
        <time>2023-01-03T11:17:20.818Z</time>
      </trkpt>
      <trkpt lat="43.66681" lon="1.00833">
        <ele>266.638529</ele>
        <time>2023-01-03T11:17:23.809Z</time>
      </trkpt>
      <trkpt lat="43.66678" lon="1.0085">
        <ele>266.719812</ele>
        <time>2023-01-03T11:17:26.797Z</time>
      </trkpt>
      <trkpt lat="43.66674" lon="1.00867">
        <ele>266.804199</ele>
        <time>2023-01-03T11:17:29.813Z</time>
      </trkpt>
      <trkpt lat="43.6667" lon="1.00884">
        <ele>266.886465</ele>
        <time>2023-01-03T11:17:32.801Z</time>
      </trkpt>
      <trkpt lat="43.66666" lon="1.00895">
        <ele>266.945879</ele>
        <time>2023-01-03T11:17:34.815Z</time>
      </trkpt>
      <trkpt lat="43.66663" lon="1.00907">
        <ele>267.004515</ele>
        <time>2023-01-03T11:17:36.816Z</time>
      </trkpt>
      <trkpt lat="43.66657" lon="1.00923">
        <ele>267.088336</ele>
        <time>2023-01-03T11:17:39.808Z</time>
      </trkpt>
      <trkpt lat="43.66652" lon="1.00938">
        <ele>267.16617</ele>
        <time>2023-01-03T11:17:42.801Z</time>
      </trkpt>
      <trkpt lat="43.66647" lon="1.00952">
        <ele>267.237861</ele>
        <time>2023-01-03T11:17:45.810Z</time>
      </trkpt>
      <trkpt lat="43.66641" lon="1.00966">
        <ele>267.313037</ele>
        <time>2023-01-03T11:17:48.819Z</time>
      </trkpt>
      <trkpt lat="43.66635" lon="1.0098">
        <ele>267.391181</ele>
        <time>2023-01-03T11:17:51.795Z</time>
      </trkpt>
      <trkpt lat="43.66629" lon="1.00995">
        <ele>267.470035</ele>
        <time>2023-01-03T11:17:54.818Z</time>
      </trkpt>
      <trkpt lat="43.66623" lon="1.0101">
        <ele>267.548462</ele>
        <time>2023-01-03T11:17:57.817Z</time>
      </trkpt>
      <trkpt lat="43.66616" lon="1.01025">
        <ele>267.629258</ele>
        <time>2023-01-03T11:18:00.817Z</time>
      </trkpt>
      <trkpt lat="43.6661" lon="1.01039">
        <ele>267.708691</ele>
        <time>2023-01-03T11:18:03.819Z</time>
      </trkpt>
      <trkpt lat="43.66604" lon="1.01054">
        <ele>267.597378</ele>
        <time>2023-01-03T11:18:06.797Z</time>
      </trkpt>
      <trkpt lat="43.66597" lon="1.01069">
        <ele>267.482701</ele>
        <time>2023-01-03T11:18:09.814Z</time>
      </trkpt>
      <trkpt lat="43.66591" lon="1.01079">
        <ele>267.399772</ele>
        <time>2023-01-03T11:18:11.794Z</time>
      </trkpt>
      <trkpt lat="43.66584" lon="1.01093">
        <ele>267.285664</ele>
        <time>2023-01-03T11:18:14.808Z</time>
      </trkpt>
      <trkpt lat="43.66577" lon="1.01107">
        <ele>267.179504</ele>
        <time>2023-01-03T11:18:17.802Z</time>
      </trkpt>
      <trkpt lat="43.66571" lon="1.0112">
        <ele>267.07649</ele>
        <time>2023-01-03T11:18:20.802Z</time>
      </trkpt>
      <trkpt lat="43.66564" lon="1.01131">
        <ele>266.980287</ele>
        <time>2023-01-03T11:18:23.819Z</time>
      </trkpt>
      <trkpt lat="43.66557" lon="1.01144">
        <ele>266.877296</ele>
        <time>2023-01-03T11:18:26.810Z</time>
      </trkpt>
      <trkpt lat="43.6655" lon="1.01158">
        <ele>266.766383</ele>
        <time>2023-01-03T11:18:29.820Z</time>
      </trkpt>
      <trkpt lat="43.66541" lon="1.01172">
        <ele>266.647153</ele>
        <time>2023-01-03T11:18:32.800Z</time>
      </trkpt>
      <trkpt lat="43.66536" lon="1.01182">
        <ele>266.564226</ele>
        <time>2023-01-03T11:18:34.818Z</time>
      </trkpt>
      <trkpt lat="43.66531" lon="1.01193">
        <ele>266.482625</ele>
        <time>2023-01-03T11:18:36.801Z</time>
      </trkpt>
      <trkpt lat="43.66525" lon="1.01209">
        <ele>266.362</ele>
        <time>2023-01-03T11:18:39.815Z</time>
      </trkpt>
      <trkpt lat="43.66521" lon="1.01222">
        <ele>266.272901</ele>
        <time>2023-01-03T11:18:41.815Z</time>
      </trkpt>
      <trkpt lat="43.66517" lon="1.01234">
        <ele>266.18655</ele>
        <time>2023-01-03T11:18:43.807Z</time>
      </trkpt>
      <trkpt lat="43.66515" lon="1.01247">
        <ele>266.100124</ele>
        <time>2023-01-03T11:18:45.807Z</time>
      </trkpt>
      <trkpt lat="43.66512" lon="1.01265">
        <ele>266.229904</ele>
        <time>2023-01-03T11:18:48.813Z</time>
      </trkpt>
      <trkpt lat="43.66509" lon="1.01281">
        <ele>266.37549</ele>
        <time>2023-01-03T11:18:51.804Z</time>
      </trkpt>
      <trkpt lat="43.66505" lon="1.01299">
        <ele>266.529619</ele>
        <time>2023-01-03T11:18:54.815Z</time>
      </trkpt>
      <trkpt lat="43.66503" lon="1.01311">
        <ele>266.637195</ele>
        <time>2023-01-03T11:18:56.812Z</time>
      </trkpt>
      <trkpt lat="43.66501" lon="1.01324">
        <ele>266.750828</ele>
        <time>2023-01-03T11:18:58.806Z</time>
      </trkpt>
      <trkpt lat="43.66498" lon="1.01337">
        <ele>266.868838</ele>
        <time>2023-01-03T11:19:00.819Z</time>
      </trkpt>
      <trkpt lat="43.66496" lon="1.0135">
        <ele>266.982521</ele>
        <time>2023-01-03T11:19:02.810Z</time>
      </trkpt>
      <trkpt lat="43.66495" lon="1.01365">
        <ele>267.106668</ele>
        <time>2023-01-03T11:19:04.820Z</time>
      </trkpt>
      <trkpt lat="43.66493" lon="1.01379">
        <ele>267.225923</ele>
        <time>2023-01-03T11:19:06.817Z</time>
      </trkpt>
      <trkpt lat="43.66492" lon="1.01393">
        <ele>267.349551</ele>
        <time>2023-01-03T11:19:08.819Z</time>
      </trkpt>
      <trkpt lat="43.6649" lon="1.01407">
        <ele>267.469915</ele>
        <time>2023-01-03T11:19:10.813Z</time>
      </trkpt>
      <trkpt lat="43.66489" lon="1.01421">
        <ele>267.58664</ele>
        <time>2023-01-03T11:19:12.813Z</time>
      </trkpt>
      <trkpt lat="43.66487" lon="1.01434">
        <ele>267.706394</ele>
        <time>2023-01-03T11:19:14.815Z</time>
      </trkpt>
      <trkpt lat="43.66485" lon="1.01448">
        <ele>267.823646</ele>
        <time>2023-01-03T11:19:16.821Z</time>
      </trkpt>
      <trkpt lat="43.66483" lon="1.01467">
        <ele>267.987188</ele>
        <time>2023-01-03T11:19:19.818Z</time>
      </trkpt>
      <trkpt lat="43.66481" lon="1.01485">
        <ele>268.141126</ele>
        <time>2023-01-03T11:19:22.806Z</time>
      </trkpt>
      <trkpt lat="43.6648" lon="1.015">
        <ele>268.295061</ele>
        <time>2023-01-03T11:19:25.798Z</time>
      </trkpt>
      <trkpt lat="43.66479" lon="1.01516">
        <ele>268.489107</ele>
        <time>2023-01-03T11:19:28.795Z</time>
      </trkpt>
      <trkpt lat="43.66479" lon="1.01531">
        <ele>268.669643</ele>
        <time>2023-01-03T11:19:31.817Z</time>
      </trkpt>
      <trkpt lat="43.6648" lon="1.01546">
        <ele>268.845348</ele>
        <time>2023-01-03T11:19:34.816Z</time>
      </trkpt>
      <trkpt lat="43.6648" lon="1.0156">
        <ele>269.015226</ele>
        <time>2023-01-03T11:19:37.794Z</time>
      </trkpt>
      <trkpt lat="43.66478" lon="1.01575">
        <ele>269.193757</ele>
        <time>2023-01-03T11:19:40.814Z</time>
      </trkpt>
      <trkpt lat="43.66476" lon="1.01591">
        <ele>269.385055</ele>
        <time>2023-01-03T11:19:43.796Z</time>
      </trkpt>
      <trkpt lat="43.66473" lon="1.01608">
        <ele>269.589614</ele>
        <time>2023-01-03T11:19:46.797Z</time>
      </trkpt>
      <trkpt lat="43.66471" lon="1.01625">
        <ele>269.800003</ele>
        <time>2023-01-03T11:19:49.803Z</time>
      </trkpt>
      <trkpt lat="43.66468" lon="1.01642">
        <ele>269.999773</ele>
        <time>2023-01-03T11:19:52.806Z</time>
      </trkpt>
      <trkpt lat="43.66466" lon="1.01657">
        <ele>270.182712</ele>
        <time>2023-01-03T11:19:55.816Z</time>
      </trkpt>
      <trkpt lat="43.66464" lon="1.01671">
        <ele>270.351896</ele>
        <time>2023-01-03T11:19:58.821Z</time>
      </trkpt>
      <trkpt lat="43.66464" lon="1.01686">
        <ele>270.534094</ele>
        <time>2023-01-03T11:20:01.806Z</time>
      </trkpt>
      <trkpt lat="43.66463" lon="1.01702">
        <ele>270.722015</ele>
        <time>2023-01-03T11:20:04.823Z</time>
      </trkpt>
      <trkpt lat="43.66461" lon="1.01719">
        <ele>270.923067</ele>
        <time>2023-01-03T11:20:07.805Z</time>
      </trkpt>
      <trkpt lat="43.66459" lon="1.01736">
        <ele>271.1309</ele>
        <time>2023-01-03T11:20:10.821Z</time>
      </trkpt>
      <trkpt lat="43.66456" lon="1.01752">
        <ele>271.220218</ele>
        <time>2023-01-03T11:20:13.818Z</time>
      </trkpt>
      <trkpt lat="43.66453" lon="1.01767">
        <ele>271.288309</ele>
        <time>2023-01-03T11:20:16.818Z</time>
      </trkpt>
      <trkpt lat="43.6645" lon="1.0178">
        <ele>271.34507</ele>
        <time>2023-01-03T11:20:19.800Z</time>
      </trkpt>
      <trkpt lat="43.66447" lon="1.01793">
        <ele>271.405135</ele>
        <time>2023-01-03T11:20:22.793Z</time>
      </trkpt>
      <trkpt lat="43.66443" lon="1.01806">
        <ele>271.466862</ele>
        <time>2023-01-03T11:20:25.796Z</time>
      </trkpt>
      <trkpt lat="43.66439" lon="1.01819">
        <ele>271.527392</ele>
        <time>2023-01-03T11:20:28.817Z</time>
      </trkpt>
      <trkpt lat="43.66435" lon="1.01832">
        <ele>271.589754</ele>
        <time>2023-01-03T11:20:31.818Z</time>
      </trkpt>
      <trkpt lat="43.66432" lon="1.01845">
        <ele>271.649778</ele>
        <time>2023-01-03T11:20:34.819Z</time>
      </trkpt>
      <trkpt lat="43.66427" lon="1.01858">
        <ele>271.714959</ele>
        <time>2023-01-03T11:20:37.802Z</time>
      </trkpt>
      <trkpt lat="43.66423" lon="1.01871">
        <ele>271.776225</ele>
        <time>2023-01-03T11:20:40.819Z</time>
      </trkpt>
      <trkpt lat="43.66418" lon="1.01885">
        <ele>271.840587</ele>
        <time>2023-01-03T11:20:43.818Z</time>
      </trkpt>
      <trkpt lat="43.66415" lon="1.01898">
        <ele>271.902843</ele>
        <time>2023-01-03T11:20:46.807Z</time>
      </trkpt>
      <trkpt lat="43.66412" lon="1.01911">
        <ele>271.960406</ele>
        <time>2023-01-03T11:20:49.812Z</time>
      </trkpt>
      <trkpt lat="43.66404" lon="1.01923">
        <ele>272.030629</ele>
        <time>2023-01-03T11:20:53.800Z</time>
      </trkpt>
      <trkpt lat="43.66402" lon="1.01938">
        <ele>272.096843</ele>
        <time>2023-01-03T11:20:57.806Z</time>
      </trkpt>
      <trkpt lat="43.66401" lon="1.01951">
        <ele>272.153482</ele>
        <time>2023-01-03T11:21:01.816Z</time>
      </trkpt>
      <trkpt lat="43.66402" lon="1.0195">
        <ele>272.159874</ele>
        <time>2023-01-03T11:21:07.410Z</time>
      </trkpt>
      <trkpt lat="43.66383" lon="1.02016">
        <ele>272.034702</ele>
        <time>2023-01-03T11:22:15.806Z</time>
      </trkpt>
      <trkpt lat="43.66377" lon="1.0203">
        <ele>271.974412</ele>
        <time>2023-01-03T11:22:19.819Z</time>
      </trkpt>
      <trkpt lat="43.66372" lon="1.02044">
        <ele>271.916639</ele>
        <time>2023-01-03T11:22:23.802Z</time>
      </trkpt>
      <trkpt lat="43.66369" lon="1.02056">
        <ele>271.868217</ele>
        <time>2023-01-03T11:22:26.813Z</time>
      </trkpt>
      <trkpt lat="43.66365" lon="1.02068">
        <ele>271.81707</ele>
        <time>2023-01-03T11:22:29.817Z</time>
      </trkpt>
      <trkpt lat="43.6636" lon="1.02082">
        <ele>271.75918</ele>
        <time>2023-01-03T11:22:32.807Z</time>
      </trkpt>
      <trkpt lat="43.66354" lon="1.02097">
        <ele>271.696743</ele>
        <time>2023-01-03T11:22:35.798Z</time>
      </trkpt>
      <trkpt lat="43.66343" lon="1.02111">
        <ele>271.620599</ele>
        <time>2023-01-03T11:22:38.804Z</time>
      </trkpt>
      <trkpt lat="43.66336" lon="1.02125">
        <ele>271.553921</ele>
        <time>2023-01-03T11:22:41.795Z</time>
      </trkpt>
      <trkpt lat="43.66329" lon="1.0214">
        <ele>271.485541</ele>
        <time>2023-01-03T11:22:44.801Z</time>
      </trkpt>
      <trkpt lat="43.66322" lon="1.02155">
        <ele>271.417559</ele>
        <time>2023-01-03T11:22:47.841Z</time>
      </trkpt>
      <trkpt lat="43.66315" lon="1.0217">
        <ele>271.352506</ele>
        <time>2023-01-03T11:22:50.816Z</time>
      </trkpt>
      <trkpt lat="43.6631" lon="1.02181">
        <ele>271.303732</ele>
        <time>2023-01-03T11:22:52.803Z</time>
      </trkpt>
      <trkpt lat="43.66303" lon="1.02197">
        <ele>271.195937</ele>
        <time>2023-01-03T11:22:55.815Z</time>
      </trkpt>
      <trkpt lat="43.66296" lon="1.02211">
        <ele>271.089369</ele>
        <time>2023-01-03T11:22:58.820Z</time>
      </trkpt>
      <trkpt lat="43.6629" lon="1.02226">
        <ele>270.98273</ele>
        <time>2023-01-03T11:23:01.821Z</time>
      </trkpt>
      <trkpt lat="43.66283" lon="1.02242">
        <ele>270.87418</ele>
        <time>2023-01-03T11:23:04.820Z</time>
      </trkpt>
      <trkpt lat="43.66276" lon="1.02257">
        <ele>270.764276</ele>
        <time>2023-01-03T11:23:07.816Z</time>
      </trkpt>
      <trkpt lat="43.66269" lon="1.02272">
        <ele>270.656317</ele>
        <time>2023-01-03T11:23:10.796Z</time>
      </trkpt>
      <trkpt lat="43.66263" lon="1.02288">
        <ele>270.546367</ele>
        <time>2023-01-03T11:23:13.798Z</time>
      </trkpt>
      <trkpt lat="43.66258" lon="1.02299">
        <ele>270.470554</ele>
        <time>2023-01-03T11:23:15.827Z</time>
      </trkpt>
      <trkpt lat="43.66253" lon="1.0231">
        <ele>270.390656</ele>
        <time>2023-01-03T11:23:17.809Z</time>
      </trkpt>
      <trkpt lat="43.66249" lon="1.02323">
        <ele>270.307044</ele>
        <time>2023-01-03T11:23:19.797Z</time>
      </trkpt>
      <trkpt lat="43.66243" lon="1.02335">
        <ele>270.217932</ele>
        <time>2023-01-03T11:23:21.820Z</time>
      </trkpt>
      <trkpt lat="43.66239" lon="1.02348">
        <ele>270.131255</ele>
        <time>2023-01-03T11:23:23.818Z</time>
      </trkpt>
      <trkpt lat="43.66234" lon="1.0236">
        <ele>270.045381</ele>
        <time>2023-01-03T11:23:25.816Z</time>
      </trkpt>
      <trkpt lat="43.66227" lon="1.02372">
        <ele>269.954675</ele>
        <time>2023-01-03T11:23:27.818Z</time>
      </trkpt>
      <trkpt lat="43.66221" lon="1.02384">
        <ele>269.868877</ele>
        <time>2023-01-03T11:23:29.813Z</time>
      </trkpt>
      <trkpt lat="43.66216" lon="1.02396">
        <ele>269.796211</ele>
        <time>2023-01-03T11:23:31.816Z</time>
      </trkpt>
      <trkpt lat="43.66211" lon="1.02408">
        <ele>269.782723</ele>
        <time>2023-01-03T11:23:33.799Z</time>
      </trkpt>
      <trkpt lat="43.66206" lon="1.0242">
        <ele>269.769962</ele>
        <time>2023-01-03T11:23:35.816Z</time>
      </trkpt>
      <trkpt lat="43.66201" lon="1.02432">
        <ele>269.75653</ele>
        <time>2023-01-03T11:23:37.818Z</time>
      </trkpt>
      <trkpt lat="43.66196" lon="1.02444">
        <ele>269.743518</ele>
        <time>2023-01-03T11:23:39.797Z</time>
      </trkpt>
      <trkpt lat="43.66191" lon="1.02454">
        <ele>269.731523</ele>
        <time>2023-01-03T11:23:41.807Z</time>
      </trkpt>
      <trkpt lat="43.66186" lon="1.02465">
        <ele>269.719537</ele>
        <time>2023-01-03T11:23:43.817Z</time>
      </trkpt>
      <trkpt lat="43.6618" lon="1.02479">
        <ele>269.703804</ele>
        <time>2023-01-03T11:23:46.802Z</time>
      </trkpt>
      <trkpt lat="43.66174" lon="1.02491">
        <ele>269.689652</ele>
        <time>2023-01-03T11:23:49.802Z</time>
      </trkpt>
      <trkpt lat="43.66168" lon="1.02501">
        <ele>269.677362</ele>
        <time>2023-01-03T11:23:52.818Z</time>
      </trkpt>
      <trkpt lat="43.66169" lon="1.02523">
        <ele>269.657037</ele>
        <time>2023-01-03T11:24:22.798Z</time>
      </trkpt>
      <trkpt lat="43.66175" lon="1.02532">
        <ele>269.645208</ele>
        <time>2023-01-03T11:24:25.814Z</time>
      </trkpt>
      <trkpt lat="43.66183" lon="1.02539">
        <ele>269.632604</ele>
        <time>2023-01-03T11:24:28.810Z</time>
      </trkpt>
      <trkpt lat="43.66194" lon="1.02547">
        <ele>269.616847</ele>
        <time>2023-01-03T11:24:32.812Z</time>
      </trkpt>
      <trkpt lat="43.66202" lon="1.02552">
        <ele>269.604557</ele>
        <time>2023-01-03T11:24:35.814Z</time>
      </trkpt>
      <trkpt lat="43.66211" lon="1.02558">
        <ele>269.591406</ele>
        <time>2023-01-03T11:24:38.812Z</time>
      </trkpt>
      <trkpt lat="43.6622" lon="1.02564">
        <ele>269.577679</ele>
        <time>2023-01-03T11:24:41.811Z</time>
      </trkpt>
      <trkpt lat="43.6623" lon="1.02574">
        <ele>269.562031</ele>
        <time>2023-01-03T11:24:44.814Z</time>
      </trkpt>
      <trkpt lat="43.66234" lon="1.02586">
        <ele>269.253171</ele>
        <time>2023-01-03T11:24:46.820Z</time>
      </trkpt>
      <trkpt lat="43.66238" lon="1.02597">
        <ele>268.930845</ele>
        <time>2023-01-03T11:24:48.815Z</time>
      </trkpt>
      <trkpt lat="43.66241" lon="1.02609">
        <ele>268.599376</ele>
        <time>2023-01-03T11:24:50.813Z</time>
      </trkpt>
      <trkpt lat="43.66242" lon="1.02628">
        <ele>268.11007</ele>
        <time>2023-01-03T11:24:53.818Z</time>
      </trkpt>
      <trkpt lat="43.66244" lon="1.02642">
        <ele>267.745719</ele>
        <time>2023-01-03T11:24:55.815Z</time>
      </trkpt>
      <trkpt lat="43.66246" lon="1.02656">
        <ele>267.361801</ele>
        <time>2023-01-03T11:24:57.815Z</time>
      </trkpt>
      <trkpt lat="43.66251" lon="1.02671">
        <ele>266.922931</ele>
        <time>2023-01-03T11:24:59.812Z</time>
      </trkpt>
      <trkpt lat="43.6626" lon="1.02685">
        <ele>266.446818</ele>
        <time>2023-01-03T11:25:01.813Z</time>
      </trkpt>
      <trkpt lat="43.6627" lon="1.02697">
        <ele>265.975251</ele>
        <time>2023-01-03T11:25:03.819Z</time>
      </trkpt>
      <trkpt lat="43.66282" lon="1.02706">
        <ele>265.46945</ele>
        <time>2023-01-03T11:25:05.808Z</time>
      </trkpt>
      <trkpt lat="43.66295" lon="1.02715">
        <ele>264.954457</ele>
        <time>2023-01-03T11:25:07.816Z</time>
      </trkpt>
      <trkpt lat="43.66308" lon="1.02723">
        <ele>264.437297</ele>
        <time>2023-01-03T11:25:09.807Z</time>
      </trkpt>
      <trkpt lat="43.66321" lon="1.02731">
        <ele>263.941839</ele>
        <time>2023-01-03T11:25:11.802Z</time>
      </trkpt>
      <trkpt lat="43.66333" lon="1.02738">
        <ele>263.460532</ele>
        <time>2023-01-03T11:25:13.800Z</time>
      </trkpt>
      <trkpt lat="43.66345" lon="1.02746">
        <ele>263.084336</ele>
        <time>2023-01-03T11:25:15.803Z</time>
      </trkpt>
      <trkpt lat="43.66357" lon="1.02753">
        <ele>263.006147</ele>
        <time>2023-01-03T11:25:17.816Z</time>
      </trkpt>
      <trkpt lat="43.66368" lon="1.0276">
        <ele>262.929674</ele>
        <time>2023-01-03T11:25:19.795Z</time>
      </trkpt>
      <trkpt lat="43.66379" lon="1.02766">
        <ele>262.85643</ele>
        <time>2023-01-03T11:25:21.808Z</time>
      </trkpt>
      <trkpt lat="43.6639" lon="1.02772">
        <ele>262.786632</ele>
        <time>2023-01-03T11:25:23.815Z</time>
      </trkpt>
      <trkpt lat="43.664" lon="1.02776">
        <ele>262.716966</ele>
        <time>2023-01-03T11:25:25.802Z</time>
      </trkpt>
      <trkpt lat="43.66411" lon="1.02779">
        <ele>262.649737</ele>
        <time>2023-01-03T11:25:27.814Z</time>
      </trkpt>
      <trkpt lat="43.66421" lon="1.02783">
        <ele>262.58473</ele>
        <time>2023-01-03T11:25:29.814Z</time>
      </trkpt>
      <trkpt lat="43.66432" lon="1.02787">
        <ele>262.517458</ele>
        <time>2023-01-03T11:25:31.816Z</time>
      </trkpt>
      <trkpt lat="43.66442" lon="1.0279">
        <ele>262.452328</ele>
        <time>2023-01-03T11:25:33.813Z</time>
      </trkpt>
      <trkpt lat="43.66451" lon="1.02793">
        <ele>262.393707</ele>
        <time>2023-01-03T11:25:35.814Z</time>
      </trkpt>
      <trkpt lat="43.6646" lon="1.02795">
        <ele>262.335322</ele>
        <time>2023-01-03T11:25:37.815Z</time>
      </trkpt>
      <trkpt lat="43.6647" lon="1.02799">
        <ele>262.274714</ele>
        <time>2023-01-03T11:25:39.816Z</time>
      </trkpt>
      <trkpt lat="43.6648" lon="1.02801">
        <ele>262.213662</ele>
        <time>2023-01-03T11:25:41.815Z</time>
      </trkpt>
      <trkpt lat="43.6649" lon="1.02804">
        <ele>262.150348</ele>
        <time>2023-01-03T11:25:43.816Z</time>
      </trkpt>
      <trkpt lat="43.665" lon="1.02807">
        <ele>262.085218</ele>
        <time>2023-01-03T11:25:45.801Z</time>
      </trkpt>
      <trkpt lat="43.6651" lon="1.02811">
        <ele>262.019482</ele>
        <time>2023-01-03T11:25:47.816Z</time>
      </trkpt>
      <trkpt lat="43.66521" lon="1.02814">
        <ele>261.945992</ele>
        <time>2023-01-03T11:25:49.809Z</time>
      </trkpt>
      <trkpt lat="43.66531" lon="1.02817">
        <ele>261.869232</ele>
        <time>2023-01-03T11:25:51.799Z</time>
      </trkpt>
      <trkpt lat="43.66541" lon="1.0282">
        <ele>261.794295</ele>
        <time>2023-01-03T11:25:53.809Z</time>
      </trkpt>
      <trkpt lat="43.66551" lon="1.02823">
        <ele>261.720776</ele>
        <time>2023-01-03T11:25:55.812Z</time>
      </trkpt>
      <trkpt lat="43.66561" lon="1.02826">
        <ele>261.649605</ele>
        <time>2023-01-03T11:25:57.813Z</time>
      </trkpt>
      <trkpt lat="43.6657" lon="1.02829">
        <ele>261.580211</ele>
        <time>2023-01-03T11:25:59.812Z</time>
      </trkpt>
      <trkpt lat="43.66579" lon="1.02833">
        <ele>261.515245</ele>
        <time>2023-01-03T11:26:01.817Z</time>
      </trkpt>
      <trkpt lat="43.66588" lon="1.02837">
        <ele>261.444275</ele>
        <time>2023-01-03T11:26:03.817Z</time>
      </trkpt>
      <trkpt lat="43.66596" lon="1.02842">
        <ele>261.378341</ele>
        <time>2023-01-03T11:26:05.793Z</time>
      </trkpt>
      <trkpt lat="43.66606" lon="1.02847">
        <ele>261.304966</ele>
        <time>2023-01-03T11:26:07.807Z</time>
      </trkpt>
      <trkpt lat="43.66615" lon="1.02853">
        <ele>261.23095</ele>
        <time>2023-01-03T11:26:09.807Z</time>
      </trkpt>
      <trkpt lat="43.66623" lon="1.02859">
        <ele>261.161555</ele>
        <time>2023-01-03T11:26:11.818Z</time>
      </trkpt>
      <trkpt lat="43.66632" lon="1.02865">
        <ele>261.087405</ele>
        <time>2023-01-03T11:26:13.813Z</time>
      </trkpt>
      <trkpt lat="43.66642" lon="1.02872">
        <ele>261.011628</ele>
        <time>2023-01-03T11:26:15.814Z</time>
      </trkpt>
      <trkpt lat="43.66651" lon="1.02877">
        <ele>260.941563</ele>
        <time>2023-01-03T11:26:17.811Z</time>
      </trkpt>
      <trkpt lat="43.66659" lon="1.02884">
        <ele>260.869504</ele>
        <time>2023-01-03T11:26:19.815Z</time>
      </trkpt>
      <trkpt lat="43.66668" lon="1.02889">
        <ele>260.798947</ele>
        <time>2023-01-03T11:26:21.810Z</time>
      </trkpt>
      <trkpt lat="43.66678" lon="1.02892">
        <ele>260.73014</ele>
        <time>2023-01-03T11:26:23.812Z</time>
      </trkpt>
      <trkpt lat="43.66688" lon="1.02895">
        <ele>260.722721</ele>
        <time>2023-01-03T11:26:25.811Z</time>
      </trkpt>
      <trkpt lat="43.66698" lon="1.02897">
        <ele>260.797342</ele>
        <time>2023-01-03T11:26:27.816Z</time>
      </trkpt>
      <trkpt lat="43.66708" lon="1.02896">
        <ele>260.871554</ele>
        <time>2023-01-03T11:26:29.812Z</time>
      </trkpt>
      <trkpt lat="43.66718" lon="1.02894">
        <ele>260.945079</ele>
        <time>2023-01-03T11:26:31.816Z</time>
      </trkpt>
      <trkpt lat="43.66728" lon="1.02891">
        <ele>261.020064</ele>
        <time>2023-01-03T11:26:33.816Z</time>
      </trkpt>
      <trkpt lat="43.66738" lon="1.02888">
        <ele>261.089604</ele>
        <time>2023-01-03T11:26:35.810Z</time>
      </trkpt>
      <trkpt lat="43.66747" lon="1.02885">
        <ele>261.157608</ele>
        <time>2023-01-03T11:26:37.816Z</time>
      </trkpt>
      <trkpt lat="43.66758" lon="1.02881">
        <ele>261.244487</ele>
        <time>2023-01-03T11:26:40.813Z</time>
      </trkpt>
      <trkpt lat="43.6677" lon="1.02875">
        <ele>261.335696</ele>
        <time>2023-01-03T11:26:43.812Z</time>
      </trkpt>
      <trkpt lat="43.66782" lon="1.0287">
        <ele>261.426215</ele>
        <time>2023-01-03T11:26:46.816Z</time>
      </trkpt>
      <trkpt lat="43.66793" lon="1.02866">
        <ele>261.512412</ele>
        <time>2023-01-03T11:26:49.798Z</time>
      </trkpt>
      <trkpt lat="43.66804" lon="1.02861">
        <ele>261.590395</ele>
        <time>2023-01-03T11:26:52.796Z</time>
      </trkpt>
      <trkpt lat="43.66813" lon="1.02856">
        <ele>261.667758</ele>
        <time>2023-01-03T11:26:55.815Z</time>
      </trkpt>
      <trkpt lat="43.66823" lon="1.02851">
        <ele>261.741104</ele>
        <time>2023-01-03T11:26:58.818Z</time>
      </trkpt>
      <trkpt lat="43.66832" lon="1.02848">
        <ele>261.809065</ele>
        <time>2023-01-03T11:27:01.814Z</time>
      </trkpt>
      <trkpt lat="43.66842" lon="1.02842">
        <ele>261.88682</ele>
        <time>2023-01-03T11:27:05.812Z</time>
      </trkpt>
      <trkpt lat="43.6685" lon="1.02837">
        <ele>261.952419</ele>
        <time>2023-01-03T11:27:12.806Z</time>
      </trkpt>
      <trkpt lat="43.66864" lon="1.02838">
        <ele>261.793885</ele>
        <time>2023-01-03T11:27:43.807Z</time>
      </trkpt>
      <trkpt lat="43.66874" lon="1.02843">
        <ele>261.495772</ele>
        <time>2023-01-03T11:27:46.809Z</time>
      </trkpt>
      <trkpt lat="43.66883" lon="1.02847">
        <ele>261.255818</ele>
        <time>2023-01-03T11:27:48.811Z</time>
      </trkpt>
      <trkpt lat="43.66892" lon="1.02854">
        <ele>261.000204</ele>
        <time>2023-01-03T11:27:50.804Z</time>
      </trkpt>
      <trkpt lat="43.669" lon="1.02861">
        <ele>260.74495</ele>
        <time>2023-01-03T11:27:52.814Z</time>
      </trkpt>
      <trkpt lat="43.66908" lon="1.02869">
        <ele>260.474762</ele>
        <time>2023-01-03T11:27:54.805Z</time>
      </trkpt>
      <trkpt lat="43.66918" lon="1.02877">
        <ele>260.183638</ele>
        <time>2023-01-03T11:27:56.803Z</time>
      </trkpt>
      <trkpt lat="43.66927" lon="1.02885">
        <ele>259.89944</ele>
        <time>2023-01-03T11:27:58.800Z</time>
      </trkpt>
      <trkpt lat="43.66935" lon="1.02893">
        <ele>259.63784</ele>
        <time>2023-01-03T11:28:00.808Z</time>
      </trkpt>
      <trkpt lat="43.66946" lon="1.02904">
        <ele>259.28142</ele>
        <time>2023-01-03T11:28:03.809Z</time>
      </trkpt>
      <trkpt lat="43.66957" lon="1.02914">
        <ele>258.949856</ele>
        <time>2023-01-03T11:28:06.808Z</time>
      </trkpt>
      <trkpt lat="43.66966" lon="1.02922">
        <ele>258.665172</ele>
        <time>2023-01-03T11:28:09.803Z</time>
      </trkpt>
      <trkpt lat="43.66973" lon="1.02929">
        <ele>258.427252</ele>
        <time>2023-01-03T11:28:13.805Z</time>
      </trkpt>
      <trkpt lat="43.66978" lon="1.02943">
        <ele>258.149737</ele>
        <time>2023-01-03T11:28:32.799Z</time>
      </trkpt>
      <trkpt lat="43.66976" lon="1.0296">
        <ele>257.808902</ele>
        <time>2023-01-03T11:28:35.805Z</time>
      </trkpt>
      <trkpt lat="43.66972" lon="1.02975">
        <ele>257.517817</ele>
        <time>2023-01-03T11:28:37.808Z</time>
      </trkpt>
      <trkpt lat="43.66968" lon="1.02991">
        <ele>257.163127</ele>
        <time>2023-01-03T11:28:39.808Z</time>
      </trkpt>
      <trkpt lat="43.66964" lon="1.03009">
        <ele>256.723814</ele>
        <time>2023-01-03T11:28:41.804Z</time>
      </trkpt>
      <trkpt lat="43.66958" lon="1.03028">
        <ele>256.257243</ele>
        <time>2023-01-03T11:28:43.807Z</time>
      </trkpt>
      <trkpt lat="43.66953" lon="1.03047">
        <ele>255.775618</ele>
        <time>2023-01-03T11:28:45.812Z</time>
      </trkpt>
      <trkpt lat="43.66948" lon="1.03068">
        <ele>255.257848</ele>
        <time>2023-01-03T11:28:47.817Z</time>
      </trkpt>
      <trkpt lat="43.66943" lon="1.03088">
        <ele>254.768032</ele>
        <time>2023-01-03T11:28:49.808Z</time>
      </trkpt>
      <trkpt lat="43.66939" lon="1.03108">
        <ele>254.280983</ele>
        <time>2023-01-03T11:28:51.813Z</time>
      </trkpt>
      <trkpt lat="43.66935" lon="1.03128">
        <ele>253.798788</ele>
        <time>2023-01-03T11:28:53.808Z</time>
      </trkpt>
      <trkpt lat="43.6693" lon="1.03147">
        <ele>253.332361</ele>
        <time>2023-01-03T11:28:55.808Z</time>
      </trkpt>
      <trkpt lat="43.66925" lon="1.03166">
        <ele>252.872261</ele>
        <time>2023-01-03T11:28:57.807Z</time>
      </trkpt>
      <trkpt lat="43.6692" lon="1.03182">
        <ele>252.453657</ele>
        <time>2023-01-03T11:28:59.805Z</time>
      </trkpt>
      <trkpt lat="43.66915" lon="1.03198">
        <ele>252.051675</ele>
        <time>2023-01-03T11:29:01.802Z</time>
      </trkpt>
      <trkpt lat="43.66909" lon="1.03213">
        <ele>251.651809</ele>
        <time>2023-01-03T11:29:03.802Z</time>
      </trkpt>
      <trkpt lat="43.66905" lon="1.03228">
        <ele>251.668626</ele>
        <time>2023-01-03T11:29:05.802Z</time>
      </trkpt>
      <trkpt lat="43.66902" lon="1.03243">
        <ele>251.930473</ele>
        <time>2023-01-03T11:29:07.804Z</time>
      </trkpt>
      <trkpt lat="43.66901" lon="1.03257">
        <ele>252.166266</ele>
        <time>2023-01-03T11:29:09.796Z</time>
      </trkpt>
      <trkpt lat="43.66901" lon="1.03274">
        <ele>252.473108</ele>
        <time>2023-01-03T11:29:12.799Z</time>
      </trkpt>
      <trkpt lat="43.66902" lon="1.03292">
        <ele>252.773791</ele>
        <time>2023-01-03T11:29:15.817Z</time>
      </trkpt>
      <trkpt lat="43.66903" lon="1.03308">
        <ele>253.067242</ele>
        <time>2023-01-03T11:29:18.805Z</time>
      </trkpt>
      <trkpt lat="43.66904" lon="1.03325">
        <ele>253.357739</ele>
        <time>2023-01-03T11:29:21.804Z</time>
      </trkpt>
      <trkpt lat="43.66906" lon="1.03341">
        <ele>253.637113</ele>
        <time>2023-01-03T11:29:24.803Z</time>
      </trkpt>
      <trkpt lat="43.66908" lon="1.03357">
        <ele>253.910969</ele>
        <time>2023-01-03T11:29:27.807Z</time>
      </trkpt>
      <trkpt lat="43.66911" lon="1.03372">
        <ele>254.178366</ele>
        <time>2023-01-03T11:29:30.805Z</time>
      </trkpt>
      <trkpt lat="43.66913" lon="1.03386">
        <ele>254.431164</ele>
        <time>2023-01-03T11:29:33.806Z</time>
      </trkpt>
      <trkpt lat="43.66916" lon="1.034">
        <ele>254.696608</ele>
        <time>2023-01-03T11:29:36.808Z</time>
      </trkpt>
      <trkpt lat="43.66919" lon="1.03414">
        <ele>254.946594</ele>
        <time>2023-01-03T11:29:39.797Z</time>
      </trkpt>
      <trkpt lat="43.6692" lon="1.03427">
        <ele>255.166657</ele>
        <time>2023-01-03T11:29:42.806Z</time>
      </trkpt>
      <trkpt lat="43.66922" lon="1.03442">
        <ele>255.426826</ele>
        <time>2023-01-03T11:29:46.799Z</time>
      </trkpt>
      <trkpt lat="43.66924" lon="1.03456">
        <ele>255.672513</ele>
        <time>2023-01-03T11:29:50.811Z</time>
      </trkpt>
      <trkpt lat="43.66926" lon="1.0347">
        <ele>255.969132</ele>
        <time>2023-01-03T11:29:54.800Z</time>
      </trkpt>
      <trkpt lat="43.66927" lon="1.03484">
        <ele>256.316041</ele>
        <time>2023-01-03T11:29:58.802Z</time>
      </trkpt>
      <trkpt lat="43.66929" lon="1.03499">
        <ele>256.667788</ele>
        <time>2023-01-03T11:30:02.809Z</time>
      </trkpt>
      <trkpt lat="43.6693" lon="1.03513">
        <ele>257.019967</ele>
        <time>2023-01-03T11:30:06.807Z</time>
      </trkpt>
      <trkpt lat="43.66931" lon="1.03529">
        <ele>257.386954</ele>
        <time>2023-01-03T11:30:10.802Z</time>
      </trkpt>
      <trkpt lat="43.66932" lon="1.03542">
        <ele>257.702287</ele>
        <time>2023-01-03T11:30:14.820Z</time>
      </trkpt>
      <trkpt lat="43.66934" lon="1.03556">
        <ele>258.038565</ele>
        <time>2023-01-03T11:30:19.808Z</time>
      </trkpt>
      <trkpt lat="43.66935" lon="1.03568">
        <ele>258.337623</ele>
        <time>2023-01-03T11:30:24.805Z</time>
      </trkpt>
      <trkpt lat="43.66936" lon="1.03581">
        <ele>258.653885</ele>
        <time>2023-01-03T11:30:29.802Z</time>
      </trkpt>
      <trkpt lat="43.66934" lon="1.03595">
        <ele>258.996119</ele>
        <time>2023-01-03T11:30:34.811Z</time>
      </trkpt>
      <trkpt lat="43.66934" lon="1.03608">
        <ele>259.29542</ele>
        <time>2023-01-03T11:30:38.807Z</time>
      </trkpt>
      <trkpt lat="43.66933" lon="1.03623">
        <ele>259.65747</ele>
        <time>2023-01-03T11:30:43.802Z</time>
      </trkpt>
      <trkpt lat="43.6693" lon="1.03636">
        <ele>259.977165</ele>
        <time>2023-01-03T11:30:47.803Z</time>
      </trkpt>
      <trkpt lat="43.66928" lon="1.03649">
        <ele>260.298716</ele>
        <time>2023-01-03T11:30:51.805Z</time>
      </trkpt>
      <trkpt lat="43.66925" lon="1.03662">
        <ele>260.62963</ele>
        <time>2023-01-03T11:30:55.799Z</time>
      </trkpt>
      <trkpt lat="43.6692" lon="1.03675">
        <ele>260.984694</ele>
        <time>2023-01-03T11:30:59.799Z</time>
      </trkpt>
      <trkpt lat="43.66917" lon="1.03689">
        <ele>261.323575</ele>
        <time>2023-01-03T11:31:03.798Z</time>
      </trkpt>
      <trkpt lat="43.66913" lon="1.03702">
        <ele>261.674071</ele>
        <time>2023-01-03T11:31:07.802Z</time>
      </trkpt>
      <trkpt lat="43.66908" lon="1.03715">
        <ele>261.745605</ele>
        <time>2023-01-03T11:31:11.807Z</time>
      </trkpt>
      <trkpt lat="43.66906" lon="1.03727">
        <ele>261.724254</ele>
        <time>2023-01-03T11:31:15.800Z</time>
      </trkpt>
      <trkpt lat="43.66902" lon="1.03741">
        <ele>261.699915</ele>
        <time>2023-01-03T11:31:19.814Z</time>
      </trkpt>
      <trkpt lat="43.66899" lon="1.03756">
        <ele>261.673555</ele>
        <time>2023-01-03T11:31:24.810Z</time>
      </trkpt>
      <trkpt lat="43.66898" lon="1.03772">
        <ele>261.646302</ele>
        <time>2023-01-03T11:31:28.807Z</time>
      </trkpt>
      <trkpt lat="43.66895" lon="1.03786">
        <ele>261.621414</ele>
        <time>2023-01-03T11:31:31.802Z</time>
      </trkpt>
      <trkpt lat="43.66894" lon="1.03804">
        <ele>261.592102</ele>
        <time>2023-01-03T11:31:34.805Z</time>
      </trkpt>
      <trkpt lat="43.66893" lon="1.03816">
        <ele>261.570656</ele>
        <time>2023-01-03T11:31:36.801Z</time>
      </trkpt>
      <trkpt lat="43.66892" lon="1.0383">
        <ele>261.54749</ele>
        <time>2023-01-03T11:31:38.799Z</time>
      </trkpt>
      <trkpt lat="43.6689" lon="1.03844">
        <ele>261.523296</ele>
        <time>2023-01-03T11:31:40.805Z</time>
      </trkpt>
      <trkpt lat="43.66889" lon="1.03859">
        <ele>261.497957</ele>
        <time>2023-01-03T11:31:42.801Z</time>
      </trkpt>
      <trkpt lat="43.66889" lon="1.03875">
        <ele>261.471907</ele>
        <time>2023-01-03T11:31:44.801Z</time>
      </trkpt>
      <trkpt lat="43.66889" lon="1.0389">
        <ele>261.447365</ele>
        <time>2023-01-03T11:31:46.809Z</time>
      </trkpt>
      <trkpt lat="43.66889" lon="1.03905">
        <ele>261.421147</ele>
        <time>2023-01-03T11:31:48.807Z</time>
      </trkpt>
      <trkpt lat="43.66888" lon="1.03921">
        <ele>261.395228</ele>
        <time>2023-01-03T11:31:50.806Z</time>
      </trkpt>
      <trkpt lat="43.66888" lon="1.03935">
        <ele>261.370842</ele>
        <time>2023-01-03T11:31:52.805Z</time>
      </trkpt>
      <trkpt lat="43.66887" lon="1.03948">
        <ele>261.349117</ele>
        <time>2023-01-03T11:31:54.812Z</time>
      </trkpt>
      <trkpt lat="43.66885" lon="1.03966">
        <ele>261.309509</ele>
        <time>2023-01-03T11:31:57.802Z</time>
      </trkpt>
      <trkpt lat="43.66881" lon="1.03981">
        <ele>261.2725</ele>
        <time>2023-01-03T11:32:00.807Z</time>
      </trkpt>
      <trkpt lat="43.66878" lon="1.03997">
        <ele>261.23531</ele>
        <time>2023-01-03T11:32:03.807Z</time>
      </trkpt>
      <trkpt lat="43.66873" lon="1.04013">
        <ele>261.19683</ele>
        <time>2023-01-03T11:32:06.807Z</time>
      </trkpt>
      <trkpt lat="43.66869" lon="1.04029">
        <ele>261.158345</ele>
        <time>2023-01-03T11:32:09.808Z</time>
      </trkpt>
      <trkpt lat="43.66864" lon="1.04045">
        <ele>261.120107</ele>
        <time>2023-01-03T11:32:12.820Z</time>
      </trkpt>
      <trkpt lat="43.66859" lon="1.04061">
        <ele>261.079972</ele>
        <time>2023-01-03T11:32:15.801Z</time>
      </trkpt>
      <trkpt lat="43.66853" lon="1.04078">
        <ele>261.037844</ele>
        <time>2023-01-03T11:32:18.807Z</time>
      </trkpt>
      <trkpt lat="43.66849" lon="1.0409">
        <ele>261.008005</ele>
        <time>2023-01-03T11:32:20.804Z</time>
      </trkpt>
      <trkpt lat="43.66845" lon="1.04103">
        <ele>260.97752</ele>
        <time>2023-01-03T11:32:22.808Z</time>
      </trkpt>
      <trkpt lat="43.66842" lon="1.04115">
        <ele>260.947035</ele>
        <time>2023-01-03T11:32:24.805Z</time>
      </trkpt>
      <trkpt lat="43.66838" lon="1.04129">
        <ele>260.914466</ele>
        <time>2023-01-03T11:32:26.813Z</time>
      </trkpt>
      <trkpt lat="43.66834" lon="1.04142">
        <ele>260.882289</ele>
        <time>2023-01-03T11:32:28.827Z</time>
      </trkpt>
      <trkpt lat="43.6683" lon="1.04156">
        <ele>260.849369</ele>
        <time>2023-01-03T11:32:30.812Z</time>
      </trkpt>
      <trkpt lat="43.66827" lon="1.04168">
        <ele>260.820084</ele>
        <time>2023-01-03T11:32:32.805Z</time>
      </trkpt>
      <trkpt lat="43.66824" lon="1.04181">
        <ele>260.789949</ele>
        <time>2023-01-03T11:32:34.810Z</time>
      </trkpt>
      <trkpt lat="43.6682" lon="1.04192">
        <ele>260.805936</ele>
        <time>2023-01-03T11:32:36.807Z</time>
      </trkpt>
      <trkpt lat="43.66816" lon="1.04204">
        <ele>260.828558</ele>
        <time>2023-01-03T11:32:38.810Z</time>
      </trkpt>
      <trkpt lat="43.66812" lon="1.04216">
        <ele>260.85181</ele>
        <time>2023-01-03T11:32:40.812Z</time>
      </trkpt>
      <trkpt lat="43.66807" lon="1.04231">
        <ele>260.881803</ele>
        <time>2023-01-03T11:32:43.797Z</time>
      </trkpt>
      <trkpt lat="43.66802" lon="1.04247">
        <ele>260.911388</ele>
        <time>2023-01-03T11:32:46.802Z</time>
      </trkpt>
      <trkpt lat="43.66797" lon="1.04263">
        <ele>260.943308</ele>
        <time>2023-01-03T11:32:49.806Z</time>
      </trkpt>
      <trkpt lat="43.66793" lon="1.04274">
        <ele>260.965613</ele>
        <time>2023-01-03T11:32:51.808Z</time>
      </trkpt>
      <trkpt lat="43.66788" lon="1.04286">
        <ele>260.989291</ele>
        <time>2023-01-03T11:32:53.803Z</time>
      </trkpt>
      <trkpt lat="43.66784" lon="1.04299">
        <ele>261.014174</ele>
        <time>2023-01-03T11:32:55.806Z</time>
      </trkpt>
      <trkpt lat="43.66781" lon="1.04314">
        <ele>261.040773</ele>
        <time>2023-01-03T11:32:57.813Z</time>
      </trkpt>
      <trkpt lat="43.66779" lon="1.04327">
        <ele>261.064607</ele>
        <time>2023-01-03T11:32:59.805Z</time>
      </trkpt>
      <trkpt lat="43.66777" lon="1.04342">
        <ele>261.091627</ele>
        <time>2023-01-03T11:33:01.811Z</time>
      </trkpt>
      <trkpt lat="43.66776" lon="1.04356">
        <ele>261.116324</ele>
        <time>2023-01-03T11:33:03.804Z</time>
      </trkpt>
      <trkpt lat="43.66776" lon="1.0437">
        <ele>261.140802</ele>
        <time>2023-01-03T11:33:05.806Z</time>
      </trkpt>
      <trkpt lat="43.66775" lon="1.04383">
        <ele>261.163808</ele>
        <time>2023-01-03T11:33:07.807Z</time>
      </trkpt>
      <trkpt lat="43.66775" lon="1.04395">
        <ele>261.185943</ele>
        <time>2023-01-03T11:33:09.805Z</time>
      </trkpt>
      <trkpt lat="43.66774" lon="1.04408">
        <ele>261.208586</ele>
        <time>2023-01-03T11:33:11.809Z</time>
      </trkpt>
      <trkpt lat="43.66775" lon="1.04426">
        <ele>261.288687</ele>
        <time>2023-01-03T11:33:14.803Z</time>
      </trkpt>
      <trkpt lat="43.66776" lon="1.04439">
        <ele>261.378558</ele>
        <time>2023-01-03T11:33:16.807Z</time>
      </trkpt>
      <trkpt lat="43.66778" lon="1.04457">
        <ele>261.510067</ele>
        <time>2023-01-03T11:33:19.808Z</time>
      </trkpt>
      <trkpt lat="43.66781" lon="1.04474">
        <ele>261.636591</ele>
        <time>2023-01-03T11:33:22.806Z</time>
      </trkpt>
      <trkpt lat="43.66784" lon="1.04492">
        <ele>261.770571</ele>
        <time>2023-01-03T11:33:25.825Z</time>
      </trkpt>
      <trkpt lat="43.66785" lon="1.04505">
        <ele>261.864738</ele>
        <time>2023-01-03T11:33:27.805Z</time>
      </trkpt>
      <trkpt lat="43.66786" lon="1.04523">
        <ele>261.991828</ele>
        <time>2023-01-03T11:33:30.801Z</time>
      </trkpt>
      <trkpt lat="43.66785" lon="1.0454">
        <ele>262.116584</ele>
        <time>2023-01-03T11:33:33.802Z</time>
      </trkpt>
      <trkpt lat="43.66784" lon="1.04559">
        <ele>262.250861</ele>
        <time>2023-01-03T11:33:36.799Z</time>
      </trkpt>
      <trkpt lat="43.66783" lon="1.04571">
        <ele>262.341344</ele>
        <time>2023-01-03T11:33:38.804Z</time>
      </trkpt>
      <trkpt lat="43.66782" lon="1.04587">
        <ele>262.459023</ele>
        <time>2023-01-03T11:33:41.805Z</time>
      </trkpt>
      <trkpt lat="43.66782" lon="1.04605">
        <ele>262.584499</ele>
        <time>2023-01-03T11:33:44.807Z</time>
      </trkpt>
      <trkpt lat="43.66781" lon="1.04622">
        <ele>262.706377</ele>
        <time>2023-01-03T11:33:47.801Z</time>
      </trkpt>
      <trkpt lat="43.6678" lon="1.04638">
        <ele>262.823677</ele>
        <time>2023-01-03T11:33:50.814Z</time>
      </trkpt>
      <trkpt lat="43.66778" lon="1.04656">
        <ele>262.95729</ele>
        <time>2023-01-03T11:33:53.808Z</time>
      </trkpt>
      <trkpt lat="43.66776" lon="1.04669">
        <ele>262.989217</ele>
        <time>2023-01-03T11:33:55.804Z</time>
      </trkpt>
      <trkpt lat="43.66773" lon="1.04683">
        <ele>262.900475</ele>
        <time>2023-01-03T11:33:57.809Z</time>
      </trkpt>
      <trkpt lat="43.66772" lon="1.04696">
        <ele>262.822338</ele>
        <time>2023-01-03T11:33:59.805Z</time>
      </trkpt>
      <trkpt lat="43.66769" lon="1.0471">
        <ele>262.730768</ele>
        <time>2023-01-03T11:34:01.810Z</time>
      </trkpt>
      <trkpt lat="43.66765" lon="1.04724">
        <ele>262.642814</ele>
        <time>2023-01-03T11:34:03.810Z</time>
      </trkpt>
      <trkpt lat="43.66761" lon="1.04736">
        <ele>262.560945</ele>
        <time>2023-01-03T11:34:05.806Z</time>
      </trkpt>
      <trkpt lat="43.66759" lon="1.04748">
        <ele>262.485035</ele>
        <time>2023-01-03T11:34:07.805Z</time>
      </trkpt>
      <trkpt lat="43.66755" lon="1.04765">
        <ele>262.380356</ele>
        <time>2023-01-03T11:34:10.811Z</time>
      </trkpt>
      <trkpt lat="43.66751" lon="1.04782">
        <ele>262.270615</ele>
        <time>2023-01-03T11:34:13.805Z</time>
      </trkpt>
      <trkpt lat="43.66747" lon="1.04794">
        <ele>262.193586</ele>
        <time>2023-01-03T11:34:15.804Z</time>
      </trkpt>
      <trkpt lat="43.66743" lon="1.04807">
        <ele>262.110404</ele>
        <time>2023-01-03T11:34:17.807Z</time>
      </trkpt>
      <trkpt lat="43.66741" lon="1.04819">
        <ele>262.033029</ele>
        <time>2023-01-03T11:34:19.808Z</time>
      </trkpt>
      <trkpt lat="43.66737" lon="1.04832">
        <ele>261.94851</ele>
        <time>2023-01-03T11:34:21.808Z</time>
      </trkpt>
      <trkpt lat="43.66734" lon="1.04845">
        <ele>261.865692</ele>
        <time>2023-01-03T11:34:23.806Z</time>
      </trkpt>
      <trkpt lat="43.66731" lon="1.04857">
        <ele>261.78894</ele>
        <time>2023-01-03T11:34:25.811Z</time>
      </trkpt>
      <trkpt lat="43.66727" lon="1.04875">
        <ele>261.675755</ele>
        <time>2023-01-03T11:34:28.813Z</time>
      </trkpt>
      <trkpt lat="43.66722" lon="1.04892">
        <ele>261.564331</ele>
        <time>2023-01-03T11:34:31.807Z</time>
      </trkpt>
      <trkpt lat="43.66719" lon="1.04905">
        <ele>261.436004</ele>
        <time>2023-01-03T11:34:33.807Z</time>
      </trkpt>
      <trkpt lat="43.66715" lon="1.04922">
        <ele>261.155444</ele>
        <time>2023-01-03T11:34:36.809Z</time>
      </trkpt>
      <trkpt lat="43.66712" lon="1.04936">
        <ele>260.942358</ele>
        <time>2023-01-03T11:34:38.810Z</time>
      </trkpt>
      <trkpt lat="43.66709" lon="1.04949">
        <ele>260.731749</ele>
        <time>2023-01-03T11:34:40.816Z</time>
      </trkpt>
      <trkpt lat="43.66706" lon="1.04962">
        <ele>260.519863</ele>
        <time>2023-01-03T11:34:42.817Z</time>
      </trkpt>
      <trkpt lat="43.66701" lon="1.0498">
        <ele>260.230652</ele>
        <time>2023-01-03T11:34:45.805Z</time>
      </trkpt>
      <trkpt lat="43.66697" lon="1.04997">
        <ele>259.956279</ele>
        <time>2023-01-03T11:34:48.803Z</time>
      </trkpt>
      <trkpt lat="43.66694" lon="1.05014">
        <ele>259.692763</ele>
        <time>2023-01-03T11:34:51.813Z</time>
      </trkpt>
      <trkpt lat="43.6669" lon="1.05029">
        <ele>259.456529</ele>
        <time>2023-01-03T11:34:54.802Z</time>
      </trkpt>
      <trkpt lat="43.66687" lon="1.05044">
        <ele>259.203546</ele>
        <time>2023-01-03T11:34:57.813Z</time>
      </trkpt>
      <trkpt lat="43.66685" lon="1.05061">
        <ele>258.941031</ele>
        <time>2023-01-03T11:35:00.821Z</time>
      </trkpt>
      <trkpt lat="43.66683" lon="1.05078">
        <ele>258.680345</ele>
        <time>2023-01-03T11:35:03.808Z</time>
      </trkpt>
      <trkpt lat="43.66682" lon="1.05092">
        <ele>258.478118</ele>
        <time>2023-01-03T11:35:05.799Z</time>
      </trkpt>
      <trkpt lat="43.6668" lon="1.05106">
        <ele>258.257859</ele>
        <time>2023-01-03T11:35:07.808Z</time>
      </trkpt>
      <trkpt lat="43.66679" lon="1.05121">
        <ele>258.025559</ele>
        <time>2023-01-03T11:35:09.814Z</time>
      </trkpt>
      <trkpt lat="43.66677" lon="1.05137">
        <ele>257.780706</ele>
        <time>2023-01-03T11:35:11.810Z</time>
      </trkpt>
      <trkpt lat="43.66676" lon="1.05154">
        <ele>257.466466</ele>
        <time>2023-01-03T11:35:13.805Z</time>
      </trkpt>
      <trkpt lat="43.66674" lon="1.05171">
        <ele>257.143508</ele>
        <time>2023-01-03T11:35:15.809Z</time>
      </trkpt>
      <trkpt lat="43.66673" lon="1.05189">
        <ele>256.804329</ele>
        <time>2023-01-03T11:35:17.807Z</time>
      </trkpt>
      <trkpt lat="43.66673" lon="1.05206">
        <ele>256.480888</ele>
        <time>2023-01-03T11:35:19.816Z</time>
      </trkpt>
      <trkpt lat="43.66672" lon="1.05224">
        <ele>256.136243</ele>
        <time>2023-01-03T11:35:21.812Z</time>
      </trkpt>
      <trkpt lat="43.66671" lon="1.05242">
        <ele>255.798285</ele>
        <time>2023-01-03T11:35:23.816Z</time>
      </trkpt>
      <trkpt lat="43.6667" lon="1.0526">
        <ele>255.443971</ele>
        <time>2023-01-03T11:35:25.807Z</time>
      </trkpt>
      <trkpt lat="43.66669" lon="1.05279">
        <ele>255.082286</ele>
        <time>2023-01-03T11:35:27.813Z</time>
      </trkpt>
      <trkpt lat="43.66668" lon="1.053">
        <ele>254.69236</ele>
        <time>2023-01-03T11:35:29.812Z</time>
      </trkpt>
      <trkpt lat="43.66667" lon="1.05321">
        <ele>254.294942</ele>
        <time>2023-01-03T11:35:31.808Z</time>
      </trkpt>
      <trkpt lat="43.66665" lon="1.05342">
        <ele>253.892798</ele>
        <time>2023-01-03T11:35:33.806Z</time>
      </trkpt>
      <trkpt lat="43.66663" lon="1.05363">
        <ele>253.482779</ele>
        <time>2023-01-03T11:35:35.811Z</time>
      </trkpt>
      <trkpt lat="43.66661" lon="1.05385">
        <ele>253.069338</ele>
        <time>2023-01-03T11:35:37.809Z</time>
      </trkpt>
      <trkpt lat="43.66658" lon="1.05406">
        <ele>252.871266</ele>
        <time>2023-01-03T11:35:39.808Z</time>
      </trkpt>
      <trkpt lat="43.66656" lon="1.05427">
        <ele>252.711703</ele>
        <time>2023-01-03T11:35:41.817Z</time>
      </trkpt>
      <trkpt lat="43.66655" lon="1.05448">
        <ele>252.558289</ele>
        <time>2023-01-03T11:35:43.802Z</time>
      </trkpt>
      <trkpt lat="43.66653" lon="1.05468">
        <ele>252.409423</ele>
        <time>2023-01-03T11:35:45.810Z</time>
      </trkpt>
      <trkpt lat="43.66652" lon="1.05487">
        <ele>252.268527</ele>
        <time>2023-01-03T11:35:47.807Z</time>
      </trkpt>
      <trkpt lat="43.66652" lon="1.05505">
        <ele>252.134635</ele>
        <time>2023-01-03T11:35:49.827Z</time>
      </trkpt>
      <trkpt lat="43.66651" lon="1.05521">
        <ele>252.013094</ele>
        <time>2023-01-03T11:35:51.808Z</time>
      </trkpt>
      <trkpt lat="43.6665" lon="1.05535">
        <ele>251.907338</ele>
        <time>2023-01-03T11:35:53.803Z</time>
      </trkpt>
      <trkpt lat="43.66649" lon="1.05553">
        <ele>251.773477</ele>
        <time>2023-01-03T11:35:56.818Z</time>
      </trkpt>
      <trkpt lat="43.66648" lon="1.05567">
        <ele>251.671432</ele>
        <time>2023-01-03T11:35:59.815Z</time>
      </trkpt>
      <trkpt lat="43.66647" lon="1.05582">
        <ele>251.559228</ele>
        <time>2023-01-03T11:36:03.803Z</time>
      </trkpt>
      <trkpt lat="43.66646" lon="1.05595">
        <ele>251.458839</ele>
        <time>2023-01-03T11:36:08.819Z</time>
      </trkpt>
      <trkpt lat="43.66644" lon="1.0561">
        <ele>251.348464</ele>
        <time>2023-01-03T11:36:14.804Z</time>
      </trkpt>
      <trkpt lat="43.66644" lon="1.05624">
        <ele>251.239676</ele>
        <time>2023-01-03T11:36:20.807Z</time>
      </trkpt>
      <trkpt lat="43.66641" lon="1.05638">
        <ele>251.129533</ele>
        <time>2023-01-03T11:36:25.808Z</time>
      </trkpt>
      <trkpt lat="43.66639" lon="1.05654">
        <ele>251.00424</ele>
        <time>2023-01-03T11:36:29.823Z</time>
      </trkpt>
      <trkpt lat="43.66638" lon="1.05667">
        <ele>250.903423</ele>
        <time>2023-01-03T11:36:32.811Z</time>
      </trkpt>
      <trkpt lat="43.66637" lon="1.05679">
        <ele>250.804664</ele>
        <time>2023-01-03T11:36:35.800Z</time>
      </trkpt>
      <trkpt lat="43.66635" lon="1.05693">
        <ele>250.694913</ele>
        <time>2023-01-03T11:36:38.802Z</time>
      </trkpt>
      <trkpt lat="43.66634" lon="1.05708">
        <ele>250.573356</ele>
        <time>2023-01-03T11:36:41.802Z</time>
      </trkpt>
      <trkpt lat="43.66632" lon="1.05725">
        <ele>250.439795</ele>
        <time>2023-01-03T11:36:44.803Z</time>
      </trkpt>
      <trkpt lat="43.66631" lon="1.05743">
        <ele>250.296714</ele>
        <time>2023-01-03T11:36:47.805Z</time>
      </trkpt>
      <trkpt lat="43.66629" lon="1.05755">
        <ele>250.198011</ele>
        <time>2023-01-03T11:36:49.803Z</time>
      </trkpt>
      <trkpt lat="43.66628" lon="1.05773">
        <ele>250.06118</ele>
        <time>2023-01-03T11:36:52.812Z</time>
      </trkpt>
      <trkpt lat="43.66625" lon="1.05789">
        <ele>249.926798</ele>
        <time>2023-01-03T11:36:55.814Z</time>
      </trkpt>
      <trkpt lat="43.66624" lon="1.05805">
        <ele>249.806346</ele>
        <time>2023-01-03T11:36:58.809Z</time>
      </trkpt>
      <trkpt lat="43.66622" lon="1.0582">
        <ele>249.681219</ele>
        <time>2023-01-03T11:37:01.801Z</time>
      </trkpt>
      <trkpt lat="43.6662" lon="1.05836">
        <ele>249.552811</ele>
        <time>2023-01-03T11:37:04.805Z</time>
      </trkpt>
      <trkpt lat="43.66619" lon="1.05853">
        <ele>249.423784</ele>
        <time>2023-01-03T11:37:07.806Z</time>
      </trkpt>
      <trkpt lat="43.66617" lon="1.05869">
        <ele>249.295427</ele>
        <time>2023-01-03T11:37:10.807Z</time>
      </trkpt>
      <trkpt lat="43.66616" lon="1.05884">
        <ele>249.260715</ele>
        <time>2023-01-03T11:37:13.807Z</time>
      </trkpt>
      <trkpt lat="43.66615" lon="1.05898">
        <ele>249.533605</ele>
        <time>2023-01-03T11:37:16.821Z</time>
      </trkpt>
      <trkpt lat="43.66614" lon="1.05911">
        <ele>249.799269</ele>
        <time>2023-01-03T11:37:19.810Z</time>
      </trkpt>
      <trkpt lat="43.66612" lon="1.05925">
        <ele>250.068292</ele>
        <time>2023-01-03T11:37:22.809Z</time>
      </trkpt>
      <trkpt lat="43.66612" lon="1.05938">
        <ele>250.332784</ele>
        <time>2023-01-03T11:37:25.800Z</time>
      </trkpt>
      <trkpt lat="43.66611" lon="1.05955">
        <ele>250.650141</ele>
        <time>2023-01-03T11:37:29.804Z</time>
      </trkpt>
      <trkpt lat="43.66609" lon="1.0597">
        <ele>250.952445</ele>
        <time>2023-01-03T11:37:33.802Z</time>
      </trkpt>
      <trkpt lat="43.66608" lon="1.05985">
        <ele>251.249221</ele>
        <time>2023-01-03T11:37:37.801Z</time>
      </trkpt>
      <trkpt lat="43.66607" lon="1.05999">
        <ele>251.531784</ele>
        <time>2023-01-03T11:37:41.805Z</time>
      </trkpt>
      <trkpt lat="43.66606" lon="1.06012">
        <ele>251.778549</ele>
        <time>2023-01-03T11:37:45.809Z</time>
      </trkpt>
      <trkpt lat="43.66605" lon="1.06025">
        <ele>252.03031</ele>
        <time>2023-01-03T11:37:49.800Z</time>
      </trkpt>
      <trkpt lat="43.66604" lon="1.06037">
        <ele>252.27809</ele>
        <time>2023-01-03T11:37:53.808Z</time>
      </trkpt>
      <trkpt lat="43.66603" lon="1.0605">
        <ele>252.530713</ele>
        <time>2023-01-03T11:37:58.807Z</time>
      </trkpt>
      <trkpt lat="43.66602" lon="1.06065">
        <ele>252.817147</ele>
        <time>2023-01-03T11:38:03.797Z</time>
      </trkpt>
      <trkpt lat="43.666" lon="1.06079">
        <ele>253.106748</ele>
        <time>2023-01-03T11:38:08.809Z</time>
      </trkpt>
      <trkpt lat="43.66598" lon="1.06094">
        <ele>253.40168</ele>
        <time>2023-01-03T11:38:13.816Z</time>
      </trkpt>
      <trkpt lat="43.66597" lon="1.06109">
        <ele>253.702049</ele>
        <time>2023-01-03T11:38:18.810Z</time>
      </trkpt>
      <trkpt lat="43.66595" lon="1.06122">
        <ele>253.956538</ele>
        <time>2023-01-03T11:38:22.811Z</time>
      </trkpt>
      <trkpt lat="43.66593" lon="1.06135">
        <ele>254.103854</ele>
        <time>2023-01-03T11:38:26.801Z</time>
      </trkpt>
      <trkpt lat="43.66591" lon="1.06149">
        <ele>254.173671</ele>
        <time>2023-01-03T11:38:30.817Z</time>
      </trkpt>
      <trkpt lat="43.66589" lon="1.06162">
        <ele>254.240992</ele>
        <time>2023-01-03T11:38:34.820Z</time>
      </trkpt>
      <trkpt lat="43.66588" lon="1.06175">
        <ele>254.310397</ele>
        <time>2023-01-03T11:38:38.793Z</time>
      </trkpt>
      <trkpt lat="43.66586" lon="1.06188">
        <ele>254.374728</ele>
        <time>2023-01-03T11:38:42.798Z</time>
      </trkpt>
      <trkpt lat="43.66583" lon="1.062">
        <ele>254.442476</ele>
        <time>2023-01-03T11:38:46.805Z</time>
      </trkpt>
      <trkpt lat="43.6658" lon="1.06215">
        <ele>254.51963</ele>
        <time>2023-01-03T11:38:51.802Z</time>
      </trkpt>
      <trkpt lat="43.66577" lon="1.06227">
        <ele>254.587051</ele>
        <time>2023-01-03T11:38:55.818Z</time>
      </trkpt>
      <trkpt lat="43.66573" lon="1.0624">
        <ele>254.659031</ele>
        <time>2023-01-03T11:38:59.853Z</time>
      </trkpt>
      <trkpt lat="43.6657" lon="1.06255">
        <ele>254.738755</ele>
        <time>2023-01-03T11:39:03.804Z</time>
      </trkpt>
      <trkpt lat="43.66566" lon="1.06269">
        <ele>254.814832</ele>
        <time>2023-01-03T11:39:07.807Z</time>
      </trkpt>
      <trkpt lat="43.66563" lon="1.06282">
        <ele>254.884892</ele>
        <time>2023-01-03T11:39:11.812Z</time>
      </trkpt>
      <trkpt lat="43.66559" lon="1.06295">
        <ele>254.956391</ele>
        <time>2023-01-03T11:39:15.820Z</time>
      </trkpt>
      <trkpt lat="43.66555" lon="1.0631">
        <ele>255.037099</ele>
        <time>2023-01-03T11:39:19.816Z</time>
      </trkpt>
      <trkpt lat="43.66551" lon="1.06322">
        <ele>255.106095</ele>
        <time>2023-01-03T11:39:22.834Z</time>
      </trkpt>
      <trkpt lat="43.66547" lon="1.06336">
        <ele>255.179868</ele>
        <time>2023-01-03T11:39:25.799Z</time>
      </trkpt>
      <trkpt lat="43.66543" lon="1.0635">
        <ele>255.259286</ele>
        <time>2023-01-03T11:39:28.802Z</time>
      </trkpt>
      <trkpt lat="43.66539" lon="1.06367">
        <ele>255.16422</ele>
        <time>2023-01-03T11:39:31.809Z</time>
      </trkpt>
      <trkpt lat="43.66536" lon="1.06385">
        <ele>254.342401</ele>
        <time>2023-01-03T11:39:34.842Z</time>
      </trkpt>
      <trkpt lat="43.66535" lon="1.06399">
        <ele>253.73904</ele>
        <time>2023-01-03T11:39:36.822Z</time>
      </trkpt>
      <trkpt lat="43.66535" lon="1.06413">
        <ele>253.142349</ele>
        <time>2023-01-03T11:39:38.821Z</time>
      </trkpt>
      <trkpt lat="43.66536" lon="1.06426">
        <ele>252.550067</ele>
        <time>2023-01-03T11:39:40.852Z</time>
      </trkpt>
      <trkpt lat="43.66539" lon="1.06439">
        <ele>251.956224</ele>
        <time>2023-01-03T11:39:42.804Z</time>
      </trkpt>
      <trkpt lat="43.66543" lon="1.06453">
        <ele>251.325427</ele>
        <time>2023-01-03T11:39:44.808Z</time>
      </trkpt>
      <trkpt lat="43.66547" lon="1.06467">
        <ele>250.661424</ele>
        <time>2023-01-03T11:39:46.866Z</time>
      </trkpt>
      <trkpt lat="43.66552" lon="1.06481">
        <ele>249.973721</ele>
        <time>2023-01-03T11:39:48.807Z</time>
      </trkpt>
      <trkpt lat="43.66557" lon="1.06494">
        <ele>249.352677</ele>
        <time>2023-01-03T11:39:50.819Z</time>
      </trkpt>
      <trkpt lat="43.66562" lon="1.06507">
        <ele>248.717211</ele>
        <time>2023-01-03T11:39:52.839Z</time>
      </trkpt>
      <trkpt lat="43.66567" lon="1.0652">
        <ele>248.069986</ele>
        <time>2023-01-03T11:39:54.801Z</time>
      </trkpt>
      <trkpt lat="43.66571" lon="1.06535">
        <ele>247.362163</ele>
        <time>2023-01-03T11:39:56.819Z</time>
      </trkpt>
      <trkpt lat="43.66577" lon="1.0655">
        <ele>246.633752</ele>
        <time>2023-01-03T11:39:58.805Z</time>
      </trkpt>
      <trkpt lat="43.66582" lon="1.06565">
        <ele>245.901462</ele>
        <time>2023-01-03T11:40:00.803Z</time>
      </trkpt>
      <trkpt lat="43.66587" lon="1.0658">
        <ele>245.15351</ele>
        <time>2023-01-03T11:40:02.810Z</time>
      </trkpt>
      <trkpt lat="43.66593" lon="1.06595">
        <ele>244.449384</ele>
        <time>2023-01-03T11:40:04.806Z</time>
      </trkpt>
      <trkpt lat="43.66598" lon="1.06611">
        <ele>243.896724</ele>
        <time>2023-01-03T11:40:06.803Z</time>
      </trkpt>
      <trkpt lat="43.66604" lon="1.06627">
        <ele>243.310283</ele>
        <time>2023-01-03T11:40:08.800Z</time>
      </trkpt>
      <trkpt lat="43.66609" lon="1.06645">
        <ele>242.684869</ele>
        <time>2023-01-03T11:40:10.804Z</time>
      </trkpt>
      <trkpt lat="43.66614" lon="1.06663">
        <ele>242.062471</ele>
        <time>2023-01-03T11:40:12.803Z</time>
      </trkpt>
      <trkpt lat="43.66618" lon="1.06684">
        <ele>241.371605</ele>
        <time>2023-01-03T11:40:14.819Z</time>
      </trkpt>
      <trkpt lat="43.66621" lon="1.06704">
        <ele>240.697798</ele>
        <time>2023-01-03T11:40:16.805Z</time>
      </trkpt>
      <trkpt lat="43.66624" lon="1.06726">
        <ele>239.994158</ele>
        <time>2023-01-03T11:40:18.811Z</time>
      </trkpt>
      <trkpt lat="43.66626" lon="1.06747">
        <ele>239.288744</ele>
        <time>2023-01-03T11:40:20.819Z</time>
      </trkpt>
      <trkpt lat="43.66628" lon="1.06769">
        <ele>238.577274</ele>
        <time>2023-01-03T11:40:22.829Z</time>
      </trkpt>
      <trkpt lat="43.6663" lon="1.06791">
        <ele>237.873619</ele>
        <time>2023-01-03T11:40:24.811Z</time>
      </trkpt>
      <trkpt lat="43.66631" lon="1.06812">
        <ele>237.188311</ele>
        <time>2023-01-03T11:40:26.798Z</time>
      </trkpt>
      <trkpt lat="43.66633" lon="1.06833">
        <ele>236.5057</ele>
        <time>2023-01-03T11:40:28.805Z</time>
      </trkpt>
      <trkpt lat="43.66635" lon="1.06854">
        <ele>236.409</ele>
        <time>2023-01-03T11:40:30.818Z</time>
      </trkpt>
      <trkpt lat="43.66636" lon="1.06873">
        <ele>236.340818</ele>
        <time>2023-01-03T11:40:32.805Z</time>
      </trkpt>
      <trkpt lat="43.66637" lon="1.06894">
        <ele>236.269405</ele>
        <time>2023-01-03T11:40:34.813Z</time>
      </trkpt>
      <trkpt lat="43.66639" lon="1.06914">
        <ele>236.200483</ele>
        <time>2023-01-03T11:40:36.822Z</time>
      </trkpt>
      <trkpt lat="43.66641" lon="1.06934">
        <ele>236.131913</ele>
        <time>2023-01-03T11:40:38.872Z</time>
      </trkpt>
      <trkpt lat="43.66642" lon="1.06953">
        <ele>236.067188</ele>
        <time>2023-01-03T11:40:40.821Z</time>
      </trkpt>
      <trkpt lat="43.66644" lon="1.06971">
        <ele>236.003489</ele>
        <time>2023-01-03T11:40:42.817Z</time>
      </trkpt>
      <trkpt lat="43.66646" lon="1.06989">
        <ele>235.942277</ele>
        <time>2023-01-03T11:40:44.888Z</time>
      </trkpt>
      <trkpt lat="43.66647" lon="1.07006">
        <ele>235.884165</ele>
        <time>2023-01-03T11:40:46.805Z</time>
      </trkpt>
      <trkpt lat="43.66648" lon="1.0702">
        <ele>235.833643</ele>
        <time>2023-01-03T11:40:48.820Z</time>
      </trkpt>
      <trkpt lat="43.66649" lon="1.07033">
        <ele>235.791107</ele>
        <time>2023-01-03T11:40:50.881Z</time>
      </trkpt>
      <trkpt lat="43.6665" lon="1.07048">
        <ele>235.737132</ele>
        <time>2023-01-03T11:40:53.815Z</time>
      </trkpt>
      <trkpt lat="43.6665" lon="1.07061">
        <ele>235.693542</ele>
        <time>2023-01-03T11:40:56.898Z</time>
      </trkpt>
      <trkpt lat="43.66651" lon="1.07074">
        <ele>235.650637</ele>
        <time>2023-01-03T11:40:59.818Z</time>
      </trkpt>
      <trkpt lat="43.66652" lon="1.07086">
        <ele>235.757239</ele>
        <time>2023-01-03T11:41:02.879Z</time>
      </trkpt>
      <trkpt lat="43.66653" lon="1.07102">
        <ele>236.162219</ele>
        <time>2023-01-03T11:41:06.811Z</time>
      </trkpt>
      <trkpt lat="43.66653" lon="1.07117">
        <ele>236.528151</ele>
        <time>2023-01-03T11:41:10.828Z</time>
      </trkpt>
      <trkpt lat="43.66654" lon="1.07132">
        <ele>236.917658</ele>
        <time>2023-01-03T11:41:15.814Z</time>
      </trkpt>
      <trkpt lat="43.66656" lon="1.07147">
        <ele>237.308677</ele>
        <time>2023-01-03T11:41:20.866Z</time>
      </trkpt>
      <trkpt lat="43.66658" lon="1.07163">
        <ele>237.704778</ele>
        <time>2023-01-03T11:41:25.833Z</time>
      </trkpt>
      <trkpt lat="43.66659" lon="1.07176">
        <ele>238.048056</ele>
        <time>2023-01-03T11:41:30.816Z</time>
      </trkpt>
      <trkpt lat="43.66659" lon="1.07189">
        <ele>238.382756</ele>
        <time>2023-01-03T11:41:35.820Z</time>
      </trkpt>
      <trkpt lat="43.6666" lon="1.07203">
        <ele>238.728221</ele>
        <time>2023-01-03T11:41:40.823Z</time>
      </trkpt>
      <trkpt lat="43.6666" lon="1.07216">
        <ele>239.05813</ele>
        <time>2023-01-03T11:41:45.829Z</time>
      </trkpt>
      <trkpt lat="43.66661" lon="1.07229">
        <ele>239.401064</ele>
        <time>2023-01-03T11:41:50.897Z</time>
      </trkpt>
      <trkpt lat="43.6666" lon="1.07243">
        <ele>239.759183</ele>
        <time>2023-01-03T11:41:55.820Z</time>
      </trkpt>
      <trkpt lat="43.6666" lon="1.07257">
        <ele>240.111683</ele>
        <time>2023-01-03T11:42:00.826Z</time>
      </trkpt>
      <trkpt lat="43.6666" lon="1.0727">
        <ele>240.426101</ele>
        <time>2023-01-03T11:42:05.830Z</time>
      </trkpt>
      <trkpt lat="43.6666" lon="1.07283">
        <ele>240.758247</ele>
        <time>2023-01-03T11:42:10.832Z</time>
      </trkpt>
      <trkpt lat="43.6666" lon="1.07296">
        <ele>241.098885</ele>
        <time>2023-01-03T11:42:15.819Z</time>
      </trkpt>
      <trkpt lat="43.66659" lon="1.07312">
        <ele>241.495411</ele>
        <time>2023-01-03T11:42:20.886Z</time>
      </trkpt>
      <trkpt lat="43.66659" lon="1.07326">
        <ele>241.847859</ele>
        <time>2023-01-03T11:42:24.825Z</time>
      </trkpt>
      <trkpt lat="43.66658" lon="1.0734">
        <ele>241.782587</ele>
        <time>2023-01-03T11:42:28.822Z</time>
      </trkpt>
      <trkpt lat="43.66657" lon="1.07352">
        <ele>241.612012</ele>
        <time>2023-01-03T11:42:32.829Z</time>
      </trkpt>
      <trkpt lat="43.66657" lon="1.07365">
        <ele>241.443673</ele>
        <time>2023-01-03T11:42:36.885Z</time>
      </trkpt>
      <trkpt lat="43.66655" lon="1.07377">
        <ele>241.267864</ele>
        <time>2023-01-03T11:42:40.824Z</time>
      </trkpt>
      <trkpt lat="43.66654" lon="1.0739">
        <ele>241.09206</ele>
        <time>2023-01-03T11:42:44.822Z</time>
      </trkpt>
      <trkpt lat="43.66653" lon="1.07404">
        <ele>240.910415</ele>
        <time>2023-01-03T11:42:48.881Z</time>
      </trkpt>
      <trkpt lat="43.66653" lon="1.07417">
        <ele>240.726193</ele>
        <time>2023-01-03T11:42:51.819Z</time>
      </trkpt>
      <trkpt lat="43.66653" lon="1.0743">
        <ele>240.557001</ele>
        <time>2023-01-03T11:42:53.821Z</time>
      </trkpt>
      <trkpt lat="43.66654" lon="1.07444">
        <ele>240.368537</ele>
        <time>2023-01-03T11:42:55.825Z</time>
      </trkpt>
      <trkpt lat="43.66654" lon="1.07459">
        <ele>240.15739</ele>
        <time>2023-01-03T11:42:57.821Z</time>
      </trkpt>
      <trkpt lat="43.66655" lon="1.07475">
        <ele>239.940547</ele>
        <time>2023-01-03T11:42:59.831Z</time>
      </trkpt>
      <trkpt lat="43.66654" lon="1.07493">
        <ele>239.696918</ele>
        <time>2023-01-03T11:43:01.826Z</time>
      </trkpt>
      <trkpt lat="43.66654" lon="1.07512">
        <ele>239.439756</ele>
        <time>2023-01-03T11:43:03.833Z</time>
      </trkpt>
      <trkpt lat="43.66654" lon="1.07532">
        <ele>239.170185</ele>
        <time>2023-01-03T11:43:05.823Z</time>
      </trkpt>
      <trkpt lat="43.66653" lon="1.07552">
        <ele>238.900432</ele>
        <time>2023-01-03T11:43:07.813Z</time>
      </trkpt>
      <trkpt lat="43.66652" lon="1.07572">
        <ele>238.626875</ele>
        <time>2023-01-03T11:43:09.833Z</time>
      </trkpt>
      <trkpt lat="43.66652" lon="1.07593">
        <ele>238.498106</ele>
        <time>2023-01-03T11:43:11.831Z</time>
      </trkpt>
      <trkpt lat="43.66652" lon="1.07613">
        <ele>238.415663</ele>
        <time>2023-01-03T11:43:13.810Z</time>
      </trkpt>
      <trkpt lat="43.6665" lon="1.07633">
        <ele>238.329098</ele>
        <time>2023-01-03T11:43:15.832Z</time>
      </trkpt>
      <trkpt lat="43.66648" lon="1.07653">
        <ele>238.246011</ele>
        <time>2023-01-03T11:43:17.828Z</time>
      </trkpt>
      <trkpt lat="43.66645" lon="1.07672">
        <ele>238.163023</ele>
        <time>2023-01-03T11:43:19.821Z</time>
      </trkpt>
      <trkpt lat="43.6664" lon="1.0769">
        <ele>238.083144</ele>
        <time>2023-01-03T11:43:21.821Z</time>
      </trkpt>
      <trkpt lat="43.66635" lon="1.07708">
        <ele>238.004756</ele>
        <time>2023-01-03T11:43:23.819Z</time>
      </trkpt>
      <trkpt lat="43.6663" lon="1.07724">
        <ele>237.931193</ele>
        <time>2023-01-03T11:43:25.818Z</time>
      </trkpt>
      <trkpt lat="43.66625" lon="1.07739">
        <ele>237.864654</ele>
        <time>2023-01-03T11:43:27.818Z</time>
      </trkpt>
      <trkpt lat="43.66621" lon="1.07751">
        <ele>237.806367</ele>
        <time>2023-01-03T11:43:29.817Z</time>
      </trkpt>
      <trkpt lat="43.66617" lon="1.07763">
        <ele>237.754035</ele>
        <time>2023-01-03T11:43:31.817Z</time>
      </trkpt>
      <trkpt lat="43.66613" lon="1.07778">
        <ele>237.685265</ele>
        <time>2023-01-03T11:43:34.817Z</time>
      </trkpt>
      <trkpt lat="43.6661" lon="1.07794">
        <ele>237.617905</ele>
        <time>2023-01-03T11:43:37.822Z</time>
      </trkpt>
      <trkpt lat="43.66608" lon="1.07808">
        <ele>237.55767</ele>
        <time>2023-01-03T11:43:40.810Z</time>
      </trkpt>
      <trkpt lat="43.66607" lon="1.07822">
        <ele>237.427512</ele>
        <time>2023-01-03T11:43:43.823Z</time>
      </trkpt>
      <trkpt lat="43.66608" lon="1.07836">
        <ele>237.217804</ele>
        <time>2023-01-03T11:43:46.822Z</time>
      </trkpt>
      <trkpt lat="43.6661" lon="1.07851">
        <ele>236.986662</ele>
        <time>2023-01-03T11:43:49.804Z</time>
      </trkpt>
      <trkpt lat="43.66613" lon="1.07868">
        <ele>236.725402</ele>
        <time>2023-01-03T11:43:52.867Z</time>
      </trkpt>
      <trkpt lat="43.66615" lon="1.07881">
        <ele>236.525594</ele>
        <time>2023-01-03T11:43:54.819Z</time>
      </trkpt>
      <trkpt lat="43.66616" lon="1.07896">
        <ele>236.307092</ele>
        <time>2023-01-03T11:43:56.815Z</time>
      </trkpt>
      <trkpt lat="43.66619" lon="1.07911">
        <ele>236.07186</ele>
        <time>2023-01-03T11:43:58.919Z</time>
      </trkpt>
      <trkpt lat="43.66621" lon="1.07927">
        <ele>235.840587</ele>
        <time>2023-01-03T11:44:00.833Z</time>
      </trkpt>
      <trkpt lat="43.66624" lon="1.07942">
        <ele>235.603877</ele>
        <time>2023-01-03T11:44:02.831Z</time>
      </trkpt>
      <trkpt lat="43.66626" lon="1.07958">
        <ele>235.361397</ele>
        <time>2023-01-03T11:44:04.878Z</time>
      </trkpt>
      <trkpt lat="43.66629" lon="1.07975">
        <ele>235.107297</ele>
        <time>2023-01-03T11:44:06.831Z</time>
      </trkpt>
      <trkpt lat="43.66631" lon="1.07992">
        <ele>234.848943</ele>
        <time>2023-01-03T11:44:08.828Z</time>
      </trkpt>
      <trkpt lat="43.66633" lon="1.08008">
        <ele>234.606613</ele>
        <time>2023-01-03T11:44:10.886Z</time>
      </trkpt>
      <trkpt lat="43.66634" lon="1.08024">
        <ele>234.359938</ele>
        <time>2023-01-03T11:44:12.816Z</time>
      </trkpt>
      <trkpt lat="43.66636" lon="1.08042">
        <ele>234.092125</ele>
        <time>2023-01-03T11:44:14.819Z</time>
      </trkpt>
      <trkpt lat="43.66637" lon="1.0806">
        <ele>233.831002</ele>
        <time>2023-01-03T11:44:16.870Z</time>
      </trkpt>
      <trkpt lat="43.66638" lon="1.08078">
        <ele>233.512099</ele>
        <time>2023-01-03T11:44:18.823Z</time>
      </trkpt>
      <trkpt lat="43.66639" lon="1.08097">
        <ele>233.188398</ele>
        <time>2023-01-03T11:44:20.808Z</time>
      </trkpt>
      <trkpt lat="43.6664" lon="1.08116">
        <ele>232.861528</ele>
        <time>2023-01-03T11:44:22.844Z</time>
      </trkpt>
      <trkpt lat="43.66641" lon="1.08134">
        <ele>232.546357</ele>
        <time>2023-01-03T11:44:24.813Z</time>
      </trkpt>
      <trkpt lat="43.66641" lon="1.08152">
        <ele>232.238309</ele>
        <time>2023-01-03T11:44:26.807Z</time>
      </trkpt>
      <trkpt lat="43.66642" lon="1.08169">
        <ele>231.942044</ele>
        <time>2023-01-03T11:44:28.867Z</time>
      </trkpt>
      <trkpt lat="43.66642" lon="1.08186">
        <ele>231.645883</ele>
        <time>2023-01-03T11:44:30.830Z</time>
      </trkpt>
      <trkpt lat="43.66643" lon="1.08204">
        <ele>231.337468</ele>
        <time>2023-01-03T11:44:32.827Z</time>
      </trkpt>
      <trkpt lat="43.66644" lon="1.08221">
        <ele>231.042796</ele>
        <time>2023-01-03T11:44:34.882Z</time>
      </trkpt>
      <trkpt lat="43.66645" lon="1.08239">
        <ele>230.744385</ele>
        <time>2023-01-03T11:44:36.823Z</time>
      </trkpt>
      <trkpt lat="43.66645" lon="1.08256">
        <ele>230.454866</ele>
        <time>2023-01-03T11:44:38.829Z</time>
      </trkpt>
      <trkpt lat="43.66646" lon="1.08272">
        <ele>230.167065</ele>
        <time>2023-01-03T11:44:40.886Z</time>
      </trkpt>
      <trkpt lat="43.66647" lon="1.08289">
        <ele>229.8708</ele>
        <time>2023-01-03T11:44:42.823Z</time>
      </trkpt>
      <trkpt lat="43.66648" lon="1.08307">
        <ele>229.568367</ele>
        <time>2023-01-03T11:44:44.835Z</time>
      </trkpt>
      <trkpt lat="43.66649" lon="1.08325">
        <ele>229.526458</ele>
        <time>2023-01-03T11:44:46.886Z</time>
      </trkpt>
      <trkpt lat="43.6665" lon="1.08342">
        <ele>229.499626</ele>
        <time>2023-01-03T11:44:48.821Z</time>
      </trkpt>
      <trkpt lat="43.6665" lon="1.0836">
        <ele>229.471908</ele>
        <time>2023-01-03T11:44:50.810Z</time>
      </trkpt>
      <trkpt lat="43.66649" lon="1.08377">
        <ele>229.445302</ele>
        <time>2023-01-03T11:44:52.861Z</time>
      </trkpt>
      <trkpt lat="43.66648" lon="1.08394">
        <ele>229.42016</ele>
        <time>2023-01-03T11:44:54.828Z</time>
      </trkpt>
      <trkpt lat="43.66647" lon="1.08409">
        <ele>229.396235</ele>
        <time>2023-01-03T11:44:56.830Z</time>
      </trkpt>
      <trkpt lat="43.66645" lon="1.08424">
        <ele>229.372553</ele>
        <time>2023-01-03T11:44:58.884Z</time>
      </trkpt>
      <trkpt lat="43.66644" lon="1.08439">
        <ele>229.350057</ele>
        <time>2023-01-03T11:45:00.809Z</time>
      </trkpt>
      <trkpt lat="43.66642" lon="1.08451">
        <ele>229.330208</ele>
        <time>2023-01-03T11:45:02.820Z</time>
      </trkpt>
      <trkpt lat="43.6664" lon="1.08469">
        <ele>229.302859</ele>
        <time>2023-01-03T11:45:05.834Z</time>
      </trkpt>
      <trkpt lat="43.66637" lon="1.08485">
        <ele>229.276705</ele>
        <time>2023-01-03T11:45:08.823Z</time>
      </trkpt>
      <trkpt lat="43.66635" lon="1.085">
        <ele>229.252918</ele>
        <time>2023-01-03T11:45:11.809Z</time>
      </trkpt>
      <trkpt lat="43.66633" lon="1.08514">
        <ele>229.232344</ele>
        <time>2023-01-03T11:45:14.825Z</time>
      </trkpt>
      <trkpt lat="43.66631" lon="1.08527">
        <ele>229.210927</ele>
        <time>2023-01-03T11:45:17.828Z</time>
      </trkpt>
      <trkpt lat="43.66627" lon="1.0854">
        <ele>229.190143</ele>
        <time>2023-01-03T11:45:20.801Z</time>
      </trkpt>
      <trkpt lat="43.66625" lon="1.08554">
        <ele>229.12712</ele>
        <time>2023-01-03T11:45:23.827Z</time>
      </trkpt>
      <trkpt lat="43.66622" lon="1.0857">
        <ele>228.620948</ele>
        <time>2023-01-03T11:45:26.828Z</time>
      </trkpt>
      <trkpt lat="43.66619" lon="1.08587">
        <ele>228.052594</ele>
        <time>2023-01-03T11:45:29.829Z</time>
      </trkpt>
      <trkpt lat="43.66616" lon="1.08601">
        <ele>227.625467</ele>
        <time>2023-01-03T11:45:31.831Z</time>
      </trkpt>
      <trkpt lat="43.66614" lon="1.08614">
        <ele>227.198339</ele>
        <time>2023-01-03T11:45:33.831Z</time>
      </trkpt>
      <trkpt lat="43.66612" lon="1.08627">
        <ele>226.76391</ele>
        <time>2023-01-03T11:45:35.824Z</time>
      </trkpt>
      <trkpt lat="43.6661" lon="1.0864">
        <ele>226.345679</ele>
        <time>2023-01-03T11:45:37.823Z</time>
      </trkpt>
      <trkpt lat="43.66607" lon="1.08653">
        <ele>225.925807</ele>
        <time>2023-01-03T11:45:39.831Z</time>
      </trkpt>
      <trkpt lat="43.66604" lon="1.08666">
        <ele>225.509631</ele>
        <time>2023-01-03T11:45:41.825Z</time>
      </trkpt>
      <trkpt lat="43.66601" lon="1.08683">
        <ele>224.963866</ele>
        <time>2023-01-03T11:45:44.820Z</time>
      </trkpt>
      <trkpt lat="43.66598" lon="1.08696">
        <ele>224.543493</ele>
        <time>2023-01-03T11:45:46.881Z</time>
      </trkpt>
      <trkpt lat="43.66596" lon="1.0871">
        <ele>224.102055</ele>
        <time>2023-01-03T11:45:48.834Z</time>
      </trkpt>
      <trkpt lat="43.66594" lon="1.08723">
        <ele>223.654551</ele>
        <time>2023-01-03T11:45:50.829Z</time>
      </trkpt>
      <trkpt lat="43.66591" lon="1.08738">
        <ele>223.191976</ele>
        <time>2023-01-03T11:45:52.888Z</time>
      </trkpt>
      <trkpt lat="43.66589" lon="1.08752">
        <ele>222.724238</ele>
        <time>2023-01-03T11:45:54.819Z</time>
      </trkpt>
      <trkpt lat="43.66587" lon="1.08767">
        <ele>222.250381</ele>
        <time>2023-01-03T11:45:56.803Z</time>
      </trkpt>
      <trkpt lat="43.66584" lon="1.08782">
        <ele>221.777414</ele>
        <time>2023-01-03T11:45:58.870Z</time>
      </trkpt>
      <trkpt lat="43.66582" lon="1.08797">
        <ele>221.307334</ele>
        <time>2023-01-03T11:46:00.820Z</time>
      </trkpt>
      <trkpt lat="43.6658" lon="1.08811">
        <ele>220.811087</ele>
        <time>2023-01-03T11:46:02.827Z</time>
      </trkpt>
      <trkpt lat="43.66578" lon="1.08826">
        <ele>220.313921</ele>
        <time>2023-01-03T11:46:04.891Z</time>
      </trkpt>
      <trkpt lat="43.66578" lon="1.08841">
        <ele>219.831791</ele>
        <time>2023-01-03T11:46:06.833Z</time>
      </trkpt>
      <trkpt lat="43.66577" lon="1.08853">
        <ele>219.40955</ele>
        <time>2023-01-03T11:46:08.832Z</time>
      </trkpt>
      <trkpt lat="43.66577" lon="1.08866">
        <ele>218.99793</ele>
        <time>2023-01-03T11:46:10.870Z</time>
      </trkpt>
      <trkpt lat="43.66576" lon="1.08884">
        <ele>218.400592</ele>
        <time>2023-01-03T11:46:13.826Z</time>
      </trkpt>
      <trkpt lat="43.66576" lon="1.08896">
        <ele>217.987951</ele>
        <time>2023-01-03T11:46:15.832Z</time>
      </trkpt>
      <trkpt lat="43.66576" lon="1.08909">
        <ele>217.563192</ele>
        <time>2023-01-03T11:46:17.832Z</time>
      </trkpt>
      <trkpt lat="43.66575" lon="1.08921">
        <ele>217.146864</ele>
        <time>2023-01-03T11:46:19.830Z</time>
      </trkpt>
      <trkpt lat="43.66573" lon="1.08934">
        <ele>216.710115</ele>
        <time>2023-01-03T11:46:21.830Z</time>
      </trkpt>
      <trkpt lat="43.6657" lon="1.0895">
        <ele>216.151035</ele>
        <time>2023-01-03T11:46:24.835Z</time>
      </trkpt>
      <trkpt lat="43.66566" lon="1.08963">
        <ele>215.696803</ele>
        <time>2023-01-03T11:46:28.886Z</time>
      </trkpt>
      <trkpt lat="43.66586" lon="1.08982">
        <ele>214.580039</ele>
        <time>2023-01-03T12:04:00.388Z</time>
      </trkpt>
      <trkpt lat="43.66575" lon="1.08984">
        <ele>214.050268</ele>
        <time>2023-01-03T12:04:30.151Z</time>
      </trkpt>
      <trkpt lat="43.66565" lon="1.08981">
        <ele>213.585331</ele>
        <time>2023-01-03T12:04:36.152Z</time>
      </trkpt>
      <trkpt lat="43.66557" lon="1.08991">
        <ele>213.131459</ele>
        <time>2023-01-03T12:04:40.143Z</time>
      </trkpt>
      <trkpt lat="43.66555" lon="1.09006">
        <ele>212.321418</ele>
        <time>2023-01-03T12:04:43.139Z</time>
      </trkpt>
      <trkpt lat="43.66553" lon="1.09021">
        <ele>211.550369</ele>
        <time>2023-01-03T12:04:46.158Z</time>
      </trkpt>
      <trkpt lat="43.66554" lon="1.09037">
        <ele>210.7352</ele>
        <time>2023-01-03T12:04:49.144Z</time>
      </trkpt>
      <trkpt lat="43.66555" lon="1.09053">
        <ele>209.925292</ele>
        <time>2023-01-03T12:04:52.162Z</time>
      </trkpt>
      <trkpt lat="43.66557" lon="1.09068">
        <ele>209.126611</ele>
        <time>2023-01-03T12:04:55.163Z</time>
      </trkpt>
      <trkpt lat="43.6656" lon="1.09081">
        <ele>208.446225</ele>
        <time>2023-01-03T12:04:58.164Z</time>
      </trkpt>
      <trkpt lat="43.66564" lon="1.09093">
        <ele>207.806739</ele>
        <time>2023-01-03T12:05:01.145Z</time>
      </trkpt>
      <trkpt lat="43.66569" lon="1.09103">
        <ele>207.167314</ele>
        <time>2023-01-03T12:05:04.142Z</time>
      </trkpt>
      <trkpt lat="43.66584" lon="1.09128">
        <ele>205.482729</ele>
        <time>2023-01-03T12:06:10.142Z</time>
      </trkpt>
      <trkpt lat="43.66593" lon="1.09141">
        <ele>204.597617</ele>
        <time>2023-01-03T12:06:13.139Z</time>
      </trkpt>
      <trkpt lat="43.66599" lon="1.09151">
        <ele>203.930555</ele>
        <time>2023-01-03T12:06:15.138Z</time>
      </trkpt>
      <trkpt lat="43.66606" lon="1.09161">
        <ele>203.251214</ele>
        <time>2023-01-03T12:06:17.145Z</time>
      </trkpt>
      <trkpt lat="43.66612" lon="1.09171">
        <ele>202.529454</ele>
        <time>2023-01-03T12:06:19.142Z</time>
      </trkpt>
      <trkpt lat="43.6662" lon="1.09183">
        <ele>201.726421</ele>
        <time>2023-01-03T12:06:21.161Z</time>
      </trkpt>
      <trkpt lat="43.66628" lon="1.09196">
        <ele>200.874201</ele>
        <time>2023-01-03T12:06:23.164Z</time>
      </trkpt>
      <trkpt lat="43.66636" lon="1.09209">
        <ele>200.411916</ele>
        <time>2023-01-03T12:06:25.159Z</time>
      </trkpt>
      <trkpt lat="43.66645" lon="1.09222">
        <ele>200.280577</ele>
        <time>2023-01-03T12:06:27.162Z</time>
      </trkpt>
      <trkpt lat="43.66653" lon="1.09234">
        <ele>200.156277</ele>
        <time>2023-01-03T12:06:29.156Z</time>
      </trkpt>
      <trkpt lat="43.6666" lon="1.09245">
        <ele>200.045067</ele>
        <time>2023-01-03T12:06:31.153Z</time>
      </trkpt>
      <trkpt lat="43.66667" lon="1.09256">
        <ele>199.940544</ele>
        <time>2023-01-03T12:06:33.165Z</time>
      </trkpt>
      <trkpt lat="43.66673" lon="1.09265">
        <ele>199.845522</ele>
        <time>2023-01-03T12:06:35.162Z</time>
      </trkpt>
      <trkpt lat="43.66682" lon="1.09276">
        <ele>199.717747</ele>
        <time>2023-01-03T12:06:38.140Z</time>
      </trkpt>
      <trkpt lat="43.66691" lon="1.09284">
        <ele>199.610041</ele>
        <time>2023-01-03T12:06:41.162Z</time>
      </trkpt>
      <trkpt lat="43.66701" lon="1.09293">
        <ele>199.485379</ele>
        <time>2023-01-03T12:06:45.163Z</time>
      </trkpt>
      <trkpt lat="43.6671" lon="1.09301">
        <ele>199.380229</ele>
        <time>2023-01-03T12:06:48.163Z</time>
      </trkpt>
      <trkpt lat="43.66719" lon="1.0931">
        <ele>199.26486</ele>
        <time>2023-01-03T12:06:51.166Z</time>
      </trkpt>
      <trkpt lat="43.66726" lon="1.09323">
        <ele>199.139722</ele>
        <time>2023-01-03T12:06:54.147Z</time>
      </trkpt>
      <trkpt lat="43.6673" lon="1.09338">
        <ele>199.017321</ele>
        <time>2023-01-03T12:06:57.145Z</time>
      </trkpt>
      <trkpt lat="43.66728" lon="1.09353">
        <ele>198.903808</ele>
        <time>2023-01-03T12:07:00.150Z</time>
      </trkpt>
      <trkpt lat="43.66726" lon="1.09369">
        <ele>198.785647</ele>
        <time>2023-01-03T12:07:03.165Z</time>
      </trkpt>
      <trkpt lat="43.66723" lon="1.09385">
        <ele>198.662432</ele>
        <time>2023-01-03T12:07:06.166Z</time>
      </trkpt>
      <trkpt lat="43.66721" lon="1.09401">
        <ele>198.67374</ele>
        <time>2023-01-03T12:07:09.162Z</time>
      </trkpt>
      <trkpt lat="43.66719" lon="1.09417">
        <ele>198.744465</ele>
        <time>2023-01-03T12:07:12.161Z</time>
      </trkpt>
      <trkpt lat="43.66717" lon="1.09433">
        <ele>198.813485</ele>
        <time>2023-01-03T12:07:15.144Z</time>
      </trkpt>
      <trkpt lat="43.66714" lon="1.09448">
        <ele>198.882117</ele>
        <time>2023-01-03T12:07:18.167Z</time>
      </trkpt>
      <trkpt lat="43.66708" lon="1.09464">
        <ele>198.959335</ele>
        <time>2023-01-03T12:07:21.144Z</time>
      </trkpt>
      <trkpt lat="43.66699" lon="1.09478">
        <ele>199.03946</ele>
        <time>2023-01-03T12:07:24.141Z</time>
      </trkpt>
      <trkpt lat="43.66688" lon="1.09488">
        <ele>199.118021</ele>
        <time>2023-01-03T12:07:27.140Z</time>
      </trkpt>
      <trkpt lat="43.66677" lon="1.09496">
        <ele>199.195955</ele>
        <time>2023-01-03T12:07:30.161Z</time>
      </trkpt>
      <trkpt lat="43.66665" lon="1.09504">
        <ele>199.273602</ele>
        <time>2023-01-03T12:07:33.165Z</time>
      </trkpt>
      <trkpt lat="43.66654" lon="1.09512">
        <ele>199.348663</ele>
        <time>2023-01-03T12:07:36.166Z</time>
      </trkpt>
      <trkpt lat="43.66644" lon="1.09519">
        <ele>199.419601</ele>
        <time>2023-01-03T12:07:39.161Z</time>
      </trkpt>
      <trkpt lat="43.66632" lon="1.09527">
        <ele>199.494255</ele>
        <time>2023-01-03T12:07:42.164Z</time>
      </trkpt>
      <trkpt lat="43.66621" lon="1.09535">
        <ele>199.572039</ele>
        <time>2023-01-03T12:07:45.151Z</time>
      </trkpt>
      <trkpt lat="43.66613" lon="1.0954">
        <ele>199.626245</ele>
        <time>2023-01-03T12:07:47.163Z</time>
      </trkpt>
      <trkpt lat="43.66601" lon="1.09548">
        <ele>199.698063</ele>
        <time>2023-01-03T12:07:50.166Z</time>
      </trkpt>
      <trkpt lat="43.66592" lon="1.09554">
        <ele>199.649809</ele>
        <time>2023-01-03T12:07:52.164Z</time>
      </trkpt>
      <trkpt lat="43.66584" lon="1.0956">
        <ele>199.60165</ele>
        <time>2023-01-03T12:07:54.163Z</time>
      </trkpt>
      <trkpt lat="43.66575" lon="1.09566">
        <ele>199.552591</ele>
        <time>2023-01-03T12:07:56.141Z</time>
      </trkpt>
      <trkpt lat="43.66566" lon="1.09571">
        <ele>199.50326</ele>
        <time>2023-01-03T12:07:58.154Z</time>
      </trkpt>
      <trkpt lat="43.66557" lon="1.09578">
        <ele>199.452058</ele>
        <time>2023-01-03T12:08:00.148Z</time>
      </trkpt>
      <trkpt lat="43.66549" lon="1.09583">
        <ele>199.404267</ele>
        <time>2023-01-03T12:08:02.168Z</time>
      </trkpt>
      <trkpt lat="43.6654" lon="1.09589">
        <ele>199.353561</ele>
        <time>2023-01-03T12:08:04.140Z</time>
      </trkpt>
      <trkpt lat="43.66531" lon="1.09595">
        <ele>199.304435</ele>
        <time>2023-01-03T12:08:06.146Z</time>
      </trkpt>
      <trkpt lat="43.66522" lon="1.09602">
        <ele>199.253233</ele>
        <time>2023-01-03T12:08:08.140Z</time>
      </trkpt>
      <trkpt lat="43.66513" lon="1.09608">
        <ele>199.203661</ele>
        <time>2023-01-03T12:08:10.152Z</time>
      </trkpt>
      <trkpt lat="43.66505" lon="1.09614">
        <ele>199.153696</ele>
        <time>2023-01-03T12:08:12.163Z</time>
      </trkpt>
      <trkpt lat="43.66497" lon="1.09621">
        <ele>199.10714</ele>
        <time>2023-01-03T12:08:14.165Z</time>
      </trkpt>
      <trkpt lat="43.66489" lon="1.09628">
        <ele>199.060789</ele>
        <time>2023-01-03T12:08:16.169Z</time>
      </trkpt>
      <trkpt lat="43.66482" lon="1.09635">
        <ele>199.013555</ele>
        <time>2023-01-03T12:08:18.164Z</time>
      </trkpt>
      <trkpt lat="43.66474" lon="1.09643">
        <ele>198.965419</ele>
        <time>2023-01-03T12:08:20.163Z</time>
      </trkpt>
      <trkpt lat="43.66467" lon="1.09651">
        <ele>198.917783</ele>
        <time>2023-01-03T12:08:22.146Z</time>
      </trkpt>
      <trkpt lat="43.66459" lon="1.09659">
        <ele>198.870898</ele>
        <time>2023-01-03T12:08:24.163Z</time>
      </trkpt>
      <trkpt lat="43.66452" lon="1.09667">
        <ele>198.821906</ele>
        <time>2023-01-03T12:08:26.159Z</time>
      </trkpt>
      <trkpt lat="43.66445" lon="1.09676">
        <ele>198.780588</ele>
        <time>2023-01-03T12:08:28.142Z</time>
      </trkpt>
      <trkpt lat="43.66436" lon="1.09688">
        <ele>198.738909</ele>
        <time>2023-01-03T12:08:31.166Z</time>
      </trkpt>
      <trkpt lat="43.66429" lon="1.09697">
        <ele>198.71043</ele>
        <time>2023-01-03T12:08:33.139Z</time>
      </trkpt>
      <trkpt lat="43.66422" lon="1.09706">
        <ele>198.681208</ele>
        <time>2023-01-03T12:08:35.141Z</time>
      </trkpt>
      <trkpt lat="43.66416" lon="1.09714">
        <ele>198.652899</ele>
        <time>2023-01-03T12:08:37.162Z</time>
      </trkpt>
      <trkpt lat="43.66408" lon="1.09723">
        <ele>198.622446</ele>
        <time>2023-01-03T12:08:39.161Z</time>
      </trkpt>
      <trkpt lat="43.66402" lon="1.09732">
        <ele>198.593379</ele>
        <time>2023-01-03T12:08:41.164Z</time>
      </trkpt>
      <trkpt lat="43.66395" lon="1.09742">
        <ele>198.563323</ele>
        <time>2023-01-03T12:08:43.163Z</time>
      </trkpt>
      <trkpt lat="43.66388" lon="1.09751">
        <ele>198.532166</ele>
        <time>2023-01-03T12:08:45.163Z</time>
      </trkpt>
      <trkpt lat="43.66381" lon="1.0976">
        <ele>198.502848</ele>
        <time>2023-01-03T12:08:47.142Z</time>
      </trkpt>
      <trkpt lat="43.66374" lon="1.09769">
        <ele>198.474208</ele>
        <time>2023-01-03T12:08:49.149Z</time>
      </trkpt>
      <trkpt lat="43.66367" lon="1.09777">
        <ele>198.445213</ele>
        <time>2023-01-03T12:08:51.168Z</time>
      </trkpt>
      <trkpt lat="43.66358" lon="1.0979">
        <ele>198.403819</ele>
        <time>2023-01-03T12:08:54.167Z</time>
      </trkpt>
      <trkpt lat="43.66351" lon="1.09798">
        <ele>198.375365</ele>
        <time>2023-01-03T12:08:56.162Z</time>
      </trkpt>
      <trkpt lat="43.66342" lon="1.09812">
        <ele>198.332786</ele>
        <time>2023-01-03T12:08:59.164Z</time>
      </trkpt>
      <trkpt lat="43.66336" lon="1.09821">
        <ele>198.3042</ele>
        <time>2023-01-03T12:09:01.160Z</time>
      </trkpt>
      <trkpt lat="43.66329" lon="1.09832">
        <ele>198.271437</ele>
        <time>2023-01-03T12:09:03.164Z</time>
      </trkpt>
      <trkpt lat="43.66322" lon="1.09843">
        <ele>198.23811</ele>
        <time>2023-01-03T12:09:05.165Z</time>
      </trkpt>
      <trkpt lat="43.66315" lon="1.09854">
        <ele>198.043525</ele>
        <time>2023-01-03T12:09:07.163Z</time>
      </trkpt>
      <trkpt lat="43.66308" lon="1.09866">
        <ele>197.715945</ele>
        <time>2023-01-03T12:09:09.161Z</time>
      </trkpt>
      <trkpt lat="43.66301" lon="1.09876">
        <ele>197.401837</ele>
        <time>2023-01-03T12:09:11.174Z</time>
      </trkpt>
      <trkpt lat="43.66293" lon="1.09889">
        <ele>197.063222</ele>
        <time>2023-01-03T12:09:13.166Z</time>
      </trkpt>
      <trkpt lat="43.66286" lon="1.09902">
        <ele>196.713138</ele>
        <time>2023-01-03T12:09:15.164Z</time>
      </trkpt>
      <trkpt lat="43.66279" lon="1.09915">
        <ele>196.356161</ele>
        <time>2023-01-03T12:09:17.164Z</time>
      </trkpt>
      <trkpt lat="43.66273" lon="1.09929">
        <ele>195.998574</ele>
        <time>2023-01-03T12:09:19.162Z</time>
      </trkpt>
      <trkpt lat="43.66266" lon="1.09944">
        <ele>195.635791</ele>
        <time>2023-01-03T12:09:21.171Z</time>
      </trkpt>
      <trkpt lat="43.6626" lon="1.09958">
        <ele>195.27404</ele>
        <time>2023-01-03T12:09:23.164Z</time>
      </trkpt>
      <trkpt lat="43.66254" lon="1.09973">
        <ele>194.918629</ele>
        <time>2023-01-03T12:09:25.165Z</time>
      </trkpt>
      <trkpt lat="43.66248" lon="1.09987">
        <ele>194.564261</ele>
        <time>2023-01-03T12:09:27.143Z</time>
      </trkpt>
      <trkpt lat="43.66242" lon="1.10002">
        <ele>194.200674</ele>
        <time>2023-01-03T12:09:29.164Z</time>
      </trkpt>
      <trkpt lat="43.66236" lon="1.10017">
        <ele>193.837823</ele>
        <time>2023-01-03T12:09:31.166Z</time>
      </trkpt>
      <trkpt lat="43.6623" lon="1.10031">
        <ele>193.491925</ele>
        <time>2023-01-03T12:09:33.162Z</time>
      </trkpt>
      <trkpt lat="43.66224" lon="1.10046">
        <ele>193.127207</ele>
        <time>2023-01-03T12:09:35.165Z</time>
      </trkpt>
      <trkpt lat="43.66218" lon="1.10061">
        <ele>192.912786</ele>
        <time>2023-01-03T12:09:37.158Z</time>
      </trkpt>
      <trkpt lat="43.66213" lon="1.10077">
        <ele>192.927673</ele>
        <time>2023-01-03T12:09:39.164Z</time>
      </trkpt>
      <trkpt lat="43.66208" lon="1.10091">
        <ele>192.942215</ele>
        <time>2023-01-03T12:09:41.162Z</time>
      </trkpt>
      <trkpt lat="43.66203" lon="1.10107">
        <ele>192.956998</ele>
        <time>2023-01-03T12:09:43.168Z</time>
      </trkpt>
      <trkpt lat="43.66198" lon="1.10122">
        <ele>192.971887</ele>
        <time>2023-01-03T12:09:45.165Z</time>
      </trkpt>
      <trkpt lat="43.66193" lon="1.10135">
        <ele>192.985028</ele>
        <time>2023-01-03T12:09:47.155Z</time>
      </trkpt>
      <trkpt lat="43.66188" lon="1.10149">
        <ele>192.998355</ele>
        <time>2023-01-03T12:09:49.163Z</time>
      </trkpt>
      <trkpt lat="43.66183" lon="1.10161">
        <ele>193.011551</ele>
        <time>2023-01-03T12:09:51.167Z</time>
      </trkpt>
      <trkpt lat="43.66177" lon="1.10174">
        <ele>193.024441</ele>
        <time>2023-01-03T12:09:53.142Z</time>
      </trkpt>
      <trkpt lat="43.66171" lon="1.10186">
        <ele>193.03786</ele>
        <time>2023-01-03T12:09:55.163Z</time>
      </trkpt>
      <trkpt lat="43.66164" lon="1.10199">
        <ele>193.051501</ele>
        <time>2023-01-03T12:09:57.166Z</time>
      </trkpt>
      <trkpt lat="43.66157" lon="1.1021">
        <ele>193.065555</ele>
        <time>2023-01-03T12:09:59.141Z</time>
      </trkpt>
      <trkpt lat="43.66149" lon="1.10222">
        <ele>193.079404</ele>
        <time>2023-01-03T12:10:01.162Z</time>
      </trkpt>
      <trkpt lat="43.6614" lon="1.10232">
        <ele>193.093656</ele>
        <time>2023-01-03T12:10:03.165Z</time>
      </trkpt>
      <trkpt lat="43.66131" lon="1.10241">
        <ele>193.107248</ele>
        <time>2023-01-03T12:10:05.138Z</time>
      </trkpt>
      <trkpt lat="43.66122" lon="1.10251">
        <ele>193.120859</ele>
        <time>2023-01-03T12:10:07.165Z</time>
      </trkpt>
      <trkpt lat="43.66113" lon="1.1026">
        <ele>193.178185</ele>
        <time>2023-01-03T12:10:09.165Z</time>
      </trkpt>
      <trkpt lat="43.66105" lon="1.1027">
        <ele>193.262188</ele>
        <time>2023-01-03T12:10:11.163Z</time>
      </trkpt>
      <trkpt lat="43.66097" lon="1.10281">
        <ele>193.34858</ele>
        <time>2023-01-03T12:10:13.164Z</time>
      </trkpt>
      <trkpt lat="43.6609" lon="1.10292">
        <ele>193.43602</ele>
        <time>2023-01-03T12:10:15.150Z</time>
      </trkpt>
      <trkpt lat="43.66083" lon="1.10305">
        <ele>193.522738</ele>
        <time>2023-01-03T12:10:17.143Z</time>
      </trkpt>
      <trkpt lat="43.66079" lon="1.10319">
        <ele>193.605618</ele>
        <time>2023-01-03T12:10:19.155Z</time>
      </trkpt>
      <trkpt lat="43.66074" lon="1.10333">
        <ele>193.6916</ele>
        <time>2023-01-03T12:10:21.142Z</time>
      </trkpt>
      <trkpt lat="43.66071" lon="1.10347">
        <ele>193.779278</ele>
        <time>2023-01-03T12:10:23.163Z</time>
      </trkpt>
      <trkpt lat="43.66066" lon="1.10362">
        <ele>193.869339</ele>
        <time>2023-01-03T12:10:25.149Z</time>
      </trkpt>
      <trkpt lat="43.66063" lon="1.10377">
        <ele>193.953091</ele>
        <time>2023-01-03T12:10:27.166Z</time>
      </trkpt>
      <trkpt lat="43.66059" lon="1.10391">
        <ele>194.03899</ele>
        <time>2023-01-03T12:10:29.140Z</time>
      </trkpt>
      <trkpt lat="43.66054" lon="1.10404">
        <ele>194.121368</ele>
        <time>2023-01-03T12:10:31.163Z</time>
      </trkpt>
      <trkpt lat="43.66048" lon="1.10418">
        <ele>194.212675</ele>
        <time>2023-01-03T12:10:33.153Z</time>
      </trkpt>
      <trkpt lat="43.66043" lon="1.10431">
        <ele>194.295885</ele>
        <time>2023-01-03T12:10:35.137Z</time>
      </trkpt>
      <trkpt lat="43.66038" lon="1.10442">
        <ele>194.36904</ele>
        <time>2023-01-03T12:10:37.162Z</time>
      </trkpt>
      <trkpt lat="43.66032" lon="1.10453">
        <ele>194.442987</ele>
        <time>2023-01-03T12:10:39.156Z</time>
      </trkpt>
      <trkpt lat="43.66025" lon="1.10467">
        <ele>194.572744</ele>
        <time>2023-01-03T12:10:42.149Z</time>
      </trkpt>
      <trkpt lat="43.66018" lon="1.1048">
        <ele>194.788855</ele>
        <time>2023-01-03T12:10:45.164Z</time>
      </trkpt>
      <trkpt lat="43.66013" lon="1.10493">
        <ele>194.977478</ele>
        <time>2023-01-03T12:10:48.166Z</time>
      </trkpt>
      <trkpt lat="43.66007" lon="1.10504">
        <ele>195.163712</ele>
        <time>2023-01-03T12:10:51.145Z</time>
      </trkpt>
      <trkpt lat="43.66002" lon="1.10515">
        <ele>195.337051</ele>
        <time>2023-01-03T12:10:54.166Z</time>
      </trkpt>
      <trkpt lat="43.65997" lon="1.10527">
        <ele>195.508834</ele>
        <time>2023-01-03T12:10:57.168Z</time>
      </trkpt>
      <trkpt lat="43.65992" lon="1.10542">
        <ele>195.731132</ele>
        <time>2023-01-03T12:11:01.162Z</time>
      </trkpt>
      <trkpt lat="43.65988" lon="1.10555">
        <ele>195.921942</ele>
        <time>2023-01-03T12:11:04.145Z</time>
      </trkpt>
      <trkpt lat="43.65983" lon="1.10567">
        <ele>196.106002</ele>
        <time>2023-01-03T12:11:07.175Z</time>
      </trkpt>
      <trkpt lat="43.65979" lon="1.1058">
        <ele>196.288558</ele>
        <time>2023-01-03T12:11:10.142Z</time>
      </trkpt>
      <trkpt lat="43.65976" lon="1.10593">
        <ele>196.475137</ele>
        <time>2023-01-03T12:11:13.164Z</time>
      </trkpt>
      <trkpt lat="43.65972" lon="1.10606">
        <ele>196.668687</ele>
        <time>2023-01-03T12:11:16.165Z</time>
      </trkpt>
      <trkpt lat="43.65968" lon="1.1062">
        <ele>196.869073</ele>
        <time>2023-01-03T12:11:19.146Z</time>
      </trkpt>
      <trkpt lat="43.65963" lon="1.10634">
        <ele>197.069156</ele>
        <time>2023-01-03T12:11:22.162Z</time>
      </trkpt>
      <trkpt lat="43.65959" lon="1.10649">
        <ele>197.274471</ele>
        <time>2023-01-03T12:11:25.141Z</time>
      </trkpt>
      <trkpt lat="43.65955" lon="1.10664">
        <ele>197.493597</ele>
        <time>2023-01-03T12:11:28.142Z</time>
      </trkpt>
      <trkpt lat="43.6595" lon="1.10681">
        <ele>197.738774</ele>
        <time>2023-01-03T12:11:31.140Z</time>
      </trkpt>
      <trkpt lat="43.65946" lon="1.10694">
        <ele>197.782683</ele>
        <time>2023-01-03T12:11:33.162Z</time>
      </trkpt>
      <trkpt lat="43.65943" lon="1.10707">
        <ele>197.717875</ele>
        <time>2023-01-03T12:11:35.150Z</time>
      </trkpt>
      <trkpt lat="43.65941" lon="1.10719">
        <ele>197.656157</ele>
        <time>2023-01-03T12:11:37.163Z</time>
      </trkpt>
      <trkpt lat="43.65937" lon="1.10733">
        <ele>197.586966</ele>
        <time>2023-01-03T12:11:39.166Z</time>
      </trkpt>
      <trkpt lat="43.65934" lon="1.10748">
        <ele>197.514423</ele>
        <time>2023-01-03T12:11:41.146Z</time>
      </trkpt>
      <trkpt lat="43.6593" lon="1.10762">
        <ele>197.441298</ele>
        <time>2023-01-03T12:11:43.165Z</time>
      </trkpt>
      <trkpt lat="43.65927" lon="1.10778">
        <ele>197.367086</ele>
        <time>2023-01-03T12:11:45.166Z</time>
      </trkpt>
      <trkpt lat="43.65924" lon="1.10793">
        <ele>197.291784</ele>
        <time>2023-01-03T12:11:47.152Z</time>
      </trkpt>
      <trkpt lat="43.65921" lon="1.10808">
        <ele>197.21639</ele>
        <time>2023-01-03T12:11:49.161Z</time>
      </trkpt>
      <trkpt lat="43.65918" lon="1.10823">
        <ele>197.144624</ele>
        <time>2023-01-03T12:11:51.163Z</time>
      </trkpt>
      <trkpt lat="43.65915" lon="1.10838">
        <ele>197.070592</ele>
        <time>2023-01-03T12:11:53.165Z</time>
      </trkpt>
      <trkpt lat="43.65912" lon="1.10852">
        <ele>197.000819</ele>
        <time>2023-01-03T12:11:55.168Z</time>
      </trkpt>
      <trkpt lat="43.65909" lon="1.10867">
        <ele>196.929409</ele>
        <time>2023-01-03T12:11:57.157Z</time>
      </trkpt>
      <trkpt lat="43.65905" lon="1.10882">
        <ele>196.855969</ele>
        <time>2023-01-03T12:11:59.144Z</time>
      </trkpt>
      <trkpt lat="43.65902" lon="1.10896">
        <ele>196.783664</ele>
        <time>2023-01-03T12:12:01.155Z</time>
      </trkpt>
      <trkpt lat="43.65898" lon="1.10911">
        <ele>196.711359</ele>
        <time>2023-01-03T12:12:03.157Z</time>
      </trkpt>
      <trkpt lat="43.65895" lon="1.10925">
        <ele>196.634273</ele>
        <time>2023-01-03T12:12:05.149Z</time>
      </trkpt>
      <trkpt lat="43.65892" lon="1.10939">
        <ele>196.328744</ele>
        <time>2023-01-03T12:12:07.193Z</time>
      </trkpt>
      <trkpt lat="43.65889" lon="1.10954">
        <ele>196.03273</ele>
        <time>2023-01-03T12:12:09.164Z</time>
      </trkpt>
      <trkpt lat="43.65885" lon="1.10969">
        <ele>195.709868</ele>
        <time>2023-01-03T12:12:11.161Z</time>
      </trkpt>
      <trkpt lat="43.65881" lon="1.10985">
        <ele>195.368282</ele>
        <time>2023-01-03T12:12:13.166Z</time>
      </trkpt>
      <trkpt lat="43.65877" lon="1.11001">
        <ele>195.034165</ele>
        <time>2023-01-03T12:12:15.170Z</time>
      </trkpt>
      <trkpt lat="43.65873" lon="1.11017">
        <ele>194.688685</ele>
        <time>2023-01-03T12:12:17.167Z</time>
      </trkpt>
      <trkpt lat="43.65869" lon="1.11033">
        <ele>194.365512</ele>
        <time>2023-01-03T12:12:19.160Z</time>
      </trkpt>
      <trkpt lat="43.65866" lon="1.11049">
        <ele>194.036876</ele>
        <time>2023-01-03T12:12:21.165Z</time>
      </trkpt>
      <trkpt lat="43.65862" lon="1.11064">
        <ele>193.709901</ele>
        <time>2023-01-03T12:12:23.164Z</time>
      </trkpt>
      <trkpt lat="43.65858" lon="1.1108">
        <ele>193.378309</ele>
        <time>2023-01-03T12:12:25.161Z</time>
      </trkpt>
      <trkpt lat="43.65855" lon="1.11097">
        <ele>193.030352</ele>
        <time>2023-01-03T12:12:27.166Z</time>
      </trkpt>
      <trkpt lat="43.65852" lon="1.11114">
        <ele>192.669709</ele>
        <time>2023-01-03T12:12:29.161Z</time>
      </trkpt>
      <trkpt lat="43.65848" lon="1.11131">
        <ele>192.325154</ele>
        <time>2023-01-03T12:12:31.163Z</time>
      </trkpt>
      <trkpt lat="43.65844" lon="1.11149">
        <ele>191.953086</ele>
        <time>2023-01-03T12:12:33.141Z</time>
      </trkpt>
      <trkpt lat="43.6584" lon="1.11166">
        <ele>191.623959</ele>
        <time>2023-01-03T12:12:35.154Z</time>
      </trkpt>
      <trkpt lat="43.65837" lon="1.11183">
        <ele>191.369567</ele>
        <time>2023-01-03T12:12:37.165Z</time>
      </trkpt>
      <trkpt lat="43.65834" lon="1.112">
        <ele>191.115712</ele>
        <time>2023-01-03T12:12:39.167Z</time>
      </trkpt>
      <trkpt lat="43.6583" lon="1.11217">
        <ele>190.86377</ele>
        <time>2023-01-03T12:12:41.167Z</time>
      </trkpt>
      <trkpt lat="43.65827" lon="1.11235">
        <ele>190.603975</ele>
        <time>2023-01-03T12:12:43.165Z</time>
      </trkpt>
      <trkpt lat="43.65824" lon="1.11252">
        <ele>190.339878</ele>
        <time>2023-01-03T12:12:45.166Z</time>
      </trkpt>
      <trkpt lat="43.6582" lon="1.11271">
        <ele>190.062756</ele>
        <time>2023-01-03T12:12:47.149Z</time>
      </trkpt>
      <trkpt lat="43.65817" lon="1.11289">
        <ele>189.787117</ele>
        <time>2023-01-03T12:12:49.154Z</time>
      </trkpt>
      <trkpt lat="43.65813" lon="1.11308">
        <ele>189.510862</ele>
        <time>2023-01-03T12:12:51.170Z</time>
      </trkpt>
      <trkpt lat="43.6581" lon="1.11326">
        <ele>189.244499</ele>
        <time>2023-01-03T12:12:53.156Z</time>
      </trkpt>
      <trkpt lat="43.65806" lon="1.11344">
        <ele>188.979012</ele>
        <time>2023-01-03T12:12:55.166Z</time>
      </trkpt>
      <trkpt lat="43.65803" lon="1.11361">
        <ele>188.715501</ele>
        <time>2023-01-03T12:12:57.164Z</time>
      </trkpt>
      <trkpt lat="43.65799" lon="1.11379">
        <ele>188.453641</ele>
        <time>2023-01-03T12:12:59.163Z</time>
      </trkpt>
      <trkpt lat="43.65796" lon="1.11397">
        <ele>188.183464</ele>
        <time>2023-01-03T12:13:01.169Z</time>
      </trkpt>
      <trkpt lat="43.65792" lon="1.11414">
        <ele>188.063091</ele>
        <time>2023-01-03T12:13:03.166Z</time>
      </trkpt>
      <trkpt lat="43.65789" lon="1.11431">
        <ele>187.99214</ele>
        <time>2023-01-03T12:13:05.166Z</time>
      </trkpt>
      <trkpt lat="43.65785" lon="1.11447">
        <ele>187.921824</ele>
        <time>2023-01-03T12:13:07.164Z</time>
      </trkpt>
      <trkpt lat="43.65782" lon="1.11463">
        <ele>187.850552</ele>
        <time>2023-01-03T12:13:09.168Z</time>
      </trkpt>
      <trkpt lat="43.65778" lon="1.1148">
        <ele>187.779905</ele>
        <time>2023-01-03T12:13:11.157Z</time>
      </trkpt>
      <trkpt lat="43.65774" lon="1.11495">
        <ele>187.711848</ele>
        <time>2023-01-03T12:13:13.160Z</time>
      </trkpt>
      <trkpt lat="43.65771" lon="1.11511">
        <ele>187.644301</ele>
        <time>2023-01-03T12:13:15.161Z</time>
      </trkpt>
      <trkpt lat="43.65767" lon="1.11527">
        <ele>187.572161</ele>
        <time>2023-01-03T12:13:17.152Z</time>
      </trkpt>
      <trkpt lat="43.65764" lon="1.11543">
        <ele>187.505406</ele>
        <time>2023-01-03T12:13:19.146Z</time>
      </trkpt>
      <trkpt lat="43.65759" lon="1.11558">
        <ele>187.437139</ele>
        <time>2023-01-03T12:13:21.167Z</time>
      </trkpt>
      <trkpt lat="43.65755" lon="1.11574">
        <ele>187.368486</ele>
        <time>2023-01-03T12:13:23.167Z</time>
      </trkpt>
      <trkpt lat="43.65751" lon="1.11589">
        <ele>187.302162</ele>
        <time>2023-01-03T12:13:25.150Z</time>
      </trkpt>
      <trkpt lat="43.65748" lon="1.11604">
        <ele>187.237768</ele>
        <time>2023-01-03T12:13:27.150Z</time>
      </trkpt>
      <trkpt lat="43.65744" lon="1.1162">
        <ele>187.167759</ele>
        <time>2023-01-03T12:13:29.164Z</time>
      </trkpt>
      <trkpt lat="43.6574" lon="1.11636">
        <ele>187.099588</ele>
        <time>2023-01-03T12:13:31.156Z</time>
      </trkpt>
      <trkpt lat="43.65737" lon="1.11652">
        <ele>187.062979</ele>
        <time>2023-01-03T12:13:33.161Z</time>
      </trkpt>
      <trkpt lat="43.65734" lon="1.11667">
        <ele>187.035322</ele>
        <time>2023-01-03T12:13:35.166Z</time>
      </trkpt>
      <trkpt lat="43.65731" lon="1.11681">
        <ele>187.009093</ele>
        <time>2023-01-03T12:13:37.169Z</time>
      </trkpt>
      <trkpt lat="43.65729" lon="1.11695">
        <ele>186.983032</ele>
        <time>2023-01-03T12:13:39.158Z</time>
      </trkpt>
      <trkpt lat="43.65726" lon="1.1171">
        <ele>186.955616</ele>
        <time>2023-01-03T12:13:41.155Z</time>
      </trkpt>
      <trkpt lat="43.65724" lon="1.11724">
        <ele>186.928434</ele>
        <time>2023-01-03T12:13:43.166Z</time>
      </trkpt>
      <trkpt lat="43.65721" lon="1.11739">
        <ele>186.900152</ele>
        <time>2023-01-03T12:13:45.165Z</time>
      </trkpt>
      <trkpt lat="43.65718" lon="1.11755">
        <ele>186.870872</ele>
        <time>2023-01-03T12:13:47.144Z</time>
      </trkpt>
      <trkpt lat="43.65716" lon="1.11771">
        <ele>186.841637</ele>
        <time>2023-01-03T12:13:49.146Z</time>
      </trkpt>
      <trkpt lat="43.65713" lon="1.11787">
        <ele>186.81159</ele>
        <time>2023-01-03T12:13:51.167Z</time>
      </trkpt>
      <trkpt lat="43.6571" lon="1.11803">
        <ele>186.78201</ele>
        <time>2023-01-03T12:13:53.166Z</time>
      </trkpt>
      <trkpt lat="43.65707" lon="1.11819">
        <ele>186.752026</ele>
        <time>2023-01-03T12:13:55.168Z</time>
      </trkpt>
      <trkpt lat="43.65705" lon="1.11835">
        <ele>186.722805</ele>
        <time>2023-01-03T12:13:57.163Z</time>
      </trkpt>
      <trkpt lat="43.65702" lon="1.11851">
        <ele>186.692811</ele>
        <time>2023-01-03T12:13:59.164Z</time>
      </trkpt>
      <trkpt lat="43.65698" lon="1.11867">
        <ele>186.662615</ele>
        <time>2023-01-03T12:14:01.168Z</time>
      </trkpt>
      <trkpt lat="43.65696" lon="1.11882">
        <ele>186.636464</ele>
        <time>2023-01-03T12:14:03.166Z</time>
      </trkpt>
      <trkpt lat="43.65693" lon="1.11898">
        <ele>186.620614</ele>
        <time>2023-01-03T12:14:05.170Z</time>
      </trkpt>
      <trkpt lat="43.6569" lon="1.11914">
        <ele>186.604449</ele>
        <time>2023-01-03T12:14:07.170Z</time>
      </trkpt>
      <trkpt lat="43.65687" lon="1.1193">
        <ele>186.58838</ele>
        <time>2023-01-03T12:14:09.169Z</time>
      </trkpt>
      <trkpt lat="43.65684" lon="1.11945">
        <ele>186.572399</ele>
        <time>2023-01-03T12:14:11.164Z</time>
      </trkpt>
      <trkpt lat="43.65681" lon="1.11961">
        <ele>186.556297</ele>
        <time>2023-01-03T12:14:13.167Z</time>
      </trkpt>
      <trkpt lat="43.65678" lon="1.11977">
        <ele>186.540386</ele>
        <time>2023-01-03T12:14:15.160Z</time>
      </trkpt>
      <trkpt lat="43.65675" lon="1.11992">
        <ele>186.524993</ele>
        <time>2023-01-03T12:14:17.170Z</time>
      </trkpt>
      <trkpt lat="43.65672" lon="1.12006">
        <ele>186.509942</ele>
        <time>2023-01-03T12:14:19.164Z</time>
      </trkpt>
      <trkpt lat="43.65669" lon="1.12021">
        <ele>186.494414</ele>
        <time>2023-01-03T12:14:21.164Z</time>
      </trkpt>
      <trkpt lat="43.65666" lon="1.12036">
        <ele>186.479438</ele>
        <time>2023-01-03T12:14:23.166Z</time>
      </trkpt>
      <trkpt lat="43.65662" lon="1.12051">
        <ele>186.464157</ele>
        <time>2023-01-03T12:14:25.166Z</time>
      </trkpt>
      <trkpt lat="43.65658" lon="1.12065">
        <ele>186.449002</ele>
        <time>2023-01-03T12:14:27.142Z</time>
      </trkpt>
      <trkpt lat="43.65654" lon="1.12079">
        <ele>186.434324</ele>
        <time>2023-01-03T12:14:29.163Z</time>
      </trkpt>
      <trkpt lat="43.6565" lon="1.12093">
        <ele>186.418791</ele>
        <time>2023-01-03T12:14:31.162Z</time>
      </trkpt>
      <trkpt lat="43.65646" lon="1.12106">
        <ele>186.404434</ele>
        <time>2023-01-03T12:14:33.163Z</time>
      </trkpt>
      <trkpt lat="43.65641" lon="1.1212">
        <ele>186.390836</ele>
        <time>2023-01-03T12:14:35.168Z</time>
      </trkpt>
      <trkpt lat="43.65636" lon="1.12132">
        <ele>186.380498</ele>
        <time>2023-01-03T12:14:37.142Z</time>
      </trkpt>
      <trkpt lat="43.65633" lon="1.12145">
        <ele>186.370623</ele>
        <time>2023-01-03T12:14:39.147Z</time>
      </trkpt>
      <trkpt lat="43.65631" lon="1.12159">
        <ele>186.35996</ele>
        <time>2023-01-03T12:14:41.158Z</time>
      </trkpt>
      <trkpt lat="43.65631" lon="1.12173">
        <ele>186.349341</ele>
        <time>2023-01-03T12:14:43.163Z</time>
      </trkpt>
      <trkpt lat="43.65631" lon="1.12187">
        <ele>186.338799</ele>
        <time>2023-01-03T12:14:45.137Z</time>
      </trkpt>
      <trkpt lat="43.65631" lon="1.12202">
        <ele>186.328031</ele>
        <time>2023-01-03T12:14:47.162Z</time>
      </trkpt>
      <trkpt lat="43.65632" lon="1.12216">
        <ele>186.317462</ele>
        <time>2023-01-03T12:14:49.143Z</time>
      </trkpt>
      <trkpt lat="43.65632" lon="1.1223">
        <ele>186.306981</ele>
        <time>2023-01-03T12:14:51.159Z</time>
      </trkpt>
      <trkpt lat="43.65633" lon="1.12244">
        <ele>186.296329</ele>
        <time>2023-01-03T12:14:53.166Z</time>
      </trkpt>
      <trkpt lat="43.65633" lon="1.12259">
        <ele>186.285643</ele>
        <time>2023-01-03T12:14:55.157Z</time>
      </trkpt>
      <trkpt lat="43.65633" lon="1.12273">
        <ele>186.275027</ele>
        <time>2023-01-03T12:14:57.163Z</time>
      </trkpt>
      <trkpt lat="43.65632" lon="1.12288">
        <ele>186.264014</ele>
        <time>2023-01-03T12:14:59.167Z</time>
      </trkpt>
      <trkpt lat="43.65632" lon="1.12303">
        <ele>186.253019</ele>
        <time>2023-01-03T12:15:01.170Z</time>
      </trkpt>
      <trkpt lat="43.65631" lon="1.12318">
        <ele>186.241894</ele>
        <time>2023-01-03T12:15:03.166Z</time>
      </trkpt>
      <trkpt lat="43.65629" lon="1.12332">
        <ele>186.231212</ele>
        <time>2023-01-03T12:15:05.163Z</time>
      </trkpt>
      <trkpt lat="43.65628" lon="1.12347">
        <ele>186.219876</ele>
        <time>2023-01-03T12:15:07.165Z</time>
      </trkpt>
      <trkpt lat="43.65627" lon="1.12362">
        <ele>186.206297</ele>
        <time>2023-01-03T12:15:09.172Z</time>
      </trkpt>
      <trkpt lat="43.65625" lon="1.12376">
        <ele>186.158666</ele>
        <time>2023-01-03T12:15:11.169Z</time>
      </trkpt>
      <trkpt lat="43.65624" lon="1.12391">
        <ele>186.110839</ele>
        <time>2023-01-03T12:15:13.167Z</time>
      </trkpt>
      <trkpt lat="43.65622" lon="1.12406">
        <ele>186.061957</ele>
        <time>2023-01-03T12:15:15.167Z</time>
      </trkpt>
      <trkpt lat="43.65621" lon="1.1242">
        <ele>186.014827</ele>
        <time>2023-01-03T12:15:17.171Z</time>
      </trkpt>
      <trkpt lat="43.65619" lon="1.12435">
        <ele>185.966557</ele>
        <time>2023-01-03T12:15:19.166Z</time>
      </trkpt>
      <trkpt lat="43.65617" lon="1.1245">
        <ele>185.919812</ele>
        <time>2023-01-03T12:15:21.155Z</time>
      </trkpt>
      <trkpt lat="43.65616" lon="1.12464">
        <ele>185.872945</ele>
        <time>2023-01-03T12:15:23.168Z</time>
      </trkpt>
      <trkpt lat="43.65614" lon="1.12478">
        <ele>185.827154</ele>
        <time>2023-01-03T12:15:25.161Z</time>
      </trkpt>
      <trkpt lat="43.65613" lon="1.12492">
        <ele>185.781435</ele>
        <time>2023-01-03T12:15:27.165Z</time>
      </trkpt>
      <trkpt lat="43.65611" lon="1.12506">
        <ele>185.736485</ele>
        <time>2023-01-03T12:15:29.146Z</time>
      </trkpt>
      <trkpt lat="43.65609" lon="1.1252">
        <ele>185.690538</ele>
        <time>2023-01-03T12:15:31.149Z</time>
      </trkpt>
      <trkpt lat="43.65607" lon="1.12534">
        <ele>185.644036</ele>
        <time>2023-01-03T12:15:33.167Z</time>
      </trkpt>
      <trkpt lat="43.65605" lon="1.12548">
        <ele>185.597824</ele>
        <time>2023-01-03T12:15:35.144Z</time>
      </trkpt>
      <trkpt lat="43.65603" lon="1.12563">
        <ele>185.549428</ele>
        <time>2023-01-03T12:15:37.161Z</time>
      </trkpt>
      <trkpt lat="43.656" lon="1.12577">
        <ele>185.501019</ele>
        <time>2023-01-03T12:15:39.167Z</time>
      </trkpt>
      <trkpt lat="43.65597" lon="1.12591">
        <ele>185.452295</ele>
        <time>2023-01-03T12:15:41.169Z</time>
      </trkpt>
      <trkpt lat="43.65594" lon="1.12606">
        <ele>185.398389</ele>
        <time>2023-01-03T12:15:43.146Z</time>
      </trkpt>
      <trkpt lat="43.6559" lon="1.12621">
        <ele>185.303433</ele>
        <time>2023-01-03T12:15:45.164Z</time>
      </trkpt>
      <trkpt lat="43.65587" lon="1.12635">
        <ele>185.212615</ele>
        <time>2023-01-03T12:15:47.166Z</time>
      </trkpt>
      <trkpt lat="43.65583" lon="1.12649">
        <ele>185.117221</ele>
        <time>2023-01-03T12:15:49.156Z</time>
      </trkpt>
      <trkpt lat="43.6558" lon="1.12664">
        <ele>185.021826</ele>
        <time>2023-01-03T12:15:51.164Z</time>
      </trkpt>
      <trkpt lat="43.65576" lon="1.12678">
        <ele>184.929237</ele>
        <time>2023-01-03T12:15:53.171Z</time>
      </trkpt>
      <trkpt lat="43.65573" lon="1.12692">
        <ele>184.837889</ele>
        <time>2023-01-03T12:15:55.155Z</time>
      </trkpt>
      <trkpt lat="43.65569" lon="1.12707">
        <ele>184.742163</ele>
        <time>2023-01-03T12:15:57.159Z</time>
      </trkpt>
      <trkpt lat="43.65565" lon="1.12721">
        <ele>184.649055</ele>
        <time>2023-01-03T12:15:59.168Z</time>
      </trkpt>
      <trkpt lat="43.65562" lon="1.12735">
        <ele>184.555103</ele>
        <time>2023-01-03T12:16:01.173Z</time>
      </trkpt>
      <trkpt lat="43.65557" lon="1.12749">
        <ele>184.458076</ele>
        <time>2023-01-03T12:16:03.157Z</time>
      </trkpt>
      <trkpt lat="43.65552" lon="1.12763">
        <ele>184.362987</ele>
        <time>2023-01-03T12:16:05.166Z</time>
      </trkpt>
      <trkpt lat="43.65547" lon="1.12777">
        <ele>184.269199</ele>
        <time>2023-01-03T12:16:07.170Z</time>
      </trkpt>
      <trkpt lat="43.65542" lon="1.12791">
        <ele>184.173238</ele>
        <time>2023-01-03T12:16:09.168Z</time>
      </trkpt>
      <trkpt lat="43.65537" lon="1.12804">
        <ele>184.080397</ele>
        <time>2023-01-03T12:16:11.163Z</time>
      </trkpt>
      <trkpt lat="43.65531" lon="1.12817">
        <ele>183.984138</ele>
        <time>2023-01-03T12:16:13.166Z</time>
      </trkpt>
      <trkpt lat="43.65526" lon="1.12831">
        <ele>183.888284</ele>
        <time>2023-01-03T12:16:15.165Z</time>
      </trkpt>
      <trkpt lat="43.65521" lon="1.12844">
        <ele>183.790596</ele>
        <time>2023-01-03T12:16:17.165Z</time>
      </trkpt>
      <trkpt lat="43.65516" lon="1.12857">
        <ele>183.68667</ele>
        <time>2023-01-03T12:16:19.165Z</time>
      </trkpt>
      <trkpt lat="43.6551" lon="1.12871">
        <ele>183.577433</ele>
        <time>2023-01-03T12:16:21.158Z</time>
      </trkpt>
      <trkpt lat="43.65504" lon="1.12885">
        <ele>183.468522</ele>
        <time>2023-01-03T12:16:23.164Z</time>
      </trkpt>
      <trkpt lat="43.65498" lon="1.12899">
        <ele>183.35607</ele>
        <time>2023-01-03T12:16:25.164Z</time>
      </trkpt>
      <trkpt lat="43.65492" lon="1.12913">
        <ele>183.240643</ele>
        <time>2023-01-03T12:16:27.160Z</time>
      </trkpt>
      <trkpt lat="43.65487" lon="1.12927">
        <ele>183.128074</ele>
        <time>2023-01-03T12:16:29.140Z</time>
      </trkpt>
      <trkpt lat="43.65481" lon="1.12942">
        <ele>183.013573</ele>
        <time>2023-01-03T12:16:31.164Z</time>
      </trkpt>
      <trkpt lat="43.65474" lon="1.12957">
        <ele>182.895226</ele>
        <time>2023-01-03T12:16:33.168Z</time>
      </trkpt>
      <trkpt lat="43.65468" lon="1.12971">
        <ele>182.782386</ele>
        <time>2023-01-03T12:16:35.166Z</time>
      </trkpt>
      <trkpt lat="43.65462" lon="1.12984">
        <ele>182.674077</ele>
        <time>2023-01-03T12:16:37.168Z</time>
      </trkpt>
      <trkpt lat="43.65457" lon="1.12998">
        <ele>182.566224</ele>
        <time>2023-01-03T12:16:39.167Z</time>
      </trkpt>
      <trkpt lat="43.65451" lon="1.13012">
        <ele>182.452885</ele>
        <time>2023-01-03T12:16:41.148Z</time>
      </trkpt>
      <trkpt lat="43.65445" lon="1.13026">
        <ele>182.341126</ele>
        <time>2023-01-03T12:16:43.163Z</time>
      </trkpt>
      <trkpt lat="43.65439" lon="1.1304">
        <ele>182.233782</ele>
        <time>2023-01-03T12:16:45.165Z</time>
      </trkpt>
      <trkpt lat="43.65433" lon="1.13052">
        <ele>182.171228</ele>
        <time>2023-01-03T12:16:47.166Z</time>
      </trkpt>
      <trkpt lat="43.65428" lon="1.13063">
        <ele>182.206586</ele>
        <time>2023-01-03T12:16:49.165Z</time>
      </trkpt>
      <trkpt lat="43.65422" lon="1.13075">
        <ele>182.241585</ele>
        <time>2023-01-03T12:16:51.159Z</time>
      </trkpt>
      <trkpt lat="43.65417" lon="1.13086">
        <ele>182.27518</ele>
        <time>2023-01-03T12:16:53.161Z</time>
      </trkpt>
      <trkpt lat="43.65412" lon="1.13097">
        <ele>182.309317</ele>
        <time>2023-01-03T12:16:55.170Z</time>
      </trkpt>
      <trkpt lat="43.65407" lon="1.13108">
        <ele>182.344275</ele>
        <time>2023-01-03T12:16:57.171Z</time>
      </trkpt>
      <trkpt lat="43.65401" lon="1.1312">
        <ele>182.380737</ele>
        <time>2023-01-03T12:16:59.144Z</time>
      </trkpt>
      <trkpt lat="43.65395" lon="1.13133">
        <ele>182.419427</ele>
        <time>2023-01-03T12:17:01.163Z</time>
      </trkpt>
      <trkpt lat="43.65389" lon="1.13145">
        <ele>182.457543</ele>
        <time>2023-01-03T12:17:03.163Z</time>
      </trkpt>
      <trkpt lat="43.65382" lon="1.13158">
        <ele>182.497264</ele>
        <time>2023-01-03T12:17:05.152Z</time>
      </trkpt>
      <trkpt lat="43.65376" lon="1.1317">
        <ele>182.536179</ele>
        <time>2023-01-03T12:17:07.159Z</time>
      </trkpt>
      <trkpt lat="43.6537" lon="1.13183">
        <ele>182.577164</ele>
        <time>2023-01-03T12:17:09.143Z</time>
      </trkpt>
      <trkpt lat="43.65364" lon="1.13196">
        <ele>182.615744</ele>
        <time>2023-01-03T12:17:11.168Z</time>
      </trkpt>
      <trkpt lat="43.65358" lon="1.13209">
        <ele>182.655481</ele>
        <time>2023-01-03T12:17:13.168Z</time>
      </trkpt>
      <trkpt lat="43.65351" lon="1.13222">
        <ele>182.695208</ele>
        <time>2023-01-03T12:17:15.167Z</time>
      </trkpt>
      <trkpt lat="43.65346" lon="1.13234">
        <ele>182.732894</ele>
        <time>2023-01-03T12:17:17.163Z</time>
      </trkpt>
      <trkpt lat="43.6534" lon="1.13247">
        <ele>182.772258</ele>
        <time>2023-01-03T12:17:19.165Z</time>
      </trkpt>
      <trkpt lat="43.65333" lon="1.1326">
        <ele>182.818685</ele>
        <time>2023-01-03T12:17:21.172Z</time>
      </trkpt>
      <trkpt lat="43.65328" lon="1.13271">
        <ele>182.872171</ele>
        <time>2023-01-03T12:17:23.167Z</time>
      </trkpt>
      <trkpt lat="43.65322" lon="1.13283">
        <ele>182.927584</ele>
        <time>2023-01-03T12:17:25.165Z</time>
      </trkpt>
      <trkpt lat="43.65317" lon="1.13295">
        <ele>182.979238</ele>
        <time>2023-01-03T12:17:27.164Z</time>
      </trkpt>
      <trkpt lat="43.6531" lon="1.13306">
        <ele>183.032451</ele>
        <time>2023-01-03T12:17:29.165Z</time>
      </trkpt>
      <trkpt lat="43.65305" lon="1.13315">
        <ele>183.081008</ele>
        <time>2023-01-03T12:17:31.170Z</time>
      </trkpt>
      <trkpt lat="43.65297" lon="1.13331">
        <ele>183.152279</ele>
        <time>2023-01-03T12:17:34.166Z</time>
      </trkpt>
      <trkpt lat="43.65293" lon="1.13342">
        <ele>183.200648</ele>
        <time>2023-01-03T12:17:36.143Z</time>
      </trkpt>
      <trkpt lat="43.65285" lon="1.13356">
        <ele>183.269988</ele>
        <time>2023-01-03T12:17:39.164Z</time>
      </trkpt>
      <trkpt lat="43.65278" lon="1.13371">
        <ele>183.337038</ele>
        <time>2023-01-03T12:17:42.165Z</time>
      </trkpt>
      <trkpt lat="43.65272" lon="1.13385">
        <ele>183.400149</ele>
        <time>2023-01-03T12:17:45.143Z</time>
      </trkpt>
      <trkpt lat="43.65267" lon="1.13396">
        <ele>183.448392</ele>
        <time>2023-01-03T12:17:48.144Z</time>
      </trkpt>
      <trkpt lat="43.65264" lon="1.1342">
        <ele>183.543213</ele>
        <time>2023-01-03T12:18:34.161Z</time>
      </trkpt>
      <trkpt lat="43.6526" lon="1.13436">
        <ele>183.608208</ele>
        <time>2023-01-03T12:18:38.157Z</time>
      </trkpt>
      <trkpt lat="43.65256" lon="1.13452">
        <ele>183.67085</ele>
        <time>2023-01-03T12:18:41.152Z</time>
      </trkpt>
      <trkpt lat="43.65252" lon="1.13468">
        <ele>183.735682</ele>
        <time>2023-01-03T12:18:44.173Z</time>
      </trkpt>
      <trkpt lat="43.65249" lon="1.13484">
        <ele>183.699692</ele>
        <time>2023-01-03T12:18:47.155Z</time>
      </trkpt>
      <trkpt lat="43.65244" lon="1.13501">
        <ele>183.624184</ele>
        <time>2023-01-03T12:18:50.154Z</time>
      </trkpt>
      <trkpt lat="43.65239" lon="1.13518">
        <ele>183.545069</ele>
        <time>2023-01-03T12:18:53.157Z</time>
      </trkpt>
      <trkpt lat="43.65235" lon="1.1353">
        <ele>183.489199</ele>
        <time>2023-01-03T12:18:55.153Z</time>
      </trkpt>
      <trkpt lat="43.65231" lon="1.13542">
        <ele>183.432739</ele>
        <time>2023-01-03T12:18:57.150Z</time>
      </trkpt>
      <trkpt lat="43.65227" lon="1.13555">
        <ele>183.373328</ele>
        <time>2023-01-03T12:18:59.168Z</time>
      </trkpt>
      <trkpt lat="43.65224" lon="1.13569">
        <ele>183.3089</ele>
        <time>2023-01-03T12:19:01.155Z</time>
      </trkpt>
      <trkpt lat="43.65218" lon="1.13581">
        <ele>183.246268</ele>
        <time>2023-01-03T12:19:03.170Z</time>
      </trkpt>
      <trkpt lat="43.65213" lon="1.13594">
        <ele>183.182023</ele>
        <time>2023-01-03T12:19:05.173Z</time>
      </trkpt>
      <trkpt lat="43.65208" lon="1.13606">
        <ele>183.127252</ele>
        <time>2023-01-03T12:19:07.155Z</time>
      </trkpt>
      <trkpt lat="43.65204" lon="1.13618">
        <ele>183.068915</ele>
        <time>2023-01-03T12:19:09.144Z</time>
      </trkpt>
      <trkpt lat="43.652" lon="1.13631">
        <ele>183.010478</ele>
        <time>2023-01-03T12:19:11.176Z</time>
      </trkpt>
      <trkpt lat="43.65195" lon="1.13643">
        <ele>182.952238</ele>
        <time>2023-01-03T12:19:13.155Z</time>
      </trkpt>
      <trkpt lat="43.6519" lon="1.13654">
        <ele>182.896156</ele>
        <time>2023-01-03T12:19:15.151Z</time>
      </trkpt>
      <trkpt lat="43.65185" lon="1.13665">
        <ele>182.838275</ele>
        <time>2023-01-03T12:19:17.151Z</time>
      </trkpt>
      <trkpt lat="43.6518" lon="1.13677">
        <ele>182.778208</ele>
        <time>2023-01-03T12:19:19.173Z</time>
      </trkpt>
      <trkpt lat="43.65175" lon="1.13689">
        <ele>182.721835</ele>
        <time>2023-01-03T12:19:21.161Z</time>
      </trkpt>
      <trkpt lat="43.65169" lon="1.13701">
        <ele>182.718904</ele>
        <time>2023-01-03T12:19:23.173Z</time>
      </trkpt>
      <trkpt lat="43.65165" lon="1.13713">
        <ele>182.765483</ele>
        <time>2023-01-03T12:19:25.153Z</time>
      </trkpt>
      <trkpt lat="43.6516" lon="1.13725">
        <ele>182.813694</ele>
        <time>2023-01-03T12:19:27.159Z</time>
      </trkpt>
      <trkpt lat="43.65155" lon="1.13737">
        <ele>182.864276</ele>
        <time>2023-01-03T12:19:29.174Z</time>
      </trkpt>
      <trkpt lat="43.65149" lon="1.1375">
        <ele>182.915945</ele>
        <time>2023-01-03T12:19:31.172Z</time>
      </trkpt>
      <trkpt lat="43.65144" lon="1.13762">
        <ele>182.966051</ele>
        <time>2023-01-03T12:19:33.174Z</time>
      </trkpt>
      <trkpt lat="43.65139" lon="1.13775">
        <ele>183.015095</ele>
        <time>2023-01-03T12:19:35.189Z</time>
      </trkpt>
      <trkpt lat="43.65134" lon="1.13787">
        <ele>183.065135</ele>
        <time>2023-01-03T12:19:37.175Z</time>
      </trkpt>
      <trkpt lat="43.6513" lon="1.138">
        <ele>183.114364</ele>
        <time>2023-01-03T12:19:39.162Z</time>
      </trkpt>
      <trkpt lat="43.65126" lon="1.13811">
        <ele>183.158686</ele>
        <time>2023-01-03T12:19:41.155Z</time>
      </trkpt>
      <trkpt lat="43.65123" lon="1.13824">
        <ele>183.206133</ele>
        <time>2023-01-03T12:19:43.153Z</time>
      </trkpt>
      <trkpt lat="43.65121" lon="1.13836">
        <ele>183.250496</ele>
        <time>2023-01-03T12:19:45.171Z</time>
      </trkpt>
      <trkpt lat="43.65119" lon="1.1385">
        <ele>183.298589</ele>
        <time>2023-01-03T12:19:47.155Z</time>
      </trkpt>
      <trkpt lat="43.65118" lon="1.13863">
        <ele>183.346534</ele>
        <time>2023-01-03T12:19:49.173Z</time>
      </trkpt>
      <trkpt lat="43.65117" lon="1.13877">
        <ele>183.392844</ele>
        <time>2023-01-03T12:19:51.160Z</time>
      </trkpt>
      <trkpt lat="43.65116" lon="1.13889">
        <ele>183.436506</ele>
        <time>2023-01-03T12:19:53.152Z</time>
      </trkpt>
      <trkpt lat="43.65116" lon="1.13908">
        <ele>183.502459</ele>
        <time>2023-01-03T12:19:56.167Z</time>
      </trkpt>
      <trkpt lat="43.65115" lon="1.1392">
        <ele>183.546734</ele>
        <time>2023-01-03T12:19:58.155Z</time>
      </trkpt>
      <trkpt lat="43.65115" lon="1.13937">
        <ele>183.695965</ele>
        <time>2023-01-03T12:20:01.155Z</time>
      </trkpt>
      <trkpt lat="43.65114" lon="1.13954">
        <ele>183.879216</ele>
        <time>2023-01-03T12:20:04.159Z</time>
      </trkpt>
      <trkpt lat="43.65113" lon="1.13971">
        <ele>184.058896</ele>
        <time>2023-01-03T12:20:07.146Z</time>
      </trkpt>
      <trkpt lat="43.65112" lon="1.13988">
        <ele>184.244094</ele>
        <time>2023-01-03T12:20:10.146Z</time>
      </trkpt>
      <trkpt lat="43.65111" lon="1.14005">
        <ele>184.430207</ele>
        <time>2023-01-03T12:20:13.157Z</time>
      </trkpt>
      <trkpt lat="43.65111" lon="1.14022">
        <ele>184.613143</ele>
        <time>2023-01-03T12:20:16.157Z</time>
      </trkpt>
      <trkpt lat="43.6511" lon="1.14038">
        <ele>184.792741</ele>
        <time>2023-01-03T12:20:19.147Z</time>
      </trkpt>
      <trkpt lat="43.6511" lon="1.14054">
        <ele>184.969964</ele>
        <time>2023-01-03T12:20:22.172Z</time>
      </trkpt>
      <trkpt lat="43.65111" lon="1.1407">
        <ele>185.138894</ele>
        <time>2023-01-03T12:20:25.151Z</time>
      </trkpt>
      <trkpt lat="43.65112" lon="1.14086">
        <ele>185.313614</ele>
        <time>2023-01-03T12:20:28.152Z</time>
      </trkpt>
      <trkpt lat="43.65112" lon="1.14101">
        <ele>185.481034</ele>
        <time>2023-01-03T12:20:31.153Z</time>
      </trkpt>
      <trkpt lat="43.65113" lon="1.14117">
        <ele>185.650077</ele>
        <time>2023-01-03T12:20:34.150Z</time>
      </trkpt>
      <trkpt lat="43.65114" lon="1.14132">
        <ele>185.821412</ele>
        <time>2023-01-03T12:20:37.168Z</time>
      </trkpt>
      <trkpt lat="43.65115" lon="1.14149">
        <ele>185.997881</ele>
        <time>2023-01-03T12:20:40.157Z</time>
      </trkpt>
      <trkpt lat="43.65117" lon="1.14165">
        <ele>186.181555</ele>
        <time>2023-01-03T12:20:43.143Z</time>
      </trkpt>
      <trkpt lat="43.65118" lon="1.14183">
        <ele>186.179815</ele>
        <time>2023-01-03T12:20:46.153Z</time>
      </trkpt>
      <trkpt lat="43.6512" lon="1.14201">
        <ele>186.018879</ele>
        <time>2023-01-03T12:20:49.160Z</time>
      </trkpt>
      <trkpt lat="43.65123" lon="1.14219">
        <ele>185.854008</ele>
        <time>2023-01-03T12:20:52.155Z</time>
      </trkpt>
      <trkpt lat="43.65126" lon="1.14231">
        <ele>185.736479</ele>
        <time>2023-01-03T12:20:54.151Z</time>
      </trkpt>
      <trkpt lat="43.6513" lon="1.14244">
        <ele>185.615617</ele>
        <time>2023-01-03T12:20:56.175Z</time>
      </trkpt>
      <trkpt lat="43.65135" lon="1.14256">
        <ele>185.491335</ele>
        <time>2023-01-03T12:20:58.175Z</time>
      </trkpt>
      <trkpt lat="43.6514" lon="1.14268">
        <ele>185.362521</ele>
        <time>2023-01-03T12:21:00.158Z</time>
      </trkpt>
      <trkpt lat="43.65146" lon="1.14281">
        <ele>185.233128</ele>
        <time>2023-01-03T12:21:02.170Z</time>
      </trkpt>
      <trkpt lat="43.65153" lon="1.14291">
        <ele>185.109389</ele>
        <time>2023-01-03T12:21:04.174Z</time>
      </trkpt>
      <trkpt lat="43.65159" lon="1.14303">
        <ele>184.98004</ele>
        <time>2023-01-03T12:21:06.173Z</time>
      </trkpt>
      <trkpt lat="43.65166" lon="1.14314">
        <ele>184.852589</ele>
        <time>2023-01-03T12:21:08.170Z</time>
      </trkpt>
      <trkpt lat="43.65172" lon="1.14325">
        <ele>184.734813</ele>
        <time>2023-01-03T12:21:10.172Z</time>
      </trkpt>
      <trkpt lat="43.65178" lon="1.14337">
        <ele>184.600406</ele>
        <time>2023-01-03T12:21:12.158Z</time>
      </trkpt>
      <trkpt lat="43.65185" lon="1.14348">
        <ele>184.468149</ele>
        <time>2023-01-03T12:21:14.171Z</time>
      </trkpt>
      <trkpt lat="43.65192" lon="1.1436">
        <ele>184.331072</ele>
        <time>2023-01-03T12:21:16.179Z</time>
      </trkpt>
      <trkpt lat="43.652" lon="1.14372">
        <ele>184.189281</ele>
        <time>2023-01-03T12:21:18.167Z</time>
      </trkpt>
      <trkpt lat="43.65207" lon="1.14385">
        <ele>184.042429</ele>
        <time>2023-01-03T12:21:20.175Z</time>
      </trkpt>
      <trkpt lat="43.65214" lon="1.14396">
        <ele>183.850237</ele>
        <time>2023-01-03T12:21:22.152Z</time>
      </trkpt>
      <trkpt lat="43.65221" lon="1.14408">
        <ele>183.655529</ele>
        <time>2023-01-03T12:21:24.178Z</time>
      </trkpt>
      <trkpt lat="43.65229" lon="1.1442">
        <ele>183.457594</ele>
        <time>2023-01-03T12:21:26.150Z</time>
      </trkpt>
      <trkpt lat="43.65236" lon="1.14432">
        <ele>183.258836</ele>
        <time>2023-01-03T12:21:28.177Z</time>
      </trkpt>
      <trkpt lat="43.65243" lon="1.14443">
        <ele>183.060723</ele>
        <time>2023-01-03T12:21:30.174Z</time>
      </trkpt>
      <trkpt lat="43.65251" lon="1.14455">
        <ele>182.858327</ele>
        <time>2023-01-03T12:21:32.165Z</time>
      </trkpt>
      <trkpt lat="43.65259" lon="1.14467">
        <ele>182.65622</ele>
        <time>2023-01-03T12:21:34.173Z</time>
      </trkpt>
      <trkpt lat="43.65267" lon="1.14478">
        <ele>182.458108</ele>
        <time>2023-01-03T12:21:36.176Z</time>
      </trkpt>
      <trkpt lat="43.65273" lon="1.14491">
        <ele>182.262726</ele>
        <time>2023-01-03T12:21:38.176Z</time>
      </trkpt>
      <trkpt lat="43.6528" lon="1.14504">
        <ele>182.050829</ele>
        <time>2023-01-03T12:21:40.173Z</time>
      </trkpt>
      <trkpt lat="43.65285" lon="1.14519">
        <ele>181.841323</ele>
        <time>2023-01-03T12:21:42.174Z</time>
      </trkpt>
      <trkpt lat="43.65288" lon="1.14535">
        <ele>181.637409</ele>
        <time>2023-01-03T12:21:44.154Z</time>
      </trkpt>
      <trkpt lat="43.6529" lon="1.14551">
        <ele>181.431233</ele>
        <time>2023-01-03T12:21:46.149Z</time>
      </trkpt>
      <trkpt lat="43.6529" lon="1.14567">
        <ele>181.22187</ele>
        <time>2023-01-03T12:21:48.174Z</time>
      </trkpt>
      <trkpt lat="43.6529" lon="1.14584">
        <ele>181.013688</ele>
        <time>2023-01-03T12:21:50.165Z</time>
      </trkpt>
      <trkpt lat="43.6529" lon="1.146">
        <ele>180.885441</ele>
        <time>2023-01-03T12:21:52.155Z</time>
      </trkpt>
      <trkpt lat="43.65289" lon="1.14616">
        <ele>180.836062</ele>
        <time>2023-01-03T12:21:54.175Z</time>
      </trkpt>
      <trkpt lat="43.6529" lon="1.14632">
        <ele>180.788204</ele>
        <time>2023-01-03T12:21:56.166Z</time>
      </trkpt>
      <trkpt lat="43.65291" lon="1.14647">
        <ele>180.739562</ele>
        <time>2023-01-03T12:21:58.153Z</time>
      </trkpt>
      <trkpt lat="43.65292" lon="1.14663">
        <ele>180.692998</ele>
        <time>2023-01-03T12:22:00.175Z</time>
      </trkpt>
      <trkpt lat="43.65293" lon="1.14677">
        <ele>180.64833</ele>
        <time>2023-01-03T12:22:02.169Z</time>
      </trkpt>
      <trkpt lat="43.65295" lon="1.14692">
        <ele>180.602394</ele>
        <time>2023-01-03T12:22:04.165Z</time>
      </trkpt>
      <trkpt lat="43.65298" lon="1.14706">
        <ele>180.559467</ele>
        <time>2023-01-03T12:22:06.176Z</time>
      </trkpt>
      <trkpt lat="43.65299" lon="1.14719">
        <ele>180.517437</ele>
        <time>2023-01-03T12:22:08.156Z</time>
      </trkpt>
      <trkpt lat="43.65302" lon="1.14736">
        <ele>180.465136</ele>
        <time>2023-01-03T12:22:11.151Z</time>
      </trkpt>
      <trkpt lat="43.65305" lon="1.14751">
        <ele>180.417075</ele>
        <time>2023-01-03T12:22:14.165Z</time>
      </trkpt>
      <trkpt lat="43.65308" lon="1.14766">
        <ele>180.369206</ele>
        <time>2023-01-03T12:22:17.150Z</time>
      </trkpt>
      <trkpt lat="43.65313" lon="1.14779">
        <ele>180.324567</ele>
        <time>2023-01-03T12:22:20.174Z</time>
      </trkpt>
      <trkpt lat="43.6532" lon="1.14789">
        <ele>180.28267</ele>
        <time>2023-01-03T12:22:23.165Z</time>
      </trkpt>
      <trkpt lat="43.65328" lon="1.14799">
        <ele>180.238807</ele>
        <time>2023-01-03T12:22:26.152Z</time>
      </trkpt>
      <trkpt lat="43.65335" lon="1.1481">
        <ele>180.192674</ele>
        <time>2023-01-03T12:22:29.150Z</time>
      </trkpt>
      <trkpt lat="43.65343" lon="1.14822">
        <ele>180.138266</ele>
        <time>2023-01-03T12:22:32.151Z</time>
      </trkpt>
      <trkpt lat="43.6535" lon="1.14834">
        <ele>180.035152</ele>
        <time>2023-01-03T12:22:35.175Z</time>
      </trkpt>
      <trkpt lat="43.65356" lon="1.14847">
        <ele>179.930549</ele>
        <time>2023-01-03T12:22:38.165Z</time>
      </trkpt>
      <trkpt lat="43.65364" lon="1.14861">
        <ele>179.822772</ele>
        <time>2023-01-03T12:22:41.155Z</time>
      </trkpt>
      <trkpt lat="43.6537" lon="1.14874">
        <ele>179.71551</ele>
        <time>2023-01-03T12:22:44.154Z</time>
      </trkpt>
      <trkpt lat="43.65376" lon="1.14889">
        <ele>179.604317</ele>
        <time>2023-01-03T12:22:47.147Z</time>
      </trkpt>
      <trkpt lat="43.65381" lon="1.14901">
        <ele>179.516997</ele>
        <time>2023-01-03T12:22:49.152Z</time>
      </trkpt>
      <trkpt lat="43.65384" lon="1.14913">
        <ele>179.431082</ele>
        <time>2023-01-03T12:22:51.158Z</time>
      </trkpt>
      <trkpt lat="43.65387" lon="1.14927">
        <ele>179.340239</ele>
        <time>2023-01-03T12:22:53.161Z</time>
      </trkpt>
      <trkpt lat="43.6539" lon="1.1494">
        <ele>179.248504</ele>
        <time>2023-01-03T12:22:55.171Z</time>
      </trkpt>
      <trkpt lat="43.65393" lon="1.14954">
        <ele>179.152574</ele>
        <time>2023-01-03T12:22:57.175Z</time>
      </trkpt>
      <trkpt lat="43.65395" lon="1.14968">
        <ele>179.059587</ele>
        <time>2023-01-03T12:22:59.173Z</time>
      </trkpt>
      <trkpt lat="43.65398" lon="1.14981">
        <ele>178.969752</ele>
        <time>2023-01-03T12:23:01.172Z</time>
      </trkpt>
      <trkpt lat="43.65401" lon="1.14995">
        <ele>178.87704</ele>
        <time>2023-01-03T12:23:03.173Z</time>
      </trkpt>
      <trkpt lat="43.65404" lon="1.15009">
        <ele>178.782377</ele>
        <time>2023-01-03T12:23:05.173Z</time>
      </trkpt>
      <trkpt lat="43.65407" lon="1.15024">
        <ele>178.684037</ele>
        <time>2023-01-03T12:23:07.174Z</time>
      </trkpt>
      <trkpt lat="43.6541" lon="1.15038">
        <ele>178.583568</ele>
        <time>2023-01-03T12:23:09.171Z</time>
      </trkpt>
      <trkpt lat="43.65413" lon="1.15053">
        <ele>178.538448</ele>
        <time>2023-01-03T12:23:11.155Z</time>
      </trkpt>
      <trkpt lat="43.65416" lon="1.15067">
        <ele>178.557509</ele>
        <time>2023-01-03T12:23:13.152Z</time>
      </trkpt>
      <trkpt lat="43.65419" lon="1.15082">
        <ele>178.576744</ele>
        <time>2023-01-03T12:23:15.171Z</time>
      </trkpt>
      <trkpt lat="43.65422" lon="1.15096">
        <ele>178.595009</ele>
        <time>2023-01-03T12:23:17.161Z</time>
      </trkpt>
      <trkpt lat="43.65426" lon="1.1511">
        <ele>178.614305</ele>
        <time>2023-01-03T12:23:19.162Z</time>
      </trkpt>
      <trkpt lat="43.6543" lon="1.15124">
        <ele>178.632894</ele>
        <time>2023-01-03T12:23:21.171Z</time>
      </trkpt>
      <trkpt lat="43.65434" lon="1.15138">
        <ele>178.651716</ele>
        <time>2023-01-03T12:23:23.149Z</time>
      </trkpt>
      <trkpt lat="43.65439" lon="1.15152">
        <ele>178.670581</ele>
        <time>2023-01-03T12:23:25.153Z</time>
      </trkpt>
      <trkpt lat="43.65444" lon="1.15165">
        <ele>178.689554</ele>
        <time>2023-01-03T12:23:27.175Z</time>
      </trkpt>
      <trkpt lat="43.65449" lon="1.15179">
        <ele>178.708742</ele>
        <time>2023-01-03T12:23:29.172Z</time>
      </trkpt>
      <trkpt lat="43.65455" lon="1.15192">
        <ele>178.727651</ele>
        <time>2023-01-03T12:23:31.175Z</time>
      </trkpt>
      <trkpt lat="43.65461" lon="1.15204">
        <ele>178.746008</ele>
        <time>2023-01-03T12:23:33.176Z</time>
      </trkpt>
      <trkpt lat="43.65466" lon="1.15216">
        <ele>178.764375</ele>
        <time>2023-01-03T12:23:35.169Z</time>
      </trkpt>
      <trkpt lat="43.65472" lon="1.15227">
        <ele>178.781015</ele>
        <time>2023-01-03T12:23:37.153Z</time>
      </trkpt>
      <trkpt lat="43.65478" lon="1.15237">
        <ele>178.796725</ele>
        <time>2023-01-03T12:23:39.173Z</time>
      </trkpt>
      <trkpt lat="43.65484" lon="1.15247">
        <ele>178.813088</ele>
        <time>2023-01-03T12:23:43.155Z</time>
      </trkpt>
      <trkpt lat="43.65496" lon="1.15265">
        <ele>178.835178</ele>
        <time>2023-01-03T12:24:28.164Z</time>
      </trkpt>
      <trkpt lat="43.65503" lon="1.15277">
        <ele>178.794495</ele>
        <time>2023-01-03T12:24:31.165Z</time>
      </trkpt>
      <trkpt lat="43.65511" lon="1.15291">
        <ele>178.748313</ele>
        <time>2023-01-03T12:24:34.163Z</time>
      </trkpt>
      <trkpt lat="43.65519" lon="1.15305">
        <ele>178.700405</ele>
        <time>2023-01-03T12:24:37.163Z</time>
      </trkpt>
      <trkpt lat="43.65525" lon="1.15316">
        <ele>178.664447</ele>
        <time>2023-01-03T12:24:39.164Z</time>
      </trkpt>
      <trkpt lat="43.65531" lon="1.15327">
        <ele>178.628939</ele>
        <time>2023-01-03T12:24:41.160Z</time>
      </trkpt>
      <trkpt lat="43.65537" lon="1.15337">
        <ele>178.593188</ele>
        <time>2023-01-03T12:24:43.144Z</time>
      </trkpt>
      <trkpt lat="43.65543" lon="1.15348">
        <ele>178.557643</ele>
        <time>2023-01-03T12:24:45.151Z</time>
      </trkpt>
      <trkpt lat="43.65549" lon="1.15359">
        <ele>178.520852</ele>
        <time>2023-01-03T12:24:47.144Z</time>
      </trkpt>
      <trkpt lat="43.65555" lon="1.1537">
        <ele>178.48469</ele>
        <time>2023-01-03T12:24:49.145Z</time>
      </trkpt>
      <trkpt lat="43.65561" lon="1.15382">
        <ele>178.447905</ele>
        <time>2023-01-03T12:24:51.164Z</time>
      </trkpt>
      <trkpt lat="43.65567" lon="1.15394">
        <ele>178.409633</ele>
        <time>2023-01-03T12:24:53.167Z</time>
      </trkpt>
      <trkpt lat="43.65573" lon="1.15405">
        <ele>178.372421</ele>
        <time>2023-01-03T12:24:55.154Z</time>
      </trkpt>
      <trkpt lat="43.65579" lon="1.15417">
        <ele>178.335199</ele>
        <time>2023-01-03T12:24:57.164Z</time>
      </trkpt>
      <trkpt lat="43.65585" lon="1.15428">
        <ele>178.297331</ele>
        <time>2023-01-03T12:24:59.163Z</time>
      </trkpt>
      <trkpt lat="43.65592" lon="1.1544">
        <ele>178.259475</ele>
        <time>2023-01-03T12:25:01.165Z</time>
      </trkpt>
      <trkpt lat="43.65598" lon="1.15451">
        <ele>178.221628</ele>
        <time>2023-01-03T12:25:03.164Z</time>
      </trkpt>
      <trkpt lat="43.65604" lon="1.15464">
        <ele>178.193617</ele>
        <time>2023-01-03T12:25:05.164Z</time>
      </trkpt>
      <trkpt lat="43.65611" lon="1.15475">
        <ele>178.220841</ele>
        <time>2023-01-03T12:25:07.164Z</time>
      </trkpt>
      <trkpt lat="43.65617" lon="1.15488">
        <ele>178.249116</ele>
        <time>2023-01-03T12:25:09.167Z</time>
      </trkpt>
      <trkpt lat="43.65623" lon="1.15501">
        <ele>178.27741</ele>
        <time>2023-01-03T12:25:11.167Z</time>
      </trkpt>
      <trkpt lat="43.65629" lon="1.15513">
        <ele>178.30523</ele>
        <time>2023-01-03T12:25:13.164Z</time>
      </trkpt>
      <trkpt lat="43.65635" lon="1.15525">
        <ele>178.332304</ele>
        <time>2023-01-03T12:25:15.165Z</time>
      </trkpt>
      <trkpt lat="43.65642" lon="1.15536">
        <ele>178.358782</ele>
        <time>2023-01-03T12:25:17.156Z</time>
      </trkpt>
      <trkpt lat="43.65648" lon="1.15548">
        <ele>178.386903</ele>
        <time>2023-01-03T12:25:19.163Z</time>
      </trkpt>
      <trkpt lat="43.65654" lon="1.1556">
        <ele>178.414123</ele>
        <time>2023-01-03T12:25:21.175Z</time>
      </trkpt>
      <trkpt lat="43.6566" lon="1.15571">
        <ele>178.439539</ele>
        <time>2023-01-03T12:25:23.158Z</time>
      </trkpt>
      <trkpt lat="43.65665" lon="1.15582">
        <ele>178.463309</ele>
        <time>2023-01-03T12:25:25.168Z</time>
      </trkpt>
      <trkpt lat="43.6567" lon="1.15592">
        <ele>178.486628</ele>
        <time>2023-01-03T12:25:27.164Z</time>
      </trkpt>
      <trkpt lat="43.65676" lon="1.15603">
        <ele>178.510237</ele>
        <time>2023-01-03T12:25:29.166Z</time>
      </trkpt>
      <trkpt lat="43.65681" lon="1.15613">
        <ele>178.534151</ele>
        <time>2023-01-03T12:25:31.166Z</time>
      </trkpt>
      <trkpt lat="43.65687" lon="1.15624">
        <ele>178.559264</ele>
        <time>2023-01-03T12:25:33.153Z</time>
      </trkpt>
      <trkpt lat="43.65693" lon="1.15635">
        <ele>178.585129</ele>
        <time>2023-01-03T12:25:35.172Z</time>
      </trkpt>
      <trkpt lat="43.65699" lon="1.15647">
        <ele>178.61176</ele>
        <time>2023-01-03T12:25:37.149Z</time>
      </trkpt>
      <trkpt lat="43.65705" lon="1.15659">
        <ele>178.639885</ele>
        <time>2023-01-03T12:25:39.166Z</time>
      </trkpt>
      <trkpt lat="43.65713" lon="1.15671">
        <ele>178.665682</ele>
        <time>2023-01-03T12:25:41.172Z</time>
      </trkpt>
      <trkpt lat="43.6572" lon="1.15683">
        <ele>178.690344</ele>
        <time>2023-01-03T12:25:43.169Z</time>
      </trkpt>
      <trkpt lat="43.65727" lon="1.15694">
        <ele>178.714749</ele>
        <time>2023-01-03T12:25:45.166Z</time>
      </trkpt>
      <trkpt lat="43.65735" lon="1.15705">
        <ele>178.739121</ele>
        <time>2023-01-03T12:25:47.169Z</time>
      </trkpt>
      <trkpt lat="43.65743" lon="1.15715">
        <ele>178.763877</ele>
        <time>2023-01-03T12:25:49.147Z</time>
      </trkpt>
      <trkpt lat="43.65752" lon="1.15724">
        <ele>178.787982</ele>
        <time>2023-01-03T12:25:51.168Z</time>
      </trkpt>
      <trkpt lat="43.6576" lon="1.15734">
        <ele>178.812981</ele>
        <time>2023-01-03T12:25:53.168Z</time>
      </trkpt>
      <trkpt lat="43.65769" lon="1.15743">
        <ele>178.837488</ele>
        <time>2023-01-03T12:25:55.158Z</time>
      </trkpt>
      <trkpt lat="43.65778" lon="1.15752">
        <ele>178.862268</ele>
        <time>2023-01-03T12:25:57.166Z</time>
      </trkpt>
      <trkpt lat="43.65787" lon="1.15762">
        <ele>178.886445</ele>
        <time>2023-01-03T12:25:59.166Z</time>
      </trkpt>
      <trkpt lat="43.65795" lon="1.15772">
        <ele>178.91151</ele>
        <time>2023-01-03T12:26:01.164Z</time>
      </trkpt>
      <trkpt lat="43.65804" lon="1.15783">
        <ele>178.938187</ele>
        <time>2023-01-03T12:26:03.162Z</time>
      </trkpt>
      <trkpt lat="43.65811" lon="1.15795">
        <ele>178.963362</ele>
        <time>2023-01-03T12:26:05.168Z</time>
      </trkpt>
      <trkpt lat="43.65817" lon="1.15808">
        <ele>178.988638</ele>
        <time>2023-01-03T12:26:07.170Z</time>
      </trkpt>
      <trkpt lat="43.65823" lon="1.15821">
        <ele>179.012447</ele>
        <time>2023-01-03T12:26:09.167Z</time>
      </trkpt>
      <trkpt lat="43.65828" lon="1.15834">
        <ele>179.036845</ele>
        <time>2023-01-03T12:26:11.160Z</time>
      </trkpt>
      <trkpt lat="43.65833" lon="1.15847">
        <ele>179.03134</ele>
        <time>2023-01-03T12:26:13.165Z</time>
      </trkpt>
      <trkpt lat="43.65839" lon="1.15859">
        <ele>178.99266</ele>
        <time>2023-01-03T12:26:15.156Z</time>
      </trkpt>
      <trkpt lat="43.65843" lon="1.15873">
        <ele>178.951646</ele>
        <time>2023-01-03T12:26:17.165Z</time>
      </trkpt>
      <trkpt lat="43.65849" lon="1.15886">
        <ele>178.911596</ele>
        <time>2023-01-03T12:26:19.164Z</time>
      </trkpt>
      <trkpt lat="43.65855" lon="1.15898">
        <ele>178.871261</ele>
        <time>2023-01-03T12:26:21.166Z</time>
      </trkpt>
      <trkpt lat="43.6586" lon="1.15911">
        <ele>178.8304</ele>
        <time>2023-01-03T12:26:23.166Z</time>
      </trkpt>
      <trkpt lat="43.65866" lon="1.15924">
        <ele>178.789215</ele>
        <time>2023-01-03T12:26:25.165Z</time>
      </trkpt>
      <trkpt lat="43.65871" lon="1.15937">
        <ele>178.747678</ele>
        <time>2023-01-03T12:26:27.164Z</time>
      </trkpt>
      <trkpt lat="43.65877" lon="1.15951">
        <ele>178.704789</ele>
        <time>2023-01-03T12:26:29.162Z</time>
      </trkpt>
      <trkpt lat="43.65882" lon="1.15964">
        <ele>178.663415</ele>
        <time>2023-01-03T12:26:31.147Z</time>
      </trkpt>
      <trkpt lat="43.65888" lon="1.15978">
        <ele>178.620377</ele>
        <time>2023-01-03T12:26:33.164Z</time>
      </trkpt>
      <trkpt lat="43.65893" lon="1.15991">
        <ele>178.578705</ele>
        <time>2023-01-03T12:26:35.165Z</time>
      </trkpt>
      <trkpt lat="43.65898" lon="1.16004">
        <ele>178.537283</ele>
        <time>2023-01-03T12:26:37.163Z</time>
      </trkpt>
      <trkpt lat="43.65903" lon="1.16018">
        <ele>178.494961</ele>
        <time>2023-01-03T12:26:39.164Z</time>
      </trkpt>
      <trkpt lat="43.65909" lon="1.16032">
        <ele>178.451165</ele>
        <time>2023-01-03T12:26:41.169Z</time>
      </trkpt>
      <trkpt lat="43.65913" lon="1.16047">
        <ele>178.40711</ele>
        <time>2023-01-03T12:26:43.164Z</time>
      </trkpt>
      <trkpt lat="43.65918" lon="1.16062">
        <ele>178.380598</ele>
        <time>2023-01-03T12:26:45.168Z</time>
      </trkpt>
      <trkpt lat="43.65922" lon="1.16077">
        <ele>178.438438</ele>
        <time>2023-01-03T12:26:47.167Z</time>
      </trkpt>
      <trkpt lat="43.65926" lon="1.16092">
        <ele>178.498355</ele>
        <time>2023-01-03T12:26:49.144Z</time>
      </trkpt>
      <trkpt lat="43.6593" lon="1.16107">
        <ele>178.557931</ele>
        <time>2023-01-03T12:26:51.152Z</time>
      </trkpt>
      <trkpt lat="43.65934" lon="1.16122">
        <ele>178.616806</ele>
        <time>2023-01-03T12:26:53.166Z</time>
      </trkpt>
      <trkpt lat="43.65939" lon="1.16137">
        <ele>178.675025</ele>
        <time>2023-01-03T12:26:55.165Z</time>
      </trkpt>
      <trkpt lat="43.65943" lon="1.16152">
        <ele>178.733096</ele>
        <time>2023-01-03T12:26:57.157Z</time>
      </trkpt>
      <trkpt lat="43.65947" lon="1.16166">
        <ele>178.789625</ele>
        <time>2023-01-03T12:26:59.163Z</time>
      </trkpt>
      <trkpt lat="43.65952" lon="1.16181">
        <ele>178.846492</ele>
        <time>2023-01-03T12:27:01.166Z</time>
      </trkpt>
      <trkpt lat="43.65956" lon="1.16195">
        <ele>178.901876</ele>
        <time>2023-01-03T12:27:03.150Z</time>
      </trkpt>
      <trkpt lat="43.6596" lon="1.16209">
        <ele>178.957662</ele>
        <time>2023-01-03T12:27:05.145Z</time>
      </trkpt>
      <trkpt lat="43.65964" lon="1.16223">
        <ele>179.012245</ele>
        <time>2023-01-03T12:27:07.168Z</time>
      </trkpt>
      <trkpt lat="43.65968" lon="1.16237">
        <ele>179.067294</ele>
        <time>2023-01-03T12:27:09.164Z</time>
      </trkpt>
      <trkpt lat="43.65972" lon="1.1625">
        <ele>179.120333</ele>
        <time>2023-01-03T12:27:11.162Z</time>
      </trkpt>
      <trkpt lat="43.65976" lon="1.16264">
        <ele>179.173106</ele>
        <time>2023-01-03T12:27:13.162Z</time>
      </trkpt>
      <trkpt lat="43.6598" lon="1.16277">
        <ele>179.225879</ele>
        <time>2023-01-03T12:27:15.165Z</time>
      </trkpt>
      <trkpt lat="43.65984" lon="1.1629">
        <ele>179.277589</ele>
        <time>2023-01-03T12:27:17.160Z</time>
      </trkpt>
      <trkpt lat="43.65987" lon="1.16303">
        <ele>179.269896</ele>
        <time>2023-01-03T12:27:19.165Z</time>
      </trkpt>
      <trkpt lat="43.6599" lon="1.16317">
        <ele>179.261413</ele>
        <time>2023-01-03T12:27:21.164Z</time>
      </trkpt>
      <trkpt lat="43.65994" lon="1.16329">
        <ele>179.253512</ele>
        <time>2023-01-03T12:27:23.144Z</time>
      </trkpt>
      <trkpt lat="43.65998" lon="1.16342">
        <ele>179.245561</ele>
        <time>2023-01-03T12:27:25.169Z</time>
      </trkpt>
      <trkpt lat="43.66001" lon="1.16354">
        <ele>179.2375</ele>
        <time>2023-01-03T12:27:27.164Z</time>
      </trkpt>
      <trkpt lat="43.66005" lon="1.16367">
        <ele>179.229066</ele>
        <time>2023-01-03T12:27:29.164Z</time>
      </trkpt>
      <trkpt lat="43.66008" lon="1.1638">
        <ele>179.22092</ele>
        <time>2023-01-03T12:27:31.167Z</time>
      </trkpt>
      <trkpt lat="43.66012" lon="1.16393">
        <ele>179.212508</ele>
        <time>2023-01-03T12:27:33.164Z</time>
      </trkpt>
      <trkpt lat="43.66016" lon="1.16407">
        <ele>179.203965</ele>
        <time>2023-01-03T12:27:35.156Z</time>
      </trkpt>
      <trkpt lat="43.6602" lon="1.1642">
        <ele>179.195676</ele>
        <time>2023-01-03T12:27:37.167Z</time>
      </trkpt>
      <trkpt lat="43.66024" lon="1.16434">
        <ele>179.186447</ele>
        <time>2023-01-03T12:27:39.162Z</time>
      </trkpt>
      <trkpt lat="43.66029" lon="1.16448">
        <ele>179.177614</ele>
        <time>2023-01-03T12:27:41.167Z</time>
      </trkpt>
      <trkpt lat="43.66033" lon="1.16461">
        <ele>179.16882</ele>
        <time>2023-01-03T12:27:43.169Z</time>
      </trkpt>
      <trkpt lat="43.66037" lon="1.16475">
        <ele>179.160125</ele>
        <time>2023-01-03T12:27:45.167Z</time>
      </trkpt>
      <trkpt lat="43.66042" lon="1.16488">
        <ele>179.151202</ele>
        <time>2023-01-03T12:27:47.168Z</time>
      </trkpt>
      <trkpt lat="43.66047" lon="1.16502">
        <ele>179.141851</ele>
        <time>2023-01-03T12:27:49.164Z</time>
      </trkpt>
      <trkpt lat="43.66052" lon="1.16516">
        <ele>179.132822</ele>
        <time>2023-01-03T12:27:51.168Z</time>
      </trkpt>
      <trkpt lat="43.66057" lon="1.16529">
        <ele>179.168239</ele>
        <time>2023-01-03T12:27:53.165Z</time>
      </trkpt>
      <trkpt lat="43.66063" lon="1.16542">
        <ele>179.218243</ele>
        <time>2023-01-03T12:27:55.152Z</time>
      </trkpt>
      <trkpt lat="43.66068" lon="1.16555">
        <ele>179.267829</ele>
        <time>2023-01-03T12:27:57.164Z</time>
      </trkpt>
      <trkpt lat="43.66073" lon="1.16567">
        <ele>179.313882</ele>
        <time>2023-01-03T12:27:59.145Z</time>
      </trkpt>
      <trkpt lat="43.66078" lon="1.16579">
        <ele>179.360286</ele>
        <time>2023-01-03T12:28:01.175Z</time>
      </trkpt>
      <trkpt lat="43.66083" lon="1.16591">
        <ele>179.407295</ele>
        <time>2023-01-03T12:28:03.167Z</time>
      </trkpt>
      <trkpt lat="43.66089" lon="1.16602">
        <ele>179.453208</ele>
        <time>2023-01-03T12:28:05.161Z</time>
      </trkpt>
      <trkpt lat="43.66094" lon="1.16614">
        <ele>179.498348</ele>
        <time>2023-01-03T12:28:07.164Z</time>
      </trkpt>
      <trkpt lat="43.66099" lon="1.16625">
        <ele>179.542282</ele>
        <time>2023-01-03T12:28:09.163Z</time>
      </trkpt>
      <trkpt lat="43.66104" lon="1.16636">
        <ele>179.586569</ele>
        <time>2023-01-03T12:28:11.166Z</time>
      </trkpt>
      <trkpt lat="43.66109" lon="1.16647">
        <ele>179.630944</ele>
        <time>2023-01-03T12:28:13.150Z</time>
      </trkpt>
      <trkpt lat="43.66114" lon="1.16658">
        <ele>179.674616</ele>
        <time>2023-01-03T12:28:15.168Z</time>
      </trkpt>
      <trkpt lat="43.66119" lon="1.16668">
        <ele>179.716404</ele>
        <time>2023-01-03T12:28:17.148Z</time>
      </trkpt>
      <trkpt lat="43.66124" lon="1.16679">
        <ele>179.757969</ele>
        <time>2023-01-03T12:28:19.169Z</time>
      </trkpt>
      <trkpt lat="43.66129" lon="1.1669">
        <ele>179.800065</ele>
        <time>2023-01-03T12:28:21.165Z</time>
      </trkpt>
      <trkpt lat="43.66137" lon="1.16704">
        <ele>179.860897</ele>
        <time>2023-01-03T12:28:24.150Z</time>
      </trkpt>
      <trkpt lat="43.66144" lon="1.16718">
        <ele>179.920045</ele>
        <time>2023-01-03T12:28:27.160Z</time>
      </trkpt>
      <trkpt lat="43.66153" lon="1.16732">
        <ele>179.963364</ele>
        <time>2023-01-03T12:28:30.167Z</time>
      </trkpt>
      <trkpt lat="43.66162" lon="1.16745">
        <ele>179.965896</ele>
        <time>2023-01-03T12:28:33.165Z</time>
      </trkpt>
      <trkpt lat="43.6617" lon="1.16757">
        <ele>179.968374</ele>
        <time>2023-01-03T12:28:36.150Z</time>
      </trkpt>
      <trkpt lat="43.6618" lon="1.16767">
        <ele>179.970772</ele>
        <time>2023-01-03T12:28:39.164Z</time>
      </trkpt>
      <trkpt lat="43.66188" lon="1.16776">
        <ele>179.972885</ele>
        <time>2023-01-03T12:28:42.169Z</time>
      </trkpt>
      <trkpt lat="43.66196" lon="1.16786">
        <ele>179.97499</ele>
        <time>2023-01-03T12:28:45.167Z</time>
      </trkpt>
      <trkpt lat="43.66204" lon="1.16797">
        <ele>179.977216</ele>
        <time>2023-01-03T12:28:48.167Z</time>
      </trkpt>
      <trkpt lat="43.66211" lon="1.1681">
        <ele>179.979476</ele>
        <time>2023-01-03T12:28:51.169Z</time>
      </trkpt>
      <trkpt lat="43.66216" lon="1.16823">
        <ele>179.98164</ele>
        <time>2023-01-03T12:28:54.167Z</time>
      </trkpt>
      <trkpt lat="43.6622" lon="1.16838">
        <ele>179.983941</ele>
        <time>2023-01-03T12:28:57.165Z</time>
      </trkpt>
      <trkpt lat="43.66224" lon="1.16854">
        <ele>179.986321</ele>
        <time>2023-01-03T12:29:00.166Z</time>
      </trkpt>
      <trkpt lat="43.66228" lon="1.1687">
        <ele>179.988783</ele>
        <time>2023-01-03T12:29:03.171Z</time>
      </trkpt>
      <trkpt lat="43.66232" lon="1.16886">
        <ele>179.991191</ele>
        <time>2023-01-03T12:29:06.169Z</time>
      </trkpt>
      <trkpt lat="43.66234" lon="1.16902">
        <ele>179.993607</ele>
        <time>2023-01-03T12:29:09.165Z</time>
      </trkpt>
      <trkpt lat="43.66238" lon="1.16919">
        <ele>179.996155</ele>
        <time>2023-01-03T12:29:12.164Z</time>
      </trkpt>
      <trkpt lat="43.66239" lon="1.16932">
        <ele>179.998012</ele>
        <time>2023-01-03T12:29:14.168Z</time>
      </trkpt>
      <trkpt lat="43.66241" lon="1.16945">
        <ele>179.925619</ele>
        <time>2023-01-03T12:29:16.165Z</time>
      </trkpt>
      <trkpt lat="43.66243" lon="1.16958">
        <ele>179.83693</ele>
        <time>2023-01-03T12:29:18.150Z</time>
      </trkpt>
      <trkpt lat="43.66246" lon="1.16972">
        <ele>179.739361</ele>
        <time>2023-01-03T12:29:20.167Z</time>
      </trkpt>
      <trkpt lat="43.66249" lon="1.16986">
        <ele>179.646287</ele>
        <time>2023-01-03T12:29:22.170Z</time>
      </trkpt>
      <trkpt lat="43.66252" lon="1.17">
        <ele>179.547397</ele>
        <time>2023-01-03T12:29:24.165Z</time>
      </trkpt>
      <trkpt lat="43.66256" lon="1.17013">
        <ele>179.450747</ele>
        <time>2023-01-03T12:29:26.168Z</time>
      </trkpt>
      <trkpt lat="43.6626" lon="1.17027">
        <ele>179.350565</ele>
        <time>2023-01-03T12:29:28.166Z</time>
      </trkpt>
      <trkpt lat="43.66265" lon="1.17041">
        <ele>179.246977</ele>
        <time>2023-01-03T12:29:30.165Z</time>
      </trkpt>
      <trkpt lat="43.6627" lon="1.17055">
        <ele>179.140587</ele>
        <time>2023-01-03T12:29:32.164Z</time>
      </trkpt>
      <trkpt lat="43.66275" lon="1.1707">
        <ele>179.032399</ele>
        <time>2023-01-03T12:29:34.164Z</time>
      </trkpt>
      <trkpt lat="43.66281" lon="1.17084">
        <ele>178.925348</ele>
        <time>2023-01-03T12:29:36.168Z</time>
      </trkpt>
      <trkpt lat="43.66286" lon="1.17098">
        <ele>178.822109</ele>
        <time>2023-01-03T12:29:38.144Z</time>
      </trkpt>
      <trkpt lat="43.6629" lon="1.17112">
        <ele>178.718881</ele>
        <time>2023-01-03T12:29:40.168Z</time>
      </trkpt>
      <trkpt lat="43.66294" lon="1.17125">
        <ele>178.625994</ele>
        <time>2023-01-03T12:29:42.165Z</time>
      </trkpt>
      <trkpt lat="43.66297" lon="1.17137">
        <ele>178.539377</ele>
        <time>2023-01-03T12:29:44.162Z</time>
      </trkpt>
      <trkpt lat="43.66301" lon="1.17155">
        <ele>178.417942</ele>
        <time>2023-01-03T12:29:47.166Z</time>
      </trkpt>
      <trkpt lat="43.66304" lon="1.17166">
        <ele>178.347029</ele>
        <time>2023-01-03T12:29:49.164Z</time>
      </trkpt>
      <trkpt lat="43.6631" lon="1.17183">
        <ele>178.511734</ele>
        <time>2023-01-03T12:29:52.168Z</time>
      </trkpt>
      <trkpt lat="43.66315" lon="1.172">
        <ele>178.678897</ele>
        <time>2023-01-03T12:29:55.165Z</time>
      </trkpt>
      <trkpt lat="43.6632" lon="1.1721">
        <ele>178.791379</ele>
        <time>2023-01-03T12:29:57.157Z</time>
      </trkpt>
      <trkpt lat="43.66325" lon="1.17222">
        <ele>178.910437</ele>
        <time>2023-01-03T12:29:59.166Z</time>
      </trkpt>
      <trkpt lat="43.6633" lon="1.17233">
        <ele>179.030271</ele>
        <time>2023-01-03T12:30:01.169Z</time>
      </trkpt>
      <trkpt lat="43.66335" lon="1.17244">
        <ele>179.149976</ele>
        <time>2023-01-03T12:30:03.169Z</time>
      </trkpt>
      <trkpt lat="43.6634" lon="1.17256">
        <ele>179.270921</ele>
        <time>2023-01-03T12:30:05.160Z</time>
      </trkpt>
      <trkpt lat="43.66346" lon="1.17266">
        <ele>179.390278</ele>
        <time>2023-01-03T12:30:07.166Z</time>
      </trkpt>
      <trkpt lat="43.66351" lon="1.17277">
        <ele>179.503784</ele>
        <time>2023-01-03T12:30:09.154Z</time>
      </trkpt>
      <trkpt lat="43.66359" lon="1.17291">
        <ele>179.663435</ele>
        <time>2023-01-03T12:30:12.164Z</time>
      </trkpt>
      <trkpt lat="43.66367" lon="1.17304">
        <ele>179.822462</ele>
        <time>2023-01-03T12:30:15.165Z</time>
      </trkpt>
      <trkpt lat="43.66375" lon="1.17317">
        <ele>179.981658</ele>
        <time>2023-01-03T12:30:18.165Z</time>
      </trkpt>
      <trkpt lat="43.66384" lon="1.17331">
        <ele>180.141764</ele>
        <time>2023-01-03T12:30:21.162Z</time>
      </trkpt>
      <trkpt lat="43.66392" lon="1.17344">
        <ele>180.299569</ele>
        <time>2023-01-03T12:30:24.152Z</time>
      </trkpt>
      <trkpt lat="43.66401" lon="1.17358">
        <ele>180.463297</ele>
        <time>2023-01-03T12:30:27.164Z</time>
      </trkpt>
      <trkpt lat="43.66409" lon="1.17371">
        <ele>180.607278</ele>
        <time>2023-01-03T12:30:30.167Z</time>
      </trkpt>
      <trkpt lat="43.66416" lon="1.17383">
        <ele>180.692024</ele>
        <time>2023-01-03T12:30:33.165Z</time>
      </trkpt>
      <trkpt lat="43.66423" lon="1.17395">
        <ele>180.782154</ele>
        <time>2023-01-03T12:30:36.168Z</time>
      </trkpt>
      <trkpt lat="43.6643" lon="1.1741">
        <ele>180.87601</ele>
        <time>2023-01-03T12:30:39.166Z</time>
      </trkpt>
      <trkpt lat="43.66436" lon="1.17424">
        <ele>180.971688</ele>
        <time>2023-01-03T12:30:42.165Z</time>
      </trkpt>
      <trkpt lat="43.66443" lon="1.1744">
        <ele>181.07101</ele>
        <time>2023-01-03T12:30:45.167Z</time>
      </trkpt>
      <trkpt lat="43.66449" lon="1.17455">
        <ele>181.170958</ele>
        <time>2023-01-03T12:30:48.170Z</time>
      </trkpt>
      <trkpt lat="43.66455" lon="1.17472">
        <ele>181.270501</ele>
        <time>2023-01-03T12:30:51.165Z</time>
      </trkpt>
      <trkpt lat="43.6646" lon="1.17487">
        <ele>181.369738</ele>
        <time>2023-01-03T12:30:54.168Z</time>
      </trkpt>
      <trkpt lat="43.66465" lon="1.17502">
        <ele>181.460953</ele>
        <time>2023-01-03T12:30:57.165Z</time>
      </trkpt>
      <trkpt lat="43.66469" lon="1.17515">
        <ele>181.53625</ele>
        <time>2023-01-03T12:31:00.152Z</time>
      </trkpt>
      <trkpt lat="43.66474" lon="1.17526">
        <ele>181.609227</ele>
        <time>2023-01-03T12:31:03.168Z</time>
      </trkpt>
      <trkpt lat="43.66478" lon="1.1754">
        <ele>181.69237</ele>
        <time>2023-01-03T12:31:06.164Z</time>
      </trkpt>
      <trkpt lat="43.66483" lon="1.17556">
        <ele>181.787633</ele>
        <time>2023-01-03T12:31:09.168Z</time>
      </trkpt>
      <trkpt lat="43.66487" lon="1.17567">
        <ele>181.858669</ele>
        <time>2023-01-03T12:31:11.169Z</time>
      </trkpt>
      <trkpt lat="43.66491" lon="1.17579">
        <ele>181.932044</ele>
        <time>2023-01-03T12:31:13.162Z</time>
      </trkpt>
      <trkpt lat="43.66495" lon="1.17592">
        <ele>181.867405</ele>
        <time>2023-01-03T12:31:15.166Z</time>
      </trkpt>
      <trkpt lat="43.66499" lon="1.17605">
        <ele>181.682698</ele>
        <time>2023-01-03T12:31:17.146Z</time>
      </trkpt>
      <trkpt lat="43.66503" lon="1.17618">
        <ele>181.503345</ele>
        <time>2023-01-03T12:31:19.167Z</time>
      </trkpt>
      <trkpt lat="43.66507" lon="1.1763">
        <ele>181.321794</ele>
        <time>2023-01-03T12:31:21.168Z</time>
      </trkpt>
      <trkpt lat="43.66511" lon="1.17644">
        <ele>181.125629</ele>
        <time>2023-01-03T12:31:23.163Z</time>
      </trkpt>
      <trkpt lat="43.66516" lon="1.17658">
        <ele>180.921695</ele>
        <time>2023-01-03T12:31:25.165Z</time>
      </trkpt>
      <trkpt lat="43.66522" lon="1.17672">
        <ele>180.709747</ele>
        <time>2023-01-03T12:31:27.163Z</time>
      </trkpt>
      <trkpt lat="43.66528" lon="1.17687">
        <ele>180.488393</ele>
        <time>2023-01-03T12:31:29.163Z</time>
      </trkpt>
      <trkpt lat="43.66535" lon="1.17701">
        <ele>180.263228</ele>
        <time>2023-01-03T12:31:31.157Z</time>
      </trkpt>
      <trkpt lat="43.66542" lon="1.17716">
        <ele>180.038181</ele>
        <time>2023-01-03T12:31:33.168Z</time>
      </trkpt>
      <trkpt lat="43.66548" lon="1.17731">
        <ele>179.805409</ele>
        <time>2023-01-03T12:31:35.166Z</time>
      </trkpt>
      <trkpt lat="43.66555" lon="1.17745">
        <ele>179.586895</ele>
        <time>2023-01-03T12:31:37.170Z</time>
      </trkpt>
      <trkpt lat="43.66563" lon="1.17759">
        <ele>179.350442</ele>
        <time>2023-01-03T12:31:39.165Z</time>
      </trkpt>
      <trkpt lat="43.6657" lon="1.17773">
        <ele>179.127766</ele>
        <time>2023-01-03T12:31:41.150Z</time>
      </trkpt>
      <trkpt lat="43.66579" lon="1.17787">
        <ele>178.891741</ele>
        <time>2023-01-03T12:31:43.157Z</time>
      </trkpt>
      <trkpt lat="43.66586" lon="1.178">
        <ele>178.690426</ele>
        <time>2023-01-03T12:31:45.165Z</time>
      </trkpt>
      <trkpt lat="43.66594" lon="1.17812">
        <ele>178.558359</ele>
        <time>2023-01-03T12:31:47.165Z</time>
      </trkpt>
      <trkpt lat="43.66601" lon="1.17824">
        <ele>178.432936</ele>
        <time>2023-01-03T12:31:49.155Z</time>
      </trkpt>
      <trkpt lat="43.66608" lon="1.17836">
        <ele>178.311328</ele>
        <time>2023-01-03T12:31:51.163Z</time>
      </trkpt>
      <trkpt lat="43.66615" lon="1.17847">
        <ele>178.191669</ele>
        <time>2023-01-03T12:31:53.164Z</time>
      </trkpt>
      <trkpt lat="43.66622" lon="1.17858">
        <ele>178.076128</ele>
        <time>2023-01-03T12:31:55.169Z</time>
      </trkpt>
      <trkpt lat="43.66629" lon="1.17868">
        <ele>177.961528</ele>
        <time>2023-01-03T12:31:57.165Z</time>
      </trkpt>
      <trkpt lat="43.66637" lon="1.17877">
        <ele>177.846235</ele>
        <time>2023-01-03T12:31:59.165Z</time>
      </trkpt>
      <trkpt lat="43.66644" lon="1.17887">
        <ele>177.735471</ele>
        <time>2023-01-03T12:32:01.151Z</time>
      </trkpt>
      <trkpt lat="43.66652" lon="1.17896">
        <ele>177.625786</ele>
        <time>2023-01-03T12:32:03.147Z</time>
      </trkpt>
      <trkpt lat="43.66658" lon="1.17904">
        <ele>177.523999</ele>
        <time>2023-01-03T12:32:05.165Z</time>
      </trkpt>
      <trkpt lat="43.66668" lon="1.17916">
        <ele>177.381322</ele>
        <time>2023-01-03T12:32:08.151Z</time>
      </trkpt>
      <trkpt lat="43.66677" lon="1.17927">
        <ele>177.247661</ele>
        <time>2023-01-03T12:32:11.145Z</time>
      </trkpt>
      <trkpt lat="43.66682" lon="1.1794">
        <ele>177.1248</ele>
        <time>2023-01-03T12:32:14.164Z</time>
      </trkpt>
      <trkpt lat="43.66689" lon="1.17952">
        <ele>177.002574</ele>
        <time>2023-01-03T12:32:17.166Z</time>
      </trkpt>
      <trkpt lat="43.66694" lon="1.17964">
        <ele>176.895191</ele>
        <time>2023-01-03T12:32:20.164Z</time>
      </trkpt>
      <trkpt lat="43.66693" lon="1.17992">
        <ele>176.669818</ele>
        <time>2023-01-03T12:33:15.158Z</time>
      </trkpt>
      <trkpt lat="43.66696" lon="1.18007">
        <ele>176.543587</ele>
        <time>2023-01-03T12:33:18.155Z</time>
      </trkpt>
      <trkpt lat="43.66699" lon="1.18024">
        <ele>176.398467</ele>
        <time>2023-01-03T12:33:21.173Z</time>
      </trkpt>
      <trkpt lat="43.66701" lon="1.18036">
        <ele>176.297072</ele>
        <time>2023-01-03T12:33:23.161Z</time>
      </trkpt>
      <trkpt lat="43.66705" lon="1.18054">
        <ele>176.14627</ele>
        <time>2023-01-03T12:33:26.157Z</time>
      </trkpt>
      <trkpt lat="43.66707" lon="1.18066">
        <ele>176.043538</ele>
        <time>2023-01-03T12:33:28.175Z</time>
      </trkpt>
      <trkpt lat="43.6671" lon="1.18084">
        <ele>175.891351</ele>
        <time>2023-01-03T12:33:31.176Z</time>
      </trkpt>
      <trkpt lat="43.66712" lon="1.18097">
        <ele>175.781767</ele>
        <time>2023-01-03T12:33:33.156Z</time>
      </trkpt>
      <trkpt lat="43.66715" lon="1.18111">
        <ele>175.669505</ele>
        <time>2023-01-03T12:33:35.156Z</time>
      </trkpt>
      <trkpt lat="43.66716" lon="1.18124">
        <ele>175.558034</ele>
        <time>2023-01-03T12:33:37.162Z</time>
      </trkpt>
      <trkpt lat="43.66719" lon="1.18138">
        <ele>175.438677</ele>
        <time>2023-01-03T12:33:39.159Z</time>
      </trkpt>
      <trkpt lat="43.66721" lon="1.18153">
        <ele>175.316921</ele>
        <time>2023-01-03T12:33:41.171Z</time>
      </trkpt>
      <trkpt lat="43.66724" lon="1.18167">
        <ele>175.197836</ele>
        <time>2023-01-03T12:33:43.166Z</time>
      </trkpt>
      <trkpt lat="43.66726" lon="1.18181">
        <ele>175.08056</ele>
        <time>2023-01-03T12:33:45.180Z</time>
      </trkpt>
      <trkpt lat="43.66729" lon="1.18195">
        <ele>174.962228</ele>
        <time>2023-01-03T12:33:47.155Z</time>
      </trkpt>
      <trkpt lat="43.66731" lon="1.1821">
        <ele>174.83918</ele>
        <time>2023-01-03T12:33:49.156Z</time>
      </trkpt>
      <trkpt lat="43.66734" lon="1.18225">
        <ele>174.713751</ele>
        <time>2023-01-03T12:33:51.174Z</time>
      </trkpt>
      <trkpt lat="43.66736" lon="1.1824">
        <ele>174.633644</ele>
        <time>2023-01-03T12:33:53.157Z</time>
      </trkpt>
      <trkpt lat="43.66739" lon="1.18255">
        <ele>174.568267</ele>
        <time>2023-01-03T12:33:55.173Z</time>
      </trkpt>
      <trkpt lat="43.66741" lon="1.18269">
        <ele>174.502484</ele>
        <time>2023-01-03T12:33:57.158Z</time>
      </trkpt>
      <trkpt lat="43.66744" lon="1.18283">
        <ele>174.439867</ele>
        <time>2023-01-03T12:33:59.158Z</time>
      </trkpt>
      <trkpt lat="43.66747" lon="1.18298">
        <ele>174.373917</ele>
        <time>2023-01-03T12:34:01.172Z</time>
      </trkpt>
      <trkpt lat="43.66749" lon="1.18312">
        <ele>174.310135</ele>
        <time>2023-01-03T12:34:03.154Z</time>
      </trkpt>
      <trkpt lat="43.66752" lon="1.18327">
        <ele>174.244063</ele>
        <time>2023-01-03T12:34:05.152Z</time>
      </trkpt>
      <trkpt lat="43.66754" lon="1.18342">
        <ele>174.177859</ele>
        <time>2023-01-03T12:34:07.175Z</time>
      </trkpt>
      <trkpt lat="43.66757" lon="1.18357">
        <ele>174.112076</ele>
        <time>2023-01-03T12:34:09.175Z</time>
      </trkpt>
      <trkpt lat="43.66759" lon="1.18371">
        <ele>174.048796</ele>
        <time>2023-01-03T12:34:11.158Z</time>
      </trkpt>
      <trkpt lat="43.66762" lon="1.18385">
        <ele>173.985348</ele>
        <time>2023-01-03T12:34:13.167Z</time>
      </trkpt>
      <trkpt lat="43.66765" lon="1.18399">
        <ele>173.921976</ele>
        <time>2023-01-03T12:34:15.171Z</time>
      </trkpt>
      <trkpt lat="43.66767" lon="1.18414">
        <ele>173.857724</ele>
        <time>2023-01-03T12:34:17.171Z</time>
      </trkpt>
      <trkpt lat="43.66769" lon="1.18428">
        <ele>173.794606</ele>
        <time>2023-01-03T12:34:19.178Z</time>
      </trkpt>
      <trkpt lat="43.66771" lon="1.18443">
        <ele>173.728162</ele>
        <time>2023-01-03T12:34:21.163Z</time>
      </trkpt>
      <trkpt lat="43.66774" lon="1.18458">
        <ele>173.663222</ele>
        <time>2023-01-03T12:34:23.163Z</time>
      </trkpt>
      <trkpt lat="43.66777" lon="1.18471">
        <ele>173.602904</ele>
        <time>2023-01-03T12:34:25.160Z</time>
      </trkpt>
      <trkpt lat="43.66779" lon="1.18486">
        <ele>173.539508</ele>
        <time>2023-01-03T12:34:27.175Z</time>
      </trkpt>
      <trkpt lat="43.66781" lon="1.185">
        <ele>173.478147</ele>
        <time>2023-01-03T12:34:29.162Z</time>
      </trkpt>
      <trkpt lat="43.66784" lon="1.18514">
        <ele>173.418805</ele>
        <time>2023-01-03T12:34:31.191Z</time>
      </trkpt>
      <trkpt lat="43.66787" lon="1.18526">
        <ele>173.36374</ele>
        <time>2023-01-03T12:34:33.172Z</time>
      </trkpt>
      <trkpt lat="43.66789" lon="1.18539">
        <ele>173.307327</ele>
        <time>2023-01-03T12:34:35.157Z</time>
      </trkpt>
      <trkpt lat="43.66791" lon="1.18553">
        <ele>173.246308</ele>
        <time>2023-01-03T12:34:37.167Z</time>
      </trkpt>
      <trkpt lat="43.66794" lon="1.18567">
        <ele>173.184967</ele>
        <time>2023-01-03T12:34:39.154Z</time>
      </trkpt>
      <trkpt lat="43.66797" lon="1.18581">
        <ele>173.122865</ele>
        <time>2023-01-03T12:34:41.170Z</time>
      </trkpt>
      <trkpt lat="43.66799" lon="1.18595">
        <ele>173.064805</ele>
        <time>2023-01-03T12:34:43.174Z</time>
      </trkpt>
      <trkpt lat="43.66801" lon="1.18608">
        <ele>173.005775</ele>
        <time>2023-01-03T12:34:45.175Z</time>
      </trkpt>
      <trkpt lat="43.66803" lon="1.18622">
        <ele>172.948187</ele>
        <time>2023-01-03T12:34:47.174Z</time>
      </trkpt>
      <trkpt lat="43.66805" lon="1.18636">
        <ele>172.888349</ele>
        <time>2023-01-03T12:34:49.171Z</time>
      </trkpt>
      <trkpt lat="43.66808" lon="1.18649">
        <ele>172.829877</ele>
        <time>2023-01-03T12:34:51.172Z</time>
      </trkpt>
      <trkpt lat="43.6681" lon="1.18662">
        <ele>172.772479</ele>
        <time>2023-01-03T12:34:53.180Z</time>
      </trkpt>
      <trkpt lat="43.66813" lon="1.18676">
        <ele>172.712229</ele>
        <time>2023-01-03T12:34:55.162Z</time>
      </trkpt>
      <trkpt lat="43.66815" lon="1.1869">
        <ele>172.650477</ele>
        <time>2023-01-03T12:34:57.175Z</time>
      </trkpt>
      <trkpt lat="43.66818" lon="1.18705">
        <ele>172.586655</ele>
        <time>2023-01-03T12:34:59.168Z</time>
      </trkpt>
      <trkpt lat="43.6682" lon="1.18718">
        <ele>172.54421</ele>
        <time>2023-01-03T12:35:01.179Z</time>
      </trkpt>
      <trkpt lat="43.66823" lon="1.18733">
        <ele>172.515928</ele>
        <time>2023-01-03T12:35:03.175Z</time>
      </trkpt>
      <trkpt lat="43.66825" lon="1.18746">
        <ele>172.488278</ele>
        <time>2023-01-03T12:35:05.157Z</time>
      </trkpt>
      <trkpt lat="43.66828" lon="1.1876">
        <ele>172.46012</ele>
        <time>2023-01-03T12:35:07.174Z</time>
      </trkpt>
      <trkpt lat="43.6683" lon="1.18775">
        <ele>172.431694</ele>
        <time>2023-01-03T12:35:09.181Z</time>
      </trkpt>
      <trkpt lat="43.66832" lon="1.18789">
        <ele>172.403476</ele>
        <time>2023-01-03T12:35:11.177Z</time>
      </trkpt>
      <trkpt lat="43.66834" lon="1.18802">
        <ele>172.376194</ele>
        <time>2023-01-03T12:35:13.179Z</time>
      </trkpt>
      <trkpt lat="43.66837" lon="1.18816">
        <ele>172.348344</ele>
        <time>2023-01-03T12:35:15.161Z</time>
      </trkpt>
      <trkpt lat="43.6684" lon="1.18831">
        <ele>172.31962</ele>
        <time>2023-01-03T12:35:17.156Z</time>
      </trkpt>
      <trkpt lat="43.66842" lon="1.18844">
        <ele>172.292592</ele>
        <time>2023-01-03T12:35:19.157Z</time>
      </trkpt>
      <trkpt lat="43.66844" lon="1.18858">
        <ele>172.265311</ele>
        <time>2023-01-03T12:35:21.165Z</time>
      </trkpt>
      <trkpt lat="43.66846" lon="1.18871">
        <ele>172.237839</ele>
        <time>2023-01-03T12:35:23.166Z</time>
      </trkpt>
      <trkpt lat="43.66848" lon="1.18884">
        <ele>172.212328</ele>
        <time>2023-01-03T12:35:25.180Z</time>
      </trkpt>
      <trkpt lat="43.66851" lon="1.18897">
        <ele>172.187456</ele>
        <time>2023-01-03T12:35:27.174Z</time>
      </trkpt>
      <trkpt lat="43.66853" lon="1.18915">
        <ele>172.15115</ele>
        <time>2023-01-03T12:35:30.173Z</time>
      </trkpt>
      <trkpt lat="43.66857" lon="1.18933">
        <ele>172.115105</ele>
        <time>2023-01-03T12:35:33.163Z</time>
      </trkpt>
      <trkpt lat="43.66861" lon="1.1895">
        <ele>172.080251</ele>
        <time>2023-01-03T12:35:36.178Z</time>
      </trkpt>
      <trkpt lat="43.66864" lon="1.18966">
        <ele>172.143216</ele>
        <time>2023-01-03T12:35:39.149Z</time>
      </trkpt>
      <trkpt lat="43.66866" lon="1.18982">
        <ele>172.222012</ele>
        <time>2023-01-03T12:35:42.156Z</time>
      </trkpt>
      <trkpt lat="43.66868" lon="1.18996">
        <ele>172.293592</ele>
        <time>2023-01-03T12:35:45.149Z</time>
      </trkpt>
      <trkpt lat="43.66866" lon="1.19011">
        <ele>172.370765</ele>
        <time>2023-01-03T12:35:49.151Z</time>
      </trkpt>
      <trkpt lat="43.66866" lon="1.19033">
        <ele>172.484251</ele>
        <time>2023-01-03T12:36:48.147Z</time>
      </trkpt>
      <trkpt lat="43.66865" lon="1.19048">
        <ele>172.560206</ele>
        <time>2023-01-03T12:36:52.163Z</time>
      </trkpt>
      <trkpt lat="43.66859" lon="1.19061">
        <ele>172.636581</ele>
        <time>2023-01-03T12:36:55.151Z</time>
      </trkpt>
      <trkpt lat="43.66853" lon="1.19073">
        <ele>172.710123</ele>
        <time>2023-01-03T12:36:58.154Z</time>
      </trkpt>
      <trkpt lat="43.66848" lon="1.19085">
        <ele>172.780864</ele>
        <time>2023-01-03T12:37:01.155Z</time>
      </trkpt>
      <trkpt lat="43.66841" lon="1.19097">
        <ele>172.858085</ele>
        <time>2023-01-03T12:37:04.156Z</time>
      </trkpt>
      <trkpt lat="43.66832" lon="1.19107">
        <ele>172.941384</ele>
        <time>2023-01-03T12:37:07.153Z</time>
      </trkpt>
      <trkpt lat="43.66821" lon="1.19117">
        <ele>173.029488</ele>
        <time>2023-01-03T12:37:10.153Z</time>
      </trkpt>
      <trkpt lat="43.66811" lon="1.19126">
        <ele>173.117241</ele>
        <time>2023-01-03T12:37:13.155Z</time>
      </trkpt>
      <trkpt lat="43.66801" lon="1.19135">
        <ele>173.196123</ele>
        <time>2023-01-03T12:37:16.157Z</time>
      </trkpt>
      <trkpt lat="43.66793" lon="1.19143">
        <ele>173.264737</ele>
        <time>2023-01-03T12:37:19.159Z</time>
      </trkpt>
      <trkpt lat="43.66784" lon="1.1915">
        <ele>173.350669</ele>
        <time>2023-01-03T12:37:22.165Z</time>
      </trkpt>
      <trkpt lat="43.66773" lon="1.19158">
        <ele>173.591199</ele>
        <time>2023-01-03T12:37:25.160Z</time>
      </trkpt>
      <trkpt lat="43.66766" lon="1.19165">
        <ele>173.770987</ele>
        <time>2023-01-03T12:37:27.165Z</time>
      </trkpt>
      <trkpt lat="43.66755" lon="1.19176">
        <ele>174.01538</ele>
        <time>2023-01-03T12:37:30.147Z</time>
      </trkpt>
      <trkpt lat="43.66745" lon="1.19186">
        <ele>174.250905</ele>
        <time>2023-01-03T12:37:33.156Z</time>
      </trkpt>
      <trkpt lat="43.66736" lon="1.19197">
        <ele>174.49125</ele>
        <time>2023-01-03T12:37:36.155Z</time>
      </trkpt>
      <trkpt lat="43.66727" lon="1.19208">
        <ele>174.715356</ele>
        <time>2023-01-03T12:37:39.155Z</time>
      </trkpt>
      <trkpt lat="43.66718" lon="1.19217">
        <ele>174.923985</ele>
        <time>2023-01-03T12:37:42.162Z</time>
      </trkpt>
      <trkpt lat="43.66711" lon="1.1923">
        <ele>175.151559</ele>
        <time>2023-01-03T12:37:45.152Z</time>
      </trkpt>
      <trkpt lat="43.66703" lon="1.19243">
        <ele>175.375956</ele>
        <time>2023-01-03T12:37:48.159Z</time>
      </trkpt>
      <trkpt lat="43.66695" lon="1.19255">
        <ele>175.6018</ele>
        <time>2023-01-03T12:37:51.155Z</time>
      </trkpt>
      <trkpt lat="43.66687" lon="1.19267">
        <ele>175.837989</ele>
        <time>2023-01-03T12:37:54.158Z</time>
      </trkpt>
      <trkpt lat="43.66679" lon="1.19279">
        <ele>176.060287</ele>
        <time>2023-01-03T12:37:57.158Z</time>
      </trkpt>
      <trkpt lat="43.66672" lon="1.1929">
        <ele>176.257977</ele>
        <time>2023-01-03T12:38:00.157Z</time>
      </trkpt>
      <trkpt lat="43.66665" lon="1.193">
        <ele>176.453107</ele>
        <time>2023-01-03T12:38:03.156Z</time>
      </trkpt>
      <trkpt lat="43.66659" lon="1.1931">
        <ele>176.632347</ele>
        <time>2023-01-03T12:38:06.163Z</time>
      </trkpt>
      <trkpt lat="43.66652" lon="1.1932">
        <ele>176.775668</ele>
        <time>2023-01-03T12:38:09.158Z</time>
      </trkpt>
      <trkpt lat="43.66645" lon="1.19327">
        <ele>176.824985</ele>
        <time>2023-01-03T12:38:12.159Z</time>
      </trkpt>
      <trkpt lat="43.66637" lon="1.19335">
        <ele>176.877439</ele>
        <time>2023-01-03T12:38:15.163Z</time>
      </trkpt>
      <trkpt lat="43.6663" lon="1.19343">
        <ele>176.927224</ele>
        <time>2023-01-03T12:38:18.161Z</time>
      </trkpt>
      <trkpt lat="43.66622" lon="1.19351">
        <ele>176.977764</ele>
        <time>2023-01-03T12:38:22.149Z</time>
      </trkpt>
      <trkpt lat="43.66614" lon="1.19362">
        <ele>177.036701</ele>
        <time>2023-01-03T12:38:27.160Z</time>
      </trkpt>
      <trkpt lat="43.66612" lon="1.19375">
        <ele>177.089067</ele>
        <time>2023-01-03T12:38:31.152Z</time>
      </trkpt>
      <trkpt lat="43.66618" lon="1.19388">
        <ele>177.147123</ele>
        <time>2023-01-03T12:38:35.177Z</time>
      </trkpt>
      <trkpt lat="43.66626" lon="1.194">
        <ele>177.209831</ele>
        <time>2023-01-03T12:38:39.155Z</time>
      </trkpt>
      <trkpt lat="43.66634" lon="1.19411">
        <ele>177.26921</ele>
        <time>2023-01-03T12:38:42.159Z</time>
      </trkpt>
      <trkpt lat="43.66643" lon="1.19423">
        <ele>177.335844</ele>
        <time>2023-01-03T12:38:45.160Z</time>
      </trkpt>
      <trkpt lat="43.66652" lon="1.19436">
        <ele>177.408921</ele>
        <time>2023-01-03T12:38:48.155Z</time>
      </trkpt>
      <trkpt lat="43.66659" lon="1.19445">
        <ele>177.459356</ele>
        <time>2023-01-03T12:38:50.170Z</time>
      </trkpt>
      <trkpt lat="43.66666" lon="1.19454">
        <ele>177.510827</ele>
        <time>2023-01-03T12:38:52.173Z</time>
      </trkpt>
      <trkpt lat="43.66673" lon="1.19463">
        <ele>177.559159</ele>
        <time>2023-01-03T12:38:54.153Z</time>
      </trkpt>
      <trkpt lat="43.66681" lon="1.19472">
        <ele>177.611743</ele>
        <time>2023-01-03T12:38:56.165Z</time>
      </trkpt>
      <trkpt lat="43.66688" lon="1.1948">
        <ele>177.664738</ele>
        <time>2023-01-03T12:38:58.149Z</time>
      </trkpt>
      <trkpt lat="43.66696" lon="1.1949">
        <ele>177.718881</ele>
        <time>2023-01-03T12:39:00.160Z</time>
      </trkpt>
      <trkpt lat="43.66704" lon="1.19499">
        <ele>177.611267</ele>
        <time>2023-01-03T12:39:02.149Z</time>
      </trkpt>
      <trkpt lat="43.66713" lon="1.19507">
        <ele>177.497888</ele>
        <time>2023-01-03T12:39:04.164Z</time>
      </trkpt>
      <trkpt lat="43.66721" lon="1.19516">
        <ele>177.387432</ele>
        <time>2023-01-03T12:39:06.178Z</time>
      </trkpt>
      <trkpt lat="43.66729" lon="1.19524">
        <ele>177.275288</ele>
        <time>2023-01-03T12:39:08.158Z</time>
      </trkpt>
      <trkpt lat="43.66738" lon="1.19534">
        <ele>177.159582</ele>
        <time>2023-01-03T12:39:10.159Z</time>
      </trkpt>
      <trkpt lat="43.66746" lon="1.19544">
        <ele>177.04221</ele>
        <time>2023-01-03T12:39:12.170Z</time>
      </trkpt>
      <trkpt lat="43.66753" lon="1.19554">
        <ele>176.934157</ele>
        <time>2023-01-03T12:39:14.174Z</time>
      </trkpt>
      <trkpt lat="43.6676" lon="1.19564">
        <ele>176.823116</ele>
        <time>2023-01-03T12:39:16.160Z</time>
      </trkpt>
      <trkpt lat="43.66767" lon="1.19574">
        <ele>176.719572</ele>
        <time>2023-01-03T12:39:18.174Z</time>
      </trkpt>
      <trkpt lat="43.66774" lon="1.19583">
        <ele>176.619652</ele>
        <time>2023-01-03T12:39:20.159Z</time>
      </trkpt>
      <trkpt lat="43.66782" lon="1.19596">
        <ele>176.48334</ele>
        <time>2023-01-03T12:39:23.171Z</time>
      </trkpt>
      <trkpt lat="43.66789" lon="1.19605">
        <ele>176.385004</ele>
        <time>2023-01-03T12:39:25.154Z</time>
      </trkpt>
      <trkpt lat="43.66796" lon="1.19614">
        <ele>176.284065</ele>
        <time>2023-01-03T12:39:27.161Z</time>
      </trkpt>
      <trkpt lat="43.66805" lon="1.19627">
        <ele>176.140201</ele>
        <time>2023-01-03T12:39:30.154Z</time>
      </trkpt>
      <trkpt lat="43.66814" lon="1.19639">
        <ele>176.007919</ele>
        <time>2023-01-03T12:39:33.163Z</time>
      </trkpt>
      <trkpt lat="43.66822" lon="1.19651">
        <ele>175.883033</ele>
        <time>2023-01-03T12:39:36.163Z</time>
      </trkpt>
      <trkpt lat="43.6683" lon="1.19663">
        <ele>175.788674</ele>
        <time>2023-01-03T12:39:39.155Z</time>
      </trkpt>
      <trkpt lat="43.66838" lon="1.19674">
        <ele>175.743936</ele>
        <time>2023-01-03T12:39:42.158Z</time>
      </trkpt>
      <trkpt lat="43.66847" lon="1.19686">
        <ele>175.692973</ele>
        <time>2023-01-03T12:39:45.167Z</time>
      </trkpt>
      <trkpt lat="43.66857" lon="1.19698">
        <ele>175.640795</ele>
        <time>2023-01-03T12:39:48.153Z</time>
      </trkpt>
      <trkpt lat="43.66864" lon="1.19707">
        <ele>175.603232</ele>
        <time>2023-01-03T12:39:50.159Z</time>
      </trkpt>
      <trkpt lat="43.66872" lon="1.19716">
        <ele>175.564409</ele>
        <time>2023-01-03T12:39:52.165Z</time>
      </trkpt>
      <trkpt lat="43.66879" lon="1.19726">
        <ele>175.52295</ele>
        <time>2023-01-03T12:39:54.153Z</time>
      </trkpt>
      <trkpt lat="43.66886" lon="1.19736">
        <ele>175.483223</ele>
        <time>2023-01-03T12:39:56.158Z</time>
      </trkpt>
      <trkpt lat="43.66893" lon="1.19747">
        <ele>175.441094</ele>
        <time>2023-01-03T12:39:58.172Z</time>
      </trkpt>
      <trkpt lat="43.66901" lon="1.19758">
        <ele>175.399505</ele>
        <time>2023-01-03T12:40:00.158Z</time>
      </trkpt>
      <trkpt lat="43.66907" lon="1.19769">
        <ele>175.358377</ele>
        <time>2023-01-03T12:40:02.173Z</time>
      </trkpt>
      <trkpt lat="43.66914" lon="1.1978">
        <ele>175.316714</ele>
        <time>2023-01-03T12:40:04.156Z</time>
      </trkpt>
      <trkpt lat="43.66921" lon="1.19791">
        <ele>175.274965</ele>
        <time>2023-01-03T12:40:06.155Z</time>
      </trkpt>
      <trkpt lat="43.66927" lon="1.19802">
        <ele>175.235002</ele>
        <time>2023-01-03T12:40:08.166Z</time>
      </trkpt>
      <trkpt lat="43.66934" lon="1.19812">
        <ele>175.193976</ele>
        <time>2023-01-03T12:40:10.182Z</time>
      </trkpt>
      <trkpt lat="43.66942" lon="1.19822">
        <ele>175.1528</ele>
        <time>2023-01-03T12:40:12.153Z</time>
      </trkpt>
      <trkpt lat="43.66949" lon="1.19833">
        <ele>175.11222</ele>
        <time>2023-01-03T12:40:14.169Z</time>
      </trkpt>
      <trkpt lat="43.66956" lon="1.19843">
        <ele>175.07493</ele>
        <time>2023-01-03T12:40:16.174Z</time>
      </trkpt>
      <trkpt lat="43.66963" lon="1.19854">
        <ele>175.045768</ele>
        <time>2023-01-03T12:40:18.174Z</time>
      </trkpt>
      <trkpt lat="43.66971" lon="1.19864">
        <ele>175.015549</ele>
        <time>2023-01-03T12:40:20.174Z</time>
      </trkpt>
      <trkpt lat="43.66978" lon="1.19874">
        <ele>174.984517</ele>
        <time>2023-01-03T12:40:22.176Z</time>
      </trkpt>
      <trkpt lat="43.66986" lon="1.19885">
        <ele>174.953241</ele>
        <time>2023-01-03T12:40:24.179Z</time>
      </trkpt>
      <trkpt lat="43.66993" lon="1.19896">
        <ele>174.922836</ele>
        <time>2023-01-03T12:40:26.169Z</time>
      </trkpt>
      <trkpt lat="43.67" lon="1.19907">
        <ele>174.891762</ele>
        <time>2023-01-03T12:40:28.174Z</time>
      </trkpt>
      <trkpt lat="43.67008" lon="1.19917">
        <ele>174.860432</ele>
        <time>2023-01-03T12:40:30.174Z</time>
      </trkpt>
      <trkpt lat="43.67015" lon="1.19928">
        <ele>174.829193</ele>
        <time>2023-01-03T12:40:32.171Z</time>
      </trkpt>
      <trkpt lat="43.67022" lon="1.19938">
        <ele>174.799486</ele>
        <time>2023-01-03T12:40:34.170Z</time>
      </trkpt>
      <trkpt lat="43.67029" lon="1.19948">
        <ele>174.770603</ele>
        <time>2023-01-03T12:40:36.174Z</time>
      </trkpt>
      <trkpt lat="43.67036" lon="1.19958">
        <ele>174.741486</ele>
        <time>2023-01-03T12:40:38.157Z</time>
      </trkpt>
      <trkpt lat="43.67043" lon="1.19968">
        <ele>174.712058</ele>
        <time>2023-01-03T12:40:40.171Z</time>
      </trkpt>
      <trkpt lat="43.67051" lon="1.19979">
        <ele>174.680611</ele>
        <time>2023-01-03T12:40:42.153Z</time>
      </trkpt>
      <trkpt lat="43.67058" lon="1.1999">
        <ele>174.649935</ele>
        <time>2023-01-03T12:40:44.169Z</time>
      </trkpt>
      <trkpt lat="43.67065" lon="1.19999">
        <ele>174.619704</ele>
        <time>2023-01-03T12:40:46.171Z</time>
      </trkpt>
      <trkpt lat="43.67072" lon="1.20009">
        <ele>174.590977</ele>
        <time>2023-01-03T12:40:48.169Z</time>
      </trkpt>
      <trkpt lat="43.67079" lon="1.20019">
        <ele>174.570164</ele>
        <time>2023-01-03T12:40:50.165Z</time>
      </trkpt>
      <trkpt lat="43.67086" lon="1.20029">
        <ele>174.565897</ele>
        <time>2023-01-03T12:40:52.157Z</time>
      </trkpt>
      <trkpt lat="43.67093" lon="1.2004">
        <ele>174.561494</ele>
        <time>2023-01-03T12:40:54.157Z</time>
      </trkpt>
      <trkpt lat="43.67101" lon="1.20049">
        <ele>174.557298</ele>
        <time>2023-01-03T12:40:56.186Z</time>
      </trkpt>
      <trkpt lat="43.67108" lon="1.2006">
        <ele>174.552945</ele>
        <time>2023-01-03T12:40:58.171Z</time>
      </trkpt>
      <trkpt lat="43.67115" lon="1.2007">
        <ele>174.548577</ele>
        <time>2023-01-03T12:41:00.156Z</time>
      </trkpt>
      <trkpt lat="43.67123" lon="1.20081">
        <ele>174.544181</ele>
        <time>2023-01-03T12:41:02.160Z</time>
      </trkpt>
      <trkpt lat="43.67129" lon="1.20091">
        <ele>174.539925</ele>
        <time>2023-01-03T12:41:04.155Z</time>
      </trkpt>
      <trkpt lat="43.67137" lon="1.20101">
        <ele>174.535568</ele>
        <time>2023-01-03T12:41:06.163Z</time>
      </trkpt>
      <trkpt lat="43.67144" lon="1.20112">
        <ele>174.531186</ele>
        <time>2023-01-03T12:41:08.157Z</time>
      </trkpt>
      <trkpt lat="43.67152" lon="1.20122">
        <ele>174.526819</ele>
        <time>2023-01-03T12:41:10.174Z</time>
      </trkpt>
      <trkpt lat="43.67159" lon="1.20133">
        <ele>174.522319</ele>
        <time>2023-01-03T12:41:12.163Z</time>
      </trkpt>
      <trkpt lat="43.67167" lon="1.20143">
        <ele>174.517881</ele>
        <time>2023-01-03T12:41:14.168Z</time>
      </trkpt>
      <trkpt lat="43.67174" lon="1.20153">
        <ele>174.513586</ele>
        <time>2023-01-03T12:41:16.177Z</time>
      </trkpt>
      <trkpt lat="43.67181" lon="1.20163">
        <ele>174.509449</ele>
        <time>2023-01-03T12:41:18.158Z</time>
      </trkpt>
      <trkpt lat="43.67188" lon="1.20172">
        <ele>174.505418</ele>
        <time>2023-01-03T12:41:20.165Z</time>
      </trkpt>
      <trkpt lat="43.67195" lon="1.20181">
        <ele>174.501577</ele>
        <time>2023-01-03T12:41:22.174Z</time>
      </trkpt>
      <trkpt lat="43.67204" lon="1.20193">
        <ele>174.498632</ele>
        <time>2023-01-03T12:41:25.164Z</time>
      </trkpt>
      <trkpt lat="43.67213" lon="1.20205">
        <ele>174.536477</ele>
        <time>2023-01-03T12:41:28.172Z</time>
      </trkpt>
      <trkpt lat="43.67218" lon="1.20217">
        <ele>174.567986</ele>
        <time>2023-01-03T12:41:31.158Z</time>
      </trkpt>
      <trkpt lat="43.67225" lon="1.20228">
        <ele>174.600844</ele>
        <time>2023-01-03T12:41:35.163Z</time>
      </trkpt>
      <trkpt lat="43.67233" lon="1.20241">
        <ele>174.638723</ele>
        <time>2023-01-03T12:41:39.163Z</time>
      </trkpt>
      <trkpt lat="43.67241" lon="1.20253">
        <ele>174.677227</ele>
        <time>2023-01-03T12:41:42.159Z</time>
      </trkpt>
      <trkpt lat="43.6725" lon="1.20266">
        <ele>174.717663</ele>
        <time>2023-01-03T12:41:45.158Z</time>
      </trkpt>
      <trkpt lat="43.67259" lon="1.20279">
        <ele>174.757835</ele>
        <time>2023-01-03T12:41:48.151Z</time>
      </trkpt>
      <trkpt lat="43.67268" lon="1.20292">
        <ele>174.797632</ele>
        <time>2023-01-03T12:41:51.158Z</time>
      </trkpt>
      <trkpt lat="43.67276" lon="1.20305">
        <ele>174.837367</ele>
        <time>2023-01-03T12:41:54.150Z</time>
      </trkpt>
      <trkpt lat="43.67285" lon="1.20318">
        <ele>174.876998</ele>
        <time>2023-01-03T12:41:57.160Z</time>
      </trkpt>
      <trkpt lat="43.67294" lon="1.2033">
        <ele>174.916194</ele>
        <time>2023-01-03T12:42:00.153Z</time>
      </trkpt>
      <trkpt lat="43.67303" lon="1.20342">
        <ele>174.955107</ele>
        <time>2023-01-03T12:42:03.160Z</time>
      </trkpt>
      <trkpt lat="43.67313" lon="1.20354">
        <ele>174.994169</ele>
        <time>2023-01-03T12:42:06.149Z</time>
      </trkpt>
      <trkpt lat="43.67323" lon="1.20364">
        <ele>175.033207</ele>
        <time>2023-01-03T12:42:09.156Z</time>
      </trkpt>
      <trkpt lat="43.67332" lon="1.20375">
        <ele>175.039648</ele>
        <time>2023-01-03T12:42:12.153Z</time>
      </trkpt>
      <trkpt lat="43.67343" lon="1.20386">
        <ele>175.002604</ele>
        <time>2023-01-03T12:42:15.154Z</time>
      </trkpt>
      <trkpt lat="43.67353" lon="1.20396">
        <ele>174.964622</ele>
        <time>2023-01-03T12:42:18.154Z</time>
      </trkpt>
      <trkpt lat="43.67364" lon="1.20407">
        <ele>174.925442</ele>
        <time>2023-01-03T12:42:21.159Z</time>
      </trkpt>
      <trkpt lat="43.67372" lon="1.20414">
        <ele>174.898604</ele>
        <time>2023-01-03T12:42:23.159Z</time>
      </trkpt>
      <trkpt lat="43.6738" lon="1.20421">
        <ele>174.871647</ele>
        <time>2023-01-03T12:42:25.164Z</time>
      </trkpt>
      <trkpt lat="43.67387" lon="1.20429">
        <ele>174.843731</ele>
        <time>2023-01-03T12:42:27.157Z</time>
      </trkpt>
      <trkpt lat="43.67399" lon="1.2044">
        <ele>174.803833</ele>
        <time>2023-01-03T12:42:30.166Z</time>
      </trkpt>
      <trkpt lat="43.6741" lon="1.2045">
        <ele>174.765013</ele>
        <time>2023-01-03T12:42:33.160Z</time>
      </trkpt>
      <trkpt lat="43.6742" lon="1.20459">
        <ele>174.730707</ele>
        <time>2023-01-03T12:42:36.157Z</time>
      </trkpt>
      <trkpt lat="43.67429" lon="1.20468">
        <ele>174.697755</ele>
        <time>2023-01-03T12:42:39.154Z</time>
      </trkpt>
      <trkpt lat="43.67438" lon="1.20477">
        <ele>174.663961</ele>
        <time>2023-01-03T12:42:42.158Z</time>
      </trkpt>
      <trkpt lat="43.67448" lon="1.20487">
        <ele>174.628714</ele>
        <time>2023-01-03T12:42:45.167Z</time>
      </trkpt>
      <trkpt lat="43.67458" lon="1.20497">
        <ele>174.592646</ele>
        <time>2023-01-03T12:42:48.174Z</time>
      </trkpt>
      <trkpt lat="43.67469" lon="1.20506">
        <ele>174.55586</ele>
        <time>2023-01-03T12:42:51.154Z</time>
      </trkpt>
      <trkpt lat="43.67479" lon="1.20516">
        <ele>174.549668</ele>
        <time>2023-01-03T12:42:54.179Z</time>
      </trkpt>
      <trkpt lat="43.67489" lon="1.20525">
        <ele>174.600711</ele>
        <time>2023-01-03T12:42:57.159Z</time>
      </trkpt>
      <trkpt lat="43.67498" lon="1.20534">
        <ele>174.649616</ele>
        <time>2023-01-03T12:43:00.155Z</time>
      </trkpt>
      <trkpt lat="43.67508" lon="1.20543">
        <ele>174.701178</ele>
        <time>2023-01-03T12:43:03.167Z</time>
      </trkpt>
      <trkpt lat="43.67519" lon="1.20553">
        <ele>174.756286</ele>
        <time>2023-01-03T12:43:06.154Z</time>
      </trkpt>
      <trkpt lat="43.67529" lon="1.20564">
        <ele>174.812851</ele>
        <time>2023-01-03T12:43:09.161Z</time>
      </trkpt>
      <trkpt lat="43.67541" lon="1.20574">
        <ele>174.870799</ele>
        <time>2023-01-03T12:43:12.153Z</time>
      </trkpt>
      <trkpt lat="43.67548" lon="1.20582">
        <ele>174.910671</ele>
        <time>2023-01-03T12:43:14.161Z</time>
      </trkpt>
      <trkpt lat="43.67555" lon="1.20589">
        <ele>174.949695</ele>
        <time>2023-01-03T12:43:16.172Z</time>
      </trkpt>
      <trkpt lat="43.67563" lon="1.20596">
        <ele>174.988856</ele>
        <time>2023-01-03T12:43:18.157Z</time>
      </trkpt>
      <trkpt lat="43.67573" lon="1.20607">
        <ele>175.045397</ele>
        <time>2023-01-03T12:43:21.176Z</time>
      </trkpt>
      <trkpt lat="43.67581" lon="1.20615">
        <ele>175.08509</ele>
        <time>2023-01-03T12:43:23.156Z</time>
      </trkpt>
      <trkpt lat="43.67588" lon="1.20621">
        <ele>175.123899</ele>
        <time>2023-01-03T12:43:25.178Z</time>
      </trkpt>
      <trkpt lat="43.67596" lon="1.20629">
        <ele>175.16308</ele>
        <time>2023-01-03T12:43:27.163Z</time>
      </trkpt>
      <trkpt lat="43.67604" lon="1.20637">
        <ele>175.204541</ele>
        <time>2023-01-03T12:43:29.170Z</time>
      </trkpt>
      <trkpt lat="43.67612" lon="1.20644">
        <ele>175.245132</ele>
        <time>2023-01-03T12:43:31.172Z</time>
      </trkpt>
      <trkpt lat="43.67619" lon="1.20651">
        <ele>175.284998</ele>
        <time>2023-01-03T12:43:33.154Z</time>
      </trkpt>
      <trkpt lat="43.67627" lon="1.20659">
        <ele>175.31925</ele>
        <time>2023-01-03T12:43:35.177Z</time>
      </trkpt>
      <trkpt lat="43.67634" lon="1.20666">
        <ele>175.34673</ele>
        <time>2023-01-03T12:43:37.153Z</time>
      </trkpt>
      <trkpt lat="43.67641" lon="1.20674">
        <ele>175.373485</ele>
        <time>2023-01-03T12:43:39.171Z</time>
      </trkpt>
      <trkpt lat="43.67649" lon="1.20681">
        <ele>175.401675</ele>
        <time>2023-01-03T12:43:41.156Z</time>
      </trkpt>
      <trkpt lat="43.6766" lon="1.20691">
        <ele>175.440031</ele>
        <time>2023-01-03T12:43:44.178Z</time>
      </trkpt>
      <trkpt lat="43.6767" lon="1.20701">
        <ele>175.474273</ele>
        <time>2023-01-03T12:43:47.173Z</time>
      </trkpt>
      <trkpt lat="43.67679" lon="1.2071">
        <ele>175.509482</ele>
        <time>2023-01-03T12:43:50.155Z</time>
      </trkpt>
      <trkpt lat="43.6769" lon="1.2072">
        <ele>175.545658</ele>
        <time>2023-01-03T12:43:53.157Z</time>
      </trkpt>
      <trkpt lat="43.677" lon="1.2073">
        <ele>175.583414</ele>
        <time>2023-01-03T12:43:56.168Z</time>
      </trkpt>
      <trkpt lat="43.67711" lon="1.2074">
        <ele>175.621047</ele>
        <time>2023-01-03T12:43:59.149Z</time>
      </trkpt>
      <trkpt lat="43.67721" lon="1.2075">
        <ele>175.65916</ele>
        <time>2023-01-03T12:44:02.159Z</time>
      </trkpt>
      <trkpt lat="43.67732" lon="1.2076">
        <ele>175.697641</ele>
        <time>2023-01-03T12:44:05.157Z</time>
      </trkpt>
      <trkpt lat="43.67743" lon="1.2077">
        <ele>175.735754</ele>
        <time>2023-01-03T12:44:08.161Z</time>
      </trkpt>
      <trkpt lat="43.67753" lon="1.2078">
        <ele>175.772537</ele>
        <time>2023-01-03T12:44:11.158Z</time>
      </trkpt>
      <trkpt lat="43.67763" lon="1.2079">
        <ele>175.808479</ele>
        <time>2023-01-03T12:44:14.166Z</time>
      </trkpt>
      <trkpt lat="43.67774" lon="1.208">
        <ele>175.82558</ele>
        <time>2023-01-03T12:44:17.155Z</time>
      </trkpt>
      <trkpt lat="43.67785" lon="1.20811">
        <ele>175.790083</ele>
        <time>2023-01-03T12:44:20.155Z</time>
      </trkpt>
      <trkpt lat="43.67792" lon="1.20817">
        <ele>175.765901</ele>
        <time>2023-01-03T12:44:22.157Z</time>
      </trkpt>
      <trkpt lat="43.678" lon="1.20824">
        <ele>175.741837</ele>
        <time>2023-01-03T12:44:24.165Z</time>
      </trkpt>
      <trkpt lat="43.67811" lon="1.20834">
        <ele>175.70721</ele>
        <time>2023-01-03T12:44:27.155Z</time>
      </trkpt>
      <trkpt lat="43.6782" lon="1.20843">
        <ele>175.675897</ele>
        <time>2023-01-03T12:44:30.154Z</time>
      </trkpt>
      <trkpt lat="43.67829" lon="1.20852">
        <ele>175.646442</ele>
        <time>2023-01-03T12:44:33.162Z</time>
      </trkpt>
      <trkpt lat="43.67839" lon="1.20862">
        <ele>175.614236</ele>
        <time>2023-01-03T12:44:36.155Z</time>
      </trkpt>
      <trkpt lat="43.6785" lon="1.20872">
        <ele>175.57874</ele>
        <time>2023-01-03T12:44:39.163Z</time>
      </trkpt>
      <trkpt lat="43.67857" lon="1.20879">
        <ele>175.554679</ele>
        <time>2023-01-03T12:44:41.170Z</time>
      </trkpt>
      <trkpt lat="43.67866" lon="1.20887">
        <ele>175.5282</ele>
        <time>2023-01-03T12:44:43.152Z</time>
      </trkpt>
      <trkpt lat="43.67874" lon="1.20895">
        <ele>175.501366</ele>
        <time>2023-01-03T12:44:45.172Z</time>
      </trkpt>
      <trkpt lat="43.67882" lon="1.20904">
        <ele>175.474879</ele>
        <time>2023-01-03T12:44:47.152Z</time>
      </trkpt>
      <trkpt lat="43.6789" lon="1.20911">
        <ele>175.447509</ele>
        <time>2023-01-03T12:44:49.154Z</time>
      </trkpt>
      <trkpt lat="43.67898" lon="1.20919">
        <ele>175.421575</ele>
        <time>2023-01-03T12:44:51.188Z</time>
      </trkpt>
      <trkpt lat="43.67906" lon="1.20926">
        <ele>175.396415</ele>
        <time>2023-01-03T12:44:53.170Z</time>
      </trkpt>
      <trkpt lat="43.67916" lon="1.20937">
        <ele>175.36233</ele>
        <time>2023-01-03T12:44:56.176Z</time>
      </trkpt>
      <trkpt lat="43.67925" lon="1.20946">
        <ele>175.337286</ele>
        <time>2023-01-03T12:44:59.175Z</time>
      </trkpt>
      <trkpt lat="43.67936" lon="1.20955">
        <ele>175.309512</ele>
        <time>2023-01-03T12:45:02.163Z</time>
      </trkpt>
      <trkpt lat="43.67943" lon="1.20962">
        <ele>175.288931</ele>
        <time>2023-01-03T12:45:04.152Z</time>
      </trkpt>
      <trkpt lat="43.67951" lon="1.20969">
        <ele>175.268315</ele>
        <time>2023-01-03T12:45:06.169Z</time>
      </trkpt>
      <trkpt lat="43.67959" lon="1.20976">
        <ele>175.247373</ele>
        <time>2023-01-03T12:45:08.173Z</time>
      </trkpt>
      <trkpt lat="43.67968" lon="1.20985">
        <ele>175.223885</ele>
        <time>2023-01-03T12:45:10.174Z</time>
      </trkpt>
      <trkpt lat="43.67975" lon="1.20993">
        <ele>175.202671</ele>
        <time>2023-01-03T12:45:12.156Z</time>
      </trkpt>
      <trkpt lat="43.67983" lon="1.21001">
        <ele>175.181466</ele>
        <time>2023-01-03T12:45:14.168Z</time>
      </trkpt>
      <trkpt lat="43.67991" lon="1.21009">
        <ele>175.159889</ele>
        <time>2023-01-03T12:45:16.184Z</time>
      </trkpt>
      <trkpt lat="43.67999" lon="1.21017">
        <ele>175.137043</ele>
        <time>2023-01-03T12:45:18.160Z</time>
      </trkpt>
      <trkpt lat="43.68008" lon="1.21025">
        <ele>175.114014</ele>
        <time>2023-01-03T12:45:20.174Z</time>
      </trkpt>
      <trkpt lat="43.68017" lon="1.21034">
        <ele>175.090805</ele>
        <time>2023-01-03T12:45:22.170Z</time>
      </trkpt>
      <trkpt lat="43.68025" lon="1.21042">
        <ele>175.066962</ele>
        <time>2023-01-03T12:45:24.177Z</time>
      </trkpt>
      <trkpt lat="43.68034" lon="1.21051">
        <ele>175.044205</ele>
        <time>2023-01-03T12:45:26.181Z</time>
      </trkpt>
      <trkpt lat="43.68042" lon="1.21058">
        <ele>175.022538</ele>
        <time>2023-01-03T12:45:28.170Z</time>
      </trkpt>
      <trkpt lat="43.68051" lon="1.21067">
        <ele>174.998333</ele>
        <time>2023-01-03T12:45:30.153Z</time>
      </trkpt>
      <trkpt lat="43.68059" lon="1.21075">
        <ele>174.97585</ele>
        <time>2023-01-03T12:45:32.172Z</time>
      </trkpt>
      <trkpt lat="43.68068" lon="1.21083">
        <ele>174.949285</ele>
        <time>2023-01-03T12:45:34.165Z</time>
      </trkpt>
      <trkpt lat="43.68077" lon="1.21091">
        <ele>174.917202</ele>
        <time>2023-01-03T12:45:36.154Z</time>
      </trkpt>
      <trkpt lat="43.68085" lon="1.21099">
        <ele>174.886148</ele>
        <time>2023-01-03T12:45:38.171Z</time>
      </trkpt>
      <trkpt lat="43.68094" lon="1.21106">
        <ele>174.853941</ele>
        <time>2023-01-03T12:45:40.160Z</time>
      </trkpt>
      <trkpt lat="43.68101" lon="1.21115">
        <ele>174.824987</ele>
        <time>2023-01-03T12:45:42.170Z</time>
      </trkpt>
      <trkpt lat="43.68109" lon="1.21124">
        <ele>174.793861</ele>
        <time>2023-01-03T12:45:44.175Z</time>
      </trkpt>
      <trkpt lat="43.6812" lon="1.21133">
        <ele>174.754143</ele>
        <time>2023-01-03T12:45:47.157Z</time>
      </trkpt>
      <trkpt lat="43.6813" lon="1.21142">
        <ele>174.715783</ele>
        <time>2023-01-03T12:45:50.171Z</time>
      </trkpt>
      <trkpt lat="43.68141" lon="1.21153">
        <ele>174.673703</ele>
        <time>2023-01-03T12:45:53.164Z</time>
      </trkpt>
      <trkpt lat="43.68148" lon="1.21161">
        <ele>174.644179</ele>
        <time>2023-01-03T12:45:55.170Z</time>
      </trkpt>
      <trkpt lat="43.68157" lon="1.21168">
        <ele>174.613494</ele>
        <time>2023-01-03T12:45:57.159Z</time>
      </trkpt>
      <trkpt lat="43.68165" lon="1.21175">
        <ele>174.582281</ele>
        <time>2023-01-03T12:45:59.158Z</time>
      </trkpt>
      <trkpt lat="43.68173" lon="1.21183">
        <ele>174.552639</ele>
        <time>2023-01-03T12:46:01.155Z</time>
      </trkpt>
      <trkpt lat="43.68181" lon="1.21191">
        <ele>174.521207</ele>
        <time>2023-01-03T12:46:03.172Z</time>
      </trkpt>
      <trkpt lat="43.68189" lon="1.21199">
        <ele>174.489902</ele>
        <time>2023-01-03T12:46:05.166Z</time>
      </trkpt>
      <trkpt lat="43.68198" lon="1.21207">
        <ele>174.457174</ele>
        <time>2023-01-03T12:46:07.173Z</time>
      </trkpt>
      <trkpt lat="43.68206" lon="1.21215">
        <ele>174.427592</ele>
        <time>2023-01-03T12:46:09.172Z</time>
      </trkpt>
      <trkpt lat="43.68214" lon="1.21223">
        <ele>174.40013</ele>
        <time>2023-01-03T12:46:11.154Z</time>
      </trkpt>
      <trkpt lat="43.68222" lon="1.21231">
        <ele>174.457941</ele>
        <time>2023-01-03T12:46:13.180Z</time>
      </trkpt>
      <trkpt lat="43.6823" lon="1.21239">
        <ele>174.515783</ele>
        <time>2023-01-03T12:46:15.185Z</time>
      </trkpt>
      <trkpt lat="43.68238" lon="1.21247">
        <ele>174.576056</ele>
        <time>2023-01-03T12:46:17.162Z</time>
      </trkpt>
      <trkpt lat="43.68247" lon="1.21255">
        <ele>174.636054</ele>
        <time>2023-01-03T12:46:19.170Z</time>
      </trkpt>
      <trkpt lat="43.68255" lon="1.21263">
        <ele>174.697735</ele>
        <time>2023-01-03T12:46:21.167Z</time>
      </trkpt>
      <trkpt lat="43.68264" lon="1.21272">
        <ele>174.761351</ele>
        <time>2023-01-03T12:46:23.165Z</time>
      </trkpt>
      <trkpt lat="43.68273" lon="1.2128">
        <ele>174.822827</ele>
        <time>2023-01-03T12:46:25.173Z</time>
      </trkpt>
      <trkpt lat="43.68281" lon="1.21287">
        <ele>174.881123</ele>
        <time>2023-01-03T12:46:27.173Z</time>
      </trkpt>
      <trkpt lat="43.68289" lon="1.21295">
        <ele>174.936998</ele>
        <time>2023-01-03T12:46:29.157Z</time>
      </trkpt>
      <trkpt lat="43.68299" lon="1.21305">
        <ele>175.011261</ele>
        <time>2023-01-03T12:46:32.158Z</time>
      </trkpt>
      <trkpt lat="43.6831" lon="1.21314">
        <ele>175.084568</ele>
        <time>2023-01-03T12:46:35.153Z</time>
      </trkpt>
      <trkpt lat="43.6832" lon="1.21325">
        <ele>175.160778</ele>
        <time>2023-01-03T12:46:38.170Z</time>
      </trkpt>
      <trkpt lat="43.68332" lon="1.21335">
        <ele>175.239783</ele>
        <time>2023-01-03T12:46:41.166Z</time>
      </trkpt>
      <trkpt lat="43.68339" lon="1.21342">
        <ele>175.292999</ele>
        <time>2023-01-03T12:46:43.167Z</time>
      </trkpt>
      <trkpt lat="43.68347" lon="1.2135">
        <ele>175.349175</ele>
        <time>2023-01-03T12:46:45.161Z</time>
      </trkpt>
      <trkpt lat="43.68357" lon="1.21361">
        <ele>175.427338</ele>
        <time>2023-01-03T12:46:48.166Z</time>
      </trkpt>
      <trkpt lat="43.68368" lon="1.21371">
        <ele>175.501712</ele>
        <time>2023-01-03T12:46:51.164Z</time>
      </trkpt>
      <trkpt lat="43.68378" lon="1.21382">
        <ele>175.575662</ele>
        <time>2023-01-03T12:46:54.178Z</time>
      </trkpt>
      <trkpt lat="43.68389" lon="1.21392">
        <ele>175.650548</ele>
        <time>2023-01-03T12:46:57.173Z</time>
      </trkpt>
      <trkpt lat="43.684" lon="1.21403">
        <ele>175.724513</ele>
        <time>2023-01-03T12:47:00.179Z</time>
      </trkpt>
      <trkpt lat="43.6841" lon="1.21413">
        <ele>175.793023</ele>
        <time>2023-01-03T12:47:03.157Z</time>
      </trkpt>
      <trkpt lat="43.68419" lon="1.21422">
        <ele>175.856521</ele>
        <time>2023-01-03T12:47:06.170Z</time>
      </trkpt>
      <trkpt lat="43.68427" lon="1.21431">
        <ele>175.917109</ele>
        <time>2023-01-03T12:47:09.171Z</time>
      </trkpt>
      <trkpt lat="43.68436" lon="1.21458">
        <ele>176.037517</ele>
        <time>2023-01-03T12:47:56.159Z</time>
      </trkpt>
      <trkpt lat="43.68435" lon="1.21471">
        <ele>176.091084</ele>
        <time>2023-01-03T12:47:59.179Z</time>
      </trkpt>
      <trkpt lat="43.68433" lon="1.21484">
        <ele>176.146074</ele>
        <time>2023-01-03T12:48:02.154Z</time>
      </trkpt>
      <trkpt lat="43.68428" lon="1.21496">
        <ele>176.201995</ele>
        <time>2023-01-03T12:48:05.158Z</time>
      </trkpt>
      <trkpt lat="43.68422" lon="1.21507">
        <ele>176.257014</ele>
        <time>2023-01-03T12:48:08.160Z</time>
      </trkpt>
      <trkpt lat="43.68416" lon="1.21516">
        <ele>176.310193</ele>
        <time>2023-01-03T12:48:11.160Z</time>
      </trkpt>
      <trkpt lat="43.6841" lon="1.21526">
        <ele>176.361397</ele>
        <time>2023-01-03T12:48:14.162Z</time>
      </trkpt>
      <trkpt lat="43.68403" lon="1.21534">
        <ele>176.413878</ele>
        <time>2023-01-03T12:48:17.168Z</time>
      </trkpt>
      <trkpt lat="43.68396" lon="1.21543">
        <ele>176.467157</ele>
        <time>2023-01-03T12:48:20.152Z</time>
      </trkpt>
      <trkpt lat="43.68387" lon="1.21552">
        <ele>176.864069</ele>
        <time>2023-01-03T12:48:24.163Z</time>
      </trkpt>
      <trkpt lat="43.68379" lon="1.21561">
        <ele>177.272286</ele>
        <time>2023-01-03T12:48:28.153Z</time>
      </trkpt>
      <trkpt lat="43.68371" lon="1.21572">
        <ele>177.711398</ele>
        <time>2023-01-03T12:48:32.155Z</time>
      </trkpt>
      <trkpt lat="43.68363" lon="1.21582">
        <ele>178.153609</ele>
        <time>2023-01-03T12:48:36.168Z</time>
      </trkpt>
      <trkpt lat="43.68356" lon="1.21593">
        <ele>178.567025</ele>
        <time>2023-01-03T12:48:40.153Z</time>
      </trkpt>
      <trkpt lat="43.68348" lon="1.21601">
        <ele>178.964675</ele>
        <time>2023-01-03T12:48:44.160Z</time>
      </trkpt>
      <trkpt lat="43.68341" lon="1.21611">
        <ele>179.34935</ele>
        <time>2023-01-03T12:48:48.157Z</time>
      </trkpt>
      <trkpt lat="43.68334" lon="1.21621">
        <ele>179.753945</ele>
        <time>2023-01-03T12:48:52.155Z</time>
      </trkpt>
      <trkpt lat="43.68327" lon="1.2163">
        <ele>180.127737</ele>
        <time>2023-01-03T12:48:56.162Z</time>
      </trkpt>
      <trkpt lat="43.6832" lon="1.2164">
        <ele>180.524027</ele>
        <time>2023-01-03T12:49:01.157Z</time>
      </trkpt>
      <trkpt lat="43.68311" lon="1.2165">
        <ele>180.95743</ele>
        <time>2023-01-03T12:49:06.152Z</time>
      </trkpt>
      <trkpt lat="43.68304" lon="1.21657">
        <ele>181.315515</ele>
        <time>2023-01-03T12:49:10.154Z</time>
      </trkpt>
      <trkpt lat="43.68298" lon="1.21668">
        <ele>181.705482</ele>
        <time>2023-01-03T12:49:15.160Z</time>
      </trkpt>
      <trkpt lat="43.68291" lon="1.21678">
        <ele>182.113739</ele>
        <time>2023-01-03T12:49:20.169Z</time>
      </trkpt>
      <trkpt lat="43.68283" lon="1.21686">
        <ele>182.478732</ele>
        <time>2023-01-03T12:49:25.148Z</time>
      </trkpt>
      <trkpt lat="43.68275" lon="1.21694">
        <ele>182.877184</ele>
        <time>2023-01-03T12:49:30.165Z</time>
      </trkpt>
      <trkpt lat="43.68268" lon="1.21704">
        <ele>183.281781</ele>
        <time>2023-01-03T12:49:35.155Z</time>
      </trkpt>
      <trkpt lat="43.68261" lon="1.21715">
        <ele>183.779789</ele>
        <time>2023-01-03T12:49:41.165Z</time>
      </trkpt>
      <trkpt lat="43.68254" lon="1.21725">
        <ele>184.434278</ele>
        <time>2023-01-03T12:49:47.159Z</time>
      </trkpt>
      <trkpt lat="43.68246" lon="1.21733">
        <ele>185.088673</ele>
        <time>2023-01-03T12:49:53.159Z</time>
      </trkpt>
      <trkpt lat="43.68238" lon="1.21742">
        <ele>185.769069</ele>
        <time>2023-01-03T12:49:59.158Z</time>
      </trkpt>
      <trkpt lat="43.68231" lon="1.21752">
        <ele>186.414484</ele>
        <time>2023-01-03T12:50:05.152Z</time>
      </trkpt>
      <trkpt lat="43.68225" lon="1.21764">
        <ele>187.087773</ele>
        <time>2023-01-03T12:50:11.160Z</time>
      </trkpt>
      <trkpt lat="43.68217" lon="1.21774">
        <ele>187.767315</ele>
        <time>2023-01-03T12:50:17.155Z</time>
      </trkpt>
      <trkpt lat="43.68211" lon="1.21783">
        <ele>188.362069</ele>
        <time>2023-01-03T12:50:22.161Z</time>
      </trkpt>
      <trkpt lat="43.68205" lon="1.21794">
        <ele>189.005684</ele>
        <time>2023-01-03T12:50:28.154Z</time>
      </trkpt>
      <trkpt lat="43.68199" lon="1.21803">
        <ele>189.594227</ele>
        <time>2023-01-03T12:50:34.166Z</time>
      </trkpt>
      <trkpt lat="43.68191" lon="1.21813">
        <ele>190.269136</ele>
        <time>2023-01-03T12:50:41.157Z</time>
      </trkpt>
      <trkpt lat="43.68186" lon="1.21824">
        <ele>190.854913</ele>
        <time>2023-01-03T12:50:47.162Z</time>
      </trkpt>
      <trkpt lat="43.6818" lon="1.21835">
        <ele>191.509967</ele>
        <time>2023-01-03T12:50:53.160Z</time>
      </trkpt>
      <trkpt lat="43.68174" lon="1.21846">
        <ele>192.16497</ele>
        <time>2023-01-03T12:50:59.150Z</time>
      </trkpt>
      <trkpt lat="43.68168" lon="1.21856">
        <ele>192.776981</ele>
        <time>2023-01-03T12:51:05.162Z</time>
      </trkpt>
      <trkpt lat="43.68162" lon="1.21868">
        <ele>193.447385</ele>
        <time>2023-01-03T12:51:11.175Z</time>
      </trkpt>
      <trkpt lat="43.68157" lon="1.21879">
        <ele>194.067598</ele>
        <time>2023-01-03T12:51:17.152Z</time>
      </trkpt>
      <trkpt lat="43.68152" lon="1.2189">
        <ele>194.696854</ele>
        <time>2023-01-03T12:51:23.158Z</time>
      </trkpt>
      <trkpt lat="43.68146" lon="1.21901">
        <ele>195.307439</ele>
        <time>2023-01-03T12:51:30.163Z</time>
      </trkpt>
      <trkpt lat="43.68142" lon="1.21913">
        <ele>195.692887</ele>
        <time>2023-01-03T12:51:36.166Z</time>
      </trkpt>
      <trkpt lat="43.68137" lon="1.21925">
        <ele>196.099414</ele>
        <time>2023-01-03T12:51:42.173Z</time>
      </trkpt>
      <trkpt lat="43.68132" lon="1.21938">
        <ele>196.508476</ele>
        <time>2023-01-03T12:51:48.152Z</time>
      </trkpt>
      <trkpt lat="43.68127" lon="1.2195">
        <ele>196.92391</ele>
        <time>2023-01-03T12:51:54.157Z</time>
      </trkpt>
      <trkpt lat="43.68123" lon="1.21963">
        <ele>197.336881</ele>
        <time>2023-01-03T12:52:00.155Z</time>
      </trkpt>
      <trkpt lat="43.68117" lon="1.21976">
        <ele>197.760578</ele>
        <time>2023-01-03T12:52:06.163Z</time>
      </trkpt>
      <trkpt lat="43.68114" lon="1.21988">
        <ele>198.14005</ele>
        <time>2023-01-03T12:52:11.170Z</time>
      </trkpt>
      <trkpt lat="43.68109" lon="1.22">
        <ele>198.543841</ele>
        <time>2023-01-03T12:52:16.154Z</time>
      </trkpt>
      <trkpt lat="43.68106" lon="1.22012">
        <ele>198.928215</ele>
        <time>2023-01-03T12:52:21.156Z</time>
      </trkpt>
      <trkpt lat="43.68102" lon="1.22025">
        <ele>199.338469</ele>
        <time>2023-01-03T12:52:26.152Z</time>
      </trkpt>
      <trkpt lat="43.68098" lon="1.2204">
        <ele>199.789122</ele>
        <time>2023-01-03T12:52:31.158Z</time>
      </trkpt>
      <trkpt lat="43.68094" lon="1.22053">
        <ele>200.217155</ele>
        <time>2023-01-03T12:52:35.156Z</time>
      </trkpt>
      <trkpt lat="43.6809" lon="1.22065">
        <ele>200.580685</ele>
        <time>2023-01-03T12:52:38.155Z</time>
      </trkpt>
      <trkpt lat="43.68087" lon="1.22077">
        <ele>200.979877</ele>
        <time>2023-01-03T12:52:41.155Z</time>
      </trkpt>
      <trkpt lat="43.68083" lon="1.22091">
        <ele>201.397376</ele>
        <time>2023-01-03T12:52:44.157Z</time>
      </trkpt>
      <trkpt lat="43.68078" lon="1.22104">
        <ele>201.817806</ele>
        <time>2023-01-03T12:52:47.155Z</time>
      </trkpt>
      <trkpt lat="43.68073" lon="1.22117">
        <ele>202.260787</ele>
        <time>2023-01-03T12:52:50.159Z</time>
      </trkpt>
      <trkpt lat="43.68068" lon="1.2213">
        <ele>202.448651</ele>
        <time>2023-01-03T12:52:53.160Z</time>
      </trkpt>
      <trkpt lat="43.68064" lon="1.22141">
        <ele>202.376853</ele>
        <time>2023-01-03T12:52:56.150Z</time>
      </trkpt>
      <trkpt lat="43.68058" lon="1.22155">
        <ele>202.294804</ele>
        <time>2023-01-03T12:53:00.154Z</time>
      </trkpt>
      <trkpt lat="43.68054" lon="1.22167">
        <ele>202.221732</ele>
        <time>2023-01-03T12:53:04.160Z</time>
      </trkpt>
      <trkpt lat="43.68047" lon="1.2218">
        <ele>202.134232</ele>
        <time>2023-01-03T12:53:08.160Z</time>
      </trkpt>
      <trkpt lat="43.68042" lon="1.22192">
        <ele>202.063738</ele>
        <time>2023-01-03T12:53:11.154Z</time>
      </trkpt>
      <trkpt lat="43.68037" lon="1.22203">
        <ele>201.99276</ele>
        <time>2023-01-03T12:53:14.155Z</time>
      </trkpt>
      <trkpt lat="43.6803" lon="1.22216">
        <ele>201.905259</ele>
        <time>2023-01-03T12:53:18.165Z</time>
      </trkpt>
      <trkpt lat="43.68023" lon="1.22229">
        <ele>201.820369</ele>
        <time>2023-01-03T12:53:22.159Z</time>
      </trkpt>
      <trkpt lat="43.68018" lon="1.2224">
        <ele>201.748056</ele>
        <time>2023-01-03T12:53:25.154Z</time>
      </trkpt>
      <trkpt lat="43.68012" lon="1.22251">
        <ele>201.673179</ele>
        <time>2023-01-03T12:53:28.162Z</time>
      </trkpt>
      <trkpt lat="43.68005" lon="1.22262">
        <ele>201.594207</ele>
        <time>2023-01-03T12:53:31.160Z</time>
      </trkpt>
      <trkpt lat="43.67998" lon="1.22273">
        <ele>201.516297</ele>
        <time>2023-01-03T12:53:34.180Z</time>
      </trkpt>
      <trkpt lat="43.67991" lon="1.22284">
        <ele>201.436367</ele>
        <time>2023-01-03T12:53:37.159Z</time>
      </trkpt>
      <trkpt lat="43.67984" lon="1.22296">
        <ele>201.354367</ele>
        <time>2023-01-03T12:53:40.158Z</time>
      </trkpt>
      <trkpt lat="43.67976" lon="1.22308">
        <ele>201.267938</ele>
        <time>2023-01-03T12:53:43.157Z</time>
      </trkpt>
      <trkpt lat="43.67968" lon="1.2232">
        <ele>201.179755</ele>
        <time>2023-01-03T12:53:46.154Z</time>
      </trkpt>
      <trkpt lat="43.67959" lon="1.22331">
        <ele>200.907301</ele>
        <time>2023-01-03T12:53:49.159Z</time>
      </trkpt>
      <trkpt lat="43.6795" lon="1.22343">
        <ele>200.529114</ele>
        <time>2023-01-03T12:53:52.157Z</time>
      </trkpt>
      <trkpt lat="43.6794" lon="1.22355">
        <ele>200.150927</ele>
        <time>2023-01-03T12:53:55.163Z</time>
      </trkpt>
      <trkpt lat="43.6793" lon="1.22366">
        <ele>199.755466</ele>
        <time>2023-01-03T12:53:58.156Z</time>
      </trkpt>
      <trkpt lat="43.6792" lon="1.22378">
        <ele>199.36546</ele>
        <time>2023-01-03T12:54:01.157Z</time>
      </trkpt>
      <trkpt lat="43.67909" lon="1.22387">
        <ele>198.972478</ele>
        <time>2023-01-03T12:54:04.155Z</time>
      </trkpt>
      <trkpt lat="43.67899" lon="1.224">
        <ele>198.578991</ele>
        <time>2023-01-03T12:54:07.160Z</time>
      </trkpt>
      <trkpt lat="43.67891" lon="1.22407">
        <ele>198.302823</ele>
        <time>2023-01-03T12:54:09.155Z</time>
      </trkpt>
      <trkpt lat="43.67883" lon="1.22414">
        <ele>198.001943</ele>
        <time>2023-01-03T12:54:11.154Z</time>
      </trkpt>
      <trkpt lat="43.67874" lon="1.22421">
        <ele>197.711839</ele>
        <time>2023-01-03T12:54:13.158Z</time>
      </trkpt>
      <trkpt lat="43.67865" lon="1.22429">
        <ele>197.38582</ele>
        <time>2023-01-03T12:54:15.155Z</time>
      </trkpt>
      <trkpt lat="43.67855" lon="1.22437">
        <ele>197.040345</ele>
        <time>2023-01-03T12:54:17.148Z</time>
      </trkpt>
      <trkpt lat="43.67845" lon="1.22445">
        <ele>196.704531</ele>
        <time>2023-01-03T12:54:19.160Z</time>
      </trkpt>
      <trkpt lat="43.67834" lon="1.22452">
        <ele>196.333964</ele>
        <time>2023-01-03T12:54:21.159Z</time>
      </trkpt>
      <trkpt lat="43.67823" lon="1.2246">
        <ele>195.962425</ele>
        <time>2023-01-03T12:54:23.164Z</time>
      </trkpt>
      <trkpt lat="43.67811" lon="1.22468">
        <ele>195.759199</ele>
        <time>2023-01-03T12:54:25.155Z</time>
      </trkpt>
      <trkpt lat="43.67799" lon="1.22475">
        <ele>195.718766</ele>
        <time>2023-01-03T12:54:27.154Z</time>
      </trkpt>
      <trkpt lat="43.67787" lon="1.22482">
        <ele>195.67878</ele>
        <time>2023-01-03T12:54:29.163Z</time>
      </trkpt>
      <trkpt lat="43.67776" lon="1.22488">
        <ele>195.64201</ele>
        <time>2023-01-03T12:54:31.189Z</time>
      </trkpt>
      <trkpt lat="43.67766" lon="1.22494">
        <ele>195.608084</ele>
        <time>2023-01-03T12:54:33.170Z</time>
      </trkpt>
      <trkpt lat="43.67756" lon="1.22498">
        <ele>195.576744</ele>
        <time>2023-01-03T12:54:35.175Z</time>
      </trkpt>
      <trkpt lat="43.67748" lon="1.22503">
        <ele>195.54796</ele>
        <time>2023-01-03T12:54:37.156Z</time>
      </trkpt>
      <trkpt lat="43.67739" lon="1.22507">
        <ele>195.51999</ele>
        <time>2023-01-03T12:54:39.157Z</time>
      </trkpt>
      <trkpt lat="43.67727" lon="1.22511">
        <ele>195.48164</ele>
        <time>2023-01-03T12:54:42.172Z</time>
      </trkpt>
      <trkpt lat="43.67717" lon="1.22514">
        <ele>195.448719</ele>
        <time>2023-01-03T12:54:45.158Z</time>
      </trkpt>
      <trkpt lat="43.67705" lon="1.22517">
        <ele>195.413257</ele>
        <time>2023-01-03T12:54:48.173Z</time>
      </trkpt>
      <trkpt lat="43.67694" lon="1.22521">
        <ele>195.37667</ele>
        <time>2023-01-03T12:54:51.165Z</time>
      </trkpt>
      <trkpt lat="43.67682" lon="1.22525">
        <ele>195.33951</ele>
        <time>2023-01-03T12:54:54.157Z</time>
      </trkpt>
      <trkpt lat="43.67671" lon="1.22528">
        <ele>195.30229</ele>
        <time>2023-01-03T12:54:57.166Z</time>
      </trkpt>
      <trkpt lat="43.67659" lon="1.22531">
        <ele>195.265394</ele>
        <time>2023-01-03T12:55:00.164Z</time>
      </trkpt>
      <trkpt lat="43.67647" lon="1.22533">
        <ele>195.22794</ele>
        <time>2023-01-03T12:55:03.162Z</time>
      </trkpt>
      <trkpt lat="43.67635" lon="1.22534">
        <ele>195.343664</ele>
        <time>2023-01-03T12:55:06.164Z</time>
      </trkpt>
      <trkpt lat="43.67623" lon="1.22534">
        <ele>195.473711</ele>
        <time>2023-01-03T12:55:09.159Z</time>
      </trkpt>
      <trkpt lat="43.67612" lon="1.22536">
        <ele>195.593544</ele>
        <time>2023-01-03T12:55:12.158Z</time>
      </trkpt>
      <trkpt lat="43.67602" lon="1.22536">
        <ele>195.697564</ele>
        <time>2023-01-03T12:55:15.157Z</time>
      </trkpt>
      <trkpt lat="43.67592" lon="1.22536">
        <ele>195.800562</ele>
        <time>2023-01-03T12:55:18.162Z</time>
      </trkpt>
      <trkpt lat="43.67582" lon="1.22536">
        <ele>195.908904</ele>
        <time>2023-01-03T12:55:21.160Z</time>
      </trkpt>
      <trkpt lat="43.67572" lon="1.22538">
        <ele>196.022363</ele>
        <time>2023-01-03T12:55:24.158Z</time>
      </trkpt>
      <trkpt lat="43.67562" lon="1.2254">
        <ele>196.132693</ele>
        <time>2023-01-03T12:55:27.157Z</time>
      </trkpt>
      <trkpt lat="43.67552" lon="1.22541">
        <ele>196.241512</ele>
        <time>2023-01-03T12:55:30.162Z</time>
      </trkpt>
      <trkpt lat="43.67542" lon="1.22542">
        <ele>196.350261</ele>
        <time>2023-01-03T12:55:33.147Z</time>
      </trkpt>
      <trkpt lat="43.67532" lon="1.22544">
        <ele>196.458078</ele>
        <time>2023-01-03T12:55:36.162Z</time>
      </trkpt>
      <trkpt lat="43.67522" lon="1.22544">
        <ele>196.563216</ele>
        <time>2023-01-03T12:55:39.178Z</time>
      </trkpt>
      <trkpt lat="43.67513" lon="1.22545">
        <ele>196.668412</ele>
        <time>2023-01-03T12:55:42.151Z</time>
      </trkpt>
      <trkpt lat="43.67503" lon="1.22546">
        <ele>196.776016</ele>
        <time>2023-01-03T12:55:45.158Z</time>
      </trkpt>
      <trkpt lat="43.67493" lon="1.22547">
        <ele>196.886992</ele>
        <time>2023-01-03T12:55:48.164Z</time>
      </trkpt>
      <trkpt lat="43.67483" lon="1.22548">
        <ele>196.985894</ele>
        <time>2023-01-03T12:55:51.158Z</time>
      </trkpt>
      <trkpt lat="43.67474" lon="1.22549">
        <ele>197.09109</ele>
        <time>2023-01-03T12:55:55.159Z</time>
      </trkpt>
      <trkpt lat="43.67463" lon="1.2255">
        <ele>197.253014</ele>
        <time>2023-01-03T12:55:59.166Z</time>
      </trkpt>
      <trkpt lat="43.67453" lon="1.22552">
        <ele>197.542359</ele>
        <time>2023-01-03T12:56:03.148Z</time>
      </trkpt>
      <trkpt lat="43.67442" lon="1.22555">
        <ele>197.826135</ele>
        <time>2023-01-03T12:56:07.158Z</time>
      </trkpt>
      <trkpt lat="43.67433" lon="1.22558">
        <ele>198.093371</ele>
        <time>2023-01-03T12:56:11.169Z</time>
      </trkpt>
      <trkpt lat="43.67411" lon="1.22562">
        <ele>198.673971</ele>
        <time>2023-01-03T12:57:04.159Z</time>
      </trkpt>
      <trkpt lat="43.674" lon="1.22558">
        <ele>198.98186</ele>
        <time>2023-01-03T12:57:08.156Z</time>
      </trkpt>
      <trkpt lat="43.67391" lon="1.22551">
        <ele>199.265618</ele>
        <time>2023-01-03T12:57:11.166Z</time>
      </trkpt>
      <trkpt lat="43.67382" lon="1.22544">
        <ele>199.543925</ele>
        <time>2023-01-03T12:57:14.155Z</time>
      </trkpt>
      <trkpt lat="43.67372" lon="1.22535">
        <ele>199.848139</ele>
        <time>2023-01-03T12:57:18.159Z</time>
      </trkpt>
      <trkpt lat="43.67365" lon="1.22527">
        <ele>200.099636</ele>
        <time>2023-01-03T12:57:22.163Z</time>
      </trkpt>
      <trkpt lat="43.67357" lon="1.22519">
        <ele>200.354297</ele>
        <time>2023-01-03T12:57:26.155Z</time>
      </trkpt>
      <trkpt lat="43.67348" lon="1.22512">
        <ele>200.631323</ele>
        <time>2023-01-03T12:57:31.154Z</time>
      </trkpt>
      <trkpt lat="43.6734" lon="1.22505">
        <ele>200.902428</ele>
        <time>2023-01-03T12:57:36.159Z</time>
      </trkpt>
      <trkpt lat="43.67331" lon="1.22497">
        <ele>201.172644</ele>
        <time>2023-01-03T12:57:41.161Z</time>
      </trkpt>
      <trkpt lat="43.67322" lon="1.22489">
        <ele>201.45372</ele>
        <time>2023-01-03T12:57:46.158Z</time>
      </trkpt>
      <trkpt lat="43.67314" lon="1.22481">
        <ele>201.721551</ele>
        <time>2023-01-03T12:57:51.155Z</time>
      </trkpt>
      <trkpt lat="43.67307" lon="1.22474">
        <ele>201.9643</ele>
        <time>2023-01-03T12:57:56.155Z</time>
      </trkpt>
      <trkpt lat="43.67299" lon="1.22465">
        <ele>202.444674</ele>
        <time>2023-01-03T12:58:02.164Z</time>
      </trkpt>
      <trkpt lat="43.67291" lon="1.22456">
        <ele>202.974937</ele>
        <time>2023-01-03T12:58:08.157Z</time>
      </trkpt>
      <trkpt lat="43.67282" lon="1.22448">
        <ele>203.491944</ele>
        <time>2023-01-03T12:58:14.157Z</time>
      </trkpt>
      <trkpt lat="43.67273" lon="1.2244">
        <ele>204.009613</ele>
        <time>2023-01-03T12:58:20.153Z</time>
      </trkpt>
      <trkpt lat="43.67264" lon="1.22434">
        <ele>204.540781</ele>
        <time>2023-01-03T12:58:26.149Z</time>
      </trkpt>
      <trkpt lat="43.67255" lon="1.22427">
        <ele>205.049933</ele>
        <time>2023-01-03T12:58:32.155Z</time>
      </trkpt>
      <trkpt lat="43.67246" lon="1.22418">
        <ele>205.572719</ele>
        <time>2023-01-03T12:58:38.150Z</time>
      </trkpt>
      <trkpt lat="43.67238" lon="1.22411">
        <ele>206.089907</ele>
        <time>2023-01-03T12:58:44.163Z</time>
      </trkpt>
      <trkpt lat="43.6723" lon="1.22404">
        <ele>206.55343</ele>
        <time>2023-01-03T12:58:49.158Z</time>
      </trkpt>
      <trkpt lat="43.67221" lon="1.22397">
        <ele>207.031502</ele>
        <time>2023-01-03T12:58:54.168Z</time>
      </trkpt>
      <trkpt lat="43.67207" lon="1.22388">
        <ele>207.835817</ele>
        <time>2023-01-03T12:59:31.151Z</time>
      </trkpt>
      <trkpt lat="43.67197" lon="1.22392">
        <ele>208.343151</ele>
        <time>2023-01-03T12:59:41.164Z</time>
      </trkpt>
      <trkpt lat="43.67188" lon="1.224">
        <ele>208.857732</ele>
        <time>2023-01-03T12:59:46.157Z</time>
      </trkpt>
      <trkpt lat="43.67181" lon="1.2241">
        <ele>209.383089</ele>
        <time>2023-01-03T12:59:50.166Z</time>
      </trkpt>
      <trkpt lat="43.67172" lon="1.22418">
        <ele>209.895808</ele>
        <time>2023-01-03T12:59:54.175Z</time>
      </trkpt>
      <trkpt lat="43.67164" lon="1.22428">
        <ele>210.446766</ele>
        <time>2023-01-03T12:59:58.159Z</time>
      </trkpt>
      <trkpt lat="43.67155" lon="1.22438">
        <ele>210.992101</ele>
        <time>2023-01-03T13:00:02.160Z</time>
      </trkpt>
      <trkpt lat="43.67146" lon="1.22447">
        <ele>211.378944</ele>
        <time>2023-01-03T13:00:06.160Z</time>
      </trkpt>
      <trkpt lat="43.67137" lon="1.22457">
        <ele>211.771172</ele>
        <time>2023-01-03T13:00:10.159Z</time>
      </trkpt>
      <trkpt lat="43.6713" lon="1.22465">
        <ele>212.080157</ele>
        <time>2023-01-03T13:00:13.155Z</time>
      </trkpt>
      <trkpt lat="43.67122" lon="1.22472">
        <ele>212.40735</ele>
        <time>2023-01-03T13:00:17.161Z</time>
      </trkpt>
      <trkpt lat="43.67112" lon="1.22479">
        <ele>212.785015</ele>
        <time>2023-01-03T13:00:22.170Z</time>
      </trkpt>
      <trkpt lat="43.67103" lon="1.22483">
        <ele>213.097975</ele>
        <time>2023-01-03T13:00:26.148Z</time>
      </trkpt>
      <trkpt lat="43.67094" lon="1.22487">
        <ele>213.421432</ele>
        <time>2023-01-03T13:00:30.158Z</time>
      </trkpt>
      <trkpt lat="43.67084" lon="1.22493">
        <ele>213.810564</ele>
        <time>2023-01-03T13:00:34.161Z</time>
      </trkpt>
      <trkpt lat="43.67073" lon="1.22498">
        <ele>214.184046</ele>
        <time>2023-01-03T13:00:38.174Z</time>
      </trkpt>
      <trkpt lat="43.67063" lon="1.22502">
        <ele>214.565697</ele>
        <time>2023-01-03T13:00:42.158Z</time>
      </trkpt>
      <trkpt lat="43.67053" lon="1.22504">
        <ele>214.910626</ele>
        <time>2023-01-03T13:00:46.159Z</time>
      </trkpt>
      <trkpt lat="43.67043" lon="1.22508">
        <ele>215.25824</ele>
        <time>2023-01-03T13:00:50.175Z</time>
      </trkpt>
      <trkpt lat="43.67033" lon="1.22511">
        <ele>215.607527</ele>
        <time>2023-01-03T13:00:54.170Z</time>
      </trkpt>
      <trkpt lat="43.67024" lon="1.22515">
        <ele>215.943051</ele>
        <time>2023-01-03T13:00:58.157Z</time>
      </trkpt>
      <trkpt lat="43.67014" lon="1.22519">
        <ele>216.294011</ele>
        <time>2023-01-03T13:01:02.161Z</time>
      </trkpt>
      <trkpt lat="43.67004" lon="1.22525">
        <ele>216.636441</ele>
        <time>2023-01-03T13:01:06.179Z</time>
      </trkpt>
      <trkpt lat="43.66995" lon="1.22531">
        <ele>216.989534</ele>
        <time>2023-01-03T13:01:10.158Z</time>
      </trkpt>
      <trkpt lat="43.66986" lon="1.22538">
        <ele>217.360775</ele>
        <time>2023-01-03T13:01:14.164Z</time>
      </trkpt>
      <trkpt lat="43.66976" lon="1.22545">
        <ele>217.751673</ele>
        <time>2023-01-03T13:01:18.157Z</time>
      </trkpt>
      <trkpt lat="43.66966" lon="1.22554">
        <ele>218.162776</ele>
        <time>2023-01-03T13:01:22.165Z</time>
      </trkpt>
      <trkpt lat="43.66955" lon="1.22561">
        <ele>218.562613</ele>
        <time>2023-01-03T13:01:26.155Z</time>
      </trkpt>
      <trkpt lat="43.66947" lon="1.22567">
        <ele>218.880773</ele>
        <time>2023-01-03T13:01:30.152Z</time>
      </trkpt>
      <trkpt lat="43.66937" lon="1.22575">
        <ele>219.268238</ele>
        <time>2023-01-03T13:01:35.152Z</time>
      </trkpt>
      <trkpt lat="43.66928" lon="1.22583">
        <ele>219.642207</ele>
        <time>2023-01-03T13:01:40.158Z</time>
      </trkpt>
      <trkpt lat="43.66919" lon="1.22592">
        <ele>220.034873</ele>
        <time>2023-01-03T13:01:45.162Z</time>
      </trkpt>
      <trkpt lat="43.66912" lon="1.226">
        <ele>220.355025</ele>
        <time>2023-01-03T13:01:49.154Z</time>
      </trkpt>
      <trkpt lat="43.66903" lon="1.22608">
        <ele>220.709042</ele>
        <time>2023-01-03T13:01:53.160Z</time>
      </trkpt>
      <trkpt lat="43.66895" lon="1.22616">
        <ele>221.063136</ele>
        <time>2023-01-03T13:01:57.159Z</time>
      </trkpt>
      <trkpt lat="43.66886" lon="1.22623">
        <ele>221.42986</ele>
        <time>2023-01-03T13:02:01.159Z</time>
      </trkpt>
      <trkpt lat="43.66878" lon="1.22629">
        <ele>221.748113</ele>
        <time>2023-01-03T13:02:05.165Z</time>
      </trkpt>
      <trkpt lat="43.66869" lon="1.22636">
        <ele>222.108726</ele>
        <time>2023-01-03T13:02:10.159Z</time>
      </trkpt>
      <trkpt lat="43.66859" lon="1.22643">
        <ele>222.480253</ele>
        <time>2023-01-03T13:02:15.161Z</time>
      </trkpt>
      <trkpt lat="43.6685" lon="1.22649">
        <ele>222.83626</ele>
        <time>2023-01-03T13:02:20.177Z</time>
      </trkpt>
      <trkpt lat="43.6684" lon="1.22656">
        <ele>223.214492</ele>
        <time>2023-01-03T13:02:25.158Z</time>
      </trkpt>
      <trkpt lat="43.6683" lon="1.22664">
        <ele>223.487404</ele>
        <time>2023-01-03T13:02:30.161Z</time>
      </trkpt>
      <trkpt lat="43.6682" lon="1.22671">
        <ele>223.71089</ele>
        <time>2023-01-03T13:02:35.160Z</time>
      </trkpt>
      <trkpt lat="43.66812" lon="1.22678">
        <ele>223.908676</ele>
        <time>2023-01-03T13:02:39.156Z</time>
      </trkpt>
      <trkpt lat="43.66804" lon="1.22684">
        <ele>224.101192</ele>
        <time>2023-01-03T13:02:43.171Z</time>
      </trkpt>
      <trkpt lat="43.66793" lon="1.22686">
        <ele>224.328174</ele>
        <time>2023-01-03T13:02:48.159Z</time>
      </trkpt>
      <trkpt lat="43.66782" lon="1.22682">
        <ele>224.556706</ele>
        <time>2023-01-03T13:02:53.163Z</time>
      </trkpt>
      <trkpt lat="43.66774" lon="1.22676">
        <ele>224.74196</ele>
        <time>2023-01-03T13:02:57.162Z</time>
      </trkpt>
      <trkpt lat="43.6677" lon="1.22663">
        <ele>224.948473</ele>
        <time>2023-01-03T13:03:03.160Z</time>
      </trkpt>
      <trkpt lat="43.66776" lon="1.22649">
        <ele>225.178962</ele>
        <time>2023-01-03T13:03:08.150Z</time>
      </trkpt>
      <trkpt lat="43.6678" lon="1.22637">
        <ele>225.372231</ele>
        <time>2023-01-03T13:03:12.159Z</time>
      </trkpt>
      <trkpt lat="43.66781" lon="1.22625">
        <ele>225.557247</ele>
        <time>2023-01-03T13:03:16.160Z</time>
      </trkpt>
      <trkpt lat="43.66784" lon="1.22612">
        <ele>225.758854</ele>
        <time>2023-01-03T13:03:22.164Z</time>
      </trkpt>
      <trkpt lat="43.66784" lon="1.2261">
        <ele>225.787999</ele>
        <time>2023-01-03T13:03:58.210Z</time>
      </trkpt>
      <trkpt lat="43.66536" lon="1.22689">
        <ele>231.191117</ele>
        <time>2023-01-03T13:32:37.689Z</time>
      </trkpt>
      <trkpt lat="43.66523" lon="1.22691">
        <ele>231.183651</ele>
        <time>2023-01-03T13:33:10.157Z</time>
      </trkpt>
      <trkpt lat="43.66514" lon="1.22692">
        <ele>231.178307</ele>
        <time>2023-01-03T13:33:14.160Z</time>
      </trkpt>
      <trkpt lat="43.66504" lon="1.22694">
        <ele>231.172334</ele>
        <time>2023-01-03T13:33:18.168Z</time>
      </trkpt>
      <trkpt lat="43.66493" lon="1.22697">
        <ele>231.166492</ele>
        <time>2023-01-03T13:33:23.177Z</time>
      </trkpt>
      <trkpt lat="43.66484" lon="1.22699">
        <ele>231.161126</ele>
        <time>2023-01-03T13:33:27.170Z</time>
      </trkpt>
      <trkpt lat="43.66475" lon="1.22701">
        <ele>231.156005</ele>
        <time>2023-01-03T13:33:31.171Z</time>
      </trkpt>
      <trkpt lat="43.66465" lon="1.22703">
        <ele>231.150387</ele>
        <time>2023-01-03T13:33:36.160Z</time>
      </trkpt>
      <trkpt lat="43.66455" lon="1.22704">
        <ele>231.144561</ele>
        <time>2023-01-03T13:33:40.155Z</time>
      </trkpt>
      <trkpt lat="43.66446" lon="1.22706">
        <ele>231.139297</ele>
        <time>2023-01-03T13:33:44.161Z</time>
      </trkpt>
      <trkpt lat="43.66436" lon="1.2271">
        <ele>231.133502</ele>
        <time>2023-01-03T13:33:49.149Z</time>
      </trkpt>
      <trkpt lat="43.66426" lon="1.22712">
        <ele>231.12794</ele>
        <time>2023-01-03T13:33:54.162Z</time>
      </trkpt>
      <trkpt lat="43.66417" lon="1.22712">
        <ele>231.122494</ele>
        <time>2023-01-03T13:33:59.164Z</time>
      </trkpt>
      <trkpt lat="43.66408" lon="1.22714">
        <ele>231.11723</ele>
        <time>2023-01-03T13:34:03.171Z</time>
      </trkpt>
      <trkpt lat="43.66397" lon="1.22717">
        <ele>231.111299</ele>
        <time>2023-01-03T13:34:07.167Z</time>
      </trkpt>
      <trkpt lat="43.66388" lon="1.22718">
        <ele>231.106134</ele>
        <time>2023-01-03T13:34:11.153Z</time>
      </trkpt>
      <trkpt lat="43.66378" lon="1.22718">
        <ele>231.1</ele>
        <time>2023-01-03T13:34:16.156Z</time>
      </trkpt>
      <trkpt lat="43.66367" lon="1.2272">
        <ele>231.060784</ele>
        <time>2023-01-03T13:34:20.168Z</time>
      </trkpt>
      <trkpt lat="43.66357" lon="1.22722">
        <ele>231.003191</ele>
        <time>2023-01-03T13:34:24.154Z</time>
      </trkpt>
      <trkpt lat="43.66346" lon="1.22724">
        <ele>230.942993</ele>
        <time>2023-01-03T13:34:28.156Z</time>
      </trkpt>
      <trkpt lat="43.66336" lon="1.22726">
        <ele>230.889646</ele>
        <time>2023-01-03T13:34:32.170Z</time>
      </trkpt>
      <trkpt lat="43.66326" lon="1.22729">
        <ele>230.834708</ele>
        <time>2023-01-03T13:34:36.168Z</time>
      </trkpt>
      <trkpt lat="43.66315" lon="1.22731">
        <ele>230.773543</ele>
        <time>2023-01-03T13:34:40.168Z</time>
      </trkpt>
      <trkpt lat="43.66304" lon="1.22733">
        <ele>230.718189</ele>
        <time>2023-01-03T13:34:44.180Z</time>
      </trkpt>
      <trkpt lat="43.66295" lon="1.22735">
        <ele>230.664496</ele>
        <time>2023-01-03T13:34:48.171Z</time>
      </trkpt>
      <trkpt lat="43.66285" lon="1.22736">
        <ele>230.613773</ele>
        <time>2023-01-03T13:34:52.172Z</time>
      </trkpt>
      <trkpt lat="43.66274" lon="1.22739">
        <ele>230.55511</ele>
        <time>2023-01-03T13:34:57.173Z</time>
      </trkpt>
      <trkpt lat="43.66265" lon="1.22741">
        <ele>230.505237</ele>
        <time>2023-01-03T13:35:01.154Z</time>
      </trkpt>
      <trkpt lat="43.66256" lon="1.22743">
        <ele>230.4556</ele>
        <time>2023-01-03T13:35:05.167Z</time>
      </trkpt>
      <trkpt lat="43.66247" lon="1.22747">
        <ele>230.402351</ele>
        <time>2023-01-03T13:35:11.161Z</time>
      </trkpt>
      <trkpt lat="43.66237" lon="1.22749">
        <ele>230.350347</ele>
        <time>2023-01-03T13:35:16.160Z</time>
      </trkpt>
      <trkpt lat="43.66226" lon="1.2275">
        <ele>230.293168</ele>
        <time>2023-01-03T13:35:22.160Z</time>
      </trkpt>
      <trkpt lat="43.66217" lon="1.22752">
        <ele>230.244189</ele>
        <time>2023-01-03T13:35:26.179Z</time>
      </trkpt>
      <trkpt lat="43.66208" lon="1.22753">
        <ele>230.195107</ele>
        <time>2023-01-03T13:35:30.156Z</time>
      </trkpt>
      <trkpt lat="43.66198" lon="1.22755">
        <ele>230.13874</ele>
        <time>2023-01-03T13:35:34.154Z</time>
      </trkpt>
      <trkpt lat="43.66188" lon="1.22757">
        <ele>230.268732</ele>
        <time>2023-01-03T13:35:38.152Z</time>
      </trkpt>
      <trkpt lat="43.66178" lon="1.22759">
        <ele>230.438306</ele>
        <time>2023-01-03T13:35:42.178Z</time>
      </trkpt>
      <trkpt lat="43.66168" lon="1.22762">
        <ele>230.612749</ele>
        <time>2023-01-03T13:35:46.153Z</time>
      </trkpt>
      <trkpt lat="43.66158" lon="1.22763">
        <ele>230.773929</ele>
        <time>2023-01-03T13:35:50.174Z</time>
      </trkpt>
      <trkpt lat="43.66148" lon="1.22763">
        <ele>230.927468</ele>
        <time>2023-01-03T13:35:54.151Z</time>
      </trkpt>
      <trkpt lat="43.66139" lon="1.22764">
        <ele>231.077963</ele>
        <time>2023-01-03T13:35:59.153Z</time>
      </trkpt>
      <trkpt lat="43.6613" lon="1.22765">
        <ele>231.235634</ele>
        <time>2023-01-03T13:36:03.167Z</time>
      </trkpt>
      <trkpt lat="43.66121" lon="1.22767">
        <ele>231.384523</ele>
        <time>2023-01-03T13:36:07.170Z</time>
      </trkpt>
      <trkpt lat="43.66111" lon="1.22769">
        <ele>231.53969</ele>
        <time>2023-01-03T13:36:12.176Z</time>
      </trkpt>
      <trkpt lat="43.66102" lon="1.22772">
        <ele>231.697264</ele>
        <time>2023-01-03T13:36:16.152Z</time>
      </trkpt>
      <trkpt lat="43.66092" lon="1.22774">
        <ele>231.858738</ele>
        <time>2023-01-03T13:36:20.199Z</time>
      </trkpt>
      <trkpt lat="43.66082" lon="1.22777">
        <ele>232.02109</ele>
        <time>2023-01-03T13:36:25.152Z</time>
      </trkpt>
      <trkpt lat="43.66072" lon="1.22778">
        <ele>232.191548</ele>
        <time>2023-01-03T13:36:30.152Z</time>
      </trkpt>
      <trkpt lat="43.66063" lon="1.2278">
        <ele>232.343001</ele>
        <time>2023-01-03T13:36:34.150Z</time>
      </trkpt>
      <trkpt lat="43.66052" lon="1.22781">
        <ele>232.52029</ele>
        <time>2023-01-03T13:36:39.152Z</time>
      </trkpt>
      <trkpt lat="43.66041" lon="1.22784">
        <ele>232.699989</ele>
        <time>2023-01-03T13:36:45.147Z</time>
      </trkpt>
      <trkpt lat="43.66032" lon="1.22785">
        <ele>232.855521</ele>
        <time>2023-01-03T13:36:50.162Z</time>
      </trkpt>
      <trkpt lat="43.66022" lon="1.22786">
        <ele>233.006571</ele>
        <time>2023-01-03T13:36:54.154Z</time>
      </trkpt>
      <trkpt lat="43.66012" lon="1.22788">
        <ele>232.951966</ele>
        <time>2023-01-03T13:36:58.179Z</time>
      </trkpt>
      <trkpt lat="43.66003" lon="1.22788">
        <ele>232.784701</ele>
        <time>2023-01-03T13:37:03.153Z</time>
      </trkpt>
      <trkpt lat="43.65993" lon="1.22791">
        <ele>232.588984</ele>
        <time>2023-01-03T13:37:08.162Z</time>
      </trkpt>
      <trkpt lat="43.65983" lon="1.22793">
        <ele>232.398983</ele>
        <time>2023-01-03T13:37:12.156Z</time>
      </trkpt>
      <trkpt lat="43.65973" lon="1.22795">
        <ele>232.21197</ele>
        <time>2023-01-03T13:37:16.168Z</time>
      </trkpt>
      <trkpt lat="43.65963" lon="1.22797">
        <ele>232.026237</ele>
        <time>2023-01-03T13:37:20.159Z</time>
      </trkpt>
      <trkpt lat="43.65952" lon="1.228">
        <ele>231.823871</ele>
        <time>2023-01-03T13:37:25.168Z</time>
      </trkpt>
      <trkpt lat="43.65942" lon="1.22801">
        <ele>231.64136</ele>
        <time>2023-01-03T13:37:29.162Z</time>
      </trkpt>
      <trkpt lat="43.65933" lon="1.22803">
        <ele>231.468298</ele>
        <time>2023-01-03T13:37:33.155Z</time>
      </trkpt>
      <trkpt lat="43.65923" lon="1.22805">
        <ele>231.269114</ele>
        <time>2023-01-03T13:37:38.151Z</time>
      </trkpt>
      <trkpt lat="43.65913" lon="1.22807">
        <ele>231.094216</ele>
        <time>2023-01-03T13:37:42.169Z</time>
      </trkpt>
      <trkpt lat="43.65903" lon="1.2281">
        <ele>230.897821</ele>
        <time>2023-01-03T13:37:46.157Z</time>
      </trkpt>
      <trkpt lat="43.65894" lon="1.22811">
        <ele>230.728287</ele>
        <time>2023-01-03T13:37:50.174Z</time>
      </trkpt>
      <trkpt lat="43.65883" lon="1.22813">
        <ele>230.531674</ele>
        <time>2023-01-03T13:37:55.166Z</time>
      </trkpt>
      <trkpt lat="43.65872" lon="1.22815">
        <ele>230.325504</ele>
        <time>2023-01-03T13:38:00.175Z</time>
      </trkpt>
      <trkpt lat="43.65861" lon="1.22817">
        <ele>230.116296</ele>
        <time>2023-01-03T13:38:05.153Z</time>
      </trkpt>
      <trkpt lat="43.65852" lon="1.22818">
        <ele>229.9484</ele>
        <time>2023-01-03T13:38:09.157Z</time>
      </trkpt>
      <trkpt lat="43.65843" lon="1.2282">
        <ele>229.776549</ele>
        <time>2023-01-03T13:38:13.176Z</time>
      </trkpt>
      <trkpt lat="43.65834" lon="1.22821">
        <ele>229.799765</ele>
        <time>2023-01-03T13:38:17.166Z</time>
      </trkpt>
      <trkpt lat="43.65824" lon="1.22822">
        <ele>229.904168</ele>
        <time>2023-01-03T13:38:22.157Z</time>
      </trkpt>
      <trkpt lat="43.65823" lon="1.22821">
        <ele>229.91818</ele>
        <time>2023-01-03T13:38:31.168Z</time>
      </trkpt>
      <trkpt lat="43.6581" lon="1.22817">
        <ele>230.06008</ele>
        <time>2023-01-03T13:39:58.174Z</time>
      </trkpt>
      <trkpt lat="43.65804" lon="1.22803">
        <ele>230.187326</ele>
        <time>2023-01-03T13:40:02.171Z</time>
      </trkpt>
      <trkpt lat="43.65803" lon="1.22788">
        <ele>230.301375</ele>
        <time>2023-01-03T13:40:05.165Z</time>
      </trkpt>
      <trkpt lat="43.65803" lon="1.22774">
        <ele>230.409564</ele>
        <time>2023-01-03T13:40:08.170Z</time>
      </trkpt>
      <trkpt lat="43.65804" lon="1.22762">
        <ele>230.509336</ele>
        <time>2023-01-03T13:40:11.174Z</time>
      </trkpt>
      <trkpt lat="43.65804" lon="1.22745">
        <ele>230.639337</ele>
        <time>2023-01-03T13:40:15.154Z</time>
      </trkpt>
      <trkpt lat="43.65805" lon="1.22732">
        <ele>230.737884</ele>
        <time>2023-01-03T13:40:18.172Z</time>
      </trkpt>
      <trkpt lat="43.65806" lon="1.22719">
        <ele>230.838755</ele>
        <time>2023-01-03T13:40:21.178Z</time>
      </trkpt>
      <trkpt lat="43.65807" lon="1.22703">
        <ele>230.966624</ele>
        <time>2023-01-03T13:40:25.183Z</time>
      </trkpt>
      <trkpt lat="43.65807" lon="1.22687">
        <ele>231.094385</ele>
        <time>2023-01-03T13:40:29.177Z</time>
      </trkpt>
      <trkpt lat="43.65808" lon="1.22674">
        <ele>231.196806</ele>
        <time>2023-01-03T13:40:32.155Z</time>
      </trkpt>
      <trkpt lat="43.65808" lon="1.22661">
        <ele>231.296526</ele>
        <time>2023-01-03T13:40:35.154Z</time>
      </trkpt>
      <trkpt lat="43.65808" lon="1.22648">
        <ele>231.396176</ele>
        <time>2023-01-03T13:40:38.150Z</time>
      </trkpt>
      <trkpt lat="43.65808" lon="1.22632">
        <ele>231.521562</ele>
        <time>2023-01-03T13:40:42.171Z</time>
      </trkpt>
      <trkpt lat="43.65808" lon="1.22619">
        <ele>231.619638</ele>
        <time>2023-01-03T13:40:45.169Z</time>
      </trkpt>
      <trkpt lat="43.65809" lon="1.22606">
        <ele>231.591691</ele>
        <time>2023-01-03T13:40:48.181Z</time>
      </trkpt>
      <trkpt lat="43.65809" lon="1.22593">
        <ele>231.469416</ele>
        <time>2023-01-03T13:40:51.173Z</time>
      </trkpt>
      <trkpt lat="43.65809" lon="1.22578">
        <ele>231.338038</ele>
        <time>2023-01-03T13:40:54.170Z</time>
      </trkpt>
      <trkpt lat="43.65808" lon="1.22564">
        <ele>231.208098</ele>
        <time>2023-01-03T13:40:57.179Z</time>
      </trkpt>
      <trkpt lat="43.65807" lon="1.2255">
        <ele>231.076764</ele>
        <time>2023-01-03T13:41:00.173Z</time>
      </trkpt>
      <trkpt lat="43.65805" lon="1.22535">
        <ele>230.941647</ele>
        <time>2023-01-03T13:41:03.171Z</time>
      </trkpt>
      <trkpt lat="43.65803" lon="1.22521">
        <ele>230.809783</ele>
        <time>2023-01-03T13:41:06.178Z</time>
      </trkpt>
      <trkpt lat="43.65801" lon="1.22507">
        <ele>230.682073</ele>
        <time>2023-01-03T13:41:09.153Z</time>
      </trkpt>
      <trkpt lat="43.65799" lon="1.22495">
        <ele>230.565168</ele>
        <time>2023-01-03T13:41:12.170Z</time>
      </trkpt>
      <trkpt lat="43.65796" lon="1.22482">
        <ele>230.439525</ele>
        <time>2023-01-03T13:41:15.171Z</time>
      </trkpt>
      <trkpt lat="43.65794" lon="1.22468">
        <ele>230.312388</ele>
        <time>2023-01-03T13:41:18.177Z</time>
      </trkpt>
      <trkpt lat="43.65791" lon="1.22455">
        <ele>230.1879</ele>
        <time>2023-01-03T13:41:21.155Z</time>
      </trkpt>
      <trkpt lat="43.65788" lon="1.22441">
        <ele>230.056169</ele>
        <time>2023-01-03T13:41:24.151Z</time>
      </trkpt>
      <trkpt lat="43.65785" lon="1.22429">
        <ele>229.935202</ele>
        <time>2023-01-03T13:41:27.169Z</time>
      </trkpt>
      <trkpt lat="43.65783" lon="1.22416">
        <ele>229.81778</ele>
        <time>2023-01-03T13:41:30.179Z</time>
      </trkpt>
      <trkpt lat="43.6578" lon="1.22402">
        <ele>229.68888</ele>
        <time>2023-01-03T13:41:34.173Z</time>
      </trkpt>
      <trkpt lat="43.65777" lon="1.2239">
        <ele>229.569631</ele>
        <time>2023-01-03T13:41:38.174Z</time>
      </trkpt>
      <trkpt lat="43.65774" lon="1.22378">
        <ele>229.455349</ele>
        <time>2023-01-03T13:41:41.157Z</time>
      </trkpt>
      <trkpt lat="43.65771" lon="1.22365">
        <ele>229.480671</ele>
        <time>2023-01-03T13:41:44.161Z</time>
      </trkpt>
      <trkpt lat="43.65769" lon="1.22352">
        <ele>229.649498</ele>
        <time>2023-01-03T13:41:47.171Z</time>
      </trkpt>
      <trkpt lat="43.65765" lon="1.22338">
        <ele>229.836308</ele>
        <time>2023-01-03T13:41:50.181Z</time>
      </trkpt>
      <trkpt lat="43.65761" lon="1.22324">
        <ele>230.025542</ele>
        <time>2023-01-03T13:41:53.171Z</time>
      </trkpt>
      <trkpt lat="43.65757" lon="1.2231">
        <ele>230.215422</ele>
        <time>2023-01-03T13:41:56.150Z</time>
      </trkpt>
      <trkpt lat="43.65754" lon="1.22297">
        <ele>230.393188</ele>
        <time>2023-01-03T13:41:59.155Z</time>
      </trkpt>
      <trkpt lat="43.6575" lon="1.22281">
        <ele>230.59561</ele>
        <time>2023-01-03T13:42:03.173Z</time>
      </trkpt>
      <trkpt lat="43.65746" lon="1.22266">
        <ele>230.807821</ele>
        <time>2023-01-03T13:42:07.152Z</time>
      </trkpt>
      <trkpt lat="43.65743" lon="1.22252">
        <ele>230.988719</ele>
        <time>2023-01-03T13:42:10.181Z</time>
      </trkpt>
      <trkpt lat="43.65739" lon="1.22237">
        <ele>231.189792</ele>
        <time>2023-01-03T13:42:14.169Z</time>
      </trkpt>
      <trkpt lat="43.65737" lon="1.22224">
        <ele>231.350726</ele>
        <time>2023-01-03T13:42:18.173Z</time>
      </trkpt>
      <trkpt lat="43.65733" lon="1.22212">
        <ele>231.514257</ele>
        <time>2023-01-03T13:42:23.172Z</time>
      </trkpt>
      <trkpt lat="43.65729" lon="1.22199">
        <ele>231.699216</ele>
        <time>2023-01-03T13:42:28.187Z</time>
      </trkpt>
      <trkpt lat="43.65721" lon="1.22189">
        <ele>231.882602</ele>
        <time>2023-01-03T13:42:32.171Z</time>
      </trkpt>
      <trkpt lat="43.65714" lon="1.22181">
        <ele>232.037279</ele>
        <time>2023-01-03T13:42:50.156Z</time>
      </trkpt>
      <trkpt lat="43.65693" lon="1.22162">
        <ele>232.476337</ele>
        <time>2023-01-03T13:53:01.173Z</time>
      </trkpt>
      <trkpt lat="43.65684" lon="1.22154">
        <ele>232.702575</ele>
        <time>2023-01-03T13:53:05.170Z</time>
      </trkpt>
      <trkpt lat="43.65675" lon="1.22146">
        <ele>232.961118</ele>
        <time>2023-01-03T13:53:09.162Z</time>
      </trkpt>
      <trkpt lat="43.65666" lon="1.22138">
        <ele>233.229912</ele>
        <time>2023-01-03T13:53:13.183Z</time>
      </trkpt>
      <trkpt lat="43.65656" lon="1.22131">
        <ele>233.471041</ele>
        <time>2023-01-03T13:53:16.154Z</time>
      </trkpt>
      <trkpt lat="43.65648" lon="1.22125">
        <ele>233.696495</ele>
        <time>2023-01-03T13:53:19.169Z</time>
      </trkpt>
      <trkpt lat="43.65639" lon="1.22119">
        <ele>233.922739</ele>
        <time>2023-01-03T13:53:22.178Z</time>
      </trkpt>
      <trkpt lat="43.65631" lon="1.22113">
        <ele>234.146526</ele>
        <time>2023-01-03T13:53:25.166Z</time>
      </trkpt>
      <trkpt lat="43.65621" lon="1.22104">
        <ele>234.429306</ele>
        <time>2023-01-03T13:53:29.153Z</time>
      </trkpt>
      <trkpt lat="43.65612" lon="1.22097">
        <ele>234.661979</ele>
        <time>2023-01-03T13:53:32.169Z</time>
      </trkpt>
      <trkpt lat="43.65603" lon="1.22089">
        <ele>234.92856</ele>
        <time>2023-01-03T13:53:35.189Z</time>
      </trkpt>
      <trkpt lat="43.65592" lon="1.22082">
        <ele>235.205489</ele>
        <time>2023-01-03T13:53:38.174Z</time>
      </trkpt>
      <trkpt lat="43.65582" lon="1.22074">
        <ele>235.479077</ele>
        <time>2023-01-03T13:53:41.169Z</time>
      </trkpt>
      <trkpt lat="43.65572" lon="1.22067">
        <ele>235.753927</ele>
        <time>2023-01-03T13:53:44.176Z</time>
      </trkpt>
      <trkpt lat="43.65561" lon="1.22059">
        <ele>236.038692</ele>
        <time>2023-01-03T13:53:47.175Z</time>
      </trkpt>
      <trkpt lat="43.6555" lon="1.22051">
        <ele>236.32093</ele>
        <time>2023-01-03T13:53:50.174Z</time>
      </trkpt>
      <trkpt lat="43.6554" lon="1.22043">
        <ele>236.596168</ele>
        <time>2023-01-03T13:53:53.164Z</time>
      </trkpt>
      <trkpt lat="43.65529" lon="1.22035">
        <ele>236.904409</ele>
        <time>2023-01-03T13:53:56.175Z</time>
      </trkpt>
      <trkpt lat="43.65518" lon="1.22027">
        <ele>237.234266</ele>
        <time>2023-01-03T13:53:59.154Z</time>
      </trkpt>
      <trkpt lat="43.65507" lon="1.22019">
        <ele>237.565003</ele>
        <time>2023-01-03T13:54:02.175Z</time>
      </trkpt>
      <trkpt lat="43.65496" lon="1.22011">
        <ele>237.893793</ele>
        <time>2023-01-03T13:54:05.173Z</time>
      </trkpt>
      <trkpt lat="43.65485" lon="1.22002">
        <ele>238.232492</ele>
        <time>2023-01-03T13:54:08.172Z</time>
      </trkpt>
      <trkpt lat="43.65474" lon="1.21993">
        <ele>238.573815</ele>
        <time>2023-01-03T13:54:11.182Z</time>
      </trkpt>
      <trkpt lat="43.65465" lon="1.21988">
        <ele>238.818853</ele>
        <time>2023-01-03T13:54:13.174Z</time>
      </trkpt>
      <trkpt lat="43.65453" lon="1.21979">
        <ele>239.179204</ele>
        <time>2023-01-03T13:54:16.173Z</time>
      </trkpt>
      <trkpt lat="43.65442" lon="1.21971">
        <ele>239.522567</ele>
        <time>2023-01-03T13:54:19.158Z</time>
      </trkpt>
      <trkpt lat="43.6543" lon="1.21962">
        <ele>239.876866</ele>
        <time>2023-01-03T13:54:22.162Z</time>
      </trkpt>
      <trkpt lat="43.65421" lon="1.21956">
        <ele>240.138421</ele>
        <time>2023-01-03T13:54:24.161Z</time>
      </trkpt>
      <trkpt lat="43.65413" lon="1.2195">
        <ele>240.393702</ele>
        <time>2023-01-03T13:54:26.170Z</time>
      </trkpt>
      <trkpt lat="43.65404" lon="1.21944">
        <ele>240.636888</ele>
        <time>2023-01-03T13:54:28.190Z</time>
      </trkpt>
      <trkpt lat="43.65396" lon="1.21938">
        <ele>240.88339</ele>
        <time>2023-01-03T13:54:30.170Z</time>
      </trkpt>
      <trkpt lat="43.65384" lon="1.21929">
        <ele>241.2414</ele>
        <time>2023-01-03T13:54:33.171Z</time>
      </trkpt>
      <trkpt lat="43.65372" lon="1.21921">
        <ele>241.538928</ele>
        <time>2023-01-03T13:54:36.179Z</time>
      </trkpt>
      <trkpt lat="43.65361" lon="1.21913">
        <ele>241.658288</ele>
        <time>2023-01-03T13:54:39.159Z</time>
      </trkpt>
      <trkpt lat="43.6535" lon="1.21903">
        <ele>241.782847</ele>
        <time>2023-01-03T13:54:42.169Z</time>
      </trkpt>
      <trkpt lat="43.65339" lon="1.21895">
        <ele>241.898063</ele>
        <time>2023-01-03T13:54:45.159Z</time>
      </trkpt>
      <trkpt lat="43.65327" lon="1.21887">
        <ele>242.022124</ele>
        <time>2023-01-03T13:54:48.175Z</time>
      </trkpt>
      <trkpt lat="43.65317" lon="1.21879">
        <ele>242.14099</ele>
        <time>2023-01-03T13:54:51.176Z</time>
      </trkpt>
      <trkpt lat="43.65305" lon="1.21871">
        <ele>242.264067</ele>
        <time>2023-01-03T13:54:54.180Z</time>
      </trkpt>
      <trkpt lat="43.65294" lon="1.21863">
        <ele>242.382024</ele>
        <time>2023-01-03T13:54:57.182Z</time>
      </trkpt>
      <trkpt lat="43.65284" lon="1.21857">
        <ele>242.481547</ele>
        <time>2023-01-03T13:55:00.170Z</time>
      </trkpt>
      <trkpt lat="43.65276" lon="1.21851">
        <ele>242.571838</ele>
        <time>2023-01-03T13:55:03.152Z</time>
      </trkpt>
      <trkpt lat="43.65268" lon="1.21844">
        <ele>242.658624</ele>
        <time>2023-01-03T13:55:06.162Z</time>
      </trkpt>
      <trkpt lat="43.65259" lon="1.21838">
        <ele>242.754383</ele>
        <time>2023-01-03T13:55:09.164Z</time>
      </trkpt>
      <trkpt lat="43.6525" lon="1.21832">
        <ele>242.845033</ele>
        <time>2023-01-03T13:55:12.161Z</time>
      </trkpt>
      <trkpt lat="43.65242" lon="1.21826">
        <ele>242.932643</ele>
        <time>2023-01-03T13:55:15.171Z</time>
      </trkpt>
      <trkpt lat="43.65233" lon="1.21819">
        <ele>243.035608</ele>
        <time>2023-01-03T13:55:18.158Z</time>
      </trkpt>
      <trkpt lat="43.65224" lon="1.21812">
        <ele>243.129035</ele>
        <time>2023-01-03T13:55:21.177Z</time>
      </trkpt>
      <trkpt lat="43.65216" lon="1.21805">
        <ele>243.22831</ele>
        <time>2023-01-03T13:55:24.173Z</time>
      </trkpt>
      <trkpt lat="43.65208" lon="1.218">
        <ele>243.525995</ele>
        <time>2023-01-03T13:55:27.157Z</time>
      </trkpt>
      <trkpt lat="43.652" lon="1.21793">
        <ele>243.821489</ele>
        <time>2023-01-03T13:55:30.152Z</time>
      </trkpt>
      <trkpt lat="43.65191" lon="1.21786">
        <ele>244.165858</ele>
        <time>2023-01-03T13:55:34.174Z</time>
      </trkpt>
      <trkpt lat="43.65181" lon="1.21779">
        <ele>244.525159</ele>
        <time>2023-01-03T13:55:38.179Z</time>
      </trkpt>
      <trkpt lat="43.65171" lon="1.21772">
        <ele>244.882801</ele>
        <time>2023-01-03T13:55:42.170Z</time>
      </trkpt>
      <trkpt lat="43.65162" lon="1.21764">
        <ele>245.217787</ele>
        <time>2023-01-03T13:55:46.162Z</time>
      </trkpt>
      <trkpt lat="43.65153" lon="1.21756">
        <ele>245.539564</ele>
        <time>2023-01-03T13:55:50.163Z</time>
      </trkpt>
      <trkpt lat="43.65145" lon="1.21749">
        <ele>245.853629</ele>
        <time>2023-01-03T13:55:54.168Z</time>
      </trkpt>
      <trkpt lat="43.65138" lon="1.21741">
        <ele>246.146065</ele>
        <time>2023-01-03T13:55:58.164Z</time>
      </trkpt>
      <trkpt lat="43.65128" lon="1.21734">
        <ele>246.496467</ele>
        <time>2023-01-03T13:56:02.178Z</time>
      </trkpt>
      <trkpt lat="43.65118" lon="1.21727">
        <ele>246.851235</ele>
        <time>2023-01-03T13:56:06.173Z</time>
      </trkpt>
      <trkpt lat="43.65109" lon="1.2172">
        <ele>247.19882</ele>
        <time>2023-01-03T13:56:10.161Z</time>
      </trkpt>
      <trkpt lat="43.65099" lon="1.21713">
        <ele>247.553587</ele>
        <time>2023-01-03T13:56:14.170Z</time>
      </trkpt>
      <trkpt lat="43.6509" lon="1.21707">
        <ele>247.884491</ele>
        <time>2023-01-03T13:56:18.180Z</time>
      </trkpt>
      <trkpt lat="43.65081" lon="1.21701">
        <ele>248.195213</ele>
        <time>2023-01-03T13:56:22.172Z</time>
      </trkpt>
      <trkpt lat="43.65072" lon="1.21694">
        <ele>248.526117</ele>
        <time>2023-01-03T13:56:26.183Z</time>
      </trkpt>
      <trkpt lat="43.65062" lon="1.21688">
        <ele>248.850888</ele>
        <time>2023-01-03T13:56:30.170Z</time>
      </trkpt>
      <trkpt lat="43.65053" lon="1.21682">
        <ele>249.159606</ele>
        <time>2023-01-03T13:56:34.160Z</time>
      </trkpt>
      <trkpt lat="43.65044" lon="1.21675">
        <ele>249.438322</ele>
        <time>2023-01-03T13:56:38.170Z</time>
      </trkpt>
      <trkpt lat="43.65035" lon="1.21669">
        <ele>249.717918</ele>
        <time>2023-01-03T13:56:42.151Z</time>
      </trkpt>
      <trkpt lat="43.65026" lon="1.21664">
        <ele>249.97489</ele>
        <time>2023-01-03T13:56:46.153Z</time>
      </trkpt>
      <trkpt lat="43.65016" lon="1.21657">
        <ele>250.287085</ele>
        <time>2023-01-03T13:56:50.181Z</time>
      </trkpt>
      <trkpt lat="43.65005" lon="1.21652">
        <ele>250.619765</ele>
        <time>2023-01-03T13:56:54.167Z</time>
      </trkpt>
      <trkpt lat="43.64994" lon="1.21648">
        <ele>250.926312</ele>
        <time>2023-01-03T13:56:58.179Z</time>
      </trkpt>
      <trkpt lat="43.64985" lon="1.21644">
        <ele>251.17531</ele>
        <time>2023-01-03T13:57:01.180Z</time>
      </trkpt>
      <trkpt lat="43.64974" lon="1.21642">
        <ele>251.508685</ele>
        <time>2023-01-03T13:57:05.167Z</time>
      </trkpt>
      <trkpt lat="43.64964" lon="1.2164">
        <ele>251.781729</ele>
        <time>2023-01-03T13:57:08.153Z</time>
      </trkpt>
      <trkpt lat="43.64954" lon="1.21639">
        <ele>252.047871</ele>
        <time>2023-01-03T13:57:11.168Z</time>
      </trkpt>
      <trkpt lat="43.64944" lon="1.21637">
        <ele>252.323658</ele>
        <time>2023-01-03T13:57:14.171Z</time>
      </trkpt>
      <trkpt lat="43.64935" lon="1.21636">
        <ele>252.574263</ele>
        <time>2023-01-03T13:57:17.180Z</time>
      </trkpt>
      <trkpt lat="43.64923" lon="1.21633">
        <ele>252.907968</ele>
        <time>2023-01-03T13:57:21.182Z</time>
      </trkpt>
      <trkpt lat="43.64914" lon="1.21635">
        <ele>253.166079</ele>
        <time>2023-01-03T13:57:24.163Z</time>
      </trkpt>
      <trkpt lat="43.64903" lon="1.21635">
        <ele>253.462046</ele>
        <time>2023-01-03T13:57:27.156Z</time>
      </trkpt>
      <trkpt lat="43.64893" lon="1.21634">
        <ele>253.755414</ele>
        <time>2023-01-03T13:57:30.168Z</time>
      </trkpt>
      <trkpt lat="43.64882" lon="1.21633">
        <ele>254.044895</ele>
        <time>2023-01-03T13:57:33.176Z</time>
      </trkpt>
      <trkpt lat="43.64872" lon="1.21631">
        <ele>254.341022</ele>
        <time>2023-01-03T13:57:36.180Z</time>
      </trkpt>
      <trkpt lat="43.64861" lon="1.21632">
        <ele>254.633233</ele>
        <time>2023-01-03T13:57:39.161Z</time>
      </trkpt>
      <trkpt lat="43.6485" lon="1.21632">
        <ele>254.919904</ele>
        <time>2023-01-03T13:57:42.158Z</time>
      </trkpt>
      <trkpt lat="43.64839" lon="1.2163">
        <ele>255.224372</ele>
        <time>2023-01-03T13:57:45.169Z</time>
      </trkpt>
      <trkpt lat="43.64828" lon="1.21629">
        <ele>255.533165</ele>
        <time>2023-01-03T13:57:48.179Z</time>
      </trkpt>
      <trkpt lat="43.64817" lon="1.21629">
        <ele>255.83902</ele>
        <time>2023-01-03T13:57:51.175Z</time>
      </trkpt>
      <trkpt lat="43.64806" lon="1.21629">
        <ele>256.144831</ele>
        <time>2023-01-03T13:57:54.174Z</time>
      </trkpt>
      <trkpt lat="43.64795" lon="1.21628">
        <ele>256.437262</ele>
        <time>2023-01-03T13:57:58.171Z</time>
      </trkpt>
      <trkpt lat="43.64786" lon="1.21627">
        <ele>256.684097</ele>
        <time>2023-01-03T13:58:01.153Z</time>
      </trkpt>
      <trkpt lat="43.64776" lon="1.21626">
        <ele>256.949637</ele>
        <time>2023-01-03T13:58:04.172Z</time>
      </trkpt>
      <trkpt lat="43.64765" lon="1.21625">
        <ele>257.252821</ele>
        <time>2023-01-03T13:58:07.179Z</time>
      </trkpt>
      <trkpt lat="43.64754" lon="1.21625">
        <ele>257.547761</ele>
        <time>2023-01-03T13:58:10.182Z</time>
      </trkpt>
      <trkpt lat="43.64743" lon="1.21624">
        <ele>257.853826</ele>
        <time>2023-01-03T13:58:13.172Z</time>
      </trkpt>
      <trkpt lat="43.64733" lon="1.21623">
        <ele>258.135454</ele>
        <time>2023-01-03T13:58:16.175Z</time>
      </trkpt>
      <trkpt lat="43.64721" lon="1.21623">
        <ele>258.452225</ele>
        <time>2023-01-03T13:58:19.177Z</time>
      </trkpt>
      <trkpt lat="43.6471" lon="1.21622">
        <ele>258.752837</ele>
        <time>2023-01-03T13:58:22.171Z</time>
      </trkpt>
      <trkpt lat="43.64699" lon="1.21622">
        <ele>258.843852</ele>
        <time>2023-01-03T13:58:25.171Z</time>
      </trkpt>
      <trkpt lat="43.64688" lon="1.21621">
        <ele>258.852384</ele>
        <time>2023-01-03T13:58:28.177Z</time>
      </trkpt>
      <trkpt lat="43.64676" lon="1.2162">
        <ele>258.86099</ele>
        <time>2023-01-03T13:58:31.159Z</time>
      </trkpt>
      <trkpt lat="43.64664" lon="1.2162">
        <ele>258.869081</ele>
        <time>2023-01-03T13:58:34.173Z</time>
      </trkpt>
      <trkpt lat="43.64653" lon="1.21619">
        <ele>258.87739</ele>
        <time>2023-01-03T13:58:37.173Z</time>
      </trkpt>
      <trkpt lat="43.64643" lon="1.21619">
        <ele>258.884539</ele>
        <time>2023-01-03T13:58:40.169Z</time>
      </trkpt>
      <trkpt lat="43.64633" lon="1.21619">
        <ele>258.891554</ele>
        <time>2023-01-03T13:58:43.173Z</time>
      </trkpt>
      <trkpt lat="43.64624" lon="1.21618">
        <ele>258.898636</ele>
        <time>2023-01-03T13:58:46.174Z</time>
      </trkpt>
      <trkpt lat="43.64614" lon="1.21617">
        <ele>258.905653</ele>
        <time>2023-01-03T13:58:49.150Z</time>
      </trkpt>
      <trkpt lat="43.64605" lon="1.21614">
        <ele>258.912198</ele>
        <time>2023-01-03T13:58:52.152Z</time>
      </trkpt>
      <trkpt lat="43.64595" lon="1.2161">
        <ele>258.919771</ele>
        <time>2023-01-03T13:58:56.169Z</time>
      </trkpt>
      <trkpt lat="43.64586" lon="1.21609">
        <ele>258.926275</ele>
        <time>2023-01-03T13:59:00.167Z</time>
      </trkpt>
      <trkpt lat="43.64577" lon="1.21616">
        <ele>258.93398</ele>
        <time>2023-01-03T13:59:04.153Z</time>
      </trkpt>
      <trkpt lat="43.6457" lon="1.21627">
        <ele>258.941565</ele>
        <time>2023-01-03T13:59:07.160Z</time>
      </trkpt>
      <trkpt lat="43.64561" lon="1.21637">
        <ele>258.949941</ele>
        <time>2023-01-03T13:59:10.155Z</time>
      </trkpt>
      <trkpt lat="43.6455" lon="1.2165">
        <ele>258.96008</ele>
        <time>2023-01-03T13:59:13.173Z</time>
      </trkpt>
      <trkpt lat="43.64543" lon="1.21659">
        <ele>258.966925</ele>
        <time>2023-01-03T13:59:15.157Z</time>
      </trkpt>
      <trkpt lat="43.64537" lon="1.21668">
        <ele>258.862608</ele>
        <time>2023-01-03T13:59:17.184Z</time>
      </trkpt>
      <trkpt lat="43.6453" lon="1.21678">
        <ele>258.728641</ele>
        <time>2023-01-03T13:59:19.158Z</time>
      </trkpt>
      <trkpt lat="43.64523" lon="1.21689">
        <ele>258.582056</ele>
        <time>2023-01-03T13:59:21.170Z</time>
      </trkpt>
      <trkpt lat="43.64515" lon="1.21699">
        <ele>258.43928</ele>
        <time>2023-01-03T13:59:23.181Z</time>
      </trkpt>
      <trkpt lat="43.64507" lon="1.21709">
        <ele>258.285531</ele>
        <time>2023-01-03T13:59:25.158Z</time>
      </trkpt>
      <trkpt lat="43.645" lon="1.2172">
        <ele>258.142046</ele>
        <time>2023-01-03T13:59:27.173Z</time>
      </trkpt>
      <trkpt lat="43.64493" lon="1.21729">
        <ele>258.007806</ele>
        <time>2023-01-03T13:59:29.163Z</time>
      </trkpt>
      <trkpt lat="43.64487" lon="1.21738">
        <ele>257.882467</ele>
        <time>2023-01-03T13:59:31.175Z</time>
      </trkpt>
      <trkpt lat="43.6448" lon="1.21748">
        <ele>257.740893</ele>
        <time>2023-01-03T13:59:33.172Z</time>
      </trkpt>
      <trkpt lat="43.64473" lon="1.21758">
        <ele>257.610541</ele>
        <time>2023-01-03T13:59:35.158Z</time>
      </trkpt>
      <trkpt lat="43.64467" lon="1.21767">
        <ele>257.482297</ele>
        <time>2023-01-03T13:59:37.173Z</time>
      </trkpt>
      <trkpt lat="43.64458" lon="1.21781">
        <ele>257.299405</ele>
        <time>2023-01-03T13:59:40.177Z</time>
      </trkpt>
      <trkpt lat="43.64451" lon="1.2179">
        <ele>257.171507</ele>
        <time>2023-01-03T13:59:42.170Z</time>
      </trkpt>
      <trkpt lat="43.64444" lon="1.218">
        <ele>257.031112</ele>
        <time>2023-01-03T13:59:44.175Z</time>
      </trkpt>
      <trkpt lat="43.64437" lon="1.21811">
        <ele>256.888066</ele>
        <time>2023-01-03T13:59:46.174Z</time>
      </trkpt>
      <trkpt lat="43.6443" lon="1.2182">
        <ele>256.754107</ele>
        <time>2023-01-03T13:59:48.171Z</time>
      </trkpt>
      <trkpt lat="43.64423" lon="1.21829">
        <ele>256.62261</ele>
        <time>2023-01-03T13:59:50.174Z</time>
      </trkpt>
      <trkpt lat="43.64416" lon="1.21839">
        <ele>256.496171</ele>
        <time>2023-01-03T13:59:52.183Z</time>
      </trkpt>
      <trkpt lat="43.64409" lon="1.21849">
        <ele>256.525369</ele>
        <time>2023-01-03T13:59:54.171Z</time>
      </trkpt>
      <trkpt lat="43.64402" lon="1.21859">
        <ele>256.554528</ele>
        <time>2023-01-03T13:59:56.155Z</time>
      </trkpt>
      <trkpt lat="43.64395" lon="1.21869">
        <ele>256.582795</ele>
        <time>2023-01-03T13:59:58.173Z</time>
      </trkpt>
      <trkpt lat="43.64388" lon="1.21879">
        <ele>256.611332</ele>
        <time>2023-01-03T14:00:00.176Z</time>
      </trkpt>
      <trkpt lat="43.64381" lon="1.21889">
        <ele>256.639303</ele>
        <time>2023-01-03T14:00:02.168Z</time>
      </trkpt>
      <trkpt lat="43.64374" lon="1.21898">
        <ele>256.667017</ele>
        <time>2023-01-03T14:00:04.168Z</time>
      </trkpt>
      <trkpt lat="43.64368" lon="1.21908">
        <ele>256.694787</ele>
        <time>2023-01-03T14:00:06.176Z</time>
      </trkpt>
      <trkpt lat="43.64358" lon="1.21922">
        <ele>256.733396</ele>
        <time>2023-01-03T14:00:09.162Z</time>
      </trkpt>
      <trkpt lat="43.64352" lon="1.21932">
        <ele>256.761662</ele>
        <time>2023-01-03T14:00:11.178Z</time>
      </trkpt>
      <trkpt lat="43.64345" lon="1.21941">
        <ele>256.788095</ele>
        <time>2023-01-03T14:00:13.158Z</time>
      </trkpt>
      <trkpt lat="43.64336" lon="1.21954">
        <ele>256.82482</ele>
        <time>2023-01-03T14:00:16.171Z</time>
      </trkpt>
      <trkpt lat="43.6433" lon="1.21963">
        <ele>256.851597</ele>
        <time>2023-01-03T14:00:18.167Z</time>
      </trkpt>
      <trkpt lat="43.64323" lon="1.21973">
        <ele>256.880103</ele>
        <time>2023-01-03T14:00:20.170Z</time>
      </trkpt>
      <trkpt lat="43.64317" lon="1.21983">
        <ele>256.906744</ele>
        <time>2023-01-03T14:00:22.176Z</time>
      </trkpt>
      <trkpt lat="43.64308" lon="1.21997">
        <ele>256.945344</ele>
        <time>2023-01-03T14:00:25.180Z</time>
      </trkpt>
      <trkpt lat="43.64301" lon="1.22007">
        <ele>256.973899</ele>
        <time>2023-01-03T14:00:27.171Z</time>
      </trkpt>
      <trkpt lat="43.64294" lon="1.22016">
        <ele>257.001583</ele>
        <time>2023-01-03T14:00:29.165Z</time>
      </trkpt>
      <trkpt lat="43.64284" lon="1.22029">
        <ele>257.011933</ele>
        <time>2023-01-03T14:00:32.175Z</time>
      </trkpt>
      <trkpt lat="43.64277" lon="1.22039">
        <ele>257.01568</ele>
        <time>2023-01-03T14:00:34.172Z</time>
      </trkpt>
      <trkpt lat="43.64268" lon="1.22052">
        <ele>257.02109</ele>
        <time>2023-01-03T14:00:37.167Z</time>
      </trkpt>
      <trkpt lat="43.6426" lon="1.22065">
        <ele>257.02582</ele>
        <time>2023-01-03T14:00:40.171Z</time>
      </trkpt>
      <trkpt lat="43.64251" lon="1.22078">
        <ele>257.031031</ele>
        <time>2023-01-03T14:00:43.175Z</time>
      </trkpt>
      <trkpt lat="43.64242" lon="1.22091">
        <ele>257.036236</ele>
        <time>2023-01-03T14:00:46.170Z</time>
      </trkpt>
      <trkpt lat="43.64233" lon="1.22104">
        <ele>257.04153</ele>
        <time>2023-01-03T14:00:49.169Z</time>
      </trkpt>
      <trkpt lat="43.64224" lon="1.22118">
        <ele>257.046901</ele>
        <time>2023-01-03T14:00:52.178Z</time>
      </trkpt>
      <trkpt lat="43.64215" lon="1.2213">
        <ele>257.051969</ele>
        <time>2023-01-03T14:00:55.170Z</time>
      </trkpt>
      <trkpt lat="43.64206" lon="1.22142">
        <ele>257.056896</ele>
        <time>2023-01-03T14:00:58.174Z</time>
      </trkpt>
      <trkpt lat="43.64198" lon="1.22153">
        <ele>257.06125</ele>
        <time>2023-01-03T14:01:01.174Z</time>
      </trkpt>
      <trkpt lat="43.64191" lon="1.22163">
        <ele>257.065308</ele>
        <time>2023-01-03T14:01:04.168Z</time>
      </trkpt>
      <trkpt lat="43.64184" lon="1.22173">
        <ele>257.069342</ele>
        <time>2023-01-03T14:01:07.181Z</time>
      </trkpt>
      <trkpt lat="43.64177" lon="1.22182">
        <ele>257.073125</ele>
        <time>2023-01-03T14:01:10.182Z</time>
      </trkpt>
      <trkpt lat="43.6417" lon="1.2219">
        <ele>257.076736</ele>
        <time>2023-01-03T14:01:13.153Z</time>
      </trkpt>
      <trkpt lat="43.64164" lon="1.22201">
        <ele>257.045858</ele>
        <time>2023-01-03T14:01:17.171Z</time>
      </trkpt>
      <trkpt lat="43.64158" lon="1.22211">
        <ele>256.988496</ele>
        <time>2023-01-03T14:01:20.179Z</time>
      </trkpt>
      <trkpt lat="43.64151" lon="1.22222">
        <ele>256.919856</ele>
        <time>2023-01-03T14:01:23.169Z</time>
      </trkpt>
      <trkpt lat="43.64142" lon="1.22234">
        <ele>256.844655</ele>
        <time>2023-01-03T14:01:26.174Z</time>
      </trkpt>
      <trkpt lat="43.64134" lon="1.22245">
        <ele>256.769518</ele>
        <time>2023-01-03T14:01:29.170Z</time>
      </trkpt>
      <trkpt lat="43.64126" lon="1.22256">
        <ele>256.697418</ele>
        <time>2023-01-03T14:01:32.153Z</time>
      </trkpt>
      <trkpt lat="43.64118" lon="1.22268">
        <ele>256.624171</ele>
        <time>2023-01-03T14:01:35.169Z</time>
      </trkpt>
      <trkpt lat="43.64109" lon="1.22281">
        <ele>256.540348</ele>
        <time>2023-01-03T14:01:38.172Z</time>
      </trkpt>
      <trkpt lat="43.64103" lon="1.2229">
        <ele>256.481285</ele>
        <time>2023-01-03T14:01:40.170Z</time>
      </trkpt>
      <trkpt lat="43.64094" lon="1.22303">
        <ele>256.398115</ele>
        <time>2023-01-03T14:01:43.170Z</time>
      </trkpt>
      <trkpt lat="43.64086" lon="1.22314">
        <ele>256.331206</ele>
        <time>2023-01-03T14:01:46.153Z</time>
      </trkpt>
      <trkpt lat="43.64096" lon="1.2231">
        <ele>256.270512</ele>
        <time>2023-01-03T14:01:58.159Z</time>
      </trkpt>
      <trkpt lat="43.64104" lon="1.22298">
        <ele>256.193818</ele>
        <time>2023-01-03T14:02:02.172Z</time>
      </trkpt>
      <trkpt lat="43.64112" lon="1.22288">
        <ele>256.124311</ele>
        <time>2023-01-03T14:02:05.170Z</time>
      </trkpt>
      <trkpt lat="43.6412" lon="1.22276">
        <ele>256.05163</ele>
        <time>2023-01-03T14:02:08.156Z</time>
      </trkpt>
      <trkpt lat="43.64128" lon="1.22264">
        <ele>255.976876</ele>
        <time>2023-01-03T14:02:11.175Z</time>
      </trkpt>
      <trkpt lat="43.64136" lon="1.22252">
        <ele>255.936082</ele>
        <time>2023-01-03T14:02:14.172Z</time>
      </trkpt>
      <trkpt lat="43.64144" lon="1.2224">
        <ele>255.943095</ele>
        <time>2023-01-03T14:02:17.171Z</time>
      </trkpt>
      <trkpt lat="43.64152" lon="1.22229">
        <ele>255.949746</ele>
        <time>2023-01-03T14:02:20.153Z</time>
      </trkpt>
      <trkpt lat="43.64159" lon="1.22219">
        <ele>255.955704</ele>
        <time>2023-01-03T14:02:23.167Z</time>
      </trkpt>
      <trkpt lat="43.64166" lon="1.22211">
        <ele>255.961301</ele>
        <time>2023-01-03T14:02:26.168Z</time>
      </trkpt>
      <trkpt lat="43.64177" lon="1.22212">
        <ele>255.96795</ele>
        <time>2023-01-03T14:02:30.159Z</time>
      </trkpt>
      <trkpt lat="43.64184" lon="1.22224">
        <ele>255.974776</ele>
        <time>2023-01-03T14:02:34.161Z</time>
      </trkpt>
      <trkpt lat="43.64181" lon="1.22239">
        <ele>255.981467</ele>
        <time>2023-01-03T14:02:38.167Z</time>
      </trkpt>
      <trkpt lat="43.64172" lon="1.2225">
        <ele>255.988478</ele>
        <time>2023-01-03T14:02:42.164Z</time>
      </trkpt>
      <trkpt lat="43.64165" lon="1.22261">
        <ele>255.994579</ele>
        <time>2023-01-03T14:02:46.154Z</time>
      </trkpt>
      <trkpt lat="43.64165" lon="1.22274">
        <ele>256.000404</ele>
        <time>2023-01-03T14:02:50.164Z</time>
      </trkpt>
      <trkpt lat="43.6417" lon="1.22285">
        <ele>256.006168</ele>
        <time>2023-01-03T14:02:54.162Z</time>
      </trkpt>
      <trkpt lat="43.64178" lon="1.22294">
        <ele>256.012026</ele>
        <time>2023-01-03T14:02:57.161Z</time>
      </trkpt>
      <trkpt lat="43.64183" lon="1.22305">
        <ele>256.017684</ele>
        <time>2023-01-03T14:03:00.161Z</time>
      </trkpt>
      <trkpt lat="43.64189" lon="1.22317">
        <ele>256.023868</ele>
        <time>2023-01-03T14:03:03.170Z</time>
      </trkpt>
      <trkpt lat="43.64196" lon="1.22327">
        <ele>256.029748</ele>
        <time>2023-01-03T14:03:06.171Z</time>
      </trkpt>
      <trkpt lat="43.64201" lon="1.22338">
        <ele>256.035584</ele>
        <time>2023-01-03T14:03:09.153Z</time>
      </trkpt>
      <trkpt lat="43.64208" lon="1.22348">
        <ele>256.014442</ele>
        <time>2023-01-03T14:03:12.171Z</time>
      </trkpt>
      <trkpt lat="43.64214" lon="1.22359">
        <ele>255.887793</ele>
        <time>2023-01-03T14:03:15.174Z</time>
      </trkpt>
      <trkpt lat="43.64221" lon="1.22368">
        <ele>255.762281</ele>
        <time>2023-01-03T14:03:18.149Z</time>
      </trkpt>
      <trkpt lat="43.64229" lon="1.22381">
        <ele>255.607696</ele>
        <time>2023-01-03T14:03:22.165Z</time>
      </trkpt>
      <trkpt lat="43.64236" lon="1.22389">
        <ele>255.489304</ele>
        <time>2023-01-03T14:03:25.172Z</time>
      </trkpt>
      <trkpt lat="43.64243" lon="1.22401">
        <ele>255.341273</ele>
        <time>2023-01-03T14:03:29.168Z</time>
      </trkpt>
      <trkpt lat="43.64251" lon="1.2241">
        <ele>255.211971</ele>
        <time>2023-01-03T14:03:32.172Z</time>
      </trkpt>
      <trkpt lat="43.64256" lon="1.22422">
        <ele>255.082987</ele>
        <time>2023-01-03T14:03:35.161Z</time>
      </trkpt>
      <trkpt lat="43.64263" lon="1.22433">
        <ele>254.950474</ele>
        <time>2023-01-03T14:03:38.155Z</time>
      </trkpt>
      <trkpt lat="43.64268" lon="1.22443">
        <ele>254.828276</ele>
        <time>2023-01-03T14:03:41.168Z</time>
      </trkpt>
      <trkpt lat="43.64274" lon="1.22453">
        <ele>254.711478</ele>
        <time>2023-01-03T14:03:44.174Z</time>
      </trkpt>
      <trkpt lat="43.64283" lon="1.22461">
        <ele>254.578709</ele>
        <time>2023-01-03T14:03:48.163Z</time>
      </trkpt>
      <trkpt lat="43.64294" lon="1.22462">
        <ele>254.438026</ele>
        <time>2023-01-03T14:03:53.164Z</time>
      </trkpt>
      <trkpt lat="43.64302" lon="1.22454">
        <ele>254.308911</ele>
        <time>2023-01-03T14:03:57.153Z</time>
      </trkpt>
      <trkpt lat="43.64309" lon="1.22443">
        <ele>254.173997</ele>
        <time>2023-01-03T14:04:01.163Z</time>
      </trkpt>
      <trkpt lat="43.64317" lon="1.22436">
        <ele>254.05498</ele>
        <time>2023-01-03T14:04:05.170Z</time>
      </trkpt>
      <trkpt lat="43.64327" lon="1.22441">
        <ele>253.91212</ele>
        <time>2023-01-03T14:04:10.161Z</time>
      </trkpt>
      <trkpt lat="43.64333" lon="1.22453">
        <ele>253.777904</ele>
        <time>2023-01-03T14:04:14.168Z</time>
      </trkpt>
      <trkpt lat="43.6434" lon="1.22466">
        <ele>253.695379</ele>
        <time>2023-01-03T14:04:18.152Z</time>
      </trkpt>
      <trkpt lat="43.64347" lon="1.22477">
        <ele>253.652078</ele>
        <time>2023-01-03T14:04:22.170Z</time>
      </trkpt>
      <trkpt lat="43.64354" lon="1.22491">
        <ele>253.603603</ele>
        <time>2023-01-03T14:04:26.167Z</time>
      </trkpt>
      <trkpt lat="43.6436" lon="1.22502">
        <ele>253.564095</ele>
        <time>2023-01-03T14:04:29.151Z</time>
      </trkpt>
      <trkpt lat="43.64365" lon="1.22512">
        <ele>253.527198</ele>
        <time>2023-01-03T14:04:32.167Z</time>
      </trkpt>
      <trkpt lat="43.64372" lon="1.22522">
        <ele>253.485943</ele>
        <time>2023-01-03T14:04:35.154Z</time>
      </trkpt>
      <trkpt lat="43.6438" lon="1.22533">
        <ele>253.44231</ele>
        <time>2023-01-03T14:04:38.181Z</time>
      </trkpt>
      <trkpt lat="43.64387" lon="1.22544">
        <ele>253.398963</ele>
        <time>2023-01-03T14:04:41.163Z</time>
      </trkpt>
      <trkpt lat="43.64394" lon="1.22555">
        <ele>253.35778</ele>
        <time>2023-01-03T14:04:44.172Z</time>
      </trkpt>
      <trkpt lat="43.644" lon="1.22564">
        <ele>253.319895</ele>
        <time>2023-01-03T14:04:47.169Z</time>
      </trkpt>
      <trkpt lat="43.64407" lon="1.22576">
        <ele>253.27751</ele>
        <time>2023-01-03T14:04:51.179Z</time>
      </trkpt>
      <trkpt lat="43.64411" lon="1.22587">
        <ele>253.240428</ele>
        <time>2023-01-03T14:04:57.146Z</time>
      </trkpt>
      <trkpt lat="43.64405" lon="1.22575">
        <ele>253.197142</ele>
        <time>2023-01-03T14:05:13.153Z</time>
      </trkpt>
      <trkpt lat="43.64398" lon="1.22565">
        <ele>253.158913</ele>
        <time>2023-01-03T14:05:17.149Z</time>
      </trkpt>
      <trkpt lat="43.64391" lon="1.22555">
        <ele>253.117181</ele>
        <time>2023-01-03T14:05:21.175Z</time>
      </trkpt>
      <trkpt lat="43.64384" lon="1.22544">
        <ele>253.076144</ele>
        <time>2023-01-03T14:05:25.152Z</time>
      </trkpt>
      <trkpt lat="43.64379" lon="1.22532">
        <ele>253.033265</ele>
        <time>2023-01-03T14:05:29.169Z</time>
      </trkpt>
      <trkpt lat="43.64372" lon="1.22519">
        <ele>253.008125</ele>
        <time>2023-01-03T14:05:33.169Z</time>
      </trkpt>
      <trkpt lat="43.64366" lon="1.22507">
        <ele>253.029075</ele>
        <time>2023-01-03T14:05:37.170Z</time>
      </trkpt>
      <trkpt lat="43.64359" lon="1.22496">
        <ele>253.048321</ele>
        <time>2023-01-03T14:05:41.170Z</time>
      </trkpt>
      <trkpt lat="43.64353" lon="1.22485">
        <ele>253.068151</ele>
        <time>2023-01-03T14:05:45.168Z</time>
      </trkpt>
      <trkpt lat="43.64345" lon="1.22477">
        <ele>253.086341</ele>
        <time>2023-01-03T14:05:48.157Z</time>
      </trkpt>
      <trkpt lat="43.64338" lon="1.22466">
        <ele>253.105446</ele>
        <time>2023-01-03T14:05:52.164Z</time>
      </trkpt>
      <trkpt lat="43.64331" lon="1.22455">
        <ele>253.126058</ele>
        <time>2023-01-03T14:05:56.157Z</time>
      </trkpt>
      <trkpt lat="43.64325" lon="1.22443">
        <ele>253.146031</ele>
        <time>2023-01-03T14:06:00.170Z</time>
      </trkpt>
      <trkpt lat="43.64317" lon="1.22433">
        <ele>253.16684</ele>
        <time>2023-01-03T14:06:05.161Z</time>
      </trkpt>
      <trkpt lat="43.64312" lon="1.22422">
        <ele>253.184235</ele>
        <time>2023-01-03T14:06:11.153Z</time>
      </trkpt>
      <trkpt lat="43.64312" lon="1.22437">
        <ele>253.204748</ele>
        <time>2023-01-03T14:06:20.159Z</time>
      </trkpt>
      <trkpt lat="43.64305" lon="1.22448">
        <ele>253.223707</ele>
        <time>2023-01-03T14:06:22.160Z</time>
      </trkpt>
      <trkpt lat="43.64298" lon="1.2246">
        <ele>253.245207</ele>
        <time>2023-01-03T14:06:25.170Z</time>
      </trkpt>
      <trkpt lat="43.64288" lon="1.22467">
        <ele>253.265424</ele>
        <time>2023-01-03T14:06:29.151Z</time>
      </trkpt>
      <trkpt lat="43.64282" lon="1.22477">
        <ele>253.283732</ele>
        <time>2023-01-03T14:06:34.160Z</time>
      </trkpt>
      <trkpt lat="43.64272" lon="1.2248">
        <ele>253.302276</ele>
        <time>2023-01-03T14:06:38.158Z</time>
      </trkpt>
      <trkpt lat="43.64262" lon="1.22477">
        <ele>253.322353</ele>
        <time>2023-01-03T14:06:43.169Z</time>
      </trkpt>
      <trkpt lat="43.64256" lon="1.22467">
        <ele>253.33942</ele>
        <time>2023-01-03T14:06:47.156Z</time>
      </trkpt>
      <trkpt lat="43.6425" lon="1.22457">
        <ele>253.475225</ele>
        <time>2023-01-03T14:06:51.181Z</time>
      </trkpt>
      <trkpt lat="43.64244" lon="1.22445">
        <ele>253.635131</ele>
        <time>2023-01-03T14:06:55.173Z</time>
      </trkpt>
      <trkpt lat="43.64236" lon="1.22434">
        <ele>253.808748</ele>
        <time>2023-01-03T14:06:59.159Z</time>
      </trkpt>
      <trkpt lat="43.64229" lon="1.22421">
        <ele>253.990313</ele>
        <time>2023-01-03T14:07:03.155Z</time>
      </trkpt>
      <trkpt lat="43.64223" lon="1.2241">
        <ele>254.14421</ele>
        <time>2023-01-03T14:07:06.176Z</time>
      </trkpt>
      <trkpt lat="43.64216" lon="1.22399">
        <ele>254.303505</ele>
        <time>2023-01-03T14:07:09.163Z</time>
      </trkpt>
      <trkpt lat="43.64209" lon="1.22388">
        <ele>254.464948</ele>
        <time>2023-01-03T14:07:12.173Z</time>
      </trkpt>
      <trkpt lat="43.64203" lon="1.22377">
        <ele>254.620462</ele>
        <time>2023-01-03T14:07:15.148Z</time>
      </trkpt>
      <trkpt lat="43.64196" lon="1.22367">
        <ele>254.77589</ele>
        <time>2023-01-03T14:07:18.171Z</time>
      </trkpt>
      <trkpt lat="43.64189" lon="1.22357">
        <ele>254.931319</ele>
        <time>2023-01-03T14:07:21.171Z</time>
      </trkpt>
      <trkpt lat="43.64184" lon="1.22347">
        <ele>255.070616</ele>
        <time>2023-01-03T14:07:24.159Z</time>
      </trkpt>
      <trkpt lat="43.64178" lon="1.22336">
        <ele>255.223259</ele>
        <time>2023-01-03T14:07:27.173Z</time>
      </trkpt>
      <trkpt lat="43.64172" lon="1.22326">
        <ele>255.368752</ele>
        <time>2023-01-03T14:07:30.173Z</time>
      </trkpt>
      <trkpt lat="43.64166" lon="1.22315">
        <ele>255.513266</ele>
        <time>2023-01-03T14:07:33.169Z</time>
      </trkpt>
      <trkpt lat="43.64158" lon="1.22303">
        <ele>255.69539</ele>
        <time>2023-01-03T14:07:37.174Z</time>
      </trkpt>
      <trkpt lat="43.64152" lon="1.22292">
        <ele>255.852653</ele>
        <time>2023-01-03T14:07:41.162Z</time>
      </trkpt>
      <trkpt lat="43.64153" lon="1.22279">
        <ele>256.00268</ele>
        <time>2023-01-03T14:07:45.159Z</time>
      </trkpt>
      <trkpt lat="43.6416" lon="1.22268">
        <ele>256.113979</ele>
        <time>2023-01-03T14:07:49.161Z</time>
      </trkpt>
      <trkpt lat="43.64168" lon="1.22258">
        <ele>256.118671</ele>
        <time>2023-01-03T14:07:53.173Z</time>
      </trkpt>
      <trkpt lat="43.64176" lon="1.22251">
        <ele>256.122939</ele>
        <time>2023-01-03T14:07:56.162Z</time>
      </trkpt>
      <trkpt lat="43.64184" lon="1.22243">
        <ele>256.127186</ele>
        <time>2023-01-03T14:07:59.169Z</time>
      </trkpt>
      <trkpt lat="43.6419" lon="1.2223">
        <ele>256.132245</ele>
        <time>2023-01-03T14:08:03.163Z</time>
      </trkpt>
      <trkpt lat="43.64186" lon="1.22214">
        <ele>256.137401</ele>
        <time>2023-01-03T14:08:07.155Z</time>
      </trkpt>
      <trkpt lat="43.64179" lon="1.22205">
        <ele>256.141699</ele>
        <time>2023-01-03T14:08:11.171Z</time>
      </trkpt>
      <trkpt lat="43.6417" lon="1.22202">
        <ele>256.146087</ele>
        <time>2023-01-03T14:08:18.161Z</time>
      </trkpt>
      <trkpt lat="43.6416" lon="1.22212">
        <ele>256.15145</ele>
        <time>2023-01-03T14:08:22.167Z</time>
      </trkpt>
      <trkpt lat="43.64152" lon="1.22223">
        <ele>256.156641</ele>
        <time>2023-01-03T14:08:25.153Z</time>
      </trkpt>
      <trkpt lat="43.64145" lon="1.22233">
        <ele>256.160795</ele>
        <time>2023-01-03T14:08:27.156Z</time>
      </trkpt>
      <trkpt lat="43.64137" lon="1.22244">
        <ele>256.165784</ele>
        <time>2023-01-03T14:08:29.178Z</time>
      </trkpt>
      <trkpt lat="43.64131" lon="1.22255">
        <ele>256.170343</ele>
        <time>2023-01-03T14:08:31.180Z</time>
      </trkpt>
      <trkpt lat="43.64121" lon="1.22265">
        <ele>256.175547</ele>
        <time>2023-01-03T14:08:33.167Z</time>
      </trkpt>
      <trkpt lat="43.64114" lon="1.22275">
        <ele>256.180275</ele>
        <time>2023-01-03T14:08:35.174Z</time>
      </trkpt>
      <trkpt lat="43.64106" lon="1.22287">
        <ele>256.185279</ele>
        <time>2023-01-03T14:08:37.176Z</time>
      </trkpt>
      <trkpt lat="43.64098" lon="1.22298">
        <ele>256.190361</ele>
        <time>2023-01-03T14:08:39.165Z</time>
      </trkpt>
      <trkpt lat="43.64092" lon="1.22309">
        <ele>256.082719</ele>
        <time>2023-01-03T14:08:41.183Z</time>
      </trkpt>
      <trkpt lat="43.64084" lon="1.22319">
        <ele>255.87497</ele>
        <time>2023-01-03T14:08:43.175Z</time>
      </trkpt>
      <trkpt lat="43.64077" lon="1.22329">
        <ele>255.67993</ele>
        <time>2023-01-03T14:08:45.170Z</time>
      </trkpt>
      <trkpt lat="43.64071" lon="1.22339">
        <ele>255.497954</ele>
        <time>2023-01-03T14:08:47.162Z</time>
      </trkpt>
      <trkpt lat="43.64062" lon="1.2235">
        <ele>255.28037</ele>
        <time>2023-01-03T14:08:49.174Z</time>
      </trkpt>
      <trkpt lat="43.64055" lon="1.22359">
        <ele>255.085697</ele>
        <time>2023-01-03T14:08:51.174Z</time>
      </trkpt>
      <trkpt lat="43.64048" lon="1.2237">
        <ele>254.890885</ele>
        <time>2023-01-03T14:08:53.176Z</time>
      </trkpt>
      <trkpt lat="43.6404" lon="1.22382">
        <ele>254.65182</ele>
        <time>2023-01-03T14:08:55.183Z</time>
      </trkpt>
      <trkpt lat="43.64032" lon="1.22393">
        <ele>254.440975</ele>
        <time>2023-01-03T14:08:57.174Z</time>
      </trkpt>
      <trkpt lat="43.64026" lon="1.22404">
        <ele>254.257951</ele>
        <time>2023-01-03T14:08:59.153Z</time>
      </trkpt>
      <trkpt lat="43.64018" lon="1.22416">
        <ele>254.025521</ele>
        <time>2023-01-03T14:09:01.168Z</time>
      </trkpt>
      <trkpt lat="43.6401" lon="1.22427">
        <ele>253.81733</ele>
        <time>2023-01-03T14:09:03.176Z</time>
      </trkpt>
      <trkpt lat="43.64003" lon="1.22439">
        <ele>253.597131</ele>
        <time>2023-01-03T14:09:05.164Z</time>
      </trkpt>
      <trkpt lat="43.63996" lon="1.2245">
        <ele>253.391789</ele>
        <time>2023-01-03T14:09:07.172Z</time>
      </trkpt>
      <trkpt lat="43.63987" lon="1.22461">
        <ele>253.168579</ele>
        <time>2023-01-03T14:09:09.165Z</time>
      </trkpt>
      <trkpt lat="43.6398" lon="1.22471">
        <ele>252.971627</ele>
        <time>2023-01-03T14:09:11.171Z</time>
      </trkpt>
      <trkpt lat="43.63973" lon="1.22483">
        <ele>252.752757</ele>
        <time>2023-01-03T14:09:13.183Z</time>
      </trkpt>
      <trkpt lat="43.63966" lon="1.22493">
        <ele>252.83835</ele>
        <time>2023-01-03T14:09:15.171Z</time>
      </trkpt>
      <trkpt lat="43.6396" lon="1.22503">
        <ele>252.925521</ele>
        <time>2023-01-03T14:09:17.175Z</time>
      </trkpt>
      <trkpt lat="43.63953" lon="1.22514">
        <ele>253.021662</ele>
        <time>2023-01-03T14:09:19.154Z</time>
      </trkpt>
      <trkpt lat="43.63945" lon="1.22525">
        <ele>253.123162</ele>
        <time>2023-01-03T14:09:21.173Z</time>
      </trkpt>
      <trkpt lat="43.63938" lon="1.22538">
        <ele>253.229124</ele>
        <time>2023-01-03T14:09:23.166Z</time>
      </trkpt>
      <trkpt lat="43.6393" lon="1.22547">
        <ele>253.317847</ele>
        <time>2023-01-03T14:09:25.171Z</time>
      </trkpt>
      <trkpt lat="43.63922" lon="1.22559">
        <ele>253.428038</ele>
        <time>2023-01-03T14:09:27.176Z</time>
      </trkpt>
      <trkpt lat="43.63914" lon="1.22571">
        <ele>253.53059</ele>
        <time>2023-01-03T14:09:29.176Z</time>
      </trkpt>
      <trkpt lat="43.63907" lon="1.22582">
        <ele>253.626731</ele>
        <time>2023-01-03T14:09:31.172Z</time>
      </trkpt>
      <trkpt lat="43.639" lon="1.22593">
        <ele>253.722381</ele>
        <time>2023-01-03T14:09:33.177Z</time>
      </trkpt>
      <trkpt lat="43.63892" lon="1.22604">
        <ele>253.828358</ele>
        <time>2023-01-03T14:09:35.162Z</time>
      </trkpt>
      <trkpt lat="43.63883" lon="1.22613">
        <ele>253.923032</ele>
        <time>2023-01-03T14:09:37.166Z</time>
      </trkpt>
      <trkpt lat="43.63877" lon="1.22622">
        <ele>254.006855</ele>
        <time>2023-01-03T14:09:39.167Z</time>
      </trkpt>
      <trkpt lat="43.6387" lon="1.22633">
        <ele>254.104596</ele>
        <time>2023-01-03T14:09:41.171Z</time>
      </trkpt>
      <trkpt lat="43.63863" lon="1.22645">
        <ele>254.206318</ele>
        <time>2023-01-03T14:09:43.173Z</time>
      </trkpt>
      <trkpt lat="43.63853" lon="1.22656">
        <ele>254.316777</ele>
        <time>2023-01-03T14:09:46.161Z</time>
      </trkpt>
      <trkpt lat="43.63846" lon="1.22666">
        <ele>254.375814</ele>
        <time>2023-01-03T14:09:48.173Z</time>
      </trkpt>
      <trkpt lat="43.63839" lon="1.22676">
        <ele>254.378973</ele>
        <time>2023-01-03T14:09:50.169Z</time>
      </trkpt>
      <trkpt lat="43.63832" lon="1.22685">
        <ele>254.382215</ele>
        <time>2023-01-03T14:09:52.161Z</time>
      </trkpt>
      <trkpt lat="43.63825" lon="1.22695">
        <ele>254.385274</ele>
        <time>2023-01-03T14:09:54.174Z</time>
      </trkpt>
      <trkpt lat="43.63819" lon="1.22706">
        <ele>254.388523</ele>
        <time>2023-01-03T14:09:56.175Z</time>
      </trkpt>
      <trkpt lat="43.63812" lon="1.22715">
        <ele>254.39165</ele>
        <time>2023-01-03T14:09:58.173Z</time>
      </trkpt>
      <trkpt lat="43.63802" lon="1.22728">
        <ele>254.395878</ele>
        <time>2023-01-03T14:10:01.153Z</time>
      </trkpt>
      <trkpt lat="43.63797" lon="1.22739">
        <ele>254.398889</ele>
        <time>2023-01-03T14:10:03.170Z</time>
      </trkpt>
      <trkpt lat="43.63788" lon="1.22751">
        <ele>254.402846</ele>
        <time>2023-01-03T14:10:06.173Z</time>
      </trkpt>
      <trkpt lat="43.63781" lon="1.22761">
        <ele>254.405956</ele>
        <time>2023-01-03T14:10:08.167Z</time>
      </trkpt>
      <trkpt lat="43.63774" lon="1.22769">
        <ele>254.408958</ele>
        <time>2023-01-03T14:10:10.163Z</time>
      </trkpt>
      <trkpt lat="43.63765" lon="1.22782">
        <ele>254.413096</ele>
        <time>2023-01-03T14:10:13.159Z</time>
      </trkpt>
      <trkpt lat="43.63756" lon="1.22794">
        <ele>254.417087</ele>
        <time>2023-01-03T14:10:16.174Z</time>
      </trkpt>
      <trkpt lat="43.63749" lon="1.22805">
        <ele>254.420218</ele>
        <time>2023-01-03T14:10:18.173Z</time>
      </trkpt>
      <trkpt lat="43.63743" lon="1.22815">
        <ele>254.423312</ele>
        <time>2023-01-03T14:10:20.177Z</time>
      </trkpt>
      <trkpt lat="43.63737" lon="1.22827">
        <ele>254.426565</ele>
        <time>2023-01-03T14:10:22.163Z</time>
      </trkpt>
      <trkpt lat="43.63729" lon="1.22837">
        <ele>254.43001</ele>
        <time>2023-01-03T14:10:24.169Z</time>
      </trkpt>
      <trkpt lat="43.63722" lon="1.22851">
        <ele>254.534788</ele>
        <time>2023-01-03T14:10:27.174Z</time>
      </trkpt>
      <trkpt lat="43.63714" lon="1.22862">
        <ele>254.693982</ele>
        <time>2023-01-03T14:10:29.154Z</time>
      </trkpt>
      <trkpt lat="43.63706" lon="1.22871">
        <ele>254.854646</ele>
        <time>2023-01-03T14:10:31.165Z</time>
      </trkpt>
      <trkpt lat="43.63699" lon="1.22883">
        <ele>255.028574</ele>
        <time>2023-01-03T14:10:33.179Z</time>
      </trkpt>
      <trkpt lat="43.6369" lon="1.22894">
        <ele>255.206497</ele>
        <time>2023-01-03T14:10:35.168Z</time>
      </trkpt>
      <trkpt lat="43.63683" lon="1.22906">
        <ele>255.377304</ele>
        <time>2023-01-03T14:10:37.171Z</time>
      </trkpt>
      <trkpt lat="43.63675" lon="1.22917">
        <ele>255.542335</ele>
        <time>2023-01-03T14:10:39.161Z</time>
      </trkpt>
      <trkpt lat="43.63667" lon="1.22929">
        <ele>255.71851</ele>
        <time>2023-01-03T14:10:41.171Z</time>
      </trkpt>
      <trkpt lat="43.63657" lon="1.22943">
        <ele>255.930617</ele>
        <time>2023-01-03T14:10:44.176Z</time>
      </trkpt>
      <trkpt lat="43.6365" lon="1.22955">
        <ele>256.102397</ele>
        <time>2023-01-03T14:10:46.179Z</time>
      </trkpt>
      <trkpt lat="43.63641" lon="1.22967">
        <ele>256.289307</ele>
        <time>2023-01-03T14:10:48.166Z</time>
      </trkpt>
      <trkpt lat="43.63633" lon="1.22978">
        <ele>256.456522</ele>
        <time>2023-01-03T14:10:50.170Z</time>
      </trkpt>
      <trkpt lat="43.63625" lon="1.2299">
        <ele>256.635902</ele>
        <time>2023-01-03T14:10:52.170Z</time>
      </trkpt>
      <trkpt lat="43.63617" lon="1.23001">
        <ele>256.809052</ele>
        <time>2023-01-03T14:10:54.173Z</time>
      </trkpt>
      <trkpt lat="43.63609" lon="1.23012">
        <ele>256.98004</ele>
        <time>2023-01-03T14:10:56.168Z</time>
      </trkpt>
      <trkpt lat="43.636" lon="1.23023">
        <ele>257.118314</ele>
        <time>2023-01-03T14:10:58.173Z</time>
      </trkpt>
      <trkpt lat="43.63594" lon="1.23034">
        <ele>256.921453</ele>
        <time>2023-01-03T14:11:00.167Z</time>
      </trkpt>
      <trkpt lat="43.63588" lon="1.23045">
        <ele>256.714329</ele>
        <time>2023-01-03T14:11:02.172Z</time>
      </trkpt>
      <trkpt lat="43.6358" lon="1.23056">
        <ele>256.500258</ele>
        <time>2023-01-03T14:11:04.174Z</time>
      </trkpt>
      <trkpt lat="43.63573" lon="1.23066">
        <ele>256.296495</ele>
        <time>2023-01-03T14:11:06.204Z</time>
      </trkpt>
      <trkpt lat="43.63564" lon="1.23078">
        <ele>256.06007</ele>
        <time>2023-01-03T14:11:08.160Z</time>
      </trkpt>
      <trkpt lat="43.63557" lon="1.2309">
        <ele>255.840712</ele>
        <time>2023-01-03T14:11:10.169Z</time>
      </trkpt>
      <trkpt lat="43.63548" lon="1.23101">
        <ele>255.614076</ele>
        <time>2023-01-03T14:11:12.167Z</time>
      </trkpt>
      <trkpt lat="43.63541" lon="1.2311">
        <ele>255.421563</ele>
        <time>2023-01-03T14:11:14.162Z</time>
      </trkpt>
      <trkpt lat="43.63533" lon="1.2312">
        <ele>255.209384</ele>
        <time>2023-01-03T14:11:16.163Z</time>
      </trkpt>
      <trkpt lat="43.63527" lon="1.23129">
        <ele>255.032699</ele>
        <time>2023-01-03T14:11:18.170Z</time>
      </trkpt>
      <trkpt lat="43.63518" lon="1.23142">
        <ele>254.778688</ele>
        <time>2023-01-03T14:11:20.161Z</time>
      </trkpt>
      <trkpt lat="43.6351" lon="1.23152">
        <ele>254.566013</ele>
        <time>2023-01-03T14:11:22.173Z</time>
      </trkpt>
      <trkpt lat="43.63503" lon="1.23164">
        <ele>254.342323</ele>
        <time>2023-01-03T14:11:24.173Z</time>
      </trkpt>
      <trkpt lat="43.63496" lon="1.23173">
        <ele>254.158086</ele>
        <time>2023-01-03T14:11:26.168Z</time>
      </trkpt>
      <trkpt lat="43.63488" lon="1.23184">
        <ele>253.937231</ele>
        <time>2023-01-03T14:11:28.156Z</time>
      </trkpt>
      <trkpt lat="43.6348" lon="1.23194">
        <ele>253.724968</ele>
        <time>2023-01-03T14:11:30.156Z</time>
      </trkpt>
      <trkpt lat="43.63473" lon="1.23206">
        <ele>253.605835</ele>
        <time>2023-01-03T14:11:32.166Z</time>
      </trkpt>
      <trkpt lat="43.63466" lon="1.23217">
        <ele>253.595538</ele>
        <time>2023-01-03T14:11:34.170Z</time>
      </trkpt>
      <trkpt lat="43.63459" lon="1.23227">
        <ele>253.585858</ele>
        <time>2023-01-03T14:11:36.183Z</time>
      </trkpt>
      <trkpt lat="43.63451" lon="1.23237">
        <ele>253.575548</ele>
        <time>2023-01-03T14:11:38.178Z</time>
      </trkpt>
      <trkpt lat="43.63445" lon="1.23249">
        <ele>253.565298</ele>
        <time>2023-01-03T14:11:40.169Z</time>
      </trkpt>
      <trkpt lat="43.63437" lon="1.2326">
        <ele>253.555154</ele>
        <time>2023-01-03T14:11:42.173Z</time>
      </trkpt>
      <trkpt lat="43.63427" lon="1.23273">
        <ele>253.542004</ele>
        <time>2023-01-03T14:11:45.159Z</time>
      </trkpt>
      <trkpt lat="43.63421" lon="1.23282">
        <ele>253.53261</ele>
        <time>2023-01-03T14:11:47.156Z</time>
      </trkpt>
      <trkpt lat="43.63414" lon="1.23292">
        <ele>253.522967</ele>
        <time>2023-01-03T14:11:49.151Z</time>
      </trkpt>
      <trkpt lat="43.63407" lon="1.23302">
        <ele>253.513761</ele>
        <time>2023-01-03T14:11:51.170Z</time>
      </trkpt>
      <trkpt lat="43.63398" lon="1.23316">
        <ele>253.501069</ele>
        <time>2023-01-03T14:11:54.173Z</time>
      </trkpt>
      <trkpt lat="43.6339" lon="1.23326">
        <ele>253.490505</ele>
        <time>2023-01-03T14:11:57.174Z</time>
      </trkpt>
      <trkpt lat="43.63382" lon="1.23338">
        <ele>253.478858</ele>
        <time>2023-01-03T14:12:00.150Z</time>
      </trkpt>
      <trkpt lat="43.63373" lon="1.2335">
        <ele>253.466625</ele>
        <time>2023-01-03T14:12:03.179Z</time>
      </trkpt>
      <trkpt lat="43.63363" lon="1.23364">
        <ele>253.453668</ele>
        <time>2023-01-03T14:12:06.171Z</time>
      </trkpt>
      <trkpt lat="43.63354" lon="1.23376">
        <ele>253.441709</ele>
        <time>2023-01-03T14:12:09.169Z</time>
      </trkpt>
      <trkpt lat="43.63345" lon="1.23385">
        <ele>253.234631</ele>
        <time>2023-01-03T14:12:12.174Z</time>
      </trkpt>
      <trkpt lat="43.63337" lon="1.23394">
        <ele>252.967662</ele>
        <time>2023-01-03T14:12:16.175Z</time>
      </trkpt>
      <trkpt lat="43.63326" lon="1.23411">
        <ele>252.516797</ele>
        <time>2023-01-03T14:13:02.173Z</time>
      </trkpt>
      <trkpt lat="43.63318" lon="1.23421">
        <ele>252.238302</ele>
        <time>2023-01-03T14:13:05.179Z</time>
      </trkpt>
      <trkpt lat="43.63309" lon="1.23432">
        <ele>251.904244</ele>
        <time>2023-01-03T14:13:08.183Z</time>
      </trkpt>
      <trkpt lat="43.63302" lon="1.23442">
        <ele>251.642629</ele>
        <time>2023-01-03T14:13:10.162Z</time>
      </trkpt>
      <trkpt lat="43.63294" lon="1.23451">
        <ele>251.37322</ele>
        <time>2023-01-03T14:13:12.178Z</time>
      </trkpt>
      <trkpt lat="43.63286" lon="1.2346">
        <ele>251.09118</ele>
        <time>2023-01-03T14:13:14.160Z</time>
      </trkpt>
      <trkpt lat="43.63278" lon="1.23471">
        <ele>250.784445</ele>
        <time>2023-01-03T14:13:16.164Z</time>
      </trkpt>
      <trkpt lat="43.63268" lon="1.23482">
        <ele>250.450386</ele>
        <time>2023-01-03T14:13:18.165Z</time>
      </trkpt>
      <trkpt lat="43.63258" lon="1.23495">
        <ele>250.090138</ele>
        <time>2023-01-03T14:13:20.176Z</time>
      </trkpt>
      <trkpt lat="43.63248" lon="1.23508">
        <ele>249.709664</ele>
        <time>2023-01-03T14:13:22.181Z</time>
      </trkpt>
      <trkpt lat="43.63237" lon="1.23522">
        <ele>249.311531</ele>
        <time>2023-01-03T14:13:24.156Z</time>
      </trkpt>
      <trkpt lat="43.63226" lon="1.23538">
        <ele>248.897594</ele>
        <time>2023-01-03T14:13:26.157Z</time>
      </trkpt>
      <trkpt lat="43.63215" lon="1.23552">
        <ele>248.473713</ele>
        <time>2023-01-03T14:13:28.156Z</time>
      </trkpt>
      <trkpt lat="43.63202" lon="1.23567">
        <ele>247.970524</ele>
        <time>2023-01-03T14:13:30.157Z</time>
      </trkpt>
      <trkpt lat="43.63188" lon="1.23583">
        <ele>247.448022</ele>
        <time>2023-01-03T14:13:32.155Z</time>
      </trkpt>
      <trkpt lat="43.63175" lon="1.23599">
        <ele>246.940025</ele>
        <time>2023-01-03T14:13:34.164Z</time>
      </trkpt>
      <trkpt lat="43.63168" lon="1.23608">
        <ele>246.661958</ele>
        <time>2023-01-03T14:13:35.157Z</time>
      </trkpt>
      <trkpt lat="43.63161" lon="1.23617">
        <ele>246.391062</ele>
        <time>2023-01-03T14:13:36.166Z</time>
      </trkpt>
      <trkpt lat="43.63154" lon="1.23626">
        <ele>246.110134</ele>
        <time>2023-01-03T14:13:37.170Z</time>
      </trkpt>
      <trkpt lat="43.63147" lon="1.23635">
        <ele>245.816232</ele>
        <time>2023-01-03T14:13:38.178Z</time>
      </trkpt>
      <trkpt lat="43.63139" lon="1.23644">
        <ele>245.528732</ele>
        <time>2023-01-03T14:13:39.160Z</time>
      </trkpt>
      <trkpt lat="43.63132" lon="1.23653">
        <ele>245.234829</ele>
        <time>2023-01-03T14:13:40.155Z</time>
      </trkpt>
      <trkpt lat="43.63125" lon="1.23663">
        <ele>244.943716</ele>
        <time>2023-01-03T14:13:41.175Z</time>
      </trkpt>
      <trkpt lat="43.63117" lon="1.23672">
        <ele>244.649813</ele>
        <time>2023-01-03T14:13:42.158Z</time>
      </trkpt>
      <trkpt lat="43.6311" lon="1.23681">
        <ele>244.363108</ele>
        <time>2023-01-03T14:13:43.160Z</time>
      </trkpt>
      <trkpt lat="43.63103" lon="1.2369">
        <ele>244.079994</ele>
        <time>2023-01-03T14:13:44.173Z</time>
      </trkpt>
      <trkpt lat="43.63096" lon="1.23699">
        <ele>243.795469</ele>
        <time>2023-01-03T14:13:45.160Z</time>
      </trkpt>
      <trkpt lat="43.63089" lon="1.23708">
        <ele>243.528916</ele>
        <time>2023-01-03T14:13:46.149Z</time>
      </trkpt>
      <trkpt lat="43.63076" lon="1.23722">
        <ele>242.956047</ele>
        <time>2023-01-03T14:13:48.155Z</time>
      </trkpt>
      <trkpt lat="43.63064" lon="1.23739">
        <ele>242.319083</ele>
        <time>2023-01-03T14:13:50.161Z</time>
      </trkpt>
      <trkpt lat="43.63052" lon="1.23753">
        <ele>241.758336</ele>
        <time>2023-01-03T14:13:52.161Z</time>
      </trkpt>
      <trkpt lat="43.63042" lon="1.23767">
        <ele>241.225445</ele>
        <time>2023-01-03T14:13:54.161Z</time>
      </trkpt>
      <trkpt lat="43.63032" lon="1.23778">
        <ele>240.758181</ele>
        <time>2023-01-03T14:13:56.157Z</time>
      </trkpt>
      <trkpt lat="43.63024" lon="1.23787">
        <ele>240.351007</ele>
        <time>2023-01-03T14:13:58.158Z</time>
      </trkpt>
      <trkpt lat="43.63017" lon="1.23798">
        <ele>239.960128</ele>
        <time>2023-01-03T14:14:01.161Z</time>
      </trkpt>
      <trkpt lat="43.63013" lon="1.2381">
        <ele>239.607968</ele>
        <time>2023-01-03T14:14:04.161Z</time>
      </trkpt>
      <trkpt lat="43.63011" lon="1.23825">
        <ele>239.222807</ele>
        <time>2023-01-03T14:14:19.157Z</time>
      </trkpt>
      <trkpt lat="43.63005" lon="1.23839">
        <ele>238.778846</ele>
        <time>2023-01-03T14:14:23.164Z</time>
      </trkpt>
      <trkpt lat="43.63001" lon="1.23856">
        <ele>238.299019</ele>
        <time>2023-01-03T14:14:26.156Z</time>
      </trkpt>
      <trkpt lat="43.62999" lon="1.23869">
        <ele>237.94047</ele>
        <time>2023-01-03T14:14:28.157Z</time>
      </trkpt>
      <trkpt lat="43.62996" lon="1.23882">
        <ele>237.595748</ele>
        <time>2023-01-03T14:14:30.156Z</time>
      </trkpt>
      <trkpt lat="43.62993" lon="1.23895">
        <ele>237.219314</ele>
        <time>2023-01-03T14:14:32.172Z</time>
      </trkpt>
      <trkpt lat="43.6299" lon="1.23909">
        <ele>236.83115</ele>
        <time>2023-01-03T14:14:34.158Z</time>
      </trkpt>
      <trkpt lat="43.62987" lon="1.23923">
        <ele>236.5712</ele>
        <time>2023-01-03T14:14:36.152Z</time>
      </trkpt>
      <trkpt lat="43.62984" lon="1.23937">
        <ele>236.331668</ele>
        <time>2023-01-03T14:14:38.157Z</time>
      </trkpt>
      <trkpt lat="43.62981" lon="1.23951">
        <ele>236.096425</ele>
        <time>2023-01-03T14:14:40.170Z</time>
      </trkpt>
      <trkpt lat="43.62978" lon="1.23965">
        <ele>235.863922</ele>
        <time>2023-01-03T14:14:42.174Z</time>
      </trkpt>
      <trkpt lat="43.62974" lon="1.23978">
        <ele>235.648961</ele>
        <time>2023-01-03T14:14:44.158Z</time>
      </trkpt>
      <trkpt lat="43.62971" lon="1.2399">
        <ele>235.434716</ele>
        <time>2023-01-03T14:14:46.153Z</time>
      </trkpt>
      <trkpt lat="43.62968" lon="1.24002">
        <ele>235.231774</ele>
        <time>2023-01-03T14:14:48.162Z</time>
      </trkpt>
      <trkpt lat="43.62964" lon="1.24019">
        <ele>234.951411</ele>
        <time>2023-01-03T14:14:51.172Z</time>
      </trkpt>
      <trkpt lat="43.6296" lon="1.24035">
        <ele>234.674056</ele>
        <time>2023-01-03T14:14:54.161Z</time>
      </trkpt>
      <trkpt lat="43.62955" lon="1.24052">
        <ele>234.389967</ele>
        <time>2023-01-03T14:14:57.156Z</time>
      </trkpt>
      <trkpt lat="43.62952" lon="1.24064">
        <ele>234.177275</ele>
        <time>2023-01-03T14:14:59.156Z</time>
      </trkpt>
      <trkpt lat="43.62949" lon="1.24077">
        <ele>233.954813</ele>
        <time>2023-01-03T14:15:01.179Z</time>
      </trkpt>
      <trkpt lat="43.62945" lon="1.24095">
        <ele>233.657524</ele>
        <time>2023-01-03T14:15:04.166Z</time>
      </trkpt>
      <trkpt lat="43.62941" lon="1.24108">
        <ele>233.435798</ele>
        <time>2023-01-03T14:15:06.167Z</time>
      </trkpt>
      <trkpt lat="43.62939" lon="1.24121">
        <ele>233.225104</ele>
        <time>2023-01-03T14:15:08.157Z</time>
      </trkpt>
      <trkpt lat="43.62935" lon="1.24138">
        <ele>232.943211</ele>
        <time>2023-01-03T14:15:11.171Z</time>
      </trkpt>
      <trkpt lat="43.62931" lon="1.24153">
        <ele>232.805974</ele>
        <time>2023-01-03T14:15:14.167Z</time>
      </trkpt>
      <trkpt lat="43.62932" lon="1.24166">
        <ele>232.875109</ele>
        <time>2023-01-03T14:15:18.160Z</time>
      </trkpt>
      <trkpt lat="43.6294" lon="1.2417">
        <ele>232.944097</ele>
        <time>2023-01-03T14:15:22.152Z</time>
      </trkpt>
      <trkpt lat="43.62949" lon="1.24172">
        <ele>233.011001</ele>
        <time>2023-01-03T14:15:26.160Z</time>
      </trkpt>
      <trkpt lat="43.62949" lon="1.24171">
        <ele>233.016977</ele>
        <time>2023-01-03T14:15:36.850Z</time>
      </trkpt>
      <trkpt lat="43.62926" lon="1.24181">
        <ele>233.199923</ele>
        <time>2023-01-03T14:18:54.182Z</time>
      </trkpt>
      <trkpt lat="43.62922" lon="1.24195">
        <ele>233.285073</ele>
        <time>2023-01-03T14:18:58.173Z</time>
      </trkpt>
      <trkpt lat="43.62919" lon="1.24209">
        <ele>233.362736</ele>
        <time>2023-01-03T14:19:01.159Z</time>
      </trkpt>
      <trkpt lat="43.62915" lon="1.24223">
        <ele>233.443079</ele>
        <time>2023-01-03T14:19:04.162Z</time>
      </trkpt>
      <trkpt lat="43.62912" lon="1.24237">
        <ele>233.519133</ele>
        <time>2023-01-03T14:19:07.166Z</time>
      </trkpt>
      <trkpt lat="43.62908" lon="1.24251">
        <ele>233.602003</ele>
        <time>2023-01-03T14:19:10.178Z</time>
      </trkpt>
      <trkpt lat="43.62905" lon="1.24267">
        <ele>233.689085</ele>
        <time>2023-01-03T14:19:13.172Z</time>
      </trkpt>
      <trkpt lat="43.62901" lon="1.24284">
        <ele>233.786178</ele>
        <time>2023-01-03T14:19:16.156Z</time>
      </trkpt>
      <trkpt lat="43.62898" lon="1.24296">
        <ele>233.852881</ele>
        <time>2023-01-03T14:19:18.161Z</time>
      </trkpt>
      <trkpt lat="43.62896" lon="1.24309">
        <ele>233.925381</ele>
        <time>2023-01-03T14:19:20.179Z</time>
      </trkpt>
      <trkpt lat="43.62892" lon="1.24326">
        <ele>234.025035</ele>
        <time>2023-01-03T14:19:23.177Z</time>
      </trkpt>
      <trkpt lat="43.62889" lon="1.24339">
        <ele>234.095654</ele>
        <time>2023-01-03T14:19:25.161Z</time>
      </trkpt>
      <trkpt lat="43.62885" lon="1.24356">
        <ele>233.997912</ele>
        <time>2023-01-03T14:19:28.171Z</time>
      </trkpt>
      <trkpt lat="43.62882" lon="1.24369">
        <ele>233.893883</ele>
        <time>2023-01-03T14:19:30.160Z</time>
      </trkpt>
      <trkpt lat="43.6288" lon="1.24382">
        <ele>233.792418</ele>
        <time>2023-01-03T14:19:32.165Z</time>
      </trkpt>
      <trkpt lat="43.62877" lon="1.24395">
        <ele>233.684251</ele>
        <time>2023-01-03T14:19:34.163Z</time>
      </trkpt>
      <trkpt lat="43.62875" lon="1.24407">
        <ele>233.584897</ele>
        <time>2023-01-03T14:19:36.185Z</time>
      </trkpt>
      <trkpt lat="43.62872" lon="1.2442">
        <ele>233.479969</ele>
        <time>2023-01-03T14:19:38.179Z</time>
      </trkpt>
      <trkpt lat="43.62869" lon="1.24433">
        <ele>233.375498</ele>
        <time>2023-01-03T14:19:40.171Z</time>
      </trkpt>
      <trkpt lat="43.62866" lon="1.24451">
        <ele>233.229453</ele>
        <time>2023-01-03T14:19:43.175Z</time>
      </trkpt>
      <trkpt lat="43.62863" lon="1.24463">
        <ele>233.130984</ele>
        <time>2023-01-03T14:19:45.164Z</time>
      </trkpt>
      <trkpt lat="43.6286" lon="1.2448">
        <ele>232.992491</ele>
        <time>2023-01-03T14:19:48.151Z</time>
      </trkpt>
      <trkpt lat="43.62858" lon="1.24492">
        <ele>232.891176</ele>
        <time>2023-01-03T14:19:50.163Z</time>
      </trkpt>
      <trkpt lat="43.62855" lon="1.24505">
        <ele>232.791631</ele>
        <time>2023-01-03T14:19:52.176Z</time>
      </trkpt>
      <trkpt lat="43.62852" lon="1.24522">
        <ele>232.652474</ele>
        <time>2023-01-03T14:19:55.171Z</time>
      </trkpt>
      <trkpt lat="43.62849" lon="1.24534">
        <ele>232.554753</ele>
        <time>2023-01-03T14:19:57.163Z</time>
      </trkpt>
      <trkpt lat="43.62847" lon="1.24546">
        <ele>232.456152</ele>
        <time>2023-01-03T14:19:59.160Z</time>
      </trkpt>
      <trkpt lat="43.62844" lon="1.24563">
        <ele>232.315231</ele>
        <time>2023-01-03T14:20:02.166Z</time>
      </trkpt>
      <trkpt lat="43.62841" lon="1.24581">
        <ele>232.175579</ele>
        <time>2023-01-03T14:20:05.161Z</time>
      </trkpt>
      <trkpt lat="43.62838" lon="1.24594">
        <ele>232.140687</ele>
        <time>2023-01-03T14:20:07.159Z</time>
      </trkpt>
      <trkpt lat="43.62836" lon="1.24606">
        <ele>232.112805</ele>
        <time>2023-01-03T14:20:09.155Z</time>
      </trkpt>
      <trkpt lat="43.62833" lon="1.24618">
        <ele>232.085227</ele>
        <time>2023-01-03T14:20:11.168Z</time>
      </trkpt>
      <trkpt lat="43.62831" lon="1.2463">
        <ele>232.057064</ele>
        <time>2023-01-03T14:20:13.181Z</time>
      </trkpt>
      <trkpt lat="43.62828" lon="1.24642">
        <ele>232.02945</ele>
        <time>2023-01-03T14:20:15.158Z</time>
      </trkpt>
      <trkpt lat="43.62826" lon="1.24655">
        <ele>231.999624</ele>
        <time>2023-01-03T14:20:17.179Z</time>
      </trkpt>
      <trkpt lat="43.62822" lon="1.24668">
        <ele>231.96895</ele>
        <time>2023-01-03T14:20:19.163Z</time>
      </trkpt>
      <trkpt lat="43.62821" lon="1.24681">
        <ele>231.940322</ele>
        <time>2023-01-03T14:20:21.166Z</time>
      </trkpt>
      <trkpt lat="43.62818" lon="1.24695">
        <ele>231.909001</ele>
        <time>2023-01-03T14:20:23.176Z</time>
      </trkpt>
      <trkpt lat="43.62816" lon="1.24708">
        <ele>231.878108</ele>
        <time>2023-01-03T14:20:25.169Z</time>
      </trkpt>
      <trkpt lat="43.62814" lon="1.24721">
        <ele>231.848799</ele>
        <time>2023-01-03T14:20:27.165Z</time>
      </trkpt>
      <trkpt lat="43.62811" lon="1.24735">
        <ele>231.817198</ele>
        <time>2023-01-03T14:20:29.156Z</time>
      </trkpt>
      <trkpt lat="43.62809" lon="1.24749">
        <ele>231.785877</ele>
        <time>2023-01-03T14:20:31.178Z</time>
      </trkpt>
      <trkpt lat="43.62807" lon="1.24762">
        <ele>231.756205</ele>
        <time>2023-01-03T14:20:33.182Z</time>
      </trkpt>
      <trkpt lat="43.62804" lon="1.24776">
        <ele>231.723813</ele>
        <time>2023-01-03T14:20:35.154Z</time>
      </trkpt>
      <trkpt lat="43.62802" lon="1.24788">
        <ele>231.695904</ele>
        <time>2023-01-03T14:20:37.180Z</time>
      </trkpt>
      <trkpt lat="43.628" lon="1.24802">
        <ele>231.664445</ele>
        <time>2023-01-03T14:20:39.155Z</time>
      </trkpt>
      <trkpt lat="43.62797" lon="1.24816">
        <ele>231.632702</ele>
        <time>2023-01-03T14:20:41.179Z</time>
      </trkpt>
      <trkpt lat="43.62795" lon="1.24829">
        <ele>231.646993</ele>
        <time>2023-01-03T14:20:43.160Z</time>
      </trkpt>
      <trkpt lat="43.62792" lon="1.24843">
        <ele>231.700202</ele>
        <time>2023-01-03T14:20:45.159Z</time>
      </trkpt>
      <trkpt lat="43.6279" lon="1.24857">
        <ele>231.7579</ele>
        <time>2023-01-03T14:20:47.162Z</time>
      </trkpt>
      <trkpt lat="43.62788" lon="1.2487">
        <ele>231.809908</ele>
        <time>2023-01-03T14:20:49.155Z</time>
      </trkpt>
      <trkpt lat="43.62785" lon="1.24883">
        <ele>231.860359</ele>
        <time>2023-01-03T14:20:51.178Z</time>
      </trkpt>
      <trkpt lat="43.62782" lon="1.24896">
        <ele>231.914526</ele>
        <time>2023-01-03T14:20:53.160Z</time>
      </trkpt>
      <trkpt lat="43.62778" lon="1.24909">
        <ele>231.969607</ele>
        <time>2023-01-03T14:20:55.160Z</time>
      </trkpt>
      <trkpt lat="43.62774" lon="1.24922">
        <ele>232.024553</ele>
        <time>2023-01-03T14:20:57.176Z</time>
      </trkpt>
      <trkpt lat="43.62771" lon="1.24935">
        <ele>232.07872</ele>
        <time>2023-01-03T14:20:59.155Z</time>
      </trkpt>
      <trkpt lat="43.62767" lon="1.24948">
        <ele>232.132523</ele>
        <time>2023-01-03T14:21:01.176Z</time>
      </trkpt>
      <trkpt lat="43.62763" lon="1.24962">
        <ele>232.188188</ele>
        <time>2023-01-03T14:21:03.180Z</time>
      </trkpt>
      <trkpt lat="43.6276" lon="1.24975">
        <ele>232.244184</ele>
        <time>2023-01-03T14:21:05.160Z</time>
      </trkpt>
      <trkpt lat="43.62756" lon="1.24988">
        <ele>232.299265</ele>
        <time>2023-01-03T14:21:07.176Z</time>
      </trkpt>
      <trkpt lat="43.62753" lon="1.25002">
        <ele>232.35471</ele>
        <time>2023-01-03T14:21:09.156Z</time>
      </trkpt>
      <trkpt lat="43.62749" lon="1.25016">
        <ele>232.410552</ele>
        <time>2023-01-03T14:21:11.172Z</time>
      </trkpt>
      <trkpt lat="43.62746" lon="1.25029">
        <ele>232.466025</ele>
        <time>2023-01-03T14:21:13.174Z</time>
      </trkpt>
      <trkpt lat="43.62742" lon="1.25043">
        <ele>232.52277</ele>
        <time>2023-01-03T14:21:15.153Z</time>
      </trkpt>
      <trkpt lat="43.62738" lon="1.25056">
        <ele>232.578638</ele>
        <time>2023-01-03T14:21:17.156Z</time>
      </trkpt>
      <trkpt lat="43.62735" lon="1.2507">
        <ele>232.636139</ele>
        <time>2023-01-03T14:21:19.153Z</time>
      </trkpt>
      <trkpt lat="43.62731" lon="1.25083">
        <ele>232.693551</ele>
        <time>2023-01-03T14:21:21.157Z</time>
      </trkpt>
      <trkpt lat="43.62727" lon="1.25096">
        <ele>232.749667</ele>
        <time>2023-01-03T14:21:23.157Z</time>
      </trkpt>
      <trkpt lat="43.62724" lon="1.25109">
        <ele>232.805017</ele>
        <time>2023-01-03T14:21:25.161Z</time>
      </trkpt>
      <trkpt lat="43.6272" lon="1.25122">
        <ele>232.860929</ele>
        <time>2023-01-03T14:21:27.173Z</time>
      </trkpt>
      <trkpt lat="43.62717" lon="1.25135">
        <ele>232.913839</ele>
        <time>2023-01-03T14:21:29.147Z</time>
      </trkpt>
      <trkpt lat="43.62714" lon="1.25147">
        <ele>232.964728</ele>
        <time>2023-01-03T14:21:31.175Z</time>
      </trkpt>
      <trkpt lat="43.6271" lon="1.2516">
        <ele>233.019889</ele>
        <time>2023-01-03T14:21:33.161Z</time>
      </trkpt>
      <trkpt lat="43.62707" lon="1.25172">
        <ele>233.073781</ele>
        <time>2023-01-03T14:21:35.159Z</time>
      </trkpt>
      <trkpt lat="43.62703" lon="1.25185">
        <ele>233.128581</ele>
        <time>2023-01-03T14:21:37.173Z</time>
      </trkpt>
      <trkpt lat="43.62699" lon="1.25198">
        <ele>233.183754</ele>
        <time>2023-01-03T14:21:39.153Z</time>
      </trkpt>
      <trkpt lat="43.62695" lon="1.25211">
        <ele>233.241389</ele>
        <time>2023-01-03T14:21:41.165Z</time>
      </trkpt>
      <trkpt lat="43.62692" lon="1.25225">
        <ele>233.298449</ele>
        <time>2023-01-03T14:21:43.177Z</time>
      </trkpt>
      <trkpt lat="43.62687" lon="1.25238">
        <ele>233.358354</ele>
        <time>2023-01-03T14:21:45.171Z</time>
      </trkpt>
      <trkpt lat="43.62683" lon="1.25251">
        <ele>233.414212</ele>
        <time>2023-01-03T14:21:47.184Z</time>
      </trkpt>
      <trkpt lat="43.62679" lon="1.25265">
        <ele>233.47411</ele>
        <time>2023-01-03T14:21:49.168Z</time>
      </trkpt>
      <trkpt lat="43.62674" lon="1.25279">
        <ele>233.533922</ele>
        <time>2023-01-03T14:21:51.163Z</time>
      </trkpt>
      <trkpt lat="43.62671" lon="1.25292">
        <ele>233.551772</ele>
        <time>2023-01-03T14:21:53.180Z</time>
      </trkpt>
      <trkpt lat="43.62666" lon="1.25305">
        <ele>233.473668</ele>
        <time>2023-01-03T14:21:55.165Z</time>
      </trkpt>
      <trkpt lat="43.62662" lon="1.25318">
        <ele>233.394943</ele>
        <time>2023-01-03T14:21:57.182Z</time>
      </trkpt>
      <trkpt lat="43.62657" lon="1.25331">
        <ele>233.316215</ele>
        <time>2023-01-03T14:21:59.158Z</time>
      </trkpt>
      <trkpt lat="43.62653" lon="1.25343">
        <ele>233.240743</ele>
        <time>2023-01-03T14:22:01.173Z</time>
      </trkpt>
      <trkpt lat="43.62648" lon="1.25355">
        <ele>233.163957</ele>
        <time>2023-01-03T14:22:03.177Z</time>
      </trkpt>
      <trkpt lat="43.62643" lon="1.25367">
        <ele>233.091681</ele>
        <time>2023-01-03T14:22:05.173Z</time>
      </trkpt>
      <trkpt lat="43.62638" lon="1.25378">
        <ele>233.0201</ele>
        <time>2023-01-03T14:22:07.180Z</time>
      </trkpt>
      <trkpt lat="43.62632" lon="1.25388">
        <ele>232.948122</ele>
        <time>2023-01-03T14:22:09.163Z</time>
      </trkpt>
      <trkpt lat="43.62626" lon="1.25399">
        <ele>232.877876</ele>
        <time>2023-01-03T14:22:11.167Z</time>
      </trkpt>
      <trkpt lat="43.62621" lon="1.2541">
        <ele>232.803248</ele>
        <time>2023-01-03T14:22:13.180Z</time>
      </trkpt>
      <trkpt lat="43.62615" lon="1.25422">
        <ele>232.725005</ele>
        <time>2023-01-03T14:22:15.177Z</time>
      </trkpt>
      <trkpt lat="43.62609" lon="1.25433">
        <ele>232.649489</ele>
        <time>2023-01-03T14:22:17.164Z</time>
      </trkpt>
      <trkpt lat="43.62603" lon="1.25444">
        <ele>232.572653</ele>
        <time>2023-01-03T14:22:19.159Z</time>
      </trkpt>
      <trkpt lat="43.62597" lon="1.25456">
        <ele>232.495375</ele>
        <time>2023-01-03T14:22:21.153Z</time>
      </trkpt>
      <trkpt lat="43.62592" lon="1.25467">
        <ele>232.420691</ele>
        <time>2023-01-03T14:22:23.167Z</time>
      </trkpt>
      <trkpt lat="43.62586" lon="1.25481">
        <ele>232.331144</ele>
        <time>2023-01-03T14:22:26.148Z</time>
      </trkpt>
      <trkpt lat="43.62578" lon="1.25495">
        <ele>232.241495</ele>
        <time>2023-01-03T14:22:29.164Z</time>
      </trkpt>
      <trkpt lat="43.62571" lon="1.25509">
        <ele>232.227605</ele>
        <time>2023-01-03T14:22:32.156Z</time>
      </trkpt>
      <trkpt lat="43.62562" lon="1.25522">
        <ele>232.239292</ele>
        <time>2023-01-03T14:22:35.176Z</time>
      </trkpt>
      <trkpt lat="43.62555" lon="1.25537">
        <ele>232.251071</ele>
        <time>2023-01-03T14:22:38.158Z</time>
      </trkpt>
      <trkpt lat="43.62548" lon="1.25548">
        <ele>232.260075</ele>
        <time>2023-01-03T14:22:40.161Z</time>
      </trkpt>
      <trkpt lat="43.62542" lon="1.2556">
        <ele>232.269281</ele>
        <time>2023-01-03T14:22:42.156Z</time>
      </trkpt>
      <trkpt lat="43.62537" lon="1.25572">
        <ele>232.278007</ele>
        <time>2023-01-03T14:22:44.154Z</time>
      </trkpt>
      <trkpt lat="43.62531" lon="1.25583">
        <ele>232.28645</ele>
        <time>2023-01-03T14:22:46.172Z</time>
      </trkpt>
      <trkpt lat="43.62526" lon="1.25593">
        <ele>232.294578</ele>
        <time>2023-01-03T14:22:48.158Z</time>
      </trkpt>
      <trkpt lat="43.62519" lon="1.25608">
        <ele>232.305823</ele>
        <time>2023-01-03T14:22:51.173Z</time>
      </trkpt>
      <trkpt lat="43.62514" lon="1.25626">
        <ele>232.318037</ele>
        <time>2023-01-03T14:22:54.174Z</time>
      </trkpt>
      <trkpt lat="43.62511" lon="1.2564">
        <ele>232.326869</ele>
        <time>2023-01-03T14:22:56.153Z</time>
      </trkpt>
      <trkpt lat="43.62509" lon="1.25654">
        <ele>232.336292</ele>
        <time>2023-01-03T14:22:58.158Z</time>
      </trkpt>
      <trkpt lat="43.62507" lon="1.25668">
        <ele>232.345202</ele>
        <time>2023-01-03T14:23:00.164Z</time>
      </trkpt>
      <trkpt lat="43.62504" lon="1.25682">
        <ele>232.354379</ele>
        <time>2023-01-03T14:23:02.190Z</time>
      </trkpt>
      <trkpt lat="43.62502" lon="1.25696">
        <ele>232.363514</ele>
        <time>2023-01-03T14:23:04.171Z</time>
      </trkpt>
      <trkpt lat="43.62499" lon="1.25709">
        <ele>232.372394</ele>
        <time>2023-01-03T14:23:06.151Z</time>
      </trkpt>
      <trkpt lat="43.62496" lon="1.25722">
        <ele>232.353252</ele>
        <time>2023-01-03T14:23:08.165Z</time>
      </trkpt>
      <trkpt lat="43.62492" lon="1.25737">
        <ele>232.292299</ele>
        <time>2023-01-03T14:23:11.166Z</time>
      </trkpt>
      <trkpt lat="43.62489" lon="1.25752">
        <ele>232.232311</ele>
        <time>2023-01-03T14:23:15.153Z</time>
      </trkpt>
      <trkpt lat="43.62485" lon="1.25765">
        <ele>232.176822</ele>
        <time>2023-01-03T14:23:18.175Z</time>
      </trkpt>
      <trkpt lat="43.6248" lon="1.2578">
        <ele>232.112731</ele>
        <time>2023-01-03T14:23:21.180Z</time>
      </trkpt>
      <trkpt lat="43.62475" lon="1.25795">
        <ele>232.045752</ele>
        <time>2023-01-03T14:23:24.153Z</time>
      </trkpt>
      <trkpt lat="43.62469" lon="1.25811">
        <ele>231.977113</ele>
        <time>2023-01-03T14:23:27.161Z</time>
      </trkpt>
      <trkpt lat="43.62463" lon="1.25821">
        <ele>231.927957</ele>
        <time>2023-01-03T14:23:29.146Z</time>
      </trkpt>
      <trkpt lat="43.62458" lon="1.25832">
        <ele>231.875607</ele>
        <time>2023-01-03T14:23:31.158Z</time>
      </trkpt>
      <trkpt lat="43.62452" lon="1.25844">
        <ele>231.820287</ele>
        <time>2023-01-03T14:23:33.175Z</time>
      </trkpt>
      <trkpt lat="43.62447" lon="1.25857">
        <ele>231.762013</ele>
        <time>2023-01-03T14:23:35.159Z</time>
      </trkpt>
      <trkpt lat="43.62442" lon="1.25869">
        <ele>231.707166</ele>
        <time>2023-01-03T14:23:37.161Z</time>
      </trkpt>
      <trkpt lat="43.62437" lon="1.2588">
        <ele>231.655813</ele>
        <time>2023-01-03T14:23:39.163Z</time>
      </trkpt>
      <trkpt lat="43.62431" lon="1.25891">
        <ele>231.603834</ele>
        <time>2023-01-03T14:23:41.167Z</time>
      </trkpt>
      <trkpt lat="43.62426" lon="1.25903">
        <ele>231.551885</ele>
        <time>2023-01-03T14:23:43.172Z</time>
      </trkpt>
      <trkpt lat="43.62421" lon="1.25914">
        <ele>231.501614</ele>
        <time>2023-01-03T14:23:45.151Z</time>
      </trkpt>
      <trkpt lat="43.62415" lon="1.25929">
        <ele>231.435735</ele>
        <time>2023-01-03T14:23:48.154Z</time>
      </trkpt>
      <trkpt lat="43.62409" lon="1.25943">
        <ele>231.42601</ele>
        <time>2023-01-03T14:23:51.155Z</time>
      </trkpt>
      <trkpt lat="43.62403" lon="1.25956">
        <ele>231.448234</ele>
        <time>2023-01-03T14:23:54.152Z</time>
      </trkpt>
      <trkpt lat="43.62398" lon="1.25969">
        <ele>231.469512</ele>
        <time>2023-01-03T14:23:57.155Z</time>
      </trkpt>
      <trkpt lat="43.62393" lon="1.25982">
        <ele>231.489616</ele>
        <time>2023-01-03T14:24:00.161Z</time>
      </trkpt>
      <trkpt lat="43.62388" lon="1.25996">
        <ele>231.512127</ele>
        <time>2023-01-03T14:24:03.165Z</time>
      </trkpt>
      <trkpt lat="43.62383" lon="1.26011">
        <ele>231.537308</ele>
        <time>2023-01-03T14:24:06.169Z</time>
      </trkpt>
      <trkpt lat="43.6238" lon="1.26027">
        <ele>231.560651</ele>
        <time>2023-01-03T14:24:09.145Z</time>
      </trkpt>
      <trkpt lat="43.62375" lon="1.26045">
        <ele>231.587392</ele>
        <time>2023-01-03T14:24:12.155Z</time>
      </trkpt>
      <trkpt lat="43.62371" lon="1.26056">
        <ele>231.605847</ele>
        <time>2023-01-03T14:24:14.159Z</time>
      </trkpt>
      <trkpt lat="43.62368" lon="1.26069">
        <ele>231.624957</ele>
        <time>2023-01-03T14:24:16.174Z</time>
      </trkpt>
      <trkpt lat="43.62364" lon="1.2608">
        <ele>231.643217</ele>
        <time>2023-01-03T14:24:18.166Z</time>
      </trkpt>
      <trkpt lat="43.62361" lon="1.26093">
        <ele>231.662195</ele>
        <time>2023-01-03T14:24:20.175Z</time>
      </trkpt>
      <trkpt lat="43.62358" lon="1.26104">
        <ele>231.680096</ele>
        <time>2023-01-03T14:24:22.163Z</time>
      </trkpt>
      <trkpt lat="43.62354" lon="1.26116">
        <ele>231.698132</ele>
        <time>2023-01-03T14:24:24.160Z</time>
      </trkpt>
      <trkpt lat="43.6235" lon="1.26128">
        <ele>231.716673</ele>
        <time>2023-01-03T14:24:26.158Z</time>
      </trkpt>
      <trkpt lat="43.62346" lon="1.26144">
        <ele>231.740915</ele>
        <time>2023-01-03T14:24:29.156Z</time>
      </trkpt>
      <trkpt lat="43.62342" lon="1.26159">
        <ele>231.763948</ele>
        <time>2023-01-03T14:24:32.161Z</time>
      </trkpt>
      <trkpt lat="43.62338" lon="1.26174">
        <ele>231.872112</ele>
        <time>2023-01-03T14:24:35.179Z</time>
      </trkpt>
      <trkpt lat="43.62335" lon="1.2619">
        <ele>232.001597</ele>
        <time>2023-01-03T14:24:38.155Z</time>
      </trkpt>
      <trkpt lat="43.62332" lon="1.26206">
        <ele>232.131987</ele>
        <time>2023-01-03T14:24:41.174Z</time>
      </trkpt>
      <trkpt lat="43.62328" lon="1.26225">
        <ele>232.277987</ele>
        <time>2023-01-03T14:24:44.181Z</time>
      </trkpt>
      <trkpt lat="43.62326" lon="1.26243">
        <ele>232.41943</ele>
        <time>2023-01-03T14:24:47.176Z</time>
      </trkpt>
      <trkpt lat="43.62324" lon="1.26255">
        <ele>232.518055</ele>
        <time>2023-01-03T14:24:49.175Z</time>
      </trkpt>
      <trkpt lat="43.62323" lon="1.26268">
        <ele>232.616104</ele>
        <time>2023-01-03T14:24:51.176Z</time>
      </trkpt>
      <trkpt lat="43.62321" lon="1.2628">
        <ele>232.714748</ele>
        <time>2023-01-03T14:24:53.174Z</time>
      </trkpt>
      <trkpt lat="43.6232" lon="1.26293">
        <ele>232.815393</ele>
        <time>2023-01-03T14:24:55.170Z</time>
      </trkpt>
      <trkpt lat="43.62319" lon="1.26306">
        <ele>232.917445</ele>
        <time>2023-01-03T14:24:57.170Z</time>
      </trkpt>
      <trkpt lat="43.62317" lon="1.26319">
        <ele>233.01891</ele>
        <time>2023-01-03T14:24:59.161Z</time>
      </trkpt>
      <trkpt lat="43.62316" lon="1.26333">
        <ele>233.127662</ele>
        <time>2023-01-03T14:25:01.179Z</time>
      </trkpt>
      <trkpt lat="43.62315" lon="1.26347">
        <ele>233.236635</ele>
        <time>2023-01-03T14:25:03.166Z</time>
      </trkpt>
      <trkpt lat="43.62314" lon="1.26361">
        <ele>233.344191</ele>
        <time>2023-01-03T14:25:05.176Z</time>
      </trkpt>
      <trkpt lat="43.62312" lon="1.26374">
        <ele>233.449882</ele>
        <time>2023-01-03T14:25:07.176Z</time>
      </trkpt>
      <trkpt lat="43.62311" lon="1.26388">
        <ele>233.557572</ele>
        <time>2023-01-03T14:25:09.155Z</time>
      </trkpt>
      <trkpt lat="43.62309" lon="1.26402">
        <ele>233.667422</ele>
        <time>2023-01-03T14:25:11.168Z</time>
      </trkpt>
      <trkpt lat="43.62308" lon="1.26416">
        <ele>233.677906</ele>
        <time>2023-01-03T14:25:13.162Z</time>
      </trkpt>
      <trkpt lat="43.62306" lon="1.2643">
        <ele>233.661642</ele>
        <time>2023-01-03T14:25:15.164Z</time>
      </trkpt>
      <trkpt lat="43.62304" lon="1.26444">
        <ele>233.645627</ele>
        <time>2023-01-03T14:25:17.147Z</time>
      </trkpt>
      <trkpt lat="43.62303" lon="1.26458">
        <ele>233.629657</ele>
        <time>2023-01-03T14:25:19.167Z</time>
      </trkpt>
      <trkpt lat="43.62301" lon="1.26473">
        <ele>233.613554</ele>
        <time>2023-01-03T14:25:21.176Z</time>
      </trkpt>
      <trkpt lat="43.623" lon="1.26486">
        <ele>233.597932</ele>
        <time>2023-01-03T14:25:23.153Z</time>
      </trkpt>
      <trkpt lat="43.62298" lon="1.265">
        <ele>233.582469</ele>
        <time>2023-01-03T14:25:25.176Z</time>
      </trkpt>
      <trkpt lat="43.62297" lon="1.26513">
        <ele>233.566987</ele>
        <time>2023-01-03T14:25:27.166Z</time>
      </trkpt>
      <trkpt lat="43.62296" lon="1.26527">
        <ele>233.551006</ele>
        <time>2023-01-03T14:25:29.157Z</time>
      </trkpt>
      <trkpt lat="43.62295" lon="1.26541">
        <ele>233.536104</ele>
        <time>2023-01-03T14:25:31.175Z</time>
      </trkpt>
      <trkpt lat="43.62296" lon="1.26555">
        <ele>233.520056</ele>
        <time>2023-01-03T14:25:33.180Z</time>
      </trkpt>
      <trkpt lat="43.62296" lon="1.26569">
        <ele>233.503879</ele>
        <time>2023-01-03T14:25:35.177Z</time>
      </trkpt>
      <trkpt lat="43.62297" lon="1.26583">
        <ele>233.487797</ele>
        <time>2023-01-03T14:25:37.180Z</time>
      </trkpt>
      <trkpt lat="43.62299" lon="1.26597">
        <ele>233.471643</ele>
        <time>2023-01-03T14:25:39.158Z</time>
      </trkpt>
      <trkpt lat="43.623" lon="1.26611">
        <ele>233.456098</ele>
        <time>2023-01-03T14:25:41.178Z</time>
      </trkpt>
      <trkpt lat="43.62302" lon="1.26624">
        <ele>233.440647</ele>
        <time>2023-01-03T14:25:43.176Z</time>
      </trkpt>
      <trkpt lat="43.62305" lon="1.26638">
        <ele>233.425049</ele>
        <time>2023-01-03T14:25:45.166Z</time>
      </trkpt>
      <trkpt lat="43.62306" lon="1.26652">
        <ele>233.414148</ele>
        <time>2023-01-03T14:25:47.166Z</time>
      </trkpt>
      <trkpt lat="43.62308" lon="1.26666">
        <ele>233.496756</ele>
        <time>2023-01-03T14:25:49.159Z</time>
      </trkpt>
      <trkpt lat="43.62311" lon="1.2668">
        <ele>233.580048</ele>
        <time>2023-01-03T14:25:51.159Z</time>
      </trkpt>
      <trkpt lat="43.62312" lon="1.26694">
        <ele>233.658619</ele>
        <time>2023-01-03T14:25:53.157Z</time>
      </trkpt>
      <trkpt lat="43.62314" lon="1.26707">
        <ele>233.734396</ele>
        <time>2023-01-03T14:25:55.158Z</time>
      </trkpt>
      <trkpt lat="43.62315" lon="1.2672">
        <ele>233.809931</ele>
        <time>2023-01-03T14:25:57.161Z</time>
      </trkpt>
      <trkpt lat="43.62317" lon="1.26734">
        <ele>233.889619</ele>
        <time>2023-01-03T14:25:59.155Z</time>
      </trkpt>
      <trkpt lat="43.62319" lon="1.26747">
        <ele>233.960443</ele>
        <time>2023-01-03T14:26:01.177Z</time>
      </trkpt>
      <trkpt lat="43.62321" lon="1.26759">
        <ele>234.034826</ele>
        <time>2023-01-03T14:26:03.162Z</time>
      </trkpt>
      <trkpt lat="43.62323" lon="1.26772">
        <ele>234.108583</ele>
        <time>2023-01-03T14:26:05.160Z</time>
      </trkpt>
      <trkpt lat="43.62324" lon="1.26785">
        <ele>234.181878</ele>
        <time>2023-01-03T14:26:07.165Z</time>
      </trkpt>
      <trkpt lat="43.62325" lon="1.26797">
        <ele>234.252257</ele>
        <time>2023-01-03T14:26:09.153Z</time>
      </trkpt>
      <trkpt lat="43.62327" lon="1.2681">
        <ele>234.325938</ele>
        <time>2023-01-03T14:26:11.159Z</time>
      </trkpt>
      <trkpt lat="43.62329" lon="1.26823">
        <ele>234.401906</ele>
        <time>2023-01-03T14:26:13.162Z</time>
      </trkpt>
      <trkpt lat="43.62331" lon="1.26841">
        <ele>234.503665</ele>
        <time>2023-01-03T14:26:16.176Z</time>
      </trkpt>
      <trkpt lat="43.62333" lon="1.26857">
        <ele>234.596712</ele>
        <time>2023-01-03T14:26:19.151Z</time>
      </trkpt>
      <trkpt lat="43.62334" lon="1.26869">
        <ele>234.667208</ele>
        <time>2023-01-03T14:26:23.155Z</time>
      </trkpt>
      <trkpt lat="43.62336" lon="1.26889">
        <ele>234.778717</ele>
        <time>2023-01-03T14:28:24.168Z</time>
      </trkpt>
      <trkpt lat="43.62339" lon="1.26903">
        <ele>234.873664</ele>
        <time>2023-01-03T14:28:27.155Z</time>
      </trkpt>
      <trkpt lat="43.6234" lon="1.26917">
        <ele>234.988714</ele>
        <time>2023-01-03T14:28:30.154Z</time>
      </trkpt>
      <trkpt lat="43.62342" lon="1.26932">
        <ele>235.107757</ele>
        <time>2023-01-03T14:28:33.152Z</time>
      </trkpt>
      <trkpt lat="43.62344" lon="1.26948">
        <ele>235.239608</ele>
        <time>2023-01-03T14:28:36.156Z</time>
      </trkpt>
      <trkpt lat="43.62349" lon="1.26964">
        <ele>235.376907</ele>
        <time>2023-01-03T14:28:39.159Z</time>
      </trkpt>
      <trkpt lat="43.62351" lon="1.26981">
        <ele>235.513088</ele>
        <time>2023-01-03T14:28:42.160Z</time>
      </trkpt>
      <trkpt lat="43.62354" lon="1.26998">
        <ele>235.649758</ele>
        <time>2023-01-03T14:28:45.154Z</time>
      </trkpt>
      <trkpt lat="43.62356" lon="1.27015">
        <ele>235.788948</ele>
        <time>2023-01-03T14:28:48.162Z</time>
      </trkpt>
      <trkpt lat="43.62359" lon="1.27033">
        <ele>235.929116</ele>
        <time>2023-01-03T14:28:51.154Z</time>
      </trkpt>
      <trkpt lat="43.62361" lon="1.2705">
        <ele>236.07084</ele>
        <time>2023-01-03T14:28:54.161Z</time>
      </trkpt>
      <trkpt lat="43.62364" lon="1.27068">
        <ele>236.211372</ele>
        <time>2023-01-03T14:28:57.175Z</time>
      </trkpt>
      <trkpt lat="43.62366" lon="1.2708">
        <ele>236.314221</ele>
        <time>2023-01-03T14:28:59.155Z</time>
      </trkpt>
      <trkpt lat="43.62369" lon="1.27092">
        <ele>236.412946</ele>
        <time>2023-01-03T14:29:01.159Z</time>
      </trkpt>
      <trkpt lat="43.62371" lon="1.27109">
        <ele>236.544744</ele>
        <time>2023-01-03T14:29:04.160Z</time>
      </trkpt>
      <trkpt lat="43.62374" lon="1.27123">
        <ele>236.663785</ele>
        <time>2023-01-03T14:29:07.160Z</time>
      </trkpt>
      <trkpt lat="43.62378" lon="1.27138">
        <ele>236.782932</ele>
        <time>2023-01-03T14:29:10.167Z</time>
      </trkpt>
      <trkpt lat="43.62381" lon="1.27154">
        <ele>236.784762</ele>
        <time>2023-01-03T14:29:13.182Z</time>
      </trkpt>
      <trkpt lat="43.62384" lon="1.27171">
        <ele>236.786685</ele>
        <time>2023-01-03T14:29:16.173Z</time>
      </trkpt>
      <trkpt lat="43.62389" lon="1.27188">
        <ele>236.788725</ele>
        <time>2023-01-03T14:29:19.153Z</time>
      </trkpt>
      <trkpt lat="43.62392" lon="1.272">
        <ele>236.790121</ele>
        <time>2023-01-03T14:29:21.161Z</time>
      </trkpt>
      <trkpt lat="43.62396" lon="1.27219">
        <ele>236.792229</ele>
        <time>2023-01-03T14:29:24.175Z</time>
      </trkpt>
      <trkpt lat="43.62399" lon="1.27232">
        <ele>236.793709</ele>
        <time>2023-01-03T14:29:26.162Z</time>
      </trkpt>
      <trkpt lat="43.62402" lon="1.27244">
        <ele>236.795145</ele>
        <time>2023-01-03T14:29:28.160Z</time>
      </trkpt>
      <trkpt lat="43.62404" lon="1.27257">
        <ele>236.796587</ele>
        <time>2023-01-03T14:29:30.192Z</time>
      </trkpt>
      <trkpt lat="43.62407" lon="1.2727">
        <ele>236.798074</ele>
        <time>2023-01-03T14:29:32.171Z</time>
      </trkpt>
      <trkpt lat="43.6241" lon="1.27283">
        <ele>236.799561</ele>
        <time>2023-01-03T14:29:34.162Z</time>
      </trkpt>
      <trkpt lat="43.62413" lon="1.27296">
        <ele>236.801105</ele>
        <time>2023-01-03T14:29:36.152Z</time>
      </trkpt>
      <trkpt lat="43.62416" lon="1.2731">
        <ele>236.80264</ele>
        <time>2023-01-03T14:29:38.159Z</time>
      </trkpt>
      <trkpt lat="43.6242" lon="1.27323">
        <ele>236.804219</ele>
        <time>2023-01-03T14:29:40.161Z</time>
      </trkpt>
      <trkpt lat="43.62423" lon="1.27337">
        <ele>236.80577</ele>
        <time>2023-01-03T14:29:42.160Z</time>
      </trkpt>
      <trkpt lat="43.62426" lon="1.2735">
        <ele>236.80732</ele>
        <time>2023-01-03T14:29:44.162Z</time>
      </trkpt>
      <trkpt lat="43.62429" lon="1.27364">
        <ele>236.808865</ele>
        <time>2023-01-03T14:29:46.160Z</time>
      </trkpt>
      <trkpt lat="43.62431" lon="1.27377">
        <ele>236.822535</ele>
        <time>2023-01-03T14:29:48.163Z</time>
      </trkpt>
      <trkpt lat="43.62434" lon="1.27391">
        <ele>236.879931</ele>
        <time>2023-01-03T14:29:50.174Z</time>
      </trkpt>
      <trkpt lat="43.62437" lon="1.27404">
        <ele>236.937727</ele>
        <time>2023-01-03T14:29:52.176Z</time>
      </trkpt>
      <trkpt lat="43.6244" lon="1.27418">
        <ele>236.996009</ele>
        <time>2023-01-03T14:29:54.157Z</time>
      </trkpt>
      <trkpt lat="43.62443" lon="1.27431">
        <ele>237.053328</ele>
        <time>2023-01-03T14:29:56.164Z</time>
      </trkpt>
      <trkpt lat="43.62446" lon="1.27444">
        <ele>237.109455</ele>
        <time>2023-01-03T14:29:58.175Z</time>
      </trkpt>
      <trkpt lat="43.62449" lon="1.27461">
        <ele>237.185608</ele>
        <time>2023-01-03T14:30:01.174Z</time>
      </trkpt>
      <trkpt lat="43.62453" lon="1.27476">
        <ele>237.251885</ele>
        <time>2023-01-03T14:30:04.163Z</time>
      </trkpt>
      <trkpt lat="43.62455" lon="1.2749">
        <ele>237.308034</ele>
        <time>2023-01-03T14:30:07.175Z</time>
      </trkpt>
      <trkpt lat="43.62458" lon="1.27502">
        <ele>237.363432</ele>
        <time>2023-01-03T14:30:10.167Z</time>
      </trkpt>
      <trkpt lat="43.62461" lon="1.27516">
        <ele>237.422344</ele>
        <time>2023-01-03T14:30:13.165Z</time>
      </trkpt>
      <trkpt lat="43.62464" lon="1.27531">
        <ele>237.488209</ele>
        <time>2023-01-03T14:30:16.167Z</time>
      </trkpt>
      <trkpt lat="43.62466" lon="1.27548">
        <ele>237.56</ele>
        <time>2023-01-03T14:30:19.149Z</time>
      </trkpt>
      <trkpt lat="43.6247" lon="1.27566">
        <ele>237.637015</ele>
        <time>2023-01-03T14:30:22.155Z</time>
      </trkpt>
      <trkpt lat="43.62472" lon="1.27579">
        <ele>237.691385</ele>
        <time>2023-01-03T14:30:24.154Z</time>
      </trkpt>
      <trkpt lat="43.62475" lon="1.27591">
        <ele>237.744434</ele>
        <time>2023-01-03T14:30:26.165Z</time>
      </trkpt>
      <trkpt lat="43.62477" lon="1.27604">
        <ele>237.797754</ele>
        <time>2023-01-03T14:30:28.159Z</time>
      </trkpt>
      <trkpt lat="43.62479" lon="1.27616">
        <ele>237.835741</ele>
        <time>2023-01-03T14:30:30.171Z</time>
      </trkpt>
      <trkpt lat="43.62481" lon="1.27629">
        <ele>237.797241</ele>
        <time>2023-01-03T14:30:32.166Z</time>
      </trkpt>
      <trkpt lat="43.62482" lon="1.27641">
        <ele>237.759779</ele>
        <time>2023-01-03T14:30:34.174Z</time>
      </trkpt>
      <trkpt lat="43.62483" lon="1.27654">
        <ele>237.722737</ele>
        <time>2023-01-03T14:30:36.176Z</time>
      </trkpt>
      <trkpt lat="43.62484" lon="1.27666">
        <ele>237.685069</ele>
        <time>2023-01-03T14:30:38.180Z</time>
      </trkpt>
      <trkpt lat="43.62485" lon="1.27684">
        <ele>237.631328</ele>
        <time>2023-01-03T14:30:41.175Z</time>
      </trkpt>
      <trkpt lat="43.62485" lon="1.27697">
        <ele>237.59384</ele>
        <time>2023-01-03T14:30:43.173Z</time>
      </trkpt>
      <trkpt lat="43.62483" lon="1.27709">
        <ele>237.556507</ele>
        <time>2023-01-03T14:30:45.161Z</time>
      </trkpt>
      <trkpt lat="43.62479" lon="1.27727">
        <ele>237.501526</ele>
        <time>2023-01-03T14:30:48.181Z</time>
      </trkpt>
      <trkpt lat="43.62473" lon="1.27742">
        <ele>237.448381</ele>
        <time>2023-01-03T14:30:51.177Z</time>
      </trkpt>
      <trkpt lat="43.62468" lon="1.27753">
        <ele>237.410242</ele>
        <time>2023-01-03T14:30:53.176Z</time>
      </trkpt>
      <trkpt lat="43.62463" lon="1.27765">
        <ele>237.368843</ele>
        <time>2023-01-03T14:30:55.176Z</time>
      </trkpt>
      <trkpt lat="43.62457" lon="1.27777">
        <ele>237.326084</ele>
        <time>2023-01-03T14:30:57.179Z</time>
      </trkpt>
      <trkpt lat="43.62452" lon="1.2779">
        <ele>237.281843</ele>
        <time>2023-01-03T14:30:59.155Z</time>
      </trkpt>
      <trkpt lat="43.62446" lon="1.27803">
        <ele>237.235394</ele>
        <time>2023-01-03T14:31:01.163Z</time>
      </trkpt>
      <trkpt lat="43.62441" lon="1.27818">
        <ele>237.188593</ele>
        <time>2023-01-03T14:31:03.164Z</time>
      </trkpt>
      <trkpt lat="43.62436" lon="1.27832">
        <ele>237.141544</ele>
        <time>2023-01-03T14:31:05.168Z</time>
      </trkpt>
      <trkpt lat="43.62432" lon="1.27846">
        <ele>237.071066</ele>
        <time>2023-01-03T14:31:07.176Z</time>
      </trkpt>
      <trkpt lat="43.62429" lon="1.2786">
        <ele>236.806754</ele>
        <time>2023-01-03T14:31:09.153Z</time>
      </trkpt>
      <trkpt lat="43.62427" lon="1.27875">
        <ele>236.541186</ele>
        <time>2023-01-03T14:31:11.162Z</time>
      </trkpt>
      <trkpt lat="43.62426" lon="1.27889">
        <ele>236.296551</ele>
        <time>2023-01-03T14:31:13.175Z</time>
      </trkpt>
      <trkpt lat="43.62426" lon="1.27903">
        <ele>236.044301</ele>
        <time>2023-01-03T14:31:15.160Z</time>
      </trkpt>
      <trkpt lat="43.62425" lon="1.27919">
        <ele>235.75972</ele>
        <time>2023-01-03T14:31:17.156Z</time>
      </trkpt>
      <trkpt lat="43.62424" lon="1.27936">
        <ele>235.462893</ele>
        <time>2023-01-03T14:31:19.152Z</time>
      </trkpt>
      <trkpt lat="43.62424" lon="1.27953">
        <ele>235.170075</ele>
        <time>2023-01-03T14:31:21.174Z</time>
      </trkpt>
      <trkpt lat="43.62424" lon="1.27968">
        <ele>234.889445</ele>
        <time>2023-01-03T14:31:23.148Z</time>
      </trkpt>
      <trkpt lat="43.62425" lon="1.27985">
        <ele>234.598034</ele>
        <time>2023-01-03T14:31:25.162Z</time>
      </trkpt>
      <trkpt lat="43.62426" lon="1.28001">
        <ele>234.30773</ele>
        <time>2023-01-03T14:31:27.176Z</time>
      </trkpt>
      <trkpt lat="43.62427" lon="1.28018">
        <ele>234.01873</ele>
        <time>2023-01-03T14:31:29.150Z</time>
      </trkpt>
      <trkpt lat="43.62429" lon="1.28033">
        <ele>233.747</ele>
        <time>2023-01-03T14:31:31.159Z</time>
      </trkpt>
      <trkpt lat="43.62429" lon="1.28049">
        <ele>233.471735</ele>
        <time>2023-01-03T14:31:33.155Z</time>
      </trkpt>
      <trkpt lat="43.62429" lon="1.28065">
        <ele>233.189468</ele>
        <time>2023-01-03T14:31:35.164Z</time>
      </trkpt>
      <trkpt lat="43.62427" lon="1.28081">
        <ele>232.901965</ele>
        <time>2023-01-03T14:31:37.172Z</time>
      </trkpt>
      <trkpt lat="43.62426" lon="1.28097">
        <ele>232.397425</ele>
        <time>2023-01-03T14:31:39.154Z</time>
      </trkpt>
      <trkpt lat="43.62423" lon="1.28111">
        <ele>231.61519</ele>
        <time>2023-01-03T14:31:41.163Z</time>
      </trkpt>
      <trkpt lat="43.6242" lon="1.28124">
        <ele>230.843294</ele>
        <time>2023-01-03T14:31:43.164Z</time>
      </trkpt>
      <trkpt lat="43.62415" lon="1.28137">
        <ele>230.066093</ele>
        <time>2023-01-03T14:31:45.167Z</time>
      </trkpt>
      <trkpt lat="43.62407" lon="1.28149">
        <ele>229.214762</ele>
        <time>2023-01-03T14:31:47.152Z</time>
      </trkpt>
      <trkpt lat="43.62398" lon="1.28162">
        <ele>228.236788</ele>
        <time>2023-01-03T14:31:49.145Z</time>
      </trkpt>
      <trkpt lat="43.62389" lon="1.28175">
        <ele>227.231554</ele>
        <time>2023-01-03T14:31:51.178Z</time>
      </trkpt>
      <trkpt lat="43.6238" lon="1.2819">
        <ele>226.185074</ele>
        <time>2023-01-03T14:31:53.170Z</time>
      </trkpt>
      <trkpt lat="43.62372" lon="1.28207">
        <ele>225.138451</ele>
        <time>2023-01-03T14:31:55.162Z</time>
      </trkpt>
      <trkpt lat="43.62365" lon="1.28224">
        <ele>224.042988</ele>
        <time>2023-01-03T14:31:57.159Z</time>
      </trkpt>
      <trkpt lat="43.62358" lon="1.28241">
        <ele>223.015442</ele>
        <time>2023-01-03T14:31:59.149Z</time>
      </trkpt>
      <trkpt lat="43.62352" lon="1.28258">
        <ele>221.971019</ele>
        <time>2023-01-03T14:32:01.164Z</time>
      </trkpt>
      <trkpt lat="43.62345" lon="1.28275">
        <ele>220.93256</ele>
        <time>2023-01-03T14:32:03.154Z</time>
      </trkpt>
      <trkpt lat="43.62339" lon="1.28291">
        <ele>219.953184</ele>
        <time>2023-01-03T14:32:05.155Z</time>
      </trkpt>
      <trkpt lat="43.62334" lon="1.28307">
        <ele>219.014935</ele>
        <time>2023-01-03T14:32:07.172Z</time>
      </trkpt>
      <trkpt lat="43.62329" lon="1.28323">
        <ele>218.158506</ele>
        <time>2023-01-03T14:32:09.149Z</time>
      </trkpt>
      <trkpt lat="43.62324" lon="1.2834">
        <ele>217.240171</ele>
        <time>2023-01-03T14:32:11.173Z</time>
      </trkpt>
      <trkpt lat="43.62318" lon="1.28356">
        <ele>216.333024</ele>
        <time>2023-01-03T14:32:13.171Z</time>
      </trkpt>
      <trkpt lat="43.62312" lon="1.28373">
        <ele>215.372461</ele>
        <time>2023-01-03T14:32:15.221Z</time>
      </trkpt>
      <trkpt lat="43.62304" lon="1.28389">
        <ele>214.404454</ele>
        <time>2023-01-03T14:32:17.151Z</time>
      </trkpt>
      <trkpt lat="43.62296" lon="1.28405">
        <ele>213.420716</ele>
        <time>2023-01-03T14:32:19.146Z</time>
      </trkpt>
      <trkpt lat="43.62289" lon="1.28421">
        <ele>212.432019</ele>
        <time>2023-01-03T14:32:21.156Z</time>
      </trkpt>
      <trkpt lat="43.62284" lon="1.2844">
        <ele>211.42556</ele>
        <time>2023-01-03T14:32:23.154Z</time>
      </trkpt>
      <trkpt lat="43.62282" lon="1.28461">
        <ele>210.380791</ele>
        <time>2023-01-03T14:32:25.148Z</time>
      </trkpt>
      <trkpt lat="43.6228" lon="1.28483">
        <ele>209.285237</ele>
        <time>2023-01-03T14:32:27.168Z</time>
      </trkpt>
      <trkpt lat="43.6228" lon="1.28504">
        <ele>208.202073</ele>
        <time>2023-01-03T14:32:29.169Z</time>
      </trkpt>
      <trkpt lat="43.6228" lon="1.28524">
        <ele>207.17949</ele>
        <time>2023-01-03T14:32:31.167Z</time>
      </trkpt>
      <trkpt lat="43.6228" lon="1.28542">
        <ele>206.758525</ele>
        <time>2023-01-03T14:32:33.159Z</time>
      </trkpt>
      <trkpt lat="43.62279" lon="1.28557">
        <ele>206.709985</ele>
        <time>2023-01-03T14:32:35.159Z</time>
      </trkpt>
      <trkpt lat="43.6228" lon="1.28571">
        <ele>206.666146</ele>
        <time>2023-01-03T14:32:37.175Z</time>
      </trkpt>
      <trkpt lat="43.62279" lon="1.28584">
        <ele>206.624805</ele>
        <time>2023-01-03T14:32:39.154Z</time>
      </trkpt>
      <trkpt lat="43.62279" lon="1.28597">
        <ele>206.582225</ele>
        <time>2023-01-03T14:32:41.154Z</time>
      </trkpt>
      <trkpt lat="43.62279" lon="1.28611">
        <ele>206.538418</ele>
        <time>2023-01-03T14:32:43.165Z</time>
      </trkpt>
      <trkpt lat="43.62279" lon="1.28625">
        <ele>206.495243</ele>
        <time>2023-01-03T14:32:45.174Z</time>
      </trkpt>
      <trkpt lat="43.62278" lon="1.28639">
        <ele>206.452243</ele>
        <time>2023-01-03T14:32:47.161Z</time>
      </trkpt>
      <trkpt lat="43.62279" lon="1.28656">
        <ele>206.398955</ele>
        <time>2023-01-03T14:32:50.160Z</time>
      </trkpt>
      <trkpt lat="43.62279" lon="1.28669">
        <ele>206.356076</ele>
        <time>2023-01-03T14:32:53.159Z</time>
      </trkpt>
      <trkpt lat="43.62276" lon="1.28683">
        <ele>206.311937</ele>
        <time>2023-01-03T14:32:56.173Z</time>
      </trkpt>
      <trkpt lat="43.62267" lon="1.2869">
        <ele>206.264302</ele>
        <time>2023-01-03T14:32:59.177Z</time>
      </trkpt>
      <trkpt lat="43.62255" lon="1.28692">
        <ele>206.211385</ele>
        <time>2023-01-03T14:33:02.166Z</time>
      </trkpt>
      <trkpt lat="43.62242" lon="1.28692">
        <ele>206.156529</ele>
        <time>2023-01-03T14:33:05.172Z</time>
      </trkpt>
      <trkpt lat="43.62233" lon="1.28693">
        <ele>206.116761</ele>
        <time>2023-01-03T14:33:07.155Z</time>
      </trkpt>
      <trkpt lat="43.62224" lon="1.28694">
        <ele>206.076175</ele>
        <time>2023-01-03T14:33:09.154Z</time>
      </trkpt>
      <trkpt lat="43.62214" lon="1.28695">
        <ele>206.033002</ele>
        <time>2023-01-03T14:33:11.146Z</time>
      </trkpt>
      <trkpt lat="43.62205" lon="1.28695">
        <ele>205.991826</ele>
        <time>2023-01-03T14:33:13.164Z</time>
      </trkpt>
      <trkpt lat="43.62194" lon="1.28695">
        <ele>205.939158</ele>
        <time>2023-01-03T14:33:16.154Z</time>
      </trkpt>
      <trkpt lat="43.62183" lon="1.28696">
        <ele>205.887457</ele>
        <time>2023-01-03T14:33:19.158Z</time>
      </trkpt>
      <trkpt lat="43.62162" lon="1.28699">
        <ele>205.779473</ele>
        <time>2023-01-03T14:34:04.177Z</time>
      </trkpt>
      <trkpt lat="43.62151" lon="1.28703">
        <ele>205.726522</ele>
        <time>2023-01-03T14:34:08.154Z</time>
      </trkpt>
      <trkpt lat="43.62149" lon="1.28715">
        <ele>205.681603</ele>
        <time>2023-01-03T14:34:14.152Z</time>
      </trkpt>
      <trkpt lat="43.62149" lon="1.28728">
        <ele>205.63635</ele>
        <time>2023-01-03T14:34:17.189Z</time>
      </trkpt>
      <trkpt lat="43.6215" lon="1.28743">
        <ele>205.582719</ele>
        <time>2023-01-03T14:34:20.163Z</time>
      </trkpt>
      <trkpt lat="43.6215" lon="1.28759">
        <ele>205.523568</ele>
        <time>2023-01-03T14:34:23.151Z</time>
      </trkpt>
      <trkpt lat="43.62149" lon="1.28777">
        <ele>205.460531</ele>
        <time>2023-01-03T14:34:26.157Z</time>
      </trkpt>
      <trkpt lat="43.62146" lon="1.28794">
        <ele>205.398466</ele>
        <time>2023-01-03T14:34:29.151Z</time>
      </trkpt>
      <trkpt lat="43.62144" lon="1.28811">
        <ele>205.337619</ele>
        <time>2023-01-03T14:34:32.158Z</time>
      </trkpt>
      <trkpt lat="43.6214" lon="1.28826">
        <ele>205.279977</ele>
        <time>2023-01-03T14:34:35.169Z</time>
      </trkpt>
      <trkpt lat="43.62137" lon="1.28841">
        <ele>205.225817</ele>
        <time>2023-01-03T14:34:38.165Z</time>
      </trkpt>
      <trkpt lat="43.62132" lon="1.28852">
        <ele>205.179838</ele>
        <time>2023-01-03T14:34:41.162Z</time>
      </trkpt>
      <trkpt lat="43.6213" lon="1.28864">
        <ele>205.134571</ele>
        <time>2023-01-03T14:34:45.155Z</time>
      </trkpt>
      <trkpt lat="43.62128" lon="1.28878">
        <ele>205.240775</ele>
        <time>2023-01-03T14:34:49.158Z</time>
      </trkpt>
      <trkpt lat="43.62122" lon="1.28888">
        <ele>205.399563</ele>
        <time>2023-01-03T14:34:53.151Z</time>
      </trkpt>
      <trkpt lat="43.62112" lon="1.28888">
        <ele>205.560073</ele>
        <time>2023-01-03T14:34:57.163Z</time>
      </trkpt>
      <trkpt lat="43.62102" lon="1.28888">
        <ele>205.727282</ele>
        <time>2023-01-03T14:35:01.161Z</time>
      </trkpt>
      <trkpt lat="43.62091" lon="1.28884">
        <ele>205.917914</ele>
        <time>2023-01-03T14:35:06.176Z</time>
      </trkpt>
      <trkpt lat="43.62083" lon="1.28879">
        <ele>206.077961</ele>
        <time>2023-01-03T14:35:10.175Z</time>
      </trkpt>
      <trkpt lat="43.62068" lon="1.28881">
        <ele>206.330448</ele>
        <time>2023-01-03T14:35:57.169Z</time>
      </trkpt>
      <trkpt lat="43.62057" lon="1.28877">
        <ele>206.510658</ele>
        <time>2023-01-03T14:36:01.163Z</time>
      </trkpt>
      <trkpt lat="43.62046" lon="1.28875">
        <ele>206.706894</ele>
        <time>2023-01-03T14:36:05.165Z</time>
      </trkpt>
      <trkpt lat="43.62035" lon="1.28871">
        <ele>206.890203</ele>
        <time>2023-01-03T14:36:09.172Z</time>
      </trkpt>
      <trkpt lat="43.62025" lon="1.28868">
        <ele>207.07344</ele>
        <time>2023-01-03T14:36:13.173Z</time>
      </trkpt>
      <trkpt lat="43.62014" lon="1.28863">
        <ele>207.274585</ele>
        <time>2023-01-03T14:36:17.156Z</time>
      </trkpt>
      <trkpt lat="43.62002" lon="1.28858">
        <ele>207.47299</ele>
        <time>2023-01-03T14:36:21.150Z</time>
      </trkpt>
      <trkpt lat="43.61991" lon="1.28854">
        <ele>207.668299</ele>
        <time>2023-01-03T14:36:25.152Z</time>
      </trkpt>
      <trkpt lat="43.6198" lon="1.28853">
        <ele>207.861941</ele>
        <time>2023-01-03T14:36:29.152Z</time>
      </trkpt>
      <trkpt lat="43.61969" lon="1.2885">
        <ele>208.047745</ele>
        <time>2023-01-03T14:36:33.163Z</time>
      </trkpt>
      <trkpt lat="43.61959" lon="1.28849">
        <ele>208.115641</ele>
        <time>2023-01-03T14:36:38.149Z</time>
      </trkpt>
      <trkpt lat="43.61953" lon="1.28873">
        <ele>207.883321</ele>
        <time>2023-01-03T14:37:04.150Z</time>
      </trkpt>
      <trkpt lat="43.61951" lon="1.28889">
        <ele>207.736848</ele>
        <time>2023-01-03T14:37:07.159Z</time>
      </trkpt>
      <trkpt lat="43.61948" lon="1.28907">
        <ele>207.570959</ele>
        <time>2023-01-03T14:37:10.158Z</time>
      </trkpt>
      <trkpt lat="43.61947" lon="1.2892">
        <ele>207.44915</ele>
        <time>2023-01-03T14:37:12.163Z</time>
      </trkpt>
      <trkpt lat="43.61945" lon="1.28938">
        <ele>207.289351</ele>
        <time>2023-01-03T14:37:15.164Z</time>
      </trkpt>
      <trkpt lat="43.61943" lon="1.28955">
        <ele>207.130344</ele>
        <time>2023-01-03T14:37:18.161Z</time>
      </trkpt>
      <trkpt lat="43.61942" lon="1.28972">
        <ele>206.972483</ele>
        <time>2023-01-03T14:37:21.164Z</time>
      </trkpt>
      <trkpt lat="43.61938" lon="1.2899">
        <ele>206.801781</ele>
        <time>2023-01-03T14:37:24.168Z</time>
      </trkpt>
      <trkpt lat="43.61937" lon="1.29008">
        <ele>206.636126</ele>
        <time>2023-01-03T14:37:27.157Z</time>
      </trkpt>
      <trkpt lat="43.61935" lon="1.29027">
        <ele>206.469234</ele>
        <time>2023-01-03T14:37:30.173Z</time>
      </trkpt>
      <trkpt lat="43.61933" lon="1.29039">
        <ele>206.349534</ele>
        <time>2023-01-03T14:37:32.172Z</time>
      </trkpt>
      <trkpt lat="43.6193" lon="1.29057">
        <ele>206.185425</ele>
        <time>2023-01-03T14:37:35.169Z</time>
      </trkpt>
      <trkpt lat="43.61929" lon="1.2907">
        <ele>206.068634</ele>
        <time>2023-01-03T14:37:37.174Z</time>
      </trkpt>
      <trkpt lat="43.61927" lon="1.29084">
        <ele>205.935692</ele>
        <time>2023-01-03T14:37:39.164Z</time>
      </trkpt>
      <trkpt lat="43.61925" lon="1.29099">
        <ele>205.878658</ele>
        <time>2023-01-03T14:37:41.169Z</time>
      </trkpt>
      <trkpt lat="43.61923" lon="1.29115">
        <ele>205.846907</ele>
        <time>2023-01-03T14:37:43.175Z</time>
      </trkpt>
      <trkpt lat="43.61921" lon="1.29131">
        <ele>205.812287</ele>
        <time>2023-01-03T14:37:45.173Z</time>
      </trkpt>
      <trkpt lat="43.6192" lon="1.29148">
        <ele>205.777703</ele>
        <time>2023-01-03T14:37:47.175Z</time>
      </trkpt>
      <trkpt lat="43.61918" lon="1.29164">
        <ele>205.745411</ele>
        <time>2023-01-03T14:37:49.155Z</time>
      </trkpt>
      <trkpt lat="43.61916" lon="1.29176">
        <ele>205.719943</ele>
        <time>2023-01-03T14:37:51.161Z</time>
      </trkpt>
      <trkpt lat="43.61914" lon="1.2919">
        <ele>205.691822</ele>
        <time>2023-01-03T14:37:54.157Z</time>
      </trkpt>
      <trkpt lat="43.61913" lon="1.29205">
        <ele>205.66099</ele>
        <time>2023-01-03T14:37:57.170Z</time>
      </trkpt>
      <trkpt lat="43.61911" lon="1.29222">
        <ele>205.624631</ele>
        <time>2023-01-03T14:38:00.159Z</time>
      </trkpt>
      <trkpt lat="43.61909" lon="1.29235">
        <ele>205.598219</ele>
        <time>2023-01-03T14:38:02.175Z</time>
      </trkpt>
      <trkpt lat="43.61908" lon="1.29248">
        <ele>205.571709</ele>
        <time>2023-01-03T14:38:04.174Z</time>
      </trkpt>
      <trkpt lat="43.61906" lon="1.29261">
        <ele>205.543472</ele>
        <time>2023-01-03T14:38:06.156Z</time>
      </trkpt>
      <trkpt lat="43.61905" lon="1.29275">
        <ele>205.515858</ele>
        <time>2023-01-03T14:38:08.173Z</time>
      </trkpt>
      <trkpt lat="43.61903" lon="1.29288">
        <ele>205.488991</ele>
        <time>2023-01-03T14:38:10.174Z</time>
      </trkpt>
      <trkpt lat="43.61901" lon="1.29301">
        <ele>205.461877</ele>
        <time>2023-01-03T14:38:12.176Z</time>
      </trkpt>
      <trkpt lat="43.619" lon="1.29313">
        <ele>205.43624</ele>
        <time>2023-01-03T14:38:14.164Z</time>
      </trkpt>
      <trkpt lat="43.61898" lon="1.2933">
        <ele>205.401134</ele>
        <time>2023-01-03T14:38:17.173Z</time>
      </trkpt>
      <trkpt lat="43.61896" lon="1.29346">
        <ele>205.421924</ele>
        <time>2023-01-03T14:38:20.171Z</time>
      </trkpt>
      <trkpt lat="43.6189" lon="1.29356">
        <ele>205.447331</ele>
        <time>2023-01-03T14:38:23.169Z</time>
      </trkpt>
      <trkpt lat="43.61878" lon="1.29354">
        <ele>205.479942</ele>
        <time>2023-01-03T14:38:27.172Z</time>
      </trkpt>
      <trkpt lat="43.61867" lon="1.29346">
        <ele>205.512573</ele>
        <time>2023-01-03T14:38:30.174Z</time>
      </trkpt>
      <trkpt lat="43.61856" lon="1.29338">
        <ele>205.547561</ele>
        <time>2023-01-03T14:38:33.166Z</time>
      </trkpt>
      <trkpt lat="43.61843" lon="1.2933">
        <ele>205.583555</ele>
        <time>2023-01-03T14:38:36.168Z</time>
      </trkpt>
      <trkpt lat="43.61831" lon="1.29323">
        <ele>205.619962</ele>
        <time>2023-01-03T14:38:39.152Z</time>
      </trkpt>
      <trkpt lat="43.61819" lon="1.29314">
        <ele>205.655489</ele>
        <time>2023-01-03T14:38:42.154Z</time>
      </trkpt>
      <trkpt lat="43.61808" lon="1.29307">
        <ele>205.689136</ele>
        <time>2023-01-03T14:38:45.167Z</time>
      </trkpt>
      <trkpt lat="43.61798" lon="1.29301">
        <ele>205.719277</ele>
        <time>2023-01-03T14:38:48.171Z</time>
      </trkpt>
      <trkpt lat="43.61787" lon="1.29293">
        <ele>205.752566</ele>
        <time>2023-01-03T14:38:51.181Z</time>
      </trkpt>
      <trkpt lat="43.61775" lon="1.29285">
        <ele>205.787827</ele>
        <time>2023-01-03T14:38:54.149Z</time>
      </trkpt>
      <trkpt lat="43.61767" lon="1.29279">
        <ele>205.81264</ele>
        <time>2023-01-03T14:38:56.165Z</time>
      </trkpt>
      <trkpt lat="43.61758" lon="1.29274">
        <ele>205.837088</ele>
        <time>2023-01-03T14:38:58.174Z</time>
      </trkpt>
      <trkpt lat="43.61746" lon="1.29266">
        <ele>205.87312</ele>
        <time>2023-01-03T14:39:01.174Z</time>
      </trkpt>
      <trkpt lat="43.61738" lon="1.29261">
        <ele>205.807691</ele>
        <time>2023-01-03T14:39:03.171Z</time>
      </trkpt>
      <trkpt lat="43.61729" lon="1.29257">
        <ele>205.713924</ele>
        <time>2023-01-03T14:39:05.171Z</time>
      </trkpt>
      <trkpt lat="43.6172" lon="1.29252">
        <ele>205.614529</ele>
        <time>2023-01-03T14:39:07.174Z</time>
      </trkpt>
      <trkpt lat="43.6171" lon="1.29248">
        <ele>205.507077</ele>
        <time>2023-01-03T14:39:09.154Z</time>
      </trkpt>
      <trkpt lat="43.617" lon="1.29244">
        <ele>205.399902</ele>
        <time>2023-01-03T14:39:11.174Z</time>
      </trkpt>
      <trkpt lat="43.6169" lon="1.2924">
        <ele>205.291219</ele>
        <time>2023-01-03T14:39:13.173Z</time>
      </trkpt>
      <trkpt lat="43.6168" lon="1.29236">
        <ele>205.188665</ele>
        <time>2023-01-03T14:39:15.151Z</time>
      </trkpt>
      <trkpt lat="43.61668" lon="1.29231">
        <ele>205.05245</ele>
        <time>2023-01-03T14:39:18.174Z</time>
      </trkpt>
      <trkpt lat="43.61656" lon="1.29226">
        <ele>204.926726</ele>
        <time>2023-01-03T14:39:21.157Z</time>
      </trkpt>
      <trkpt lat="43.61644" lon="1.29221">
        <ele>204.795261</ele>
        <time>2023-01-03T14:39:24.160Z</time>
      </trkpt>
      <trkpt lat="43.61633" lon="1.29216">
        <ele>204.674221</ele>
        <time>2023-01-03T14:39:27.159Z</time>
      </trkpt>
      <trkpt lat="43.61622" lon="1.29212">
        <ele>204.559973</ele>
        <time>2023-01-03T14:39:30.169Z</time>
      </trkpt>
      <trkpt lat="43.61613" lon="1.29207">
        <ele>204.466365</ele>
        <time>2023-01-03T14:39:33.155Z</time>
      </trkpt>
      <trkpt lat="43.61604" lon="1.29207">
        <ele>204.365577</ele>
        <time>2023-01-03T14:39:40.152Z</time>
      </trkpt>
      <trkpt lat="43.61599" lon="1.29222">
        <ele>204.24784</ele>
        <time>2023-01-03T14:39:45.153Z</time>
      </trkpt>
      <trkpt lat="43.61597" lon="1.29235">
        <ele>204.145313</ele>
        <time>2023-01-03T14:39:48.166Z</time>
      </trkpt>
      <trkpt lat="43.61594" lon="1.29251">
        <ele>204.019205</ele>
        <time>2023-01-03T14:39:51.172Z</time>
      </trkpt>
      <trkpt lat="43.61591" lon="1.29268">
        <ele>203.685327</ele>
        <time>2023-01-03T14:39:54.173Z</time>
      </trkpt>
      <trkpt lat="43.61589" lon="1.29286">
        <ele>203.356726</ele>
        <time>2023-01-03T14:39:57.153Z</time>
      </trkpt>
      <trkpt lat="43.61586" lon="1.29301">
        <ele>203.060123</ele>
        <time>2023-01-03T14:40:00.168Z</time>
      </trkpt>
      <trkpt lat="43.61585" lon="1.29314">
        <ele>202.816706</ele>
        <time>2023-01-03T14:40:03.171Z</time>
      </trkpt>
      <trkpt lat="43.6158" lon="1.29324">
        <ele>202.584627</ele>
        <time>2023-01-03T14:40:08.174Z</time>
      </trkpt>
      <trkpt lat="43.61577" lon="1.29338">
        <ele>202.329708</ele>
        <time>2023-01-03T14:40:13.156Z</time>
      </trkpt>
      <trkpt lat="43.61575" lon="1.2935">
        <ele>202.086849</ele>
        <time>2023-01-03T14:40:16.151Z</time>
      </trkpt>
      <trkpt lat="43.61573" lon="1.29364">
        <ele>201.832398</ele>
        <time>2023-01-03T14:40:19.152Z</time>
      </trkpt>
      <trkpt lat="43.61571" lon="1.29378">
        <ele>201.563358</ele>
        <time>2023-01-03T14:40:22.153Z</time>
      </trkpt>
      <trkpt lat="43.61568" lon="1.29392">
        <ele>201.283217</ele>
        <time>2023-01-03T14:40:25.155Z</time>
      </trkpt>
      <trkpt lat="43.61566" lon="1.29407">
        <ele>200.999082</ele>
        <time>2023-01-03T14:40:28.169Z</time>
      </trkpt>
      <trkpt lat="43.61564" lon="1.29423">
        <ele>200.70162</ele>
        <time>2023-01-03T14:40:31.150Z</time>
      </trkpt>
      <trkpt lat="43.61562" lon="1.2944">
        <ele>200.385936</ele>
        <time>2023-01-03T14:40:34.148Z</time>
      </trkpt>
      <trkpt lat="43.61559" lon="1.29455">
        <ele>200.088664</ele>
        <time>2023-01-03T14:40:37.171Z</time>
      </trkpt>
      <trkpt lat="43.61556" lon="1.29471">
        <ele>199.789755</ele>
        <time>2023-01-03T14:40:40.150Z</time>
      </trkpt>
      <trkpt lat="43.61553" lon="1.29486">
        <ele>199.493851</ele>
        <time>2023-01-03T14:40:43.156Z</time>
      </trkpt>
      <trkpt lat="43.61551" lon="1.29503">
        <ele>199.578555</ele>
        <time>2023-01-03T14:40:46.150Z</time>
      </trkpt>
      <trkpt lat="43.61549" lon="1.2952">
        <ele>199.827168</ele>
        <time>2023-01-03T14:40:49.148Z</time>
      </trkpt>
      <trkpt lat="43.61546" lon="1.29538">
        <ele>200.089849</ele>
        <time>2023-01-03T14:40:52.161Z</time>
      </trkpt>
      <trkpt lat="43.61544" lon="1.29551">
        <ele>200.267538</ele>
        <time>2023-01-03T14:40:54.165Z</time>
      </trkpt>
      <trkpt lat="43.61542" lon="1.29564">
        <ele>200.458139</ele>
        <time>2023-01-03T14:40:56.156Z</time>
      </trkpt>
      <trkpt lat="43.6154" lon="1.29577">
        <ele>200.637613</ele>
        <time>2023-01-03T14:40:58.165Z</time>
      </trkpt>
      <trkpt lat="43.61539" lon="1.29589">
        <ele>200.811566</ele>
        <time>2023-01-03T14:41:00.177Z</time>
      </trkpt>
      <trkpt lat="43.61537" lon="1.29606">
        <ele>201.050435</ele>
        <time>2023-01-03T14:41:03.173Z</time>
      </trkpt>
      <trkpt lat="43.61535" lon="1.29623">
        <ele>201.285865</ele>
        <time>2023-01-03T14:41:06.161Z</time>
      </trkpt>
      <trkpt lat="43.61533" lon="1.29639">
        <ele>201.518215</ele>
        <time>2023-01-03T14:41:09.153Z</time>
      </trkpt>
      <trkpt lat="43.61531" lon="1.29654">
        <ele>201.735091</ele>
        <time>2023-01-03T14:41:12.159Z</time>
      </trkpt>
      <trkpt lat="43.61529" lon="1.29669">
        <ele>201.938929</ele>
        <time>2023-01-03T14:41:15.173Z</time>
      </trkpt>
      <trkpt lat="43.61528" lon="1.29682">
        <ele>202.130581</ele>
        <time>2023-01-03T14:41:18.173Z</time>
      </trkpt>
      <trkpt lat="43.61525" lon="1.29696">
        <ele>202.337023</ele>
        <time>2023-01-03T14:41:22.160Z</time>
      </trkpt>
      <trkpt lat="43.61521" lon="1.2971">
        <ele>202.530898</ele>
        <time>2023-01-03T14:41:26.162Z</time>
      </trkpt>
      <trkpt lat="43.61519" lon="1.29724">
        <ele>202.729277</ele>
        <time>2023-01-03T14:41:30.158Z</time>
      </trkpt>
      <trkpt lat="43.61517" lon="1.29738">
        <ele>203.06822</ele>
        <time>2023-01-03T14:41:34.174Z</time>
      </trkpt>
      <trkpt lat="43.61514" lon="1.29753">
        <ele>203.849243</ele>
        <time>2023-01-03T14:41:38.163Z</time>
      </trkpt>
      <trkpt lat="43.6151" lon="1.29767">
        <ele>204.541396</ele>
        <time>2023-01-03T14:41:42.172Z</time>
      </trkpt>
      <trkpt lat="43.61506" lon="1.29778">
        <ele>205.158659</ele>
        <time>2023-01-03T14:41:46.152Z</time>
      </trkpt>
      <trkpt lat="43.61502" lon="1.2979">
        <ele>205.767404</ele>
        <time>2023-01-03T14:41:50.160Z</time>
      </trkpt>
      <trkpt lat="43.61497" lon="1.298">
        <ele>206.379017</ele>
        <time>2023-01-03T14:41:54.175Z</time>
      </trkpt>
      <trkpt lat="43.61492" lon="1.29813">
        <ele>207.05339</ele>
        <time>2023-01-03T14:41:59.153Z</time>
      </trkpt>
      <trkpt lat="43.61488" lon="1.29825">
        <ele>207.707615</ele>
        <time>2023-01-03T14:42:04.155Z</time>
      </trkpt>
      <trkpt lat="43.61482" lon="1.29836">
        <ele>208.370873</ele>
        <time>2023-01-03T14:42:09.153Z</time>
      </trkpt>
      <trkpt lat="43.61478" lon="1.29848">
        <ele>209.014877</ele>
        <time>2023-01-03T14:42:14.152Z</time>
      </trkpt>
      <trkpt lat="43.61472" lon="1.29858">
        <ele>209.660173</ele>
        <time>2023-01-03T14:42:19.150Z</time>
      </trkpt>
      <trkpt lat="43.61466" lon="1.29871">
        <ele>210.360142</ele>
        <time>2023-01-03T14:42:25.149Z</time>
      </trkpt>
      <trkpt lat="43.61464" lon="1.29883">
        <ele>210.976723</ele>
        <time>2023-01-03T14:42:30.162Z</time>
      </trkpt>
      <trkpt lat="43.61462" lon="1.29897">
        <ele>211.626359</ele>
        <time>2023-01-03T14:42:36.164Z</time>
      </trkpt>
      <trkpt lat="43.6146" lon="1.29911">
        <ele>212.344766</ele>
        <time>2023-01-03T14:42:42.161Z</time>
      </trkpt>
      <trkpt lat="43.61458" lon="1.29925">
        <ele>213.007942</ele>
        <time>2023-01-03T14:42:48.167Z</time>
      </trkpt>
      <trkpt lat="43.61455" lon="1.29938">
        <ele>213.669948</ele>
        <time>2023-01-03T14:42:54.158Z</time>
      </trkpt>
      <trkpt lat="43.61453" lon="1.29951">
        <ele>214.315826</ele>
        <time>2023-01-03T14:43:00.158Z</time>
      </trkpt>
      <trkpt lat="43.61451" lon="1.29964">
        <ele>214.958682</ele>
        <time>2023-01-03T14:43:07.160Z</time>
      </trkpt>
      <trkpt lat="43.61449" lon="1.29977">
        <ele>215.445854</ele>
        <time>2023-01-03T14:43:12.149Z</time>
      </trkpt>
      <trkpt lat="43.61447" lon="1.29992">
        <ele>216.008928</ele>
        <time>2023-01-03T14:43:18.154Z</time>
      </trkpt>
      <trkpt lat="43.61445" lon="1.30004">
        <ele>216.482388</ele>
        <time>2023-01-03T14:43:23.175Z</time>
      </trkpt>
      <trkpt lat="43.61445" lon="1.30018">
        <ele>217.009424</ele>
        <time>2023-01-03T14:43:29.149Z</time>
      </trkpt>
      <trkpt lat="43.61444" lon="1.30032">
        <ele>217.553535</ele>
        <time>2023-01-03T14:43:35.173Z</time>
      </trkpt>
      <trkpt lat="43.61443" lon="1.30045">
        <ele>218.040939</ele>
        <time>2023-01-03T14:43:40.173Z</time>
      </trkpt>
      <trkpt lat="43.61444" lon="1.30058">
        <ele>218.538294</ele>
        <time>2023-01-03T14:43:45.172Z</time>
      </trkpt>
      <trkpt lat="43.61444" lon="1.30073">
        <ele>219.087918</ele>
        <time>2023-01-03T14:43:51.166Z</time>
      </trkpt>
      <trkpt lat="43.61444" lon="1.30086">
        <ele>219.585517</ele>
        <time>2023-01-03T14:43:56.171Z</time>
      </trkpt>
      <trkpt lat="43.61445" lon="1.301">
        <ele>220.103874</ele>
        <time>2023-01-03T14:44:01.161Z</time>
      </trkpt>
      <trkpt lat="43.61445" lon="1.30113">
        <ele>220.608323</ele>
        <time>2023-01-03T14:44:06.163Z</time>
      </trkpt>
      <trkpt lat="43.61445" lon="1.30127">
        <ele>221.116536</ele>
        <time>2023-01-03T14:44:11.175Z</time>
      </trkpt>
      <trkpt lat="43.61445" lon="1.3014">
        <ele>221.609938</ele>
        <time>2023-01-03T14:44:16.166Z</time>
      </trkpt>
      <trkpt lat="43.61445" lon="1.30154">
        <ele>222.130095</ele>
        <time>2023-01-03T14:44:21.156Z</time>
      </trkpt>
      <trkpt lat="43.61445" lon="1.30168">
        <ele>222.66466</ele>
        <time>2023-01-03T14:44:26.162Z</time>
      </trkpt>
      <trkpt lat="43.61445" lon="1.30181">
        <ele>223.143209</ele>
        <time>2023-01-03T14:44:30.171Z</time>
      </trkpt>
      <trkpt lat="43.61442" lon="1.30193">
        <ele>223.632386</ele>
        <time>2023-01-03T14:44:34.160Z</time>
      </trkpt>
      <trkpt lat="43.6144" lon="1.30207">
        <ele>224.152042</ele>
        <time>2023-01-03T14:44:38.165Z</time>
      </trkpt>
      <trkpt lat="43.61431" lon="1.30216">
        <ele>224.25034</ele>
        <time>2023-01-03T14:44:42.164Z</time>
      </trkpt>
      <trkpt lat="43.61425" lon="1.30226">
        <ele>224.275869</ele>
        <time>2023-01-03T14:44:45.159Z</time>
      </trkpt>
      <trkpt lat="43.61421" lon="1.3024">
        <ele>224.306343</ele>
        <time>2023-01-03T14:44:49.156Z</time>
      </trkpt>
      <trkpt lat="43.61423" lon="1.30255">
        <ele>224.33705</ele>
        <time>2023-01-03T14:44:53.155Z</time>
      </trkpt>
      <trkpt lat="43.61428" lon="1.30268">
        <ele>224.367117</ele>
        <time>2023-01-03T14:44:57.164Z</time>
      </trkpt>
      <trkpt lat="43.61427" lon="1.30282">
        <ele>224.395218</ele>
        <time>2023-01-03T14:45:01.151Z</time>
      </trkpt>
      <trkpt lat="43.61424" lon="1.30295">
        <ele>224.422575</ele>
        <time>2023-01-03T14:45:04.149Z</time>
      </trkpt>
      <trkpt lat="43.61421" lon="1.30309">
        <ele>224.45176</ele>
        <time>2023-01-03T14:45:07.167Z</time>
      </trkpt>
      <trkpt lat="43.61418" lon="1.30324">
        <ele>224.483224</ele>
        <time>2023-01-03T14:45:10.160Z</time>
      </trkpt>
      <trkpt lat="43.61416" lon="1.30339">
        <ele>224.514639</ele>
        <time>2023-01-03T14:45:13.153Z</time>
      </trkpt>
      <trkpt lat="43.61413" lon="1.30355">
        <ele>224.546767</ele>
        <time>2023-01-03T14:45:16.171Z</time>
      </trkpt>
      <trkpt lat="43.6141" lon="1.3037">
        <ele>224.578118</ele>
        <time>2023-01-03T14:45:19.148Z</time>
      </trkpt>
      <trkpt lat="43.61407" lon="1.30386">
        <ele>224.612931</ele>
        <time>2023-01-03T14:45:22.151Z</time>
      </trkpt>
      <trkpt lat="43.61404" lon="1.30404">
        <ele>224.649787</ele>
        <time>2023-01-03T14:45:25.154Z</time>
      </trkpt>
      <trkpt lat="43.61401" lon="1.30416">
        <ele>224.675244</ele>
        <time>2023-01-03T14:45:27.159Z</time>
      </trkpt>
      <trkpt lat="43.61399" lon="1.30428">
        <ele>224.700174</ele>
        <time>2023-01-03T14:45:29.158Z</time>
      </trkpt>
      <trkpt lat="43.61397" lon="1.30441">
        <ele>224.730609</ele>
        <time>2023-01-03T14:45:31.172Z</time>
      </trkpt>
      <trkpt lat="43.61394" lon="1.30458">
        <ele>224.827262</ele>
        <time>2023-01-03T14:45:34.170Z</time>
      </trkpt>
      <trkpt lat="43.61391" lon="1.30476">
        <ele>224.92673</ele>
        <time>2023-01-03T14:45:37.173Z</time>
      </trkpt>
      <trkpt lat="43.61388" lon="1.30493">
        <ele>225.02496</ele>
        <time>2023-01-03T14:45:40.147Z</time>
      </trkpt>
      <trkpt lat="43.61385" lon="1.3051">
        <ele>225.122314</ele>
        <time>2023-01-03T14:45:43.159Z</time>
      </trkpt>
      <trkpt lat="43.61381" lon="1.30528">
        <ele>225.219858</ele>
        <time>2023-01-03T14:45:46.158Z</time>
      </trkpt>
      <trkpt lat="43.61378" lon="1.30546">
        <ele>225.319867</ele>
        <time>2023-01-03T14:45:49.155Z</time>
      </trkpt>
      <trkpt lat="43.61376" lon="1.30563">
        <ele>225.416053</ele>
        <time>2023-01-03T14:45:52.166Z</time>
      </trkpt>
      <trkpt lat="43.61374" lon="1.30578">
        <ele>225.500959</ele>
        <time>2023-01-03T14:45:55.168Z</time>
      </trkpt>
      <trkpt lat="43.61368" lon="1.30591">
        <ele>225.581355</ele>
        <time>2023-01-03T14:45:58.154Z</time>
      </trkpt>
      <trkpt lat="43.61364" lon="1.30606">
        <ele>225.668</ele>
        <time>2023-01-03T14:46:01.172Z</time>
      </trkpt>
      <trkpt lat="43.61359" lon="1.30621">
        <ele>225.760519</ele>
        <time>2023-01-03T14:46:04.169Z</time>
      </trkpt>
      <trkpt lat="43.61355" lon="1.30636">
        <ele>225.846963</ele>
        <time>2023-01-03T14:46:07.159Z</time>
      </trkpt>
      <trkpt lat="43.61351" lon="1.3065">
        <ele>225.927198</ele>
        <time>2023-01-03T14:46:10.169Z</time>
      </trkpt>
      <trkpt lat="43.61348" lon="1.30663">
        <ele>226.003359</ele>
        <time>2023-01-03T14:46:13.181Z</time>
      </trkpt>
      <trkpt lat="43.61342" lon="1.30674">
        <ele>226.074948</ele>
        <time>2023-01-03T14:46:16.174Z</time>
      </trkpt>
      <trkpt lat="43.61335" lon="1.30683">
        <ele>226.042927</ele>
        <time>2023-01-03T14:46:19.156Z</time>
      </trkpt>
      <trkpt lat="43.61325" lon="1.30684">
        <ele>226.000644</ele>
        <time>2023-01-03T14:46:23.168Z</time>
      </trkpt>
      <trkpt lat="43.61314" lon="1.30679">
        <ele>225.956706</ele>
        <time>2023-01-03T14:46:27.161Z</time>
      </trkpt>
      <trkpt lat="43.61305" lon="1.30674">
        <ele>225.919531</ele>
        <time>2023-01-03T14:46:32.145Z</time>
      </trkpt>
      <trkpt lat="43.61295" lon="1.30671">
        <ele>225.876758</ele>
        <time>2023-01-03T14:46:44.177Z</time>
      </trkpt>
      <trkpt lat="43.61286" lon="1.30665">
        <ele>225.841</ele>
        <time>2023-01-03T14:46:47.159Z</time>
      </trkpt>
      <trkpt lat="43.61276" lon="1.30659">
        <ele>225.795147</ele>
        <time>2023-01-03T14:46:50.161Z</time>
      </trkpt>
      <trkpt lat="43.61264" lon="1.30653">
        <ele>225.745156</ele>
        <time>2023-01-03T14:46:53.167Z</time>
      </trkpt>
      <trkpt lat="43.61252" lon="1.30645">
        <ele>225.692888</ele>
        <time>2023-01-03T14:46:56.161Z</time>
      </trkpt>
      <trkpt lat="43.6124" lon="1.30637">
        <ele>225.641072</ele>
        <time>2023-01-03T14:46:59.155Z</time>
      </trkpt>
      <trkpt lat="43.61227" lon="1.3063">
        <ele>225.588197</ele>
        <time>2023-01-03T14:47:02.172Z</time>
      </trkpt>
      <trkpt lat="43.61219" lon="1.30624">
        <ele>225.552208</ele>
        <time>2023-01-03T14:47:04.181Z</time>
      </trkpt>
      <trkpt lat="43.6121" lon="1.30619">
        <ele>225.513939</ele>
        <time>2023-01-03T14:47:06.165Z</time>
      </trkpt>
      <trkpt lat="43.61201" lon="1.30614">
        <ele>225.475671</ele>
        <time>2023-01-03T14:47:08.170Z</time>
      </trkpt>
      <trkpt lat="43.61192" lon="1.30608">
        <ele>225.437422</ele>
        <time>2023-01-03T14:47:10.173Z</time>
      </trkpt>
      <trkpt lat="43.61184" lon="1.30603">
        <ele>225.399649</ele>
        <time>2023-01-03T14:47:12.156Z</time>
      </trkpt>
      <trkpt lat="43.61175" lon="1.30598">
        <ele>225.418503</ele>
        <time>2023-01-03T14:47:14.176Z</time>
      </trkpt>
      <trkpt lat="43.61166" lon="1.30593">
        <ele>225.577981</ele>
        <time>2023-01-03T14:47:16.170Z</time>
      </trkpt>
      <trkpt lat="43.61156" lon="1.3059">
        <ele>225.734864</ele>
        <time>2023-01-03T14:47:18.159Z</time>
      </trkpt>
      <trkpt lat="43.61147" lon="1.30589">
        <ele>225.890855</ele>
        <time>2023-01-03T14:47:20.159Z</time>
      </trkpt>
      <trkpt lat="43.61136" lon="1.30589">
        <ele>226.059224</ele>
        <time>2023-01-03T14:47:22.162Z</time>
      </trkpt>
      <trkpt lat="43.61127" lon="1.30588">
        <ele>226.2162</ele>
        <time>2023-01-03T14:47:24.189Z</time>
      </trkpt>
      <trkpt lat="43.61117" lon="1.30588">
        <ele>226.381388</ele>
        <time>2023-01-03T14:47:26.164Z</time>
      </trkpt>
      <trkpt lat="43.61106" lon="1.30588">
        <ele>226.548325</ele>
        <time>2023-01-03T14:47:28.160Z</time>
      </trkpt>
      <trkpt lat="43.61096" lon="1.30589">
        <ele>226.711795</ele>
        <time>2023-01-03T14:47:30.161Z</time>
      </trkpt>
      <trkpt lat="43.61086" lon="1.30589">
        <ele>226.875196</ele>
        <time>2023-01-03T14:47:32.152Z</time>
      </trkpt>
      <trkpt lat="43.61077" lon="1.30588">
        <ele>227.037032</ele>
        <time>2023-01-03T14:47:34.157Z</time>
      </trkpt>
      <trkpt lat="43.61066" lon="1.30588">
        <ele>227.205351</ele>
        <time>2023-01-03T14:47:36.159Z</time>
      </trkpt>
      <trkpt lat="43.61056" lon="1.30588">
        <ele>227.376959</ele>
        <time>2023-01-03T14:47:38.165Z</time>
      </trkpt>
      <trkpt lat="43.61046" lon="1.30588">
        <ele>227.535458</ele>
        <time>2023-01-03T14:47:40.173Z</time>
      </trkpt>
      <trkpt lat="43.61036" lon="1.30589">
        <ele>227.697229</ele>
        <time>2023-01-03T14:47:42.167Z</time>
      </trkpt>
      <trkpt lat="43.61027" lon="1.30588">
        <ele>227.849196</ele>
        <time>2023-01-03T14:47:44.156Z</time>
      </trkpt>
      <trkpt lat="43.61014" lon="1.30589">
        <ele>228.060196</ele>
        <time>2023-01-03T14:47:47.159Z</time>
      </trkpt>
      <trkpt lat="43.61002" lon="1.30589">
        <ele>228.251375</ele>
        <time>2023-01-03T14:47:50.159Z</time>
      </trkpt>
      <trkpt lat="43.6099" lon="1.3059">
        <ele>228.236922</ele>
        <time>2023-01-03T14:47:53.163Z</time>
      </trkpt>
      <trkpt lat="43.6098" lon="1.30591">
        <ele>228.135818</ele>
        <time>2023-01-03T14:47:56.175Z</time>
      </trkpt>
      <trkpt lat="43.60969" lon="1.3059">
        <ele>228.042148</ele>
        <time>2023-01-03T14:47:59.151Z</time>
      </trkpt>
      <trkpt lat="43.6096" lon="1.30585">
        <ele>227.944902</ele>
        <time>2023-01-03T14:48:03.167Z</time>
      </trkpt>
      <trkpt lat="43.60949" lon="1.30586">
        <ele>227.85028</ele>
        <time>2023-01-03T14:48:07.155Z</time>
      </trkpt>
      <trkpt lat="43.60938" lon="1.30587">
        <ele>227.745471</ele>
        <time>2023-01-03T14:48:11.166Z</time>
      </trkpt>
      <trkpt lat="43.60928" lon="1.30581">
        <ele>227.64527</ele>
        <time>2023-01-03T14:48:16.151Z</time>
      </trkpt>
      <trkpt lat="43.60925" lon="1.30565">
        <ele>227.539296</ele>
        <time>2023-01-03T14:48:20.153Z</time>
      </trkpt>
      <trkpt lat="43.60922" lon="1.30552">
        <ele>227.447447</ele>
        <time>2023-01-03T14:48:23.153Z</time>
      </trkpt>
      <trkpt lat="43.60919" lon="1.30539">
        <ele>227.353683</ele>
        <time>2023-01-03T14:48:26.174Z</time>
      </trkpt>
      <trkpt lat="43.60915" lon="1.30525">
        <ele>227.252677</ele>
        <time>2023-01-03T14:48:30.173Z</time>
      </trkpt>
      <trkpt lat="43.6092" lon="1.30512">
        <ele>227.159362</ele>
        <time>2023-01-03T14:48:35.165Z</time>
      </trkpt>
      <trkpt lat="43.60919" lon="1.30499">
        <ele>227.071446</ele>
        <time>2023-01-03T14:48:42.162Z</time>
      </trkpt>
      <trkpt lat="43.6091" lon="1.30491">
        <ele>226.972968</ele>
        <time>2023-01-03T14:48:46.152Z</time>
      </trkpt>
      <trkpt lat="43.60901" lon="1.30494">
        <ele>226.883207</ele>
        <time>2023-01-03T14:48:49.155Z</time>
      </trkpt>
      <trkpt lat="43.60895" lon="1.30505">
        <ele>226.789128</ele>
        <time>2023-01-03T14:48:52.160Z</time>
      </trkpt>
      <trkpt lat="43.6089" lon="1.30516">
        <ele>226.701472</ele>
        <time>2023-01-03T14:48:55.157Z</time>
      </trkpt>
      <trkpt lat="43.60882" lon="1.30526">
        <ele>226.660955</ele>
        <time>2023-01-03T14:48:59.155Z</time>
      </trkpt>
      <trkpt lat="43.60871" lon="1.30534">
        <ele>226.701578</ele>
        <time>2023-01-03T14:49:03.160Z</time>
      </trkpt>
      <trkpt lat="43.60863" lon="1.30541">
        <ele>226.734372</ele>
        <time>2023-01-03T14:49:06.180Z</time>
      </trkpt>
      <trkpt lat="43.60855" lon="1.30549">
        <ele>226.767733</ele>
        <time>2023-01-03T14:49:09.155Z</time>
      </trkpt>
      <trkpt lat="43.60847" lon="1.30555">
        <ele>226.799347</ele>
        <time>2023-01-03T14:49:12.157Z</time>
      </trkpt>
      <trkpt lat="43.60838" lon="1.30564">
        <ele>226.835618</ele>
        <time>2023-01-03T14:49:16.150Z</time>
      </trkpt>
      <trkpt lat="43.6083" lon="1.3057">
        <ele>226.867296</ele>
        <time>2023-01-03T14:49:20.188Z</time>
      </trkpt>
      <trkpt lat="43.6082" lon="1.30578">
        <ele>226.904669</ele>
        <time>2023-01-03T14:49:29.152Z</time>
      </trkpt>
      <trkpt lat="43.6081" lon="1.30587">
        <ele>226.944342</ele>
        <time>2023-01-03T14:49:33.173Z</time>
      </trkpt>
      <trkpt lat="43.608" lon="1.30582">
        <ele>226.979693</ele>
        <time>2023-01-03T14:49:36.165Z</time>
      </trkpt>
      <trkpt lat="43.6079" lon="1.30573">
        <ele>227.019966</ele>
        <time>2023-01-03T14:49:39.152Z</time>
      </trkpt>
      <trkpt lat="43.60779" lon="1.30567">
        <ele>227.058449</ele>
        <time>2023-01-03T14:49:42.165Z</time>
      </trkpt>
      <trkpt lat="43.60771" lon="1.3056">
        <ele>227.092294</ele>
        <time>2023-01-03T14:49:45.166Z</time>
      </trkpt>
      <trkpt lat="43.6076" lon="1.30553">
        <ele>227.13179</ele>
        <time>2023-01-03T14:49:49.152Z</time>
      </trkpt>
      <trkpt lat="43.60751" lon="1.30546">
        <ele>227.168057</ele>
        <time>2023-01-03T14:49:53.161Z</time>
      </trkpt>
      <trkpt lat="43.60741" lon="1.3054">
        <ele>227.204399</ele>
        <time>2023-01-03T14:49:57.158Z</time>
      </trkpt>
      <trkpt lat="43.60734" lon="1.30542">
        <ele>227.228379</ele>
        <time>2023-01-03T14:50:13.899Z</time>
      </trkpt>
      <trkpt lat="43.60729" lon="1.30539">
        <ele>227.246095</ele>
        <time>2023-01-03T16:45:17.525Z</time>
      </trkpt>
      <trkpt lat="43.60732" lon="1.30553">
        <ele>227.263147</ele>
        <time>2023-01-03T16:46:12.162Z</time>
      </trkpt>
      <trkpt lat="43.60728" lon="1.30565">
        <ele>227.277726</ele>
        <time>2023-01-03T16:46:17.174Z</time>
      </trkpt>
      <trkpt lat="43.60723" lon="1.3058">
        <ele>227.295337</ele>
        <time>2023-01-03T16:46:21.150Z</time>
      </trkpt>
      <trkpt lat="43.60728" lon="1.30592">
        <ele>227.309633</ele>
        <time>2023-01-03T16:46:24.149Z</time>
      </trkpt>
      <trkpt lat="43.60736" lon="1.30598">
        <ele>227.322772</ele>
        <time>2023-01-03T16:46:27.159Z</time>
      </trkpt>
      <trkpt lat="43.60746" lon="1.30604">
        <ele>227.338829</ele>
        <time>2023-01-03T16:46:31.164Z</time>
      </trkpt>
      <trkpt lat="43.60758" lon="1.30609">
        <ele>227.356403</ele>
        <time>2023-01-03T16:46:35.156Z</time>
      </trkpt>
      <trkpt lat="43.60763" lon="1.3062">
        <ele>227.370373</ele>
        <time>2023-01-03T16:46:38.149Z</time>
      </trkpt>
      <trkpt lat="43.60763" lon="1.30632">
        <ele>227.38353</ele>
        <time>2023-01-03T16:46:41.152Z</time>
      </trkpt>
      <trkpt lat="43.60769" lon="1.30642">
        <ele>227.396945</ele>
        <time>2023-01-03T16:46:44.150Z</time>
      </trkpt>
      <trkpt lat="43.60777" lon="1.30648">
        <ele>227.410989</ele>
        <time>2023-01-03T16:46:47.161Z</time>
      </trkpt>
      <trkpt lat="43.60786" lon="1.30653">
        <ele>227.425012</ele>
        <time>2023-01-03T16:46:50.175Z</time>
      </trkpt>
      <trkpt lat="43.60794" lon="1.30658">
        <ele>227.438428</ele>
        <time>2023-01-03T16:46:53.175Z</time>
      </trkpt>
      <trkpt lat="43.60804" lon="1.30667">
        <ele>227.454899</ele>
        <time>2023-01-03T16:46:57.176Z</time>
      </trkpt>
      <trkpt lat="43.60813" lon="1.30675">
        <ele>227.47067</ele>
        <time>2023-01-03T16:47:02.166Z</time>
      </trkpt>
      <trkpt lat="43.60822" lon="1.30682">
        <ele>227.486468</ele>
        <time>2023-01-03T16:47:06.156Z</time>
      </trkpt>
      <trkpt lat="43.60833" lon="1.30689">
        <ele>227.50356</ele>
        <time>2023-01-03T16:47:10.148Z</time>
      </trkpt>
      <trkpt lat="43.60842" lon="1.30695">
        <ele>227.566581</ele>
        <time>2023-01-03T16:47:14.170Z</time>
      </trkpt>
      <trkpt lat="43.6085" lon="1.30701">
        <ele>227.689252</ele>
        <time>2023-01-03T16:47:23.175Z</time>
      </trkpt>
      <trkpt lat="43.60847" lon="1.30713">
        <ele>227.813184</ele>
        <time>2023-01-03T16:47:37.147Z</time>
      </trkpt>
      <trkpt lat="43.60855" lon="1.30723">
        <ele>227.970932</ele>
        <time>2023-01-03T16:48:05.154Z</time>
      </trkpt>
      <trkpt lat="43.60865" lon="1.30731">
        <ele>228.127137</ele>
        <time>2023-01-03T16:48:09.168Z</time>
      </trkpt>
      <trkpt lat="43.60874" lon="1.30738">
        <ele>228.270989</ele>
        <time>2023-01-03T16:48:12.189Z</time>
      </trkpt>
      <trkpt lat="43.60884" lon="1.30745">
        <ele>228.413978</ele>
        <time>2023-01-03T16:48:15.174Z</time>
      </trkpt>
      <trkpt lat="43.60893" lon="1.30751">
        <ele>228.555736</ele>
        <time>2023-01-03T16:48:18.179Z</time>
      </trkpt>
      <trkpt lat="43.60902" lon="1.30756">
        <ele>228.69254</ele>
        <time>2023-01-03T16:48:21.176Z</time>
      </trkpt>
      <trkpt lat="43.60912" lon="1.30763">
        <ele>228.837192</ele>
        <time>2023-01-03T16:48:24.151Z</time>
      </trkpt>
      <trkpt lat="43.60921" lon="1.30769">
        <ele>228.985175</ele>
        <time>2023-01-03T16:48:27.176Z</time>
      </trkpt>
      <trkpt lat="43.6093" lon="1.30776">
        <ele>229.122955</ele>
        <time>2023-01-03T16:48:30.177Z</time>
      </trkpt>
      <trkpt lat="43.60939" lon="1.3078">
        <ele>229.248132</ele>
        <time>2023-01-03T16:48:33.160Z</time>
      </trkpt>
      <trkpt lat="43.60948" lon="1.30784">
        <ele>229.382033</ele>
        <time>2023-01-03T16:48:40.157Z</time>
      </trkpt>
      <trkpt lat="43.60957" lon="1.3079">
        <ele>229.519716</ele>
        <time>2023-01-03T16:48:46.148Z</time>
      </trkpt>
      <trkpt lat="43.60968" lon="1.30783">
        <ele>229.676783</ele>
        <time>2023-01-03T16:48:51.172Z</time>
      </trkpt>
      <trkpt lat="43.60977" lon="1.30779">
        <ele>229.808114</ele>
        <time>2023-01-03T16:48:55.152Z</time>
      </trkpt>
      <trkpt lat="43.60981" lon="1.30767">
        <ele>229.938299</ele>
        <time>2023-01-03T16:49:00.160Z</time>
      </trkpt>
      <trkpt lat="43.6099" lon="1.30771">
        <ele>229.952241</ele>
        <time>2023-01-03T16:49:08.164Z</time>
      </trkpt>
      <trkpt lat="43.60992" lon="1.30784">
        <ele>229.91959</ele>
        <time>2023-01-03T16:49:15.153Z</time>
      </trkpt>
      <trkpt lat="43.60997" lon="1.30795">
        <ele>229.888455</ele>
        <time>2023-01-03T16:49:19.158Z</time>
      </trkpt>
      <trkpt lat="43.61002" lon="1.30808">
        <ele>229.851914</ele>
        <time>2023-01-03T16:49:23.174Z</time>
      </trkpt>
      <trkpt lat="43.61004" lon="1.30821">
        <ele>229.819611</ele>
        <time>2023-01-03T16:49:27.164Z</time>
      </trkpt>
      <trkpt lat="43.61012" lon="1.3083">
        <ele>229.783965</ele>
        <time>2023-01-03T16:49:32.145Z</time>
      </trkpt>
      <trkpt lat="43.61016" lon="1.30842">
        <ele>229.752465</ele>
        <time>2023-01-03T16:49:38.151Z</time>
      </trkpt>
      <trkpt lat="43.61025" lon="1.30848">
        <ele>229.720114</ele>
        <time>2023-01-03T16:49:45.175Z</time>
      </trkpt>
      <trkpt lat="43.61034" lon="1.30847">
        <ele>229.688635</ele>
        <time>2023-01-03T16:49:48.175Z</time>
      </trkpt>
      <trkpt lat="43.61045" lon="1.30847">
        <ele>229.65156</ele>
        <time>2023-01-03T16:49:51.151Z</time>
      </trkpt>
      <trkpt lat="43.61056" lon="1.30847">
        <ele>229.614126</ele>
        <time>2023-01-03T16:49:54.145Z</time>
      </trkpt>
      <trkpt lat="43.61068" lon="1.30846">
        <ele>229.574708</ele>
        <time>2023-01-03T16:49:57.151Z</time>
      </trkpt>
      <trkpt lat="43.6108" lon="1.30848">
        <ele>229.535784</ele>
        <time>2023-01-03T16:50:00.183Z</time>
      </trkpt>
      <trkpt lat="43.61091" lon="1.30851">
        <ele>229.498809</ele>
        <time>2023-01-03T16:50:03.152Z</time>
      </trkpt>
      <trkpt lat="43.61101" lon="1.3085">
        <ele>229.464751</ele>
        <time>2023-01-03T16:50:06.159Z</time>
      </trkpt>
      <trkpt lat="43.6111" lon="1.30851">
        <ele>229.432693</ele>
        <time>2023-01-03T16:50:09.152Z</time>
      </trkpt>
      <trkpt lat="43.61122" lon="1.30847">
        <ele>229.39267</ele>
        <time>2023-01-03T16:50:13.147Z</time>
      </trkpt>
      <trkpt lat="43.61133" lon="1.30846">
        <ele>229.344907</ele>
        <time>2023-01-03T16:50:16.148Z</time>
      </trkpt>
      <trkpt lat="43.61145" lon="1.30848">
        <ele>229.278216</ele>
        <time>2023-01-03T16:50:19.146Z</time>
      </trkpt>
      <trkpt lat="43.61154" lon="1.3085">
        <ele>229.228536</ele>
        <time>2023-01-03T16:50:21.147Z</time>
      </trkpt>
      <trkpt lat="43.61164" lon="1.30853">
        <ele>229.176245</ele>
        <time>2023-01-03T16:50:23.163Z</time>
      </trkpt>
      <trkpt lat="43.61176" lon="1.3086">
        <ele>229.101979</ele>
        <time>2023-01-03T16:50:26.173Z</time>
      </trkpt>
      <trkpt lat="43.61185" lon="1.30866">
        <ele>229.048946</ele>
        <time>2023-01-03T16:50:28.157Z</time>
      </trkpt>
      <trkpt lat="43.61194" lon="1.30873">
        <ele>228.993439</ele>
        <time>2023-01-03T16:50:30.155Z</time>
      </trkpt>
      <trkpt lat="43.61205" lon="1.30882">
        <ele>228.923743</ele>
        <time>2023-01-03T16:50:33.168Z</time>
      </trkpt>
      <trkpt lat="43.61214" lon="1.30888">
        <ele>228.871676</ele>
        <time>2023-01-03T16:50:36.154Z</time>
      </trkpt>
      <trkpt lat="43.61227" lon="1.30875">
        <ele>228.783789</ele>
        <time>2023-01-03T16:51:02.156Z</time>
      </trkpt>
      <trkpt lat="43.61236" lon="1.30868">
        <ele>228.726587</ele>
        <time>2023-01-03T16:51:07.148Z</time>
      </trkpt>
      <trkpt lat="43.61245" lon="1.30864">
        <ele>228.677107</ele>
        <time>2023-01-03T16:51:11.156Z</time>
      </trkpt>
      <trkpt lat="43.61254" lon="1.30858">
        <ele>228.621642</ele>
        <time>2023-01-03T16:51:16.158Z</time>
      </trkpt>
      <trkpt lat="43.61263" lon="1.30849">
        <ele>228.558297</ele>
        <time>2023-01-03T16:51:20.176Z</time>
      </trkpt>
      <trkpt lat="43.61269" lon="1.30838">
        <ele>228.505377</ele>
        <time>2023-01-03T16:51:23.175Z</time>
      </trkpt>
      <trkpt lat="43.61276" lon="1.30826">
        <ele>228.447027</ele>
        <time>2023-01-03T16:51:27.158Z</time>
      </trkpt>
      <trkpt lat="43.61285" lon="1.30832">
        <ele>228.400328</ele>
        <time>2023-01-03T16:51:33.162Z</time>
      </trkpt>
      <trkpt lat="43.61291" lon="1.30842">
        <ele>228.465475</ele>
        <time>2023-01-03T16:51:37.156Z</time>
      </trkpt>
      <trkpt lat="43.61287" lon="1.30856">
        <ele>228.544494</ele>
        <time>2023-01-03T16:51:41.162Z</time>
      </trkpt>
      <trkpt lat="43.61289" lon="1.3087">
        <ele>228.615222</ele>
        <time>2023-01-03T16:51:44.157Z</time>
      </trkpt>
      <trkpt lat="43.61293" lon="1.30884">
        <ele>228.693272</ele>
        <time>2023-01-03T16:51:47.153Z</time>
      </trkpt>
      <trkpt lat="43.61296" lon="1.30898">
        <ele>228.768443</ele>
        <time>2023-01-03T16:51:50.155Z</time>
      </trkpt>
      <trkpt lat="43.61301" lon="1.30909">
        <ele>228.833752</ele>
        <time>2023-01-03T16:51:53.170Z</time>
      </trkpt>
      <trkpt lat="43.61308" lon="1.30919">
        <ele>228.907848</ele>
        <time>2023-01-03T16:51:59.173Z</time>
      </trkpt>
      <trkpt lat="43.61307" lon="1.30934">
        <ele>228.981737</ele>
        <time>2023-01-03T16:52:04.176Z</time>
      </trkpt>
      <trkpt lat="43.61316" lon="1.3094">
        <ele>229.056968</ele>
        <time>2023-01-03T16:52:10.171Z</time>
      </trkpt>
      <trkpt lat="43.61327" lon="1.30946">
        <ele>229.136477</ele>
        <time>2023-01-03T16:52:15.192Z</time>
      </trkpt>
      <trkpt lat="43.61336" lon="1.30949">
        <ele>229.203239</ele>
        <time>2023-01-03T16:52:18.174Z</time>
      </trkpt>
      <trkpt lat="43.61345" lon="1.30954">
        <ele>229.270746</ele>
        <time>2023-01-03T16:52:21.177Z</time>
      </trkpt>
      <trkpt lat="43.61354" lon="1.30959">
        <ele>229.338133</ele>
        <time>2023-01-03T16:52:24.157Z</time>
      </trkpt>
      <trkpt lat="43.61363" lon="1.30964">
        <ele>229.409655</ele>
        <time>2023-01-03T16:52:27.153Z</time>
      </trkpt>
      <trkpt lat="43.61373" lon="1.30969">
        <ele>229.483556</ele>
        <time>2023-01-03T16:52:30.163Z</time>
      </trkpt>
      <trkpt lat="43.61383" lon="1.30974">
        <ele>229.556228</ele>
        <time>2023-01-03T16:52:33.170Z</time>
      </trkpt>
      <trkpt lat="43.61392" lon="1.3098">
        <ele>229.624995</ele>
        <time>2023-01-03T16:52:36.164Z</time>
      </trkpt>
      <trkpt lat="43.61403" lon="1.30986">
        <ele>229.485939</ele>
        <time>2023-01-03T16:52:40.178Z</time>
      </trkpt>
      <trkpt lat="43.61413" lon="1.30992">
        <ele>229.172002</ele>
        <time>2023-01-03T16:52:44.162Z</time>
      </trkpt>
      <trkpt lat="43.6142" lon="1.31002">
        <ele>228.888718</ele>
        <time>2023-01-03T16:52:48.167Z</time>
      </trkpt>
      <trkpt lat="43.61425" lon="1.31014">
        <ele>228.601418</ele>
        <time>2023-01-03T16:52:52.152Z</time>
      </trkpt>
      <trkpt lat="43.6143" lon="1.31026">
        <ele>228.313681</ele>
        <time>2023-01-03T16:52:56.171Z</time>
      </trkpt>
      <trkpt lat="43.61426" lon="1.31041">
        <ele>227.994496</ele>
        <time>2023-01-03T16:53:00.166Z</time>
      </trkpt>
      <trkpt lat="43.61422" lon="1.31057">
        <ele>227.642595</ele>
        <time>2023-01-03T16:53:03.151Z</time>
      </trkpt>
      <trkpt lat="43.6142" lon="1.3107">
        <ele>227.381977</ele>
        <time>2023-01-03T16:53:05.174Z</time>
      </trkpt>
      <trkpt lat="43.61417" lon="1.31084">
        <ele>227.080478</ele>
        <time>2023-01-03T16:53:07.151Z</time>
      </trkpt>
      <trkpt lat="43.61416" lon="1.31099">
        <ele>226.772858</ele>
        <time>2023-01-03T16:53:09.175Z</time>
      </trkpt>
      <trkpt lat="43.61415" lon="1.31114">
        <ele>226.468623</ele>
        <time>2023-01-03T16:53:11.176Z</time>
      </trkpt>
      <trkpt lat="43.61414" lon="1.31128">
        <ele>226.178914</ele>
        <time>2023-01-03T16:53:13.169Z</time>
      </trkpt>
      <trkpt lat="43.61411" lon="1.31144">
        <ele>225.843874</ele>
        <time>2023-01-03T16:53:16.156Z</time>
      </trkpt>
      <trkpt lat="43.61406" lon="1.31158">
        <ele>225.519343</ele>
        <time>2023-01-03T16:53:19.151Z</time>
      </trkpt>
      <trkpt lat="43.61402" lon="1.3117">
        <ele>225.255834</ele>
        <time>2023-01-03T16:53:22.150Z</time>
      </trkpt>
      <trkpt lat="43.61412" lon="1.31179">
        <ele>224.930462</ele>
        <time>2023-01-03T16:53:26.154Z</time>
      </trkpt>
      <trkpt lat="43.61421" lon="1.31175">
        <ele>224.652226</ele>
        <time>2023-01-03T16:53:29.157Z</time>
      </trkpt>
      <trkpt lat="43.61431" lon="1.31174">
        <ele>224.436059</ele>
        <time>2023-01-03T16:53:32.150Z</time>
      </trkpt>
      <trkpt lat="43.61442" lon="1.31177">
        <ele>224.23594</ele>
        <time>2023-01-03T16:53:35.150Z</time>
      </trkpt>
      <trkpt lat="43.61454" lon="1.31179">
        <ele>224.000051</ele>
        <time>2023-01-03T16:53:38.156Z</time>
      </trkpt>
      <trkpt lat="43.61465" lon="1.31184">
        <ele>223.778929</ele>
        <time>2023-01-03T16:53:41.158Z</time>
      </trkpt>
      <trkpt lat="43.61472" lon="1.31196">
        <ele>223.560948</ele>
        <time>2023-01-03T16:53:44.154Z</time>
      </trkpt>
      <trkpt lat="43.61477" lon="1.31213">
        <ele>223.323473</ele>
        <time>2023-01-03T16:53:47.147Z</time>
      </trkpt>
      <trkpt lat="43.6148" lon="1.31224">
        <ele>223.151815</ele>
        <time>2023-01-03T16:53:49.160Z</time>
      </trkpt>
      <trkpt lat="43.61483" lon="1.31236">
        <ele>222.975525</ele>
        <time>2023-01-03T16:53:51.152Z</time>
      </trkpt>
      <trkpt lat="43.61487" lon="1.31248">
        <ele>222.794138</ele>
        <time>2023-01-03T16:53:53.162Z</time>
      </trkpt>
      <trkpt lat="43.61492" lon="1.3126">
        <ele>222.609345</ele>
        <time>2023-01-03T16:53:55.156Z</time>
      </trkpt>
      <trkpt lat="43.61503" lon="1.31267">
        <ele>222.385415</ele>
        <time>2023-01-03T16:53:58.175Z</time>
      </trkpt>
      <trkpt lat="43.61512" lon="1.31277">
        <ele>222.166665</ele>
        <time>2023-01-03T16:54:02.156Z</time>
      </trkpt>
      <trkpt lat="43.61521" lon="1.31278">
        <ele>221.987829</ele>
        <time>2023-01-03T16:54:06.167Z</time>
      </trkpt>
      <trkpt lat="43.61531" lon="1.31281">
        <ele>221.803269</ele>
        <time>2023-01-03T16:54:16.153Z</time>
      </trkpt>
      <trkpt lat="43.61541" lon="1.31288">
        <ele>221.594909</ele>
        <time>2023-01-03T16:54:21.149Z</time>
      </trkpt>
      <trkpt lat="43.61549" lon="1.31294">
        <ele>221.409064</ele>
        <time>2023-01-03T16:54:26.154Z</time>
      </trkpt>
      <trkpt lat="43.61558" lon="1.313">
        <ele>221.231035</ele>
        <time>2023-01-03T16:54:30.156Z</time>
      </trkpt>
      <trkpt lat="43.61568" lon="1.31306">
        <ele>221.079432</ele>
        <time>2023-01-03T16:54:34.170Z</time>
      </trkpt>
      <trkpt lat="43.61577" lon="1.3131">
        <ele>220.970821</ele>
        <time>2023-01-03T16:54:40.170Z</time>
      </trkpt>
      <trkpt lat="43.61587" lon="1.31303">
        <ele>220.85265</ele>
        <time>2023-01-03T16:54:46.169Z</time>
      </trkpt>
      <trkpt lat="43.61591" lon="1.31292">
        <ele>220.745907</ele>
        <time>2023-01-03T16:54:49.172Z</time>
      </trkpt>
      <trkpt lat="43.61595" lon="1.3128">
        <ele>220.633376</ele>
        <time>2023-01-03T16:54:52.164Z</time>
      </trkpt>
      <trkpt lat="43.61599" lon="1.31268">
        <ele>220.523129</ele>
        <time>2023-01-03T16:54:55.150Z</time>
      </trkpt>
      <trkpt lat="43.61604" lon="1.31257">
        <ele>220.41947</ele>
        <time>2023-01-03T16:54:58.156Z</time>
      </trkpt>
      <trkpt lat="43.61612" lon="1.31246">
        <ele>220.291085</ele>
        <time>2023-01-03T16:55:02.159Z</time>
      </trkpt>
      <trkpt lat="43.61623" lon="1.31241">
        <ele>220.161275</ele>
        <time>2023-01-03T16:55:06.152Z</time>
      </trkpt>
      <trkpt lat="43.61632" lon="1.31238">
        <ele>220.057499</ele>
        <time>2023-01-03T16:55:09.157Z</time>
      </trkpt>
      <trkpt lat="43.6164" lon="1.31232">
        <ele>219.950728</ele>
        <time>2023-01-03T16:55:13.161Z</time>
      </trkpt>
      <trkpt lat="43.61649" lon="1.31229">
        <ele>219.843694</ele>
        <time>2023-01-03T16:55:17.152Z</time>
      </trkpt>
      <trkpt lat="43.61658" lon="1.31226">
        <ele>219.739286</ele>
        <time>2023-01-03T16:55:23.156Z</time>
      </trkpt>
      <trkpt lat="43.61665" lon="1.3124">
        <ele>219.601837</ele>
        <time>2023-01-03T16:55:34.150Z</time>
      </trkpt>
      <trkpt lat="43.61671" lon="1.31251">
        <ele>219.490975</ele>
        <time>2023-01-03T16:55:36.147Z</time>
      </trkpt>
      <trkpt lat="43.61675" lon="1.31266">
        <ele>219.359667</ele>
        <time>2023-01-03T16:55:38.159Z</time>
      </trkpt>
      <trkpt lat="43.61679" lon="1.31281">
        <ele>219.228039</ele>
        <time>2023-01-03T16:55:40.172Z</time>
      </trkpt>
      <trkpt lat="43.61683" lon="1.31298">
        <ele>219.069876</ele>
        <time>2023-01-03T16:55:42.173Z</time>
      </trkpt>
      <trkpt lat="43.61688" lon="1.31317">
        <ele>218.886549</ele>
        <time>2023-01-03T16:55:44.152Z</time>
      </trkpt>
      <trkpt lat="43.61693" lon="1.31336">
        <ele>218.701042</ele>
        <time>2023-01-03T16:55:46.173Z</time>
      </trkpt>
      <trkpt lat="43.61698" lon="1.31354">
        <ele>218.518867</ele>
        <time>2023-01-03T16:55:48.173Z</time>
      </trkpt>
      <trkpt lat="43.61703" lon="1.31372">
        <ele>218.338614</ele>
        <time>2023-01-03T16:55:50.152Z</time>
      </trkpt>
      <trkpt lat="43.61708" lon="1.31391">
        <ele>218.153529</ele>
        <time>2023-01-03T16:55:52.150Z</time>
      </trkpt>
      <trkpt lat="43.61713" lon="1.31408">
        <ele>217.981912</ele>
        <time>2023-01-03T16:55:54.174Z</time>
      </trkpt>
      <trkpt lat="43.61717" lon="1.31425">
        <ele>217.816963</ele>
        <time>2023-01-03T16:55:56.152Z</time>
      </trkpt>
      <trkpt lat="43.61721" lon="1.31439">
        <ele>217.671631</ele>
        <time>2023-01-03T16:55:58.168Z</time>
      </trkpt>
      <trkpt lat="43.61726" lon="1.31452">
        <ele>217.536933</ele>
        <time>2023-01-03T16:56:00.158Z</time>
      </trkpt>
      <trkpt lat="43.6173" lon="1.31464">
        <ele>217.413454</ele>
        <time>2023-01-03T16:56:02.176Z</time>
      </trkpt>
      <trkpt lat="43.61734" lon="1.3148">
        <ele>217.255511</ele>
        <time>2023-01-03T16:56:05.174Z</time>
      </trkpt>
      <trkpt lat="43.61737" lon="1.31492">
        <ele>217.134728</ele>
        <time>2023-01-03T16:56:08.171Z</time>
      </trkpt>
      <trkpt lat="43.61741" lon="1.31505">
        <ele>217.002425</ele>
        <time>2023-01-03T16:56:13.150Z</time>
      </trkpt>
      <trkpt lat="43.61745" lon="1.31517">
        <ele>216.882761</ele>
        <time>2023-01-03T16:56:18.153Z</time>
      </trkpt>
      <trkpt lat="43.61749" lon="1.31529">
        <ele>217.02911</ele>
        <time>2023-01-03T16:56:23.150Z</time>
      </trkpt>
      <trkpt lat="43.61753" lon="1.31542">
        <ele>217.607198</ele>
        <time>2023-01-03T16:56:28.154Z</time>
      </trkpt>
      <trkpt lat="43.61756" lon="1.31556">
        <ele>218.158419</ele>
        <time>2023-01-03T16:56:33.158Z</time>
      </trkpt>
      <trkpt lat="43.6176" lon="1.31569">
        <ele>218.700951</ele>
        <time>2023-01-03T16:56:38.155Z</time>
      </trkpt>
      <trkpt lat="43.61762" lon="1.31581">
        <ele>219.182297</ele>
        <time>2023-01-03T16:56:43.155Z</time>
      </trkpt>
      <trkpt lat="43.61758" lon="1.31595">
        <ele>219.743948</ele>
        <time>2023-01-03T16:56:49.159Z</time>
      </trkpt>
      <trkpt lat="43.61755" lon="1.31607">
        <ele>220.258881</ele>
        <time>2023-01-03T16:56:54.152Z</time>
      </trkpt>
      <trkpt lat="43.61752" lon="1.31619">
        <ele>220.767811</ele>
        <time>2023-01-03T16:56:59.172Z</time>
      </trkpt>
      <trkpt lat="43.6175" lon="1.31632">
        <ele>221.266172</ele>
        <time>2023-01-03T16:57:04.153Z</time>
      </trkpt>
      <trkpt lat="43.61748" lon="1.31645">
        <ele>221.772414</ele>
        <time>2023-01-03T16:57:09.162Z</time>
      </trkpt>
      <trkpt lat="43.61746" lon="1.31659">
        <ele>222.304257</ele>
        <time>2023-01-03T16:57:14.159Z</time>
      </trkpt>
      <trkpt lat="43.61744" lon="1.31671">
        <ele>222.814494</ele>
        <time>2023-01-03T16:57:19.157Z</time>
      </trkpt>
      <trkpt lat="43.61742" lon="1.31686">
        <ele>223.411041</ele>
        <time>2023-01-03T16:57:25.188Z</time>
      </trkpt>
      <trkpt lat="43.61739" lon="1.31701">
        <ele>224.007589</ele>
        <time>2023-01-03T16:57:30.152Z</time>
      </trkpt>
      <trkpt lat="43.61736" lon="1.31714">
        <ele>224.506062</ele>
        <time>2023-01-03T16:57:34.155Z</time>
      </trkpt>
      <trkpt lat="43.61734" lon="1.31728">
        <ele>225.09108</ele>
        <time>2023-01-03T16:57:38.153Z</time>
      </trkpt>
      <trkpt lat="43.61731" lon="1.31741">
        <ele>225.608761</ele>
        <time>2023-01-03T16:57:42.164Z</time>
      </trkpt>
      <trkpt lat="43.61728" lon="1.31755">
        <ele>226.171722</ele>
        <time>2023-01-03T16:57:46.150Z</time>
      </trkpt>
      <trkpt lat="43.61726" lon="1.31768">
        <ele>226.46458</ele>
        <time>2023-01-03T16:57:49.155Z</time>
      </trkpt>
      <trkpt lat="43.61723" lon="1.31782">
        <ele>226.554927</ele>
        <time>2023-01-03T16:57:52.160Z</time>
      </trkpt>
      <trkpt lat="43.6172" lon="1.31796">
        <ele>226.646476</ele>
        <time>2023-01-03T16:57:55.150Z</time>
      </trkpt>
      <trkpt lat="43.61717" lon="1.31811">
        <ele>226.739812</ele>
        <time>2023-01-03T16:57:58.173Z</time>
      </trkpt>
      <trkpt lat="43.61714" lon="1.31825">
        <ele>226.83279</ele>
        <time>2023-01-03T16:58:01.171Z</time>
      </trkpt>
      <trkpt lat="43.61711" lon="1.31841">
        <ele>226.933226</ele>
        <time>2023-01-03T16:58:04.157Z</time>
      </trkpt>
      <trkpt lat="43.6171" lon="1.31855">
        <ele>227.020993</ele>
        <time>2023-01-03T16:58:07.170Z</time>
      </trkpt>
      <trkpt lat="43.6171" lon="1.31869">
        <ele>227.110991</ele>
        <time>2023-01-03T16:58:10.171Z</time>
      </trkpt>
      <trkpt lat="43.61712" lon="1.31881">
        <ele>227.1882</ele>
        <time>2023-01-03T16:58:13.174Z</time>
      </trkpt>
      <trkpt lat="43.61716" lon="1.31895">
        <ele>227.280852</ele>
        <time>2023-01-03T16:58:17.151Z</time>
      </trkpt>
      <trkpt lat="43.61719" lon="1.31907">
        <ele>227.35913</ele>
        <time>2023-01-03T16:58:22.155Z</time>
      </trkpt>
      <trkpt lat="43.61725" lon="1.3192">
        <ele>227.451513</ele>
        <time>2023-01-03T16:58:26.152Z</time>
      </trkpt>
      <trkpt lat="43.61728" lon="1.31931">
        <ele>227.531129</ele>
        <time>2023-01-03T16:58:29.157Z</time>
      </trkpt>
      <trkpt lat="43.61733" lon="1.31943">
        <ele>227.616928</ele>
        <time>2023-01-03T16:58:32.171Z</time>
      </trkpt>
      <trkpt lat="43.61739" lon="1.31956">
        <ele>227.706288</ele>
        <time>2023-01-03T16:58:35.175Z</time>
      </trkpt>
      <trkpt lat="43.61743" lon="1.31968">
        <ele>227.793568</ele>
        <time>2023-01-03T16:58:38.151Z</time>
      </trkpt>
      <trkpt lat="43.61749" lon="1.3198">
        <ele>227.880037</ele>
        <time>2023-01-03T16:58:41.156Z</time>
      </trkpt>
      <trkpt lat="43.61756" lon="1.31989">
        <ele>227.966919</ele>
        <time>2023-01-03T16:58:45.162Z</time>
      </trkpt>
      <trkpt lat="43.61761" lon="1.32">
        <ele>228.049455</ele>
        <time>2023-01-03T16:58:48.161Z</time>
      </trkpt>
      <trkpt lat="43.61766" lon="1.32012">
        <ele>228.137318</ele>
        <time>2023-01-03T16:58:51.153Z</time>
      </trkpt>
      <trkpt lat="43.61772" lon="1.32026">
        <ele>228.235658</ele>
        <time>2023-01-03T16:58:54.157Z</time>
      </trkpt>
      <trkpt lat="43.61778" lon="1.3204">
        <ele>228.337889</ele>
        <time>2023-01-03T16:58:57.155Z</time>
      </trkpt>
      <trkpt lat="43.61784" lon="1.32053">
        <ele>228.433959</ele>
        <time>2023-01-03T16:59:00.172Z</time>
      </trkpt>
      <trkpt lat="43.61788" lon="1.32066">
        <ele>228.522556</ele>
        <time>2023-01-03T16:59:03.177Z</time>
      </trkpt>
      <trkpt lat="43.61793" lon="1.32077">
        <ele>228.606614</ele>
        <time>2023-01-03T16:59:06.167Z</time>
      </trkpt>
      <trkpt lat="43.61795" lon="1.3209">
        <ele>228.684884</ele>
        <time>2023-01-03T16:59:09.169Z</time>
      </trkpt>
      <trkpt lat="43.61796" lon="1.32105">
        <ele>228.783261</ele>
        <time>2023-01-03T16:59:13.155Z</time>
      </trkpt>
      <trkpt lat="43.61797" lon="1.32118">
        <ele>228.86383</ele>
        <time>2023-01-03T16:59:16.165Z</time>
      </trkpt>
      <trkpt lat="43.61797" lon="1.32133">
        <ele>228.953855</ele>
        <time>2023-01-03T16:59:19.170Z</time>
      </trkpt>
      <trkpt lat="43.61796" lon="1.32148">
        <ele>229.048715</ele>
        <time>2023-01-03T16:59:22.172Z</time>
      </trkpt>
      <trkpt lat="43.61794" lon="1.32165">
        <ele>229.156369</ele>
        <time>2023-01-03T16:59:25.161Z</time>
      </trkpt>
      <trkpt lat="43.61792" lon="1.32182">
        <ele>229.263548</ele>
        <time>2023-01-03T16:59:28.166Z</time>
      </trkpt>
      <trkpt lat="43.61791" lon="1.32199">
        <ele>229.372722</ele>
        <time>2023-01-03T16:59:31.159Z</time>
      </trkpt>
      <trkpt lat="43.61789" lon="1.32217">
        <ele>229.483394</ele>
        <time>2023-01-03T16:59:34.157Z</time>
      </trkpt>
      <trkpt lat="43.61787" lon="1.32235">
        <ele>229.62421</ele>
        <time>2023-01-03T16:59:37.148Z</time>
      </trkpt>
      <trkpt lat="43.61786" lon="1.32253">
        <ele>229.787173</ele>
        <time>2023-01-03T16:59:40.162Z</time>
      </trkpt>
      <trkpt lat="43.61784" lon="1.3227">
        <ele>229.933701</ele>
        <time>2023-01-03T16:59:43.145Z</time>
      </trkpt>
      <trkpt lat="43.61782" lon="1.32287">
        <ele>230.078017</ele>
        <time>2023-01-03T16:59:46.142Z</time>
      </trkpt>
      <trkpt lat="43.61783" lon="1.32303">
        <ele>230.210949</ele>
        <time>2023-01-03T16:59:49.149Z</time>
      </trkpt>
      <trkpt lat="43.61783" lon="1.32318">
        <ele>230.343824</ele>
        <time>2023-01-03T16:59:52.144Z</time>
      </trkpt>
      <trkpt lat="43.61781" lon="1.32333">
        <ele>230.479248</ele>
        <time>2023-01-03T16:59:55.143Z</time>
      </trkpt>
      <trkpt lat="43.61779" lon="1.3235">
        <ele>230.621247</ele>
        <time>2023-01-03T16:59:58.153Z</time>
      </trkpt>
      <trkpt lat="43.61778" lon="1.32367">
        <ele>230.765608</ele>
        <time>2023-01-03T17:00:01.159Z</time>
      </trkpt>
      <trkpt lat="43.61777" lon="1.32383">
        <ele>230.907513</ele>
        <time>2023-01-03T17:00:04.147Z</time>
      </trkpt>
      <trkpt lat="43.61775" lon="1.32401">
        <ele>231.063283</ele>
        <time>2023-01-03T17:00:07.153Z</time>
      </trkpt>
      <trkpt lat="43.61775" lon="1.32419">
        <ele>231.219153</ele>
        <time>2023-01-03T17:00:10.155Z</time>
      </trkpt>
      <trkpt lat="43.61776" lon="1.32436">
        <ele>231.362412</ele>
        <time>2023-01-03T17:00:13.155Z</time>
      </trkpt>
      <trkpt lat="43.61776" lon="1.32452">
        <ele>231.497852</ele>
        <time>2023-01-03T17:00:16.147Z</time>
      </trkpt>
      <trkpt lat="43.61778" lon="1.32466">
        <ele>231.623206</ele>
        <time>2023-01-03T17:00:19.155Z</time>
      </trkpt>
      <trkpt lat="43.61781" lon="1.32481">
        <ele>231.563395</ele>
        <time>2023-01-03T17:00:23.152Z</time>
      </trkpt>
      <trkpt lat="43.61785" lon="1.32495">
        <ele>231.451389</ele>
        <time>2023-01-03T17:00:27.157Z</time>
      </trkpt>
      <trkpt lat="43.61788" lon="1.32507">
        <ele>231.355337</ele>
        <time>2023-01-03T17:00:30.149Z</time>
      </trkpt>
      <trkpt lat="43.61789" lon="1.32521">
        <ele>231.247869</ele>
        <time>2023-01-03T17:00:33.152Z</time>
      </trkpt>
      <trkpt lat="43.61791" lon="1.32537">
        <ele>231.132029</ele>
        <time>2023-01-03T17:00:36.165Z</time>
      </trkpt>
      <trkpt lat="43.61791" lon="1.32553">
        <ele>231.011494</ele>
        <time>2023-01-03T17:00:39.163Z</time>
      </trkpt>
      <trkpt lat="43.61792" lon="1.32569">
        <ele>230.887423</ele>
        <time>2023-01-03T17:00:42.165Z</time>
      </trkpt>
      <trkpt lat="43.61792" lon="1.32586">
        <ele>230.76396</ele>
        <time>2023-01-03T17:00:45.151Z</time>
      </trkpt>
      <trkpt lat="43.61793" lon="1.32605">
        <ele>230.623404</ele>
        <time>2023-01-03T17:00:48.152Z</time>
      </trkpt>
      <trkpt lat="43.61792" lon="1.32618">
        <ele>230.525157</ele>
        <time>2023-01-03T17:00:50.162Z</time>
      </trkpt>
      <trkpt lat="43.61791" lon="1.32636">
        <ele>230.388583</ele>
        <time>2023-01-03T17:00:53.172Z</time>
      </trkpt>
      <trkpt lat="43.61788" lon="1.32653">
        <ele>230.256604</ele>
        <time>2023-01-03T17:00:56.159Z</time>
      </trkpt>
      <trkpt lat="43.61784" lon="1.3267">
        <ele>230.127957</ele>
        <time>2023-01-03T17:00:59.154Z</time>
      </trkpt>
      <trkpt lat="43.61781" lon="1.32683">
        <ele>230.020278</ele>
        <time>2023-01-03T17:01:02.169Z</time>
      </trkpt>
      <trkpt lat="43.61779" lon="1.32696">
        <ele>229.923653</ele>
        <time>2023-01-03T17:01:07.165Z</time>
      </trkpt>
      <trkpt lat="43.61787" lon="1.32706">
        <ele>229.82087</ele>
        <time>2023-01-03T17:01:16.157Z</time>
      </trkpt>
      <trkpt lat="43.61792" lon="1.32719">
        <ele>229.80511</ele>
        <time>2023-01-03T17:01:21.151Z</time>
      </trkpt>
      <trkpt lat="43.618" lon="1.32728">
        <ele>229.817194</ele>
        <time>2023-01-03T17:01:25.164Z</time>
      </trkpt>
      <trkpt lat="43.61803" lon="1.32739">
        <ele>229.828176</ele>
        <time>2023-01-03T17:01:28.166Z</time>
      </trkpt>
      <trkpt lat="43.61812" lon="1.32743">
        <ele>229.839183</ele>
        <time>2023-01-03T17:01:32.159Z</time>
      </trkpt>
      <trkpt lat="43.61823" lon="1.32743">
        <ele>229.852584</ele>
        <time>2023-01-03T17:01:36.153Z</time>
      </trkpt>
      <trkpt lat="43.61832" lon="1.32742">
        <ele>229.863596</ele>
        <time>2023-01-03T17:01:39.151Z</time>
      </trkpt>
      <trkpt lat="43.61843" lon="1.32746">
        <ele>229.876869</ele>
        <time>2023-01-03T17:01:42.172Z</time>
      </trkpt>
      <trkpt lat="43.61854" lon="1.3275">
        <ele>229.891067</ele>
        <time>2023-01-03T17:01:45.167Z</time>
      </trkpt>
      <trkpt lat="43.61866" lon="1.32754">
        <ele>229.905844</ele>
        <time>2023-01-03T17:01:48.153Z</time>
      </trkpt>
      <trkpt lat="43.61879" lon="1.32759">
        <ele>229.92197</ele>
        <time>2023-01-03T17:01:51.172Z</time>
      </trkpt>
      <trkpt lat="43.61888" lon="1.32763">
        <ele>229.93318</ele>
        <time>2023-01-03T17:01:53.151Z</time>
      </trkpt>
      <trkpt lat="43.61896" lon="1.32775">
        <ele>229.947792</ele>
        <time>2023-01-03T17:01:56.184Z</time>
      </trkpt>
      <trkpt lat="43.61897" lon="1.32792">
        <ele>229.962643</ele>
        <time>2023-01-03T17:01:59.170Z</time>
      </trkpt>
      <trkpt lat="43.61895" lon="1.32809">
        <ele>229.977264</ele>
        <time>2023-01-03T17:02:02.167Z</time>
      </trkpt>
      <trkpt lat="43.61893" lon="1.32825">
        <ele>229.991732</ele>
        <time>2023-01-03T17:02:05.159Z</time>
      </trkpt>
      <trkpt lat="43.61893" lon="1.32841">
        <ele>230.005914</ele>
        <time>2023-01-03T17:02:08.172Z</time>
      </trkpt>
      <trkpt lat="43.61896" lon="1.32854">
        <ele>230.011955</ele>
        <time>2023-01-03T17:02:11.173Z</time>
      </trkpt>
      <trkpt lat="43.61901" lon="1.32867">
        <ele>230.011955</ele>
        <time>2023-01-03T17:02:14.152Z</time>
      </trkpt>
      <trkpt lat="43.61908" lon="1.32876">
        <ele>230.011955</ele>
        <time>2023-01-03T17:02:17.153Z</time>
      </trkpt>
      <trkpt lat="43.61918" lon="1.32876">
        <ele>230.011955</ele>
        <time>2023-01-03T17:02:20.177Z</time>
      </trkpt>
      <trkpt lat="43.61929" lon="1.3287">
        <ele>230.011955</ele>
        <time>2023-01-03T17:02:23.175Z</time>
      </trkpt>
      <trkpt lat="43.61942" lon="1.32871">
        <ele>230.011955</ele>
        <time>2023-01-03T17:02:26.153Z</time>
      </trkpt>
      <trkpt lat="43.61956" lon="1.32873">
        <ele>230.011955</ele>
        <time>2023-01-03T17:02:29.172Z</time>
      </trkpt>
      <trkpt lat="43.61967" lon="1.32875">
        <ele>230.011955</ele>
        <time>2023-01-03T17:02:31.157Z</time>
      </trkpt>
      <trkpt lat="43.61977" lon="1.32876">
        <ele>230.011955</ele>
        <time>2023-01-03T17:02:33.174Z</time>
      </trkpt>
      <trkpt lat="43.61987" lon="1.32877">
        <ele>230.011955</ele>
        <time>2023-01-03T17:02:35.156Z</time>
      </trkpt>
      <trkpt lat="43.61997" lon="1.32878">
        <ele>230.011955</ele>
        <time>2023-01-03T17:02:37.152Z</time>
      </trkpt>
      <trkpt lat="43.62006" lon="1.3288">
        <ele>230.011955</ele>
        <time>2023-01-03T17:02:39.182Z</time>
      </trkpt>
      <trkpt lat="43.62015" lon="1.32881">
        <ele>230.011955</ele>
        <time>2023-01-03T17:02:41.170Z</time>
      </trkpt>
      <trkpt lat="43.62027" lon="1.3288">
        <ele>230.011955</ele>
        <time>2023-01-03T17:02:44.159Z</time>
      </trkpt>
      <trkpt lat="43.62038" lon="1.32874">
        <ele>230.011955</ele>
        <time>2023-01-03T17:02:47.166Z</time>
      </trkpt>
      <trkpt lat="43.62047" lon="1.32862">
        <ele>230.011955</ele>
        <time>2023-01-03T17:02:50.153Z</time>
      </trkpt>
      <trkpt lat="43.62051" lon="1.32848">
        <ele>230.011955</ele>
        <time>2023-01-03T17:02:53.173Z</time>
      </trkpt>
      <trkpt lat="43.62054" lon="1.32835">
        <ele>230.011955</ele>
        <time>2023-01-03T17:02:56.159Z</time>
      </trkpt>
      <trkpt lat="43.62058" lon="1.32821">
        <ele>230.011955</ele>
        <time>2023-01-03T17:03:00.171Z</time>
      </trkpt>
      <trkpt lat="43.62061" lon="1.3281">
        <ele>230.011955</ele>
        <time>2023-01-03T17:03:23.943Z</time>
        <extensions>
          <visugpx:TrkExtension xmlns:visugpx="https://www.visugpx.com/editgpx/">
            <visugpx:node>1</visugpx:node>
            </visugpx:TrkExtension>
        </extensions>
      </trkpt>
    </trkseg>
  </trk>
</gpx>